GFSSGP_prec_precacc_018.txt.gz
Total_Precipitation_Accumulation
0.01 0.04 0.13 0.52 0.84 0.30 0.23 0.17 0.14 0.14 0.06 0.02 0.02 0.09 0.08 0.05 0.13 0.10 0.09 0.08 0.03 0.02 0.05 0.24 0.45 0.44 0.25 0.08 0.06 0.05 0.04 0.03 0.00 0.00 0.01 0.00 0.00 0.00 0.00 0.00 0.00 0.00 0.00 0.02 0.00 0.00 0.01 0.02 0.02
0.01 0.14 0.61 1.47 0.79 0.29 0.52 0.17 0.12 0.10 0.05 0.03 0.03 0.05 0.00 0.00 0.00 0.01 0.06 0.03 0.00 0.00 0.01 0.06 0.46 0.28 0.14 0.05 0.04 0.03 0.03 0.00 0.00 0.00 0.00 0.00 0.00 0.00 0.00 0.00 0.00 0.00 0.00 0.02 0.04 0.05 0.04 0.07 0.09
0.06 0.69 1.26 1.06 0.12 0.16 0.36 0.24 0.05 0.01 0.04 0.05 0.03 0.04 0.01 0.00 0.00 0.00 0.00 0.00 0.01 0.00 0.00 0.07 0.15 0.16 0.09 0.03 0.03 0.02 0.02 0.00 0.00 0.00 0.00 0.00 0.00 0.00 0.00 0.00 0.00 0.00 0.00 0.00 0.00 0.02 0.07 0.10 0.11
0.23 2.41 2.67 1.03 0.15 0.06 0.11 0.05 0.12 0.01 0.00 0.01 0.02 0.01 0.00 0.00 0.00 0.00 0.00 0.00 0.01 0.01 0.02 0.04 0.03 0.03 0.01 0.01 0.01 0.02 0.03 0.00 0.00 0.00 0.00 0.00 0.00 0.00 0.00 0.00 0.00 0.00 0.00 0.00 0.00 0.00 0.01 0.10 0.13
0.34 1.25 0.62 0.47 0.02 0.04 0.04 0.15 0.38 0.07 0.04 0.02 0.00 0.00 0.00 0.00 0.00 0.00 0.00 0.01 0.03 0.01 0.00 0.01 0.04 0.03 0.02 0.02 0.01 0.02 0.02 0.00 0.00 0.00 0.00 0.00 0.00 0.00 0.00 0.00 0.00 0.00 0.01 0.05 0.02 0.01 0.02 0.03 0.11
0.74 0.15 0.13 0.03 0.02 0.02 0.03 0.04 0.04 0.07 0.02 0.02 0.00 0.00 0.01 0.00 0.00 0.00 0.00 0.01 0.03 0.01 0.00 0.00 0.03 0.03 0.04 0.02 0.00 0.01 0.00 0.00 0.00 0.00 0.00 0.00 0.00 0.00 0.00 0.00 0.00 0.00 0.01 0.06 0.01 0.01 0.04 0.07 0.08
0.58 0.03 0.01 0.01 0.01 0.01 0.02 0.02 0.01 0.03 0.00 0.01 0.00 0.00 0.01 0.00 0.00 0.00 0.00 0.00 0.01 0.00 0.00 0.00 0.00 0.00 0.03 0.03 0.00 0.00 0.00 0.00 0.00 0.00 0.00 0.00 0.00 0.01 0.00 0.00 0.00 0.01 0.03 0.06 0.01 0.02 0.03 0.05 0.09
0.11 0.04 0.01 0.01 0.01 0.00 0.01 0.00 0.00 0.00 0.00 0.00 0.02 0.00 0.00 0.00 0.00 0.00 0.00 0.00 0.01 0.00 0.01 0.00 0.00 0.00 0.01 0.00 0.00 0.00 0.01 0.00 0.00 0.00 0.00 0.00 0.01 0.02 0.02 0.01 0.04 0.00 0.00 0.01 0.03 0.04 0.06 0.05 0.08
0.13 0.02 0.03 0.00 0.00 0.01 0.00 0.00 0.00 0.00 0.00 0.01 0.07 0.00 0.00 0.00 0.00 0.00 0.00 0.00 0.01 0.01 0.01 0.00 0.00 0.05 0.05 0.00 0.01 0.00 0.00 0.00 0.00 0.00 0.00 0.01 0.09 0.12 0.16 0.15 0.08 0.00 0.00 0.00 0.03 0.03 0.04 0.06 0.08
0.06 0.01 0.00 0.00 0.00 0.00 0.00 0.00 0.00 0.00 0.00 0.00 0.01 0.00 0.00 0.00 0.00 0.00 0.00 0.00 0.00 0.00 0.00 0.00 0.00 0.00 0.00 0.00 0.00 0.00 0.00 0.00 0.00 0.00 0.00 0.00 0.12 0.11 0.14 0.16 0.08 0.07 0.05 0.01 0.06 0.08 0.06 0.04 0.01
0.01 0.01 0.00 0.00 0.00 0.00 0.00 0.00 0.00 0.00 0.00 0.00 0.00 0.00 0.00 0.00 0.00 0.00 0.00 0.00 0.00 0.00 0.00 0.00 0.00 0.01 0.01 0.01 0.00 0.00 0.00 0.00 0.00 0.00 0.01 0.02 0.13 0.24 0.30 0.30 0.69 0.24 0.14 0.23 0.09 0.06 0.02 0.00 0.00
0.00 0.00 0.00 0.00 0.00 0.00 0.00 0.00 0.00 0.00 0.00 0.00 0.00 0.00 0.00 0.00 0.00 0.00 0.00 0.00 0.00 0.00 0.00 0.00 0.00 0.00 0.02 0.01 0.00 0.00 0.00 0.00 0.00 0.00 0.00 0.02 0.05 0.10 0.32 0.46 0.32 0.17 0.21 0.09 0.09 0.04 0.01 0.01 0.00
0.00 0.00 0.00 0.00 0.00 0.00 0.00 0.00 0.00 0.00 0.00 0.00 0.00 0.00 0.00 0.00 0.00 0.00 0.00 0.00 0.00 0.00 0.00 0.00 0.00 0.00 0.01 0.01 0.00 0.00 0.00 0.00 0.00 0.00 0.00 0.01 0.02 0.12 0.27 0.17 0.10 0.06 0.08 0.06 0.04 0.03 0.01 0.00 0.00
0.00 0.00 0.00 0.00 0.00 0.00 0.00 0.00 0.00 0.00 0.00 0.00 0.00 0.00 0.00 0.00 0.00 0.00 0.00 0.00 0.00 0.00 0.00 0.00 0.00 0.00 0.01 0.01 0.01 0.00 0.00 0.00 0.00 0.00 0.00 0.00 0.02 0.08 0.08 0.10 0.03 0.04 0.06 0.03 0.00 0.01 0.00 0.00 0.00
0.00 0.00 0.00 0.00 0.00 0.00 0.01 0.01 0.00 0.00 0.00 0.00 0.00 0.00 0.00 0.00 0.00 0.00 0.00 0.00 0.00 0.00 0.00 0.00 0.00 0.00 0.00 0.02 0.02 0.00 0.00 0.00 0.00 0.00 0.00 0.00 0.02 0.04 0.02 0.08 0.04 0.11 0.10 0.07 0.01 0.02 0.01 0.00 0.00
0.00 0.00 0.00 0.00 0.00 0.00 0.00 0.00 0.00 0.00 0.00 0.00 0.00 0.00 0.00 0.00 0.00 0.00 0.00 0.00 0.00 0.00 0.00 0.00 0.00 0.00 0.00 0.02 0.02 0.00 0.00 0.00 0.00 0.00 0.00 0.00 0.00 0.01 0.03 0.09 0.07 0.12 0.02 0.04 0.02 0.04 0.01 0.00 0.00
0.00 0.00 0.00 0.00 0.00 0.00 0.00 0.00 0.01 0.00 0.00 0.00 0.00 0.00 0.00 0.00 0.00 0.00 0.00 0.00 0.00 0.00 0.00 0.00 0.00 0.00 0.00 0.00 0.01 0.00 0.01 0.03 0.01 0.01 0.00 0.03 0.07 0.11 0.21 0.11 0.07 0.06 0.03 0.04 0.02 0.01 0.01 0.00 0.00
0.00 0.00 0.00 0.00 0.00 0.00 0.00 0.06 0.09 0.00 0.00 0.00 0.00 0.00 0.00 0.00 0.00 0.00 0.00 0.00 0.00 0.00 0.00 0.00 0.00 0.00 0.00 0.07 0.11 0.07 0.04 0.00 0.00 0.00 0.03 0.07 0.04 0.11 0.13 0.06 0.07 0.01 0.03 0.04 0.05 0.01 0.00 0.00 0.00
0.00 0.00 0.00 0.00 0.00 0.00 0.00 0.01 0.08 0.00 0.00 0.00 0.00 0.00 0.00 0.00 0.00 0.00 0.00 0.00 0.00 0.00 0.00 0.00 0.00 0.00 0.01 0.06 0.03 0.03 0.01 0.00 0.00 0.00 0.01 0.02 0.02 0.11 0.09 0.03 0.08 0.04 0.04 0.03 0.00 0.00 0.00 0.00 0.00
0.00 0.00 0.00 0.00 0.00 0.00 0.00 0.00 0.00 0.00 0.00 0.00 0.00 0.00 0.00 0.00 0.00 0.00 0.00 0.00 0.00 0.00 0.00 0.00 0.00 0.00 0.00 0.01 0.01 0.01 0.01 0.00 0.00 0.00 0.01 0.01 0.02 0.04 0.03 0.04 0.04 0.03 0.01 0.00 0.00 0.00 0.00 0.00 0.00
0.00 0.00 0.00 0.00 0.00 0.00 0.00 0.00 0.00 0.00 0.00 0.00 0.00 0.00 0.00 0.00 0.00 0.00 0.00 0.00 0.00 0.00 0.00 0.00 0.00 0.00 0.01 0.02 0.02 0.07 0.08 0.03 0.01 0.00 0.03 0.01 0.02 0.02 0.04 0.06 0.03 0.04 0.00 0.00 0.00 0.00 0.00 0.00 0.00
0.00 0.00 0.00 0.00 0.00 0.00 0.00 0.00 0.00 0.01 0.03 0.01 0.00 0.00 0.00 0.00 0.00 0.00 0.00 0.00 0.00 0.00 0.00 0.00 0.00 0.00 0.01 0.03 0.01 0.05 0.02 0.01 0.00 0.00 0.00 0.01 0.01 0.01 0.01 0.02 0.02 0.01 0.00 0.00 0.00 0.00 0.00 0.00 0.00
0.00 0.00 0.00 0.00 0.00 0.00 0.00 0.00 0.00 0.00 0.00 0.00 0.00 0.00 0.00 0.00 0.00 0.00 0.00 0.00 0.00 0.00 0.00 0.00 0.00 0.00 0.01 0.02 0.01 0.04 0.01 0.00 0.00 0.00 0.00 0.01 0.03 0.00 0.00 0.01 0.01 0.00 0.00 0.00 0.00 0.00 0.00 0.00 0.00
0.00 0.00 0.00 0.00 0.00 0.00 0.00 0.00 0.00 0.00 0.00 0.00 0.00 0.00 0.00 0.00 0.00 0.00 0.00 0.00 0.00 0.00 0.00 0.00 0.00 0.00 0.00 0.01 0.01 0.04 0.03 0.00 0.00 0.00 0.00 0.00 0.00 0.00 0.00 0.00 0.01 0.00 0.00 0.00 0.00 0.00 0.00 0.00 0.00
0.00 0.00 0.00 0.00 0.00 0.00 0.00 0.00 0.00 0.00 0.00 0.00 0.00 0.01 0.00 0.00 0.00 0.00 0.00 0.00 0.00 0.00 0.00 0.00 0.00 0.00 0.00 0.00 0.00 0.01 0.01 0.01 0.01 0.01 0.00 0.00 0.00 0.00 0.00 0.00 0.01 0.00 0.00 0.00 0.00 0.00 0.00 0.00 0.00
0.00 0.00 0.00 0.00 0.00 0.00 0.00 0.00 0.00 0.00 0.00 0.00 0.00 0.00 0.00 0.00 0.00 0.00 0.00 0.00 0.00 0.00 0.00 0.00 0.00 0.00 0.00 0.00 0.00 0.00 0.00 0.00 0.00 0.00 0.00 0.00 0.00 0.00 0.00 0.00 0.00 0.00 0.00 0.00 0.00 0.00 0.00 0.00 0.00
0.00 0.00 0.00 0.00 0.00 0.00 0.00 0.00 0.00 0.00 0.00 0.00 0.00 0.00 0.00 0.00 0.00 0.00 0.00 0.00 0.00 0.00 0.00 0.00 0.00 0.00 0.00 0.00 0.00 0.00 0.00 0.00 0.00 0.00 0.00 0.00 0.00 0.00 0.00 0.00 0.00 0.00 0.00 0.00 0.00 0.00 0.00 0.00 0.00
0.00 0.00 0.00 0.00 0.00 0.00 0.00 0.00 0.00 0.00 0.00 0.00 0.00 0.00 0.00 0.00 0.00 0.00 0.00 0.00 0.00 0.00 0.00 0.00 0.00 0.00 0.00 0.00 0.00 0.00 0.00 0.00 0.00 0.00 0.00 0.00 0.00 0.00 0.00 0.00 0.00 0.00 0.00 0.00 0.00 0.00 0.00 0.00 0.00
0.00 0.00 0.00 0.00 0.00 0.00 0.00 0.00 0.00 0.00 0.00 0.00 0.00 0.00 0.00 0.00 0.00 0.00 0.00 0.00 0.00 0.00 0.00 0.00 0.00 0.00 0.00 0.00 0.00 0.00 0.00 0.00 0.00 0.00 0.00 0.00 0.00 0.00 0.00 0.00 0.00 0.00 0.00 0.00 0.00 0.00 0.00 0.00 0.00
0.00 0.00 0.00 0.00 0.00 0.00 0.00 0.00 0.00 0.00 0.00 0.00 0.00 0.00 0.00 0.00 0.00 0.00 0.00 0.00 0.00 0.00 0.00 0.00 0.00 0.00 0.00 0.00 0.00 0.00 0.00 0.00 0.00 0.00 0.00 0.00 0.00 0.00 0.00 0.00 0.00 0.00 0.00 0.00 0.00 0.00 0.00 0.00 0.00

GFSSGP_prec_precacc_024.txt.gz
Total_Precipitation_Accumulation
0.01 0.08 0.22 0.59 0.98 0.37 0.33 0.24 0.15 0.14 0.06 0.02 0.02 0.09 0.09 0.06 0.13 0.12 0.10 0.09 0.07 0.06 0.07 0.32 0.55 0.55 0.28 0.09 0.08 0.05 0.04 0.03 0.00 0.00 0.01 0.00 0.01 0.00 0.01 0.03 0.02 0.02 0.02 0.03 0.01 0.01 0.02 0.02 0.04
0.03 0.17 0.65 1.48 0.81 0.37 0.61 0.20 0.13 0.10 0.05 0.03 0.03 0.05 0.00 0.00 0.00 0.02 0.08 0.06 0.02 0.00 0.02 0.07 0.62 0.37 0.16 0.05 0.05 0.03 0.03 0.00 0.00 0.00 0.00 0.00 0.02 0.03 0.00 0.00 0.01 0.01 0.01 0.02 0.07 0.06 0.04 0.07 0.09
0.08 0.70 1.27 1.08 0.14 0.20 0.41 0.25 0.05 0.01 0.04 0.05 0.03 0.05 0.01 0.01 0.00 0.01 0.00 0.00 0.01 0.01 0.01 0.08 0.23 0.19 0.10 0.04 0.03 0.02 0.02 0.00 0.00 0.00 0.00 0.01 0.02 0.00 0.00 0.01 0.04 0.05 0.01 0.02 0.00 0.02 0.07 0.10 0.11
0.23 2.42 2.67 1.11 0.21 0.06 0.11 0.05 0.12 0.01 0.00 0.01 0.02 0.01 0.00 0.00 0.00 0.00 0.00 0.00 0.01 0.01 0.02 0.06 0.06 0.04 0.01 0.01 0.01 0.02 0.03 0.00 0.00 0.00 0.00 0.00 0.00 0.00 0.02 0.07 0.08 0.07 0.02 0.00 0.00 0.00 0.01 0.10 0.15
0.34 1.25 0.65 0.52 0.02 0.04 0.04 0.15 0.38 0.07 0.04 0.02 0.00 0.00 0.01 0.01 0.00 0.00 0.00 0.01 0.03 0.01 0.00 0.01 0.07 0.04 0.02 0.02 0.01 0.02 0.02 0.00 0.00 0.00 0.00 0.00 0.00 0.01 0.05 0.06 0.05 0.06 0.02 0.05 0.02 0.01 0.02 0.06 0.19
0.74 0.15 0.13 0.04 0.02 0.02 0.03 0.04 0.04 0.07 0.02 0.02 0.00 0.00 0.03 0.01 0.00 0.00 0.00 0.01 0.03 0.01 0.00 0.00 0.04 0.03 0.06 0.05 0.00 0.01 0.00 0.00 0.00 0.00 0.00 0.00 0.00 0.00 0.00 0.01 0.01 0.02 0.01 0.06 0.01 0.01 0.04 0.08 0.11
0.58 0.03 0.01 0.01 0.01 0.01 0.02 0.02 0.01 0.03 0.01 0.01 0.00 0.00 0.02 0.01 0.00 0.00 0.00 0.00 0.01 0.00 0.00 0.00 0.00 0.00 0.06 0.05 0.00 0.00 0.00 0.00 0.00 0.00 0.00 0.00 0.00 0.01 0.00 0.00 0.00 0.01 0.03 0.06 0.01 0.02 0.03 0.06 0.12
0.11 0.05 0.01 0.01 0.01 0.00 0.01 0.00 0.00 0.00 0.00 0.00 0.02 0.00 0.00 0.00 0.00 0.00 0.00 0.00 0.01 0.00 0.01 0.00 0.00 0.00 0.01 0.00 0.00 0.00 0.01 0.00 0.00 0.00 0.00 0.02 0.05 0.03 0.02 0.02 0.05 0.03 0.01 0.02 0.03 0.04 0.06 0.05 0.09
0.13 0.02 0.03 0.00 0.00 0.01 0.00 0.00 0.00 0.00 0.00 0.01 0.07 0.00 0.00 0.00 0.00 0.00 0.00 0.00 0.01 0.01 0.01 0.00 0.00 0.05 0.05 0.00 0.01 0.00 0.00 0.00 0.00 0.00 0.00 0.02 0.14 0.13 0.18 0.16 0.08 0.06 0.06 0.02 0.04 0.04 0.05 0.06 0.08
0.07 0.01 0.00 0.00 0.00 0.00 0.00 0.00 0.00 0.00 0.00 0.00 0.01 0.00 0.00 0.00 0.00 0.00 0.00 0.00 0.00 0.00 0.00 0.00 0.00 0.00 0.00 0.00 0.00 0.00 0.00 0.00 0.00 0.00 0.00 0.00 0.16 0.12 0.14 0.16 0.08 0.08 0.09 0.06 0.10 0.11 0.09 0.04 0.01
0.01 0.01 0.00 0.00 0.00 0.00 0.00 0.00 0.00 0.00 0.00 0.00 0.00 0.00 0.00 0.00 0.00 0.00 0.00 0.00 0.00 0.00 0.00 0.00 0.00 0.01 0.01 0.01 0.00 0.00 0.00 0.00 0.00 0.00 0.01 0.02 0.13 0.24 0.30 0.30 0.69 0.24 0.14 0.24 0.09 0.06 0.02 0.00 0.00
0.00 0.00 0.00 0.00 0.00 0.00 0.00 0.00 0.00 0.00 0.00 0.00 0.00 0.00 0.00 0.00 0.00 0.00 0.00 0.00 0.00 0.00 0.00 0.00 0.00 0.00 0.02 0.01 0.00 0.00 0.00 0.00 0.00 0.00 0.00 0.02 0.05 0.10 0.32 0.46 0.32 0.17 0.21 0.09 0.09 0.05 0.06 0.04 0.00
0.00 0.00 0.00 0.00 0.00 0.00 0.00 0.00 0.00 0.00 0.00 0.00 0.00 0.00 0.00 0.00 0.00 0.00 0.00 0.00 0.00 0.00 0.00 0.00 0.00 0.00 0.01 0.01 0.00 0.00 0.00 0.00 0.00 0.00 0.00 0.01 0.02 0.13 0.27 0.17 0.10 0.06 0.08 0.06 0.08 0.10 0.09 0.02 0.00
0.00 0.00 0.00 0.00 0.00 0.00 0.00 0.00 0.00 0.00 0.00 0.00 0.00 0.00 0.00 0.00 0.00 0.00 0.00 0.00 0.00 0.00 0.00 0.00 0.00 0.00 0.01 0.01 0.01 0.00 0.00 0.00 0.00 0.00 0.00 0.00 0.02 0.08 0.08 0.10 0.03 0.04 0.07 0.07 0.09 0.09 0.03 0.00 0.00
0.00 0.00 0.00 0.00 0.00 0.00 0.01 0.01 0.00 0.00 0.00 0.00 0.00 0.00 0.00 0.00 0.00 0.00 0.00 0.00 0.00 0.00 0.00 0.00 0.00 0.00 0.00 0.02 0.02 0.00 0.00 0.00 0.00 0.00 0.00 0.00 0.02 0.04 0.03 0.09 0.04 0.11 0.19 0.18 0.11 0.08 0.03 0.00 0.00
0.00 0.00 0.00 0.00 0.00 0.00 0.00 0.00 0.00 0.00 0.00 0.00 0.00 0.00 0.00 0.00 0.00 0.00 0.00 0.00 0.00 0.00 0.00 0.00 0.00 0.00 0.00 0.02 0.02 0.00 0.00 0.00 0.00 0.00 0.00 0.00 0.00 0.01 0.03 0.17 0.14 0.14 0.13 0.16 0.13 0.12 0.07 0.00 0.00
0.00 0.00 0.00 0.00 0.00 0.00 0.00 0.00 0.01 0.00 0.00 0.00 0.00 0.00 0.00 0.00 0.00 0.00 0.00 0.00 0.00 0.00 0.00 0.00 0.00 0.00 0.00 0.00 0.01 0.00 0.01 0.03 0.01 0.01 0.00 0.03 0.07 0.11 0.24 0.19 0.16 0.10 0.06 0.12 0.10 0.08 0.03 0.00 0.00
0.00 0.00 0.00 0.00 0.00 0.00 0.00 0.06 0.09 0.00 0.00 0.00 0.00 0.00 0.00 0.00 0.00 0.00 0.00 0.00 0.00 0.00 0.00 0.00 0.00 0.00 0.00 0.07 0.11 0.07 0.04 0.00 0.00 0.00 0.03 0.07 0.04 0.12 0.13 0.09 0.21 0.07 0.05 0.08 0.13 0.07 0.00 0.00 0.00
0.00 0.00 0.00 0.00 0.00 0.00 0.00 0.01 0.08 0.00 0.00 0.00 0.00 0.00 0.00 0.00 0.00 0.00 0.00 0.00 0.00 0.00 0.00 0.00 0.00 0.00 0.01 0.06 0.03 0.03 0.01 0.00 0.00 0.00 0.01 0.02 0.02 0.11 0.09 0.06 0.21 0.09 0.08 0.10 0.09 0.04 0.00 0.00 0.00
0.00 0.00 0.00 0.00 0.00 0.00 0.00 0.00 0.00 0.00 0.00 0.00 0.00 0.00 0.00 0.00 0.00 0.00 0.00 0.00 0.00 0.00 0.00 0.00 0.00 0.00 0.00 0.01 0.01 0.01 0.01 0.00 0.00 0.00 0.01 0.01 0.02 0.04 0.03 0.12 0.15 0.05 0.06 0.07 0.06 0.05 0.00 0.00 0.00
0.00 0.00 0.00 0.00 0.00 0.00 0.00 0.00 0.00 0.00 0.00 0.00 0.00 0.00 0.00 0.00 0.00 0.00 0.00 0.00 0.00 0.00 0.00 0.00 0.00 0.00 0.01 0.02 0.02 0.07 0.08 0.03 0.01 0.00 0.03 0.01 0.02 0.02 0.04 0.10 0.09 0.11 0.03 0.06 0.04 0.03 0.01 0.00 0.00
0.00 0.00 0.00 0.00 0.00 0.00 0.00 0.00 0.00 0.01 0.03 0.01 0.00 0.00 0.00 0.00 0.00 0.00 0.00 0.00 0.00 0.00 0.00 0.00 0.00 0.00 0.01 0.03 0.01 0.05 0.02 0.01 0.00 0.00 0.00 0.01 0.01 0.01 0.01 0.02 0.06 0.03 0.01 0.04 0.04 0.01 0.00 0.00 0.00
0.00 0.00 0.00 0.00 0.00 0.00 0.00 0.00 0.00 0.00 0.00 0.00 0.00 0.00 0.00 0.00 0.00 0.00 0.00 0.00 0.00 0.00 0.00 0.00 0.00 0.00 0.01 0.02 0.01 0.04 0.01 0.00 0.00 0.00 0.00 0.01 0.03 0.00 0.00 0.02 0.07 0.01 0.01 0.00 0.00 0.00 0.00 0.00 0.00
0.00 0.00 0.00 0.00 0.00 0.00 0.00 0.00 0.00 0.00 0.00 0.00 0.00 0.00 0.00 0.00 0.00 0.00 0.00 0.00 0.00 0.00 0.00 0.00 0.00 0.00 0.00 0.01 0.01 0.04 0.03 0.00 0.00 0.00 0.00 0.00 0.00 0.00 0.00 0.01 0.02 0.02 0.00 0.00 0.00 0.00 0.00 0.00 0.00
0.00 0.00 0.00 0.00 0.00 0.00 0.00 0.00 0.00 0.00 0.00 0.00 0.00 0.01 0.00 0.00 0.00 0.00 0.00 0.00 0.00 0.00 0.00 0.00 0.00 0.00 0.00 0.00 0.00 0.01 0.01 0.01 0.01 0.01 0.00 0.00 0.00 0.00 0.00 0.00 0.01 0.00 0.00 0.00 0.00 0.00 0.00 0.00 0.00
0.00 0.00 0.00 0.00 0.00 0.00 0.00 0.00 0.00 0.00 0.00 0.00 0.00 0.00 0.00 0.00 0.00 0.00 0.00 0.00 0.00 0.00 0.00 0.00 0.00 0.00 0.00 0.00 0.00 0.00 0.00 0.00 0.00 0.00 0.00 0.00 0.00 0.00 0.00 0.00 0.00 0.00 0.00 0.00 0.00 0.00 0.00 0.00 0.00
0.00 0.00 0.00 0.00 0.00 0.00 0.00 0.00 0.00 0.00 0.00 0.00 0.00 0.00 0.00 0.00 0.00 0.00 0.00 0.00 0.00 0.00 0.00 0.00 0.00 0.00 0.00 0.00 0.00 0.00 0.00 0.00 0.00 0.00 0.00 0.00 0.00 0.00 0.00 0.00 0.00 0.00 0.00 0.00 0.00 0.00 0.00 0.00 0.00
0.00 0.00 0.00 0.00 0.00 0.00 0.00 0.00 0.00 0.00 0.00 0.00 0.00 0.00 0.00 0.00 0.00 0.00 0.00 0.00 0.00 0.00 0.00 0.00 0.00 0.00 0.00 0.00 0.00 0.00 0.00 0.00 0.00 0.00 0.00 0.00 0.00 0.00 0.00 0.00 0.00 0.00 0.00 0.00 0.00 0.00 0.00 0.00 0.00
0.00 0.00 0.00 0.00 0.00 0.00 0.00 0.00 0.00 0.00 0.00 0.00 0.00 0.00 0.00 0.00 0.00 0.00 0.00 0.00 0.00 0.00 0.00 0.00 0.00 0.00 0.00 0.00 0.00 0.00 0.00 0.00 0.00 0.00 0.00 0.00 0.00 0.00 0.00 0.00 0.00 0.00 0.00 0.00 0.00 0.00 0.00 0.00 0.00
0.00 0.00 0.00 0.00 0.00 0.00 0.00 0.00 0.00 0.00 0.00 0.00 0.00 0.00 0.00 0.00 0.00 0.00 0.00 0.00 0.00 0.00 0.00 0.00 0.00 0.00 0.00 0.00 0.00 0.00 0.00 0.00 0.00 0.00 0.00 0.00 0.00 0.00 0.00 0.00 0.00 0.00 0.00 0.00 0.00 0.00 0.00 0.00 0.00

GFSSGP_prec_precacc_027.txt.gz
Total_Precipitation_Accumulation
0.01 0.10 0.33 0.67 1.07 0.45 0.48 0.31 0.17 0.14 0.07 0.02 0.02 0.10 0.13 0.09 0.18 0.22 0.11 0.16 0.16 0.24 0.07 0.32 0.56 0.55 0.28 0.09 0.08 0.05 0.04 0.03 0.01 0.00 0.01 0.01 0.03 0.02 0.06 0.07 0.05 0.03 0.02 0.03 0.03 0.01 0.02 0.02 0.05
0.03 0.24 0.79 1.56 0.88 0.65 0.70 0.22 0.14 0.10 0.05 0.03 0.03 0.06 0.00 0.00 0.00 0.03 0.12 0.16 0.04 0.01 0.02 0.07 0.64 0.38 0.16 0.05 0.05 0.03 0.03 0.00 0.00 0.00 0.00 0.02 0.04 0.05 0.01 0.01 0.02 0.01 0.01 0.02 0.07 0.06 0.04 0.07 0.09
0.08 0.74 1.38 1.11 0.27 0.27 0.43 0.27 0.08 0.01 0.04 0.07 0.03 0.06 0.02 0.01 0.00 0.04 0.04 0.05 0.02 0.01 0.01 0.08 0.24 0.20 0.10 0.04 0.03 0.02 0.02 0.00 0.00 0.00 0.01 0.03 0.02 0.03 0.02 0.02 0.04 0.05 0.02 0.02 0.00 0.02 0.07 0.10 0.11
0.24 2.43 2.67 1.16 0.31 0.06 0.12 0.06 0.13 0.01 0.00 0.01 0.03 0.02 0.00 0.00 0.00 0.00 0.00 0.01 0.02 0.02 0.02 0.06 0.06 0.04 0.02 0.01 0.01 0.02 0.03 0.00 0.00 0.00 0.02 0.02 0.01 0.01 0.02 0.07 0.08 0.07 0.02 0.00 0.00 0.00 0.01 0.10 0.15
0.34 1.25 0.70 0.55 0.03 0.04 0.04 0.15 0.39 0.10 0.05 0.02 0.00 0.00 0.01 0.01 0.00 0.00 0.00 0.01 0.03 0.02 0.01 0.01 0.09 0.05 0.02 0.02 0.01 0.02 0.02 0.00 0.00 0.00 0.00 0.00 0.01 0.02 0.06 0.06 0.05 0.06 0.02 0.05 0.02 0.01 0.02 0.06 0.19
0.74 0.24 0.43 0.05 0.02 0.02 0.03 0.04 0.05 0.11 0.02 0.02 0.00 0.00 0.04 0.01 0.00 0.00 0.00 0.01 0.03 0.01 0.00 0.00 0.04 0.03 0.06 0.05 0.00 0.01 0.00 0.00 0.00 0.00 0.00 0.00 0.00 0.01 0.02 0.01 0.01 0.02 0.01 0.06 0.01 0.01 0.04 0.08 0.11
0.58 0.18 0.15 0.02 0.02 0.01 0.02 0.02 0.02 0.03 0.02 0.01 0.00 0.00 0.02 0.01 0.00 0.00 0.00 0.00 0.02 0.01 0.00 0.00 0.00 0.00 0.06 0.06 0.00 0.00 0.00 0.00 0.00 0.00 0.00 0.00 0.00 0.01 0.00 0.00 0.00 0.01 0.03 0.06 0.01 0.02 0.03 0.06 0.12
0.11 0.05 0.01 0.03 0.03 0.00 0.01 0.00 0.00 0.01 0.00 0.00 0.02 0.00 0.00 0.00 0.00 0.00 0.00 0.00 0.01 0.00 0.01 0.00 0.00 0.00 0.01 0.01 0.00 0.00 0.01 0.00 0.00 0.00 0.00 0.02 0.05 0.03 0.02 0.02 0.05 0.03 0.01 0.02 0.03 0.04 0.06 0.05 0.09
0.13 0.02 0.03 0.01 0.02 0.01 0.00 0.00 0.00 0.00 0.00 0.01 0.07 0.00 0.00 0.00 0.00 0.00 0.00 0.00 0.01 0.01 0.01 0.00 0.00 0.05 0.05 0.00 0.01 0.00 0.00 0.00 0.00 0.00 0.00 0.03 0.18 0.16 0.25 0.16 0.08 0.06 0.06 0.02 0.04 0.04 0.05 0.06 0.08
0.07 0.13 0.10 0.00 0.00 0.00 0.00 0.01 0.00 0.00 0.00 0.00 0.01 0.00 0.00 0.00 0.00 0.00 0.00 0.00 0.00 0.00 0.00 0.00 0.00 0.00 0.00 0.00 0.00 0.00 0.00 0.00 0.00 0.00 0.00 0.12 0.16 0.14 0.18 0.16 0.08 0.08 0.09 0.06 0.10 0.11 0.09 0.06 0.04
0.01 0.07 0.06 0.00 0.00 0.00 0.00 0.00 0.00 0.00 0.00 0.00 0.00 0.00 0.00 0.00 0.00 0.00 0.00 0.00 0.00 0.00 0.00 0.00 0.00 0.01 0.01 0.01 0.00 0.00 0.00 0.00 0.00 0.00 0.01 0.04 0.14 0.27 0.34 0.30 0.70 0.24 0.14 0.25 0.11 0.09 0.02 0.00 0.00
0.00 0.01 0.02 0.00 0.00 0.00 0.00 0.00 0.00 0.00 0.00 0.00 0.00 0.00 0.00 0.00 0.00 0.00 0.00 0.00 0.00 0.00 0.00 0.00 0.00 0.00 0.02 0.01 0.00 0.00 0.00 0.00 0.00 0.00 0.00 0.02 0.08 0.11 0.33 0.46 0.32 0.17 0.21 0.10 0.11 0.05 0.06 0.05 0.00
0.00 0.00 0.00 0.00 0.00 0.00 0.00 0.00 0.00 0.00 0.00 0.00 0.00 0.00 0.00 0.00 0.00 0.00 0.00 0.00 0.00 0.00 0.00 0.00 0.00 0.00 0.01 0.01 0.00 0.00 0.00 0.00 0.00 0.00 0.00 0.01 0.03 0.14 0.28 0.17 0.10 0.06 0.09 0.14 0.08 0.10 0.09 0.02 0.01
0.00 0.00 0.00 0.00 0.00 0.00 0.00 0.00 0.00 0.00 0.00 0.00 0.00 0.00 0.00 0.00 0.00 0.00 0.00 0.00 0.00 0.00 0.00 0.00 0.00 0.00 0.01 0.01 0.01 0.00 0.00 0.00 0.00 0.00 0.00 0.00 0.02 0.08 0.09 0.10 0.03 0.05 0.08 0.13 0.09 0.09 0.09 0.00 0.00
0.00 0.00 0.00 0.00 0.00 0.00 0.01 0.01 0.00 0.00 0.00 0.00 0.00 0.00 0.00 0.00 0.00 0.00 0.00 0.00 0.00 0.00 0.00 0.00 0.00 0.00 0.00 0.02 0.02 0.00 0.00 0.00 0.00 0.00 0.00 0.00 0.02 0.05 0.05 0.09 0.04 0.11 0.19 0.18 0.11 0.08 0.20 0.02 0.00
0.00 0.00 0.00 0.00 0.00 0.00 0.00 0.00 0.00 0.00 0.00 0.00 0.00 0.00 0.00 0.00 0.00 0.00 0.00 0.00 0.00 0.00 0.00 0.00 0.00 0.00 0.00 0.02 0.02 0.00 0.00 0.00 0.00 0.00 0.00 0.00 0.00 0.01 0.04 0.20 0.14 0.16 0.13 0.16 0.13 0.12 0.07 0.00 0.00
0.00 0.00 0.00 0.00 0.00 0.00 0.00 0.00 0.01 0.00 0.00 0.00 0.00 0.00 0.00 0.00 0.00 0.00 0.00 0.00 0.00 0.00 0.00 0.00 0.00 0.00 0.00 0.00 0.01 0.00 0.01 0.03 0.01 0.01 0.00 0.03 0.07 0.11 0.25 0.22 0.19 0.11 0.10 0.12 0.10 0.08 0.03 0.00 0.00
0.00 0.00 0.00 0.00 0.00 0.00 0.00 0.06 0.09 0.00 0.00 0.00 0.00 0.00 0.00 0.00 0.00 0.00 0.00 0.00 0.00 0.00 0.00 0.00 0.00 0.00 0.00 0.07 0.11 0.07 0.04 0.00 0.00 0.00 0.03 0.07 0.04 0.12 0.13 0.12 0.22 0.07 0.08 0.10 0.14 0.07 0.00 0.00 0.00
0.00 0.00 0.00 0.00 0.00 0.00 0.00 0.01 0.08 0.00 0.00 0.00 0.00 0.00 0.00 0.00 0.00 0.00 0.00 0.00 0.00 0.00 0.00 0.00 0.00 0.00 0.02 0.06 0.03 0.03 0.01 0.00 0.00 0.00 0.01 0.02 0.02 0.11 0.10 0.13 0.25 0.09 0.09 0.13 0.09 0.04 0.00 0.00 0.00
0.00 0.00 0.00 0.00 0.00 0.00 0.00 0.00 0.00 0.00 0.00 0.00 0.00 0.00 0.00 0.00 0.00 0.00 0.00 0.00 0.00 0.00 0.00 0.00 0.00 0.00 0.00 0.01 0.01 0.01 0.01 0.00 0.00 0.00 0.01 0.01 0.02 0.04 0.10 0.26 0.15 0.05 0.09 0.11 0.07 0.05 0.01 0.00 0.00
0.00 0.00 0.00 0.00 0.00 0.00 0.00 0.00 0.00 0.00 0.00 0.00 0.00 0.00 0.00 0.00 0.00 0.00 0.00 0.00 0.00 0.00 0.00 0.00 0.00 0.00 0.01 0.02 0.02 0.07 0.08 0.03 0.01 0.00 0.03 0.01 0.02 0.02 0.08 0.20 0.10 0.12 0.06 0.18 0.11 0.04 0.02 0.01 0.00
0.00 0.00 0.00 0.00 0.00 0.00 0.00 0.00 0.00 0.01 0.03 0.01 0.00 0.00 0.00 0.00 0.00 0.00 0.00 0.00 0.00 0.00 0.00 0.00 0.00 0.00 0.01 0.03 0.01 0.05 0.02 0.01 0.00 0.00 0.00 0.01 0.01 0.01 0.02 0.08 0.08 0.04 0.01 0.13 0.13 0.01 0.00 0.00 0.00
0.00 0.00 0.00 0.00 0.00 0.00 0.00 0.00 0.00 0.00 0.00 0.00 0.00 0.00 0.00 0.00 0.00 0.00 0.00 0.00 0.00 0.00 0.00 0.00 0.00 0.00 0.01 0.02 0.01 0.04 0.01 0.00 0.00 0.00 0.00 0.01 0.03 0.00 0.00 0.02 0.12 0.02 0.02 0.03 0.08 0.03 0.00 0.00 0.00
0.00 0.00 0.00 0.00 0.00 0.00 0.00 0.00 0.00 0.00 0.00 0.00 0.00 0.00 0.00 0.00 0.00 0.00 0.00 0.00 0.00 0.00 0.00 0.00 0.00 0.00 0.00 0.01 0.01 0.04 0.03 0.00 0.00 0.00 0.00 0.00 0.00 0.00 0.00 0.01 0.03 0.02 0.00 0.00 0.03 0.01 0.00 0.00 0.00
0.00 0.00 0.00 0.00 0.00 0.00 0.00 0.00 0.00 0.00 0.00 0.00 0.00 0.01 0.00 0.00 0.00 0.00 0.00 0.00 0.00 0.00 0.00 0.00 0.00 0.00 0.00 0.00 0.00 0.01 0.01 0.01 0.01 0.01 0.00 0.00 0.00 0.00 0.00 0.01 0.02 0.00 0.00 0.00 0.00 0.01 0.00 0.00 0.00
0.00 0.00 0.00 0.00 0.00 0.00 0.00 0.00 0.00 0.00 0.00 0.00 0.00 0.00 0.00 0.00 0.00 0.00 0.00 0.00 0.00 0.00 0.00 0.00 0.00 0.00 0.00 0.00 0.00 0.00 0.00 0.00 0.00 0.00 0.00 0.00 0.00 0.00 0.00 0.00 0.00 0.00 0.00 0.00 0.00 0.00 0.00 0.00 0.00
0.00 0.00 0.00 0.00 0.00 0.00 0.00 0.00 0.00 0.00 0.00 0.00 0.00 0.00 0.00 0.00 0.00 0.00 0.00 0.00 0.00 0.00 0.00 0.00 0.00 0.00 0.00 0.00 0.00 0.00 0.00 0.00 0.00 0.00 0.00 0.00 0.00 0.00 0.00 0.00 0.00 0.00 0.00 0.00 0.00 0.00 0.00 0.00 0.00
0.00 0.00 0.00 0.00 0.00 0.00 0.00 0.00 0.00 0.00 0.00 0.00 0.00 0.00 0.00 0.00 0.00 0.00 0.00 0.00 0.00 0.00 0.00 0.00 0.00 0.00 0.00 0.00 0.00 0.00 0.00 0.00 0.00 0.00 0.00 0.00 0.00 0.00 0.00 0.00 0.00 0.00 0.00 0.00 0.00 0.00 0.00 0.00 0.00
0.00 0.00 0.00 0.00 0.00 0.00 0.00 0.00 0.00 0.00 0.00 0.00 0.00 0.00 0.00 0.00 0.00 0.00 0.00 0.00 0.00 0.00 0.00 0.00 0.00 0.00 0.00 0.00 0.00 0.00 0.00 0.00 0.00 0.00 0.00 0.00 0.00 0.00 0.00 0.00 0.00 0.00 0.00 0.00 0.00 0.00 0.00 0.00 0.00
0.00 0.00 0.00 0.00 0.00 0.00 0.00 0.00 0.00 0.00 0.00 0.00 0.00 0.00 0.00 0.00 0.00 0.00 0.00 0.00 0.00 0.00 0.00 0.00 0.00 0.00 0.00 0.00 0.00 0.00 0.00 0.00 0.00 0.00 0.00 0.00 0.00 0.00 0.00 0.00 0.00 0.00 0.00 0.00 0.00 0.00 0.00 0.00 0.00

GFSSGP_prec_precacc_030.txt.gz
Total_Precipitation_Accumulation
0.01 0.11 0.37 0.75 1.17 0.67 0.66 0.47 0.30 0.16 0.08 0.03 0.02 0.11 0.18 0.13 0.27 0.26 0.11 0.17 0.16 0.24 0.08 0.32 0.56 0.55 0.28 0.09 0.08 0.06 0.04 0.03 0.01 0.01 0.04 0.02 0.04 0.02 0.06 0.07 0.05 0.03 0.03 0.04 0.03 0.01 0.02 0.02 0.05
0.03 0.29 0.92 1.71 1.07 1.13 0.95 0.25 0.16 0.11 0.06 0.03 0.03 0.06 0.00 0.00 0.01 0.03 0.13 0.16 0.04 0.01 0.02 0.07 0.65 0.40 0.16 0.06 0.06 0.03 0.03 0.00 0.00 0.01 0.04 0.04 0.05 0.05 0.01 0.01 0.02 0.01 0.01 0.02 0.07 0.06 0.04 0.07 0.09
0.09 0.80 1.58 1.27 0.47 0.41 0.50 0.31 0.12 0.02 0.04 0.08 0.04 0.07 0.02 0.02 0.01 0.05 0.06 0.05 0.02 0.01 0.01 0.08 0.24 0.22 0.10 0.05 0.03 0.02 0.02 0.00 0.00 0.01 0.01 0.03 0.02 0.03 0.02 0.02 0.04 0.05 0.02 0.02 0.00 0.02 0.07 0.10 0.11
0.25 2.53 2.75 1.32 0.43 0.11 0.13 0.08 0.14 0.02 0.01 0.02 0.05 0.02 0.00 0.00 0.01 0.01 0.01 0.02 0.02 0.02 0.02 0.06 0.07 0.04 0.02 0.02 0.01 0.02 0.03 0.00 0.00 0.00 0.02 0.02 0.01 0.01 0.02 0.07 0.08 0.07 0.02 0.00 0.00 0.00 0.01 0.10 0.15
0.36 1.29 0.77 0.64 0.06 0.07 0.05 0.15 0.40 0.13 0.07 0.04 0.01 0.00 0.02 0.01 0.00 0.00 0.00 0.02 0.04 0.02 0.01 0.01 0.11 0.06 0.03 0.02 0.01 0.02 0.02 0.01 0.00 0.00 0.00 0.00 0.01 0.02 0.06 0.06 0.05 0.06 0.02 0.05 0.02 0.01 0.02 0.06 0.19
0.80 0.43 0.54 0.09 0.02 0.02 0.03 0.04 0.05 0.13 0.04 0.02 0.00 0.00 0.04 0.01 0.00 0.00 0.01 0.02 0.04 0.02 0.00 0.00 0.05 0.04 0.06 0.05 0.00 0.01 0.00 0.00 0.00 0.00 0.00 0.00 0.00 0.01 0.02 0.01 0.01 0.02 0.01 0.06 0.01 0.01 0.04 0.08 0.11
0.66 1.19 0.67 0.09 0.02 0.02 0.02 0.02 0.02 0.04 0.02 0.01 0.00 0.00 0.03 0.01 0.00 0.00 0.00 0.01 0.02 0.01 0.00 0.00 0.00 0.01 0.06 0.06 0.00 0.00 0.00 0.00 0.00 0.00 0.00 0.00 0.00 0.01 0.00 0.00 0.00 0.01 0.03 0.06 0.01 0.02 0.03 0.06 0.12
0.11 0.26 0.58 0.27 0.07 0.02 0.01 0.00 0.00 0.01 0.01 0.00 0.02 0.00 0.01 0.00 0.00 0.00 0.01 0.01 0.01 0.00 0.01 0.00 0.00 0.00 0.01 0.01 0.00 0.00 0.01 0.00 0.00 0.00 0.00 0.02 0.07 0.04 0.03 0.02 0.05 0.03 0.01 0.02 0.03 0.04 0.06 0.05 0.09
0.14 0.08 0.15 0.06 0.03 0.02 0.01 0.00 0.00 0.01 0.00 0.01 0.07 0.00 0.00 0.00 0.00 0.00 0.00 0.01 0.01 0.01 0.01 0.00 0.00 0.05 0.05 0.00 0.01 0.00 0.00 0.00 0.00 0.00 0.02 0.22 0.30 0.33 0.35 0.16 0.08 0.06 0.06 0.02 0.04 0.04 0.05 0.07 0.08
0.07 0.31 0.21 0.01 0.00 0.01 0.00 0.01 0.00 0.00 0.00 0.00 0.01 0.00 0.00 0.00 0.00 0.00 0.00 0.00 0.00 0.00 0.00 0.00 0.00 0.00 0.00 0.00 0.00 0.00 0.00 0.00 0.00 0.00 0.18 0.71 0.28 0.20 0.23 0.16 0.08 0.08 0.09 0.06 0.10 0.11 0.09 0.10 0.05
0.01 0.15 0.16 0.00 0.00 0.00 0.00 0.00 0.00 0.00 0.00 0.00 0.00 0.00 0.00 0.00 0.00 0.00 0.00 0.00 0.00 0.00 0.00 0.00 0.00 0.01 0.01 0.01 0.00 0.00 0.00 0.00 0.00 0.01 0.21 0.66 0.31 0.30 0.35 0.30 0.70 0.24 0.16 0.25 0.15 0.10 0.02 0.00 0.00
0.00 0.03 0.07 0.00 0.00 0.00 0.00 0.05 0.00 0.00 0.00 0.00 0.00 0.00 0.00 0.00 0.00 0.00 0.00 0.00 0.00 0.00 0.00 0.00 0.00 0.00 0.02 0.01 0.00 0.00 0.00 0.00 0.00 0.00 0.01 0.11 0.26 0.18 0.33 0.47 0.32 0.19 0.24 0.17 0.12 0.06 0.06 0.05 0.00
0.00 0.00 0.00 0.05 0.00 0.00 0.00 0.04 0.07 0.00 0.00 0.00 0.00 0.00 0.00 0.00 0.00 0.00 0.00 0.00 0.00 0.00 0.00 0.00 0.00 0.00 0.01 0.01 0.00 0.00 0.00 0.00 0.00 0.00 0.00 0.07 0.16 0.16 0.28 0.17 0.11 0.08 0.22 0.77 0.12 0.11 0.09 0.03 0.02
0.00 0.00 0.00 0.00 0.00 0.00 0.00 0.00 0.00 0.01 0.00 0.00 0.00 0.00 0.00 0.00 0.00 0.00 0.00 0.00 0.00 0.00 0.00 0.00 0.00 0.00 0.01 0.01 0.01 0.00 0.00 0.00 0.00 0.00 0.00 0.00 0.06 0.11 0.09 0.11 0.03 0.06 0.10 0.22 0.13 0.10 0.23 0.01 0.00
0.00 0.00 0.00 0.00 0.00 0.00 0.01 0.01 0.00 0.01 0.00 0.00 0.00 0.00 0.00 0.00 0.00 0.00 0.00 0.00 0.00 0.00 0.00 0.00 0.00 0.00 0.00 0.02 0.02 0.00 0.00 0.00 0.00 0.00 0.00 0.00 0.02 0.05 0.05 0.10 0.06 0.14 0.20 0.18 0.12 0.10 0.27 0.02 0.00
0.00 0.00 0.00 0.00 0.00 0.00 0.00 0.00 0.00 0.00 0.00 0.00 0.00 0.00 0.00 0.00 0.00 0.00 0.00 0.00 0.00 0.00 0.00 0.00 0.00 0.00 0.00 0.02 0.02 0.00 0.00 0.00 0.00 0.00 0.00 0.00 0.00 0.01 0.04 0.21 0.16 0.21 0.14 0.16 0.13 0.12 0.07 0.00 0.00
0.00 0.00 0.00 0.00 0.00 0.00 0.00 0.00 0.01 0.00 0.00 0.00 0.00 0.00 0.00 0.00 0.00 0.00 0.00 0.00 0.00 0.00 0.00 0.00 0.00 0.00 0.00 0.00 0.01 0.00 0.01 0.03 0.01 0.01 0.00 0.03 0.07 0.11 0.25 0.22 0.19 0.13 0.17 0.13 0.10 0.08 0.03 0.00 0.00
0.00 0.00 0.00 0.00 0.00 0.00 0.00 0.06 0.09 0.00 0.00 0.00 0.00 0.00 0.00 0.00 0.00 0.00 0.00 0.00 0.00 0.00 0.00 0.00 0.00 0.00 0.00 0.07 0.11 0.07 0.04 0.00 0.00 0.00 0.03 0.07 0.04 0.12 0.13 0.14 0.25 0.09 0.10 0.10 0.14 0.07 0.00 0.00 0.00
0.00 0.00 0.00 0.00 0.00 0.00 0.00 0.01 0.08 0.00 0.14 0.03 0.00 0.00 0.00 0.00 0.00 0.00 0.00 0.00 0.00 0.00 0.00 0.00 0.00 0.01 0.02 0.07 0.03 0.03 0.01 0.00 0.00 0.00 0.01 0.02 0.02 0.11 0.13 0.19 0.29 0.13 0.12 0.14 0.09 0.04 0.00 0.00 0.00
0.00 0.00 0.00 0.00 0.00 0.00 0.00 0.00 0.00 0.00 0.03 0.01 0.00 0.01 0.00 0.00 0.00 0.00 0.00 0.00 0.00 0.00 0.00 0.00 0.00 0.00 0.00 0.01 0.01 0.01 0.01 0.00 0.00 0.00 0.01 0.01 0.02 0.05 0.14 0.30 0.17 0.09 0.12 0.13 0.07 0.06 0.04 0.00 0.00
0.00 0.00 0.00 0.00 0.00 0.00 0.00 0.00 0.00 0.00 0.00 0.00 0.00 0.00 0.00 0.00 0.00 0.00 0.00 0.00 0.00 0.00 0.00 0.00 0.00 0.00 0.01 0.02 0.02 0.07 0.08 0.03 0.01 0.00 0.03 0.01 0.02 0.02 0.14 0.24 0.11 0.18 0.11 0.23 0.14 0.04 0.02 0.01 0.00
0.00 0.00 0.00 0.00 0.00 0.00 0.00 0.00 0.00 0.01 0.03 0.01 0.00 0.00 0.02 0.00 0.00 0.00 0.00 0.00 0.00 0.00 0.00 0.00 0.00 0.00 0.01 0.03 0.01 0.05 0.02 0.01 0.00 0.00 0.00 0.01 0.01 0.01 0.03 0.08 0.09 0.06 0.04 0.15 0.16 0.02 0.01 0.00 0.00
0.00 0.00 0.00 0.00 0.00 0.00 0.00 0.00 0.00 0.00 0.00 0.00 0.00 0.00 0.01 0.00 0.00 0.00 0.00 0.00 0.00 0.00 0.00 0.00 0.00 0.00 0.01 0.02 0.01 0.04 0.01 0.00 0.00 0.00 0.00 0.01 0.03 0.00 0.00 0.02 0.12 0.03 0.03 0.06 0.11 0.03 0.00 0.00 0.00
0.00 0.00 0.00 0.00 0.00 0.00 0.00 0.00 0.00 0.00 0.00 0.00 0.00 0.00 0.00 0.00 0.00 0.00 0.00 0.00 0.00 0.00 0.00 0.00 0.00 0.00 0.00 0.01 0.01 0.04 0.03 0.00 0.00 0.00 0.00 0.00 0.00 0.00 0.00 0.02 0.04 0.04 0.01 0.03 0.07 0.03 0.00 0.00 0.00
0.00 0.00 0.00 0.00 0.00 0.00 0.00 0.00 0.00 0.00 0.00 0.00 0.00 0.01 0.00 0.00 0.00 0.00 0.00 0.00 0.00 0.00 0.00 0.00 0.00 0.00 0.00 0.00 0.00 0.01 0.01 0.01 0.01 0.01 0.00 0.00 0.00 0.00 0.00 0.01 0.04 0.01 0.00 0.01 0.01 0.02 0.00 0.00 0.00
0.00 0.00 0.00 0.00 0.00 0.00 0.00 0.00 0.00 0.00 0.00 0.00 0.00 0.00 0.00 0.00 0.00 0.00 0.00 0.00 0.00 0.00 0.00 0.00 0.00 0.00 0.00 0.00 0.00 0.00 0.00 0.00 0.00 0.00 0.00 0.00 0.00 0.00 0.00 0.00 0.00 0.00 0.00 0.00 0.00 0.00 0.00 0.00 0.00
0.00 0.00 0.00 0.00 0.00 0.00 0.00 0.00 0.00 0.00 0.00 0.00 0.00 0.00 0.00 0.00 0.00 0.00 0.00 0.00 0.00 0.00 0.00 0.00 0.00 0.00 0.00 0.00 0.00 0.00 0.00 0.00 0.00 0.00 0.00 0.00 0.00 0.00 0.00 0.00 0.00 0.00 0.00 0.00 0.00 0.00 0.00 0.00 0.00
0.00 0.00 0.00 0.00 0.00 0.00 0.00 0.00 0.00 0.00 0.00 0.00 0.00 0.00 0.00 0.00 0.00 0.00 0.00 0.00 0.00 0.00 0.00 0.00 0.00 0.00 0.00 0.00 0.00 0.00 0.00 0.00 0.00 0.00 0.00 0.00 0.00 0.00 0.00 0.00 0.00 0.00 0.00 0.00 0.00 0.00 0.00 0.00 0.00
0.00 0.00 0.00 0.00 0.00 0.00 0.00 0.00 0.00 0.00 0.00 0.00 0.00 0.00 0.00 0.00 0.00 0.00 0.00 0.00 0.00 0.00 0.00 0.00 0.00 0.00 0.00 0.00 0.00 0.00 0.00 0.00 0.00 0.00 0.00 0.00 0.00 0.00 0.00 0.00 0.00 0.00 0.00 0.00 0.00 0.00 0.00 0.00 0.00
0.00 0.00 0.00 0.00 0.00 0.00 0.00 0.00 0.00 0.00 0.00 0.00 0.00 0.00 0.00 0.00 0.00 0.00 0.00 0.00 0.00 0.00 0.00 0.00 0.00 0.00 0.00 0.00 0.00 0.00 0.00 0.00 0.00 0.00 0.00 0.00 0.00 0.00 0.00 0.00 0.00 0.00 0.00 0.00 0.00 0.00 0.00 0.00 0.00

GFSSGP_prec_precacc_033.txt.gz
Total_Precipitation_Accumulation
0.01 0.11 0.38 0.82 1.30 0.79 0.74 0.51 0.33 0.19 0.11 0.05 0.03 0.13 0.23 0.18 0.32 0.27 0.11 0.17 0.16 0.24 0.08 0.32 0.56 0.55 0.31 0.12 0.10 0.06 0.04 0.03 0.01 0.01 0.04 0.02 0.04 0.03 0.07 0.08 0.05 0.03 0.03 0.04 0.03 0.01 0.02 0.02 0.05
0.03 0.32 1.00 1.84 1.19 1.52 1.40 0.34 0.23 0.12 0.07 0.04 0.03 0.06 0.01 0.01 0.03 0.03 0.13 0.16 0.04 0.01 0.02 0.07 0.65 0.40 0.19 0.09 0.07 0.03 0.03 0.00 0.00 0.01 0.04 0.04 0.05 0.06 0.01 0.01 0.02 0.01 0.01 0.02 0.07 0.06 0.04 0.07 0.09
0.09 0.89 1.71 1.41 0.62 0.87 0.60 0.37 0.16 0.03 0.04 0.08 0.04 0.07 0.02 0.02 0.01 0.05 0.06 0.05 0.02 0.01 0.01 0.08 0.24 0.23 0.14 0.08 0.04 0.02 0.02 0.00 0.00 0.01 0.01 0.03 0.02 0.03 0.02 0.02 0.04 0.05 0.02 0.02 0.00 0.02 0.07 0.10 0.11
0.26 2.61 2.86 1.44 0.57 0.17 0.17 0.12 0.19 0.03 0.01 0.02 0.05 0.02 0.00 0.00 0.01 0.01 0.01 0.02 0.02 0.02 0.02 0.06 0.07 0.05 0.05 0.03 0.01 0.02 0.03 0.00 0.00 0.00 0.02 0.02 0.01 0.01 0.02 0.07 0.08 0.07 0.02 0.00 0.00 0.00 0.01 0.10 0.15
0.38 1.38 0.83 0.80 0.33 0.31 0.09 0.18 0.45 0.19 0.07 0.04 0.02 0.01 0.02 0.01 0.00 0.00 0.00 0.02 0.04 0.03 0.01 0.01 0.11 0.08 0.04 0.03 0.01 0.02 0.02 0.01 0.00 0.00 0.00 0.00 0.01 0.02 0.06 0.06 0.05 0.06 0.02 0.05 0.02 0.01 0.02 0.06 0.19
0.86 0.45 0.56 0.15 0.08 0.11 0.08 0.05 0.07 0.15 0.04 0.02 0.00 0.00 0.05 0.01 0.00 0.00 0.01 0.02 0.04 0.02 0.00 0.00 0.05 0.05 0.06 0.05 0.00 0.01 0.00 0.00 0.00 0.00 0.00 0.00 0.00 0.01 0.02 0.01 0.01 0.02 0.01 0.06 0.01 0.01 0.04 0.08 0.11
0.70 1.21 0.86 0.15 0.16 0.09 0.04 0.04 0.03 0.05 0.03 0.01 0.00 0.00 0.04 0.01 0.00 0.00 0.00 0.01 0.02 0.01 0.00 0.00 0.00 0.01 0.06 0.06 0.00 0.00 0.00 0.00 0.00 0.00 0.00 0.00 0.00 0.01 0.00 0.00 0.00 0.01 0.03 0.06 0.01 0.02 0.03 0.06 0.12
0.15 0.48 1.87 0.63 0.09 0.15 0.11 0.01 0.01 0.02 0.03 0.00 0.02 0.00 0.01 0.00 0.00 0.00 0.01 0.01 0.01 0.00 0.01 0.00 0.00 0.00 0.01 0.01 0.00 0.00 0.01 0.00 0.00 0.00 0.01 0.04 0.07 0.04 0.03 0.03 0.05 0.03 0.01 0.02 0.03 0.04 0.06 0.05 0.09
0.17 0.94 1.38 0.40 0.03 0.05 0.11 0.04 0.02 0.02 0.00 0.03 0.07 0.00 0.00 0.00 0.00 0.00 0.01 0.01 0.01 0.01 0.01 0.00 0.00 0.05 0.05 0.00 0.01 0.00 0.00 0.00 0.00 0.01 0.06 0.31 0.34 0.35 0.38 0.17 0.08 0.06 0.06 0.02 0.04 0.04 0.05 0.07 0.08
0.17 0.49 0.34 0.02 0.01 0.05 0.05 0.05 0.01 0.00 0.00 0.02 0.01 0.00 0.00 0.00 0.00 0.00 0.00 0.00 0.00 0.00 0.00 0.00 0.00 0.00 0.00 0.00 0.00 0.00 0.00 0.00 0.00 0.01 0.19 0.80 0.32 0.21 0.25 0.16 0.09 0.08 0.09 0.06 0.10 0.11 0.09 0.10 0.05
0.04 0.18 0.17 0.00 0.00 0.02 0.01 0.02 0.03 0.01 0.00 0.00 0.00 0.00 0.00 0.00 0.00 0.00 0.00 0.00 0.00 0.00 0.00 0.00 0.00 0.01 0.01 0.01 0.00 0.00 0.00 0.00 0.00 0.03 0.26 0.84 0.35 0.34 0.41 0.31 0.70 0.24 0.16 0.25 0.15 0.10 0.03 0.00 0.00
0.00 0.03 0.09 0.00 0.00 0.00 0.01 0.07 0.05 0.00 0.00 0.00 0.00 0.00 0.00 0.00 0.00 0.00 0.00 0.00 0.00 0.00 0.00 0.00 0.00 0.00 0.02 0.01 0.00 0.00 0.00 0.00 0.00 0.01 0.06 0.18 0.30 0.24 0.35 0.50 0.33 0.19 0.26 0.18 0.12 0.06 0.07 0.05 0.00
0.00 0.00 0.00 0.05 0.00 0.00 0.00 0.14 0.10 0.00 0.00 0.00 0.00 0.00 0.00 0.00 0.00 0.00 0.00 0.00 0.00 0.00 0.00 0.00 0.00 0.00 0.01 0.01 0.00 0.00 0.00 0.00 0.00 0.00 0.00 0.11 0.23 0.21 0.31 0.20 0.16 0.10 0.22 0.78 0.13 0.13 0.10 0.03 0.02
0.00 0.00 0.00 0.02 0.00 0.00 0.00 0.00 0.00 0.01 0.00 0.00 0.00 0.00 0.00 0.00 0.00 0.00 0.00 0.00 0.00 0.00 0.00 0.00 0.00 0.00 0.01 0.01 0.01 0.00 0.00 0.00 0.00 0.00 0.00 0.01 0.09 0.15 0.15 0.19 0.10 0.08 0.11 0.22 0.14 0.10 0.24 0.01 0.00
0.00 0.00 0.00 0.00 0.00 0.00 0.01 0.01 0.00 0.01 0.00 0.00 0.00 0.00 0.00 0.00 0.00 0.00 0.00 0.00 0.00 0.00 0.00 0.00 0.00 0.00 0.00 0.02 0.02 0.00 0.00 0.00 0.00 0.00 0.00 0.00 0.03 0.06 0.07 0.13 0.07 0.15 0.22 0.18 0.12 0.12 0.27 0.02 0.00
0.00 0.00 0.00 0.00 0.00 0.00 0.00 0.00 0.00 0.00 0.00 0.00 0.00 0.00 0.00 0.00 0.00 0.00 0.00 0.00 0.00 0.00 0.00 0.00 0.00 0.00 0.00 0.02 0.02 0.00 0.00 0.00 0.00 0.00 0.00 0.00 0.00 0.02 0.08 0.26 0.19 0.23 0.16 0.17 0.13 0.12 0.07 0.00 0.00
0.00 0.00 0.00 0.00 0.00 0.00 0.00 0.00 0.01 0.00 0.00 0.01 0.00 0.00 0.00 0.00 0.00 0.00 0.00 0.00 0.00 0.00 0.00 0.00 0.00 0.00 0.00 0.00 0.01 0.00 0.01 0.03 0.01 0.01 0.00 0.03 0.07 0.11 0.27 0.27 0.25 0.14 0.18 0.13 0.10 0.08 0.04 0.00 0.00
0.00 0.00 0.00 0.00 0.00 0.00 0.00 0.06 0.09 0.00 0.02 0.15 0.08 0.03 0.00 0.00 0.00 0.00 0.00 0.00 0.00 0.00 0.00 0.00 0.00 0.00 0.00 0.07 0.11 0.07 0.04 0.00 0.00 0.00 0.03 0.07 0.04 0.12 0.14 0.20 0.31 0.12 0.10 0.11 0.14 0.07 0.00 0.00 0.00
0.00 0.00 0.00 0.00 0.00 0.00 0.00 0.01 0.08 0.00 0.18 0.47 0.22 0.10 0.02 0.00 0.00 0.00 0.00 0.00 0.00 0.00 0.00 0.00 0.00 0.01 0.02 0.07 0.03 0.03 0.01 0.00 0.00 0.00 0.01 0.02 0.02 0.11 0.13 0.19 0.34 0.15 0.12 0.14 0.09 0.04 0.00 0.00 0.00
0.00 0.00 0.00 0.00 0.00 0.00 0.00 0.00 0.00 0.00 0.06 0.22 0.14 0.08 0.03 0.00 0.00 0.00 0.00 0.00 0.00 0.00 0.00 0.00 0.00 0.00 0.00 0.01 0.01 0.01 0.01 0.00 0.00 0.00 0.01 0.01 0.02 0.05 0.14 0.31 0.19 0.10 0.13 0.13 0.08 0.07 0.04 0.00 0.00
0.00 0.00 0.00 0.00 0.00 0.00 0.00 0.00 0.00 0.00 0.00 0.01 0.06 0.04 0.09 0.00 0.00 0.00 0.00 0.00 0.00 0.00 0.00 0.00 0.00 0.00 0.01 0.02 0.02 0.07 0.08 0.03 0.01 0.00 0.03 0.01 0.02 0.02 0.14 0.24 0.13 0.19 0.11 0.23 0.15 0.04 0.02 0.01 0.00
0.00 0.00 0.00 0.00 0.00 0.00 0.00 0.00 0.00 0.01 0.03 0.01 0.00 0.00 0.07 0.01 0.01 0.00 0.00 0.00 0.00 0.00 0.00 0.00 0.00 0.00 0.01 0.03 0.01 0.05 0.02 0.01 0.00 0.00 0.00 0.01 0.01 0.01 0.03 0.08 0.10 0.07 0.04 0.15 0.17 0.02 0.01 0.00 0.00
0.00 0.00 0.00 0.00 0.00 0.00 0.00 0.00 0.00 0.00 0.00 0.00 0.00 0.00 0.10 0.15 0.01 0.01 0.00 0.00 0.00 0.00 0.00 0.00 0.00 0.00 0.01 0.02 0.01 0.04 0.01 0.00 0.00 0.00 0.00 0.01 0.03 0.00 0.00 0.02 0.12 0.03 0.04 0.06 0.11 0.03 0.00 0.00 0.00
0.00 0.00 0.00 0.00 0.00 0.00 0.00 0.00 0.00 0.00 0.00 0.00 0.00 0.00 0.00 0.00 0.00 0.01 0.00 0.00 0.00 0.00 0.00 0.00 0.00 0.00 0.00 0.01 0.01 0.04 0.03 0.00 0.00 0.00 0.00 0.00 0.00 0.00 0.00 0.02 0.04 0.04 0.01 0.03 0.07 0.03 0.00 0.00 0.00
0.00 0.00 0.00 0.00 0.00 0.00 0.00 0.00 0.00 0.00 0.00 0.00 0.00 0.01 0.00 0.00 0.00 0.01 0.00 0.00 0.00 0.00 0.00 0.00 0.00 0.00 0.00 0.00 0.00 0.01 0.01 0.01 0.01 0.01 0.00 0.00 0.00 0.00 0.00 0.01 0.04 0.01 0.00 0.01 0.01 0.02 0.00 0.00 0.00
0.00 0.00 0.00 0.00 0.00 0.00 0.00 0.00 0.00 0.00 0.00 0.00 0.00 0.00 0.00 0.00 0.00 0.00 0.00 0.00 0.00 0.00 0.00 0.00 0.00 0.00 0.00 0.00 0.00 0.00 0.00 0.00 0.00 0.00 0.00 0.00 0.00 0.00 0.00 0.00 0.00 0.00 0.00 0.00 0.00 0.00 0.00 0.00 0.00
0.00 0.00 0.00 0.00 0.00 0.00 0.00 0.00 0.00 0.00 0.00 0.00 0.00 0.00 0.00 0.00 0.00 0.00 0.00 0.00 0.00 0.00 0.00 0.00 0.00 0.00 0.00 0.00 0.00 0.00 0.00 0.00 0.00 0.00 0.00 0.00 0.00 0.00 0.00 0.00 0.00 0.00 0.00 0.00 0.00 0.00 0.00 0.00 0.00
0.00 0.00 0.00 0.00 0.00 0.00 0.00 0.00 0.00 0.00 0.00 0.00 0.00 0.00 0.00 0.00 0.00 0.00 0.00 0.00 0.00 0.00 0.00 0.00 0.00 0.00 0.00 0.00 0.00 0.00 0.00 0.00 0.00 0.00 0.00 0.00 0.00 0.00 0.00 0.00 0.00 0.00 0.00 0.00 0.00 0.00 0.00 0.00 0.00
0.00 0.00 0.00 0.00 0.00 0.00 0.00 0.00 0.00 0.00 0.00 0.00 0.00 0.00 0.00 0.00 0.00 0.00 0.00 0.00 0.00 0.00 0.00 0.00 0.00 0.00 0.00 0.00 0.00 0.00 0.00 0.00 0.00 0.00 0.00 0.00 0.00 0.00 0.00 0.00 0.00 0.00 0.00 0.00 0.00 0.00 0.00 0.00 0.00
0.00 0.00 0.00 0.00 0.00 0.00 0.00 0.00 0.00 0.00 0.00 0.00 0.00 0.00 0.00 0.00 0.00 0.00 0.00 0.00 0.00 0.00 0.00 0.00 0.00 0.00 0.00 0.00 0.00 0.00 0.00 0.00 0.00 0.00 0.00 0.00 0.00 0.00 0.00 0.00 0.00 0.00 0.00 0.00 0.00 0.00 0.00 0.00 0.00

GFSSGP_prec_precacc_036.txt.gz
Total_Precipitation_Accumulation
0.01 0.11 0.38 0.83 1.46 0.80 0.74 0.53 0.38 0.22 0.14 0.09 0.04 0.15 0.24 0.18 0.32 0.27 0.11 0.17 0.16 0.24 0.08 0.33 0.58 0.56 0.31 0.13 0.10 0.06 0.04 0.03 0.01 0.01 0.04 0.02 0.04 0.03 0.07 0.08 0.05 0.04 0.03 0.04 0.03 0.01 0.02 0.02 0.05
0.03 0.33 1.02 1.94 1.25 1.69 1.43 0.50 0.31 0.15 0.09 0.05 0.04 0.06 0.01 0.01 0.03 0.04 0.13 0.16 0.04 0.01 0.02 0.07 0.66 0.41 0.19 0.09 0.07 0.03 0.03 0.00 0.00 0.01 0.04 0.04 0.05 0.06 0.01 0.01 0.02 0.01 0.01 0.02 0.07 0.06 0.04 0.07 0.09
0.09 0.98 1.85 1.49 0.78 0.99 0.69 0.56 0.18 0.05 0.05 0.08 0.05 0.07 0.02 0.02 0.01 0.05 0.06 0.05 0.02 0.01 0.01 0.08 0.24 0.23 0.14 0.08 0.04 0.02 0.02 0.00 0.00 0.01 0.01 0.04 0.02 0.03 0.02 0.02 0.04 0.05 0.02 0.02 0.00 0.02 0.07 0.10 0.11
0.26 2.68 2.98 1.52 0.67 0.19 0.17 0.16 0.22 0.06 0.04 0.05 0.05 0.02 0.00 0.00 0.01 0.01 0.01 0.02 0.02 0.02 0.02 0.06 0.07 0.05 0.06 0.03 0.02 0.02 0.03 0.01 0.00 0.00 0.02 0.02 0.01 0.01 0.02 0.07 0.08 0.07 0.02 0.00 0.00 0.00 0.01 0.11 0.16
0.39 1.51 0.93 1.02 0.45 0.33 0.11 0.21 0.51 0.26 0.16 0.07 0.02 0.01 0.02 0.01 0.00 0.00 0.00 0.02 0.04 0.03 0.01 0.01 0.11 0.08 0.05 0.03 0.01 0.02 0.02 0.01 0.00 0.00 0.00 0.00 0.01 0.02 0.06 0.06 0.05 0.06 0.02 0.05 0.02 0.01 0.02 0.07 0.24
0.96 0.51 0.57 0.16 0.11 0.16 0.12 0.13 0.19 0.26 0.16 0.09 0.01 0.00 0.05 0.01 0.00 0.00 0.01 0.02 0.04 0.02 0.00 0.01 0.05 0.05 0.06 0.05 0.00 0.01 0.00 0.00 0.01 0.01 0.00 0.00 0.00 0.01 0.02 0.01 0.01 0.02 0.01 0.06 0.01 0.01 0.04 0.08 0.11
0.76 1.21 0.87 0.16 0.31 0.15 0.14 0.19 0.09 0.09 0.08 0.02 0.00 0.00 0.04 0.01 0.00 0.00 0.00 0.01 0.02 0.01 0.00 0.00 0.00 0.01 0.06 0.06 0.00 0.00 0.00 0.00 0.01 0.00 0.00 0.00 0.00 0.01 0.00 0.00 0.00 0.01 0.03 0.06 0.01 0.02 0.03 0.06 0.12
0.18 0.48 1.89 0.64 0.19 0.95 0.50 0.19 0.10 0.04 0.10 0.01 0.02 0.00 0.01 0.00 0.00 0.00 0.01 0.01 0.01 0.00 0.01 0.00 0.00 0.00 0.01 0.01 0.00 0.00 0.01 0.00 0.00 0.00 0.01 0.04 0.07 0.04 0.03 0.03 0.05 0.03 0.01 0.02 0.03 0.04 0.06 0.06 0.09
0.32 1.15 1.62 0.42 0.15 0.82 0.39 0.18 0.14 0.09 0.02 0.04 0.08 0.00 0.00 0.00 0.00 0.00 0.01 0.01 0.01 0.01 0.01 0.00 0.00 0.05 0.05 0.00 0.01 0.00 0.00 0.00 0.00 0.01 0.06 0.31 0.34 0.35 0.38 0.17 0.08 0.06 0.06 0.02 0.04 0.04 0.05 0.07 0.09
0.25 0.79 0.52 0.04 0.01 0.07 0.21 0.19 0.23 0.07 0.02 0.02 0.01 0.00 0.00 0.00 0.00 0.00 0.00 0.00 0.00 0.00 0.00 0.00 0.00 0.00 0.00 0.00 0.00 0.00 0.00 0.00 0.00 0.01 0.19 0.80 0.32 0.21 0.26 0.16 0.09 0.08 0.09 0.06 0.10 0.11 0.10 0.11 0.05
0.07 0.22 0.17 0.00 0.00 0.02 0.01 0.03 0.12 0.07 0.01 0.00 0.00 0.00 0.00 0.00 0.00 0.00 0.00 0.00 0.00 0.00 0.00 0.00 0.00 0.01 0.01 0.01 0.00 0.00 0.00 0.00 0.00 0.03 0.26 0.84 0.35 0.34 0.41 0.31 0.70 0.24 0.16 0.25 0.15 0.10 0.03 0.00 0.00
0.00 0.03 0.09 0.00 0.00 0.00 0.01 0.07 0.06 0.01 0.00 0.00 0.00 0.00 0.00 0.00 0.00 0.00 0.00 0.00 0.00 0.00 0.00 0.00 0.00 0.00 0.02 0.01 0.00 0.00 0.00 0.00 0.00 0.01 0.06 0.18 0.30 0.24 0.35 0.50 0.34 0.19 0.26 0.18 0.13 0.06 0.07 0.05 0.00
0.00 0.00 0.00 0.05 0.00 0.00 0.00 0.14 0.10 0.00 0.00 0.00 0.00 0.00 0.00 0.00 0.00 0.00 0.00 0.00 0.00 0.00 0.00 0.00 0.00 0.00 0.01 0.01 0.00 0.00 0.00 0.00 0.00 0.00 0.00 0.11 0.23 0.21 0.31 0.21 0.16 0.11 0.23 0.78 0.13 0.13 0.10 0.03 0.02
0.00 0.00 0.00 0.02 0.00 0.01 0.00 0.00 0.00 0.01 0.00 0.00 0.00 0.00 0.00 0.00 0.00 0.00 0.00 0.00 0.00 0.00 0.00 0.00 0.00 0.00 0.01 0.01 0.01 0.00 0.00 0.00 0.00 0.00 0.00 0.01 0.09 0.15 0.16 0.20 0.10 0.09 0.11 0.22 0.14 0.11 0.24 0.01 0.00
0.00 0.00 0.00 0.00 0.01 0.01 0.03 0.01 0.00 0.01 0.00 0.00 0.00 0.00 0.00 0.00 0.00 0.00 0.00 0.00 0.00 0.00 0.00 0.00 0.00 0.00 0.00 0.02 0.02 0.00 0.00 0.00 0.00 0.00 0.00 0.00 0.03 0.07 0.09 0.14 0.07 0.17 0.24 0.18 0.14 0.12 0.27 0.02 0.00
0.00 0.00 0.00 0.00 0.00 0.00 0.01 0.00 0.00 0.02 0.01 0.00 0.00 0.00 0.00 0.00 0.00 0.00 0.00 0.00 0.00 0.00 0.00 0.00 0.00 0.00 0.00 0.02 0.02 0.00 0.00 0.00 0.00 0.00 0.00 0.00 0.00 0.02 0.08 0.27 0.19 0.24 0.20 0.19 0.17 0.13 0.08 0.00 0.00
0.00 0.00 0.00 0.00 0.00 0.00 0.00 0.00 0.01 0.04 0.02 0.01 0.01 0.01 0.00 0.00 0.00 0.00 0.00 0.00 0.00 0.00 0.00 0.00 0.00 0.00 0.00 0.00 0.01 0.00 0.01 0.03 0.01 0.01 0.00 0.03 0.07 0.11 0.27 0.28 0.25 0.15 0.19 0.14 0.11 0.10 0.05 0.00 0.00
0.00 0.00 0.00 0.00 0.00 0.00 0.00 0.06 0.09 0.01 0.02 0.15 0.10 0.05 0.00 0.00 0.00 0.00 0.00 0.00 0.00 0.00 0.00 0.00 0.00 0.00 0.00 0.07 0.11 0.07 0.04 0.00 0.00 0.00 0.03 0.07 0.04 0.12 0.14 0.20 0.33 0.13 0.11 0.12 0.14 0.08 0.00 0.00 0.00
0.00 0.00 0.00 0.00 0.00 0.00 0.00 0.01 0.08 0.00 0.18 0.47 0.22 0.10 0.04 0.00 0.00 0.00 0.00 0.00 0.00 0.00 0.00 0.00 0.00 0.01 0.02 0.07 0.03 0.03 0.01 0.00 0.00 0.00 0.01 0.02 0.02 0.11 0.13 0.20 0.38 0.16 0.13 0.16 0.11 0.04 0.00 0.00 0.00
0.00 0.00 0.00 0.00 0.00 0.00 0.00 0.00 0.00 0.00 0.06 0.22 0.14 0.08 0.03 0.00 0.00 0.00 0.00 0.00 0.00 0.00 0.00 0.00 0.00 0.00 0.00 0.01 0.01 0.01 0.01 0.00 0.00 0.00 0.01 0.01 0.02 0.05 0.14 0.31 0.20 0.10 0.13 0.16 0.08 0.07 0.04 0.00 0.00
0.00 0.00 0.00 0.00 0.00 0.00 0.00 0.00 0.00 0.00 0.00 0.01 0.07 0.05 0.09 0.00 0.00 0.00 0.00 0.00 0.00 0.00 0.00 0.00 0.00 0.00 0.01 0.02 0.02 0.07 0.08 0.03 0.01 0.00 0.03 0.01 0.02 0.02 0.14 0.24 0.13 0.19 0.11 0.23 0.15 0.04 0.02 0.01 0.00
0.00 0.00 0.00 0.00 0.00 0.00 0.00 0.00 0.00 0.01 0.03 0.01 0.00 0.00 0.07 0.01 0.01 0.00 0.00 0.00 0.00 0.00 0.00 0.00 0.00 0.00 0.01 0.03 0.01 0.05 0.02 0.01 0.00 0.00 0.00 0.01 0.01 0.01 0.03 0.08 0.10 0.07 0.05 0.15 0.17 0.02 0.01 0.00 0.00
0.00 0.00 0.00 0.00 0.00 0.00 0.00 0.00 0.00 0.00 0.00 0.00 0.00 0.00 0.10 0.15 0.01 0.01 0.00 0.00 0.00 0.00 0.00 0.00 0.00 0.00 0.01 0.02 0.01 0.04 0.01 0.00 0.00 0.00 0.00 0.01 0.03 0.00 0.00 0.02 0.12 0.03 0.04 0.06 0.11 0.03 0.00 0.00 0.00
0.00 0.00 0.00 0.00 0.00 0.00 0.00 0.00 0.00 0.00 0.00 0.00 0.00 0.00 0.00 0.00 0.00 0.01 0.00 0.00 0.00 0.00 0.00 0.00 0.00 0.00 0.00 0.01 0.01 0.04 0.03 0.00 0.00 0.00 0.00 0.00 0.00 0.00 0.00 0.02 0.04 0.04 0.01 0.03 0.07 0.03 0.00 0.00 0.00
0.00 0.00 0.00 0.00 0.00 0.00 0.00 0.00 0.00 0.00 0.00 0.00 0.00 0.01 0.00 0.00 0.00 0.01 0.00 0.00 0.00 0.00 0.00 0.00 0.00 0.00 0.00 0.00 0.00 0.01 0.01 0.01 0.01 0.01 0.00 0.00 0.00 0.00 0.00 0.01 0.04 0.01 0.00 0.01 0.01 0.02 0.00 0.00 0.00
0.00 0.00 0.00 0.00 0.00 0.00 0.00 0.00 0.00 0.00 0.00 0.00 0.00 0.00 0.00 0.00 0.00 0.00 0.00 0.00 0.00 0.00 0.00 0.00 0.00 0.00 0.00 0.00 0.00 0.00 0.00 0.00 0.00 0.00 0.00 0.00 0.00 0.00 0.00 0.00 0.00 0.00 0.00 0.00 0.00 0.00 0.00 0.00 0.00
0.00 0.00 0.00 0.00 0.00 0.00 0.00 0.00 0.00 0.00 0.00 0.00 0.00 0.00 0.00 0.00 0.00 0.00 0.00 0.00 0.00 0.00 0.00 0.00 0.00 0.00 0.00 0.00 0.00 0.00 0.00 0.00 0.00 0.00 0.00 0.00 0.00 0.00 0.00 0.00 0.00 0.00 0.00 0.00 0.00 0.00 0.00 0.00 0.00
0.00 0.00 0.00 0.00 0.00 0.00 0.00 0.00 0.00 0.00 0.00 0.00 0.00 0.00 0.00 0.00 0.00 0.00 0.00 0.00 0.00 0.00 0.00 0.00 0.00 0.00 0.00 0.00 0.00 0.00 0.00 0.00 0.00 0.00 0.00 0.00 0.00 0.00 0.00 0.00 0.00 0.00 0.00 0.00 0.00 0.00 0.00 0.00 0.00
0.00 0.00 0.00 0.00 0.00 0.00 0.00 0.00 0.00 0.00 0.00 0.00 0.00 0.00 0.00 0.00 0.00 0.00 0.00 0.00 0.00 0.00 0.00 0.00 0.00 0.00 0.00 0.00 0.00 0.00 0.00 0.00 0.00 0.00 0.00 0.00 0.00 0.00 0.00 0.00 0.00 0.00 0.00 0.00 0.00 0.00 0.00 0.00 0.00
0.00 0.00 0.00 0.00 0.00 0.00 0.00 0.00 0.00 0.00 0.00 0.00 0.00 0.00 0.00 0.00 0.00 0.00 0.00 0.00 0.00 0.00 0.00 0.00 0.00 0.00 0.00 0.00 0.00 0.00 0.00 0.00 0.00 0.00 0.00 0.00 0.00 0.00 0.00 0.00 0.00 0.00 0.00 0.00 0.00 0.00 0.00 0.00 0.00

GFSSGP_prec_precacc_039.txt.gz
Total_Precipitation_Accumulation
0.01 0.11 0.38 0.85 1.73 0.83 0.75 0.57 0.39 0.25 0.16 0.11 0.07 0.15 0.24 0.18 0.32 0.27 0.11 0.17 0.16 0.24 0.09 0.34 0.60 0.56 0.31 0.13 0.10 0.06 0.04 0.03 0.01 0.01 0.05 0.03 0.05 0.03 0.07 0.08 0.05 0.04 0.03 0.04 0.04 0.03 0.02 0.02 0.05
0.03 0.33 1.05 2.10 1.31 1.70 1.44 0.57 0.35 0.18 0.15 0.10 0.08 0.08 0.01 0.01 0.03 0.04 0.13 0.16 0.04 0.01 0.02 0.07 0.66 0.41 0.19 0.09 0.07 0.04 0.03 0.00 0.00 0.01 0.04 0.05 0.07 0.06 0.01 0.02 0.02 0.01 0.01 0.07 0.19 0.17 0.05 0.07 0.11
0.09 1.08 2.13 1.60 0.80 1.00 0.83 0.64 0.25 0.06 0.06 0.09 0.08 0.07 0.02 0.02 0.01 0.05 0.06 0.05 0.02 0.01 0.01 0.08 0.24 0.23 0.14 0.08 0.04 0.02 0.03 0.00 0.00 0.01 0.03 0.07 0.03 0.03 0.02 0.02 0.04 0.05 0.02 0.02 0.01 0.03 0.07 0.10 0.13
0.26 2.79 3.16 1.56 0.75 0.27 0.20 0.21 0.31 0.10 0.16 0.12 0.07 0.02 0.00 0.00 0.01 0.01 0.01 0.02 0.02 0.02 0.02 0.06 0.07 0.05 0.06 0.03 0.02 0.03 0.03 0.01 0.01 0.02 0.02 0.02 0.02 0.01 0.02 0.07 0.08 0.07 0.02 0.00 0.00 0.00 0.01 0.12 0.22
0.40 1.61 1.00 1.04 0.50 0.41 0.14 0.29 0.55 0.38 0.32 0.16 0.02 0.01 0.03 0.01 0.00 0.00 0.00 0.02 0.04 0.03 0.01 0.02 0.12 0.09 0.05 0.03 0.01 0.02 0.02 0.01 0.00 0.01 0.00 0.00 0.01 0.02 0.06 0.06 0.05 0.06 0.02 0.05 0.02 0.01 0.02 0.07 0.26
1.01 0.52 0.57 0.17 0.12 0.19 0.19 0.22 0.26 0.39 0.33 0.17 0.02 0.00 0.05 0.01 0.00 0.00 0.01 0.02 0.04 0.02 0.00 0.01 0.06 0.05 0.06 0.05 0.01 0.01 0.01 0.00 0.01 0.01 0.01 0.01 0.00 0.01 0.02 0.01 0.01 0.02 0.01 0.06 0.01 0.01 0.04 0.09 0.12
0.78 1.21 0.87 0.16 0.31 0.18 0.21 0.24 0.19 0.31 0.20 0.11 0.01 0.00 0.04 0.01 0.00 0.00 0.00 0.01 0.02 0.01 0.00 0.01 0.01 0.01 0.06 0.06 0.00 0.00 0.00 0.00 0.01 0.01 0.01 0.00 0.00 0.01 0.00 0.00 0.00 0.01 0.03 0.06 0.01 0.02 0.03 0.06 0.12
0.21 0.48 1.89 0.65 0.20 0.99 0.52 0.30 0.23 0.19 0.17 0.04 0.02 0.00 0.01 0.00 0.00 0.00 0.01 0.01 0.01 0.00 0.01 0.00 0.00 0.00 0.01 0.01 0.00 0.00 0.01 0.00 0.00 0.00 0.01 0.04 0.07 0.04 0.03 0.04 0.05 0.03 0.01 0.02 0.03 0.04 0.07 0.07 0.12
0.33 1.15 1.62 0.42 0.27 0.94 0.45 0.29 0.20 0.24 0.07 0.04 0.08 0.00 0.00 0.00 0.00 0.00 0.01 0.01 0.01 0.01 0.01 0.00 0.00 0.05 0.05 0.00 0.01 0.00 0.00 0.00 0.00 0.01 0.06 0.31 0.34 0.35 0.38 0.17 0.08 0.06 0.06 0.02 0.04 0.04 0.08 0.08 0.10
0.26 0.79 0.52 0.04 0.03 0.10 0.33 0.45 0.37 0.17 0.03 0.02 0.01 0.00 0.00 0.00 0.00 0.00 0.00 0.00 0.00 0.00 0.00 0.00 0.00 0.00 0.00 0.00 0.00 0.00 0.00 0.00 0.00 0.01 0.19 0.80 0.32 0.21 0.26 0.16 0.09 0.08 0.09 0.06 0.10 0.12 0.11 0.11 0.05
0.09 0.25 0.17 0.00 0.00 0.03 0.05 0.06 0.20 0.09 0.01 0.00 0.00 0.00 0.00 0.00 0.00 0.00 0.00 0.00 0.00 0.00 0.00 0.00 0.00 0.01 0.01 0.01 0.00 0.00 0.00 0.00 0.00 0.03 0.26 0.84 0.35 0.34 0.41 0.31 0.70 0.24 0.16 0.25 0.15 0.11 0.03 0.00 0.00
0.00 0.03 0.09 0.00 0.00 0.00 0.01 0.07 0.07 0.03 0.00 0.00 0.00 0.00 0.00 0.00 0.00 0.00 0.00 0.00 0.00 0.00 0.00 0.00 0.00 0.00 0.02 0.01 0.00 0.00 0.00 0.00 0.00 0.01 0.06 0.18 0.30 0.24 0.35 0.50 0.34 0.19 0.26 0.19 0.14 0.07 0.08 0.06 0.00
0.00 0.00 0.00 0.05 0.00 0.00 0.00 0.14 0.10 0.01 0.00 0.00 0.00 0.00 0.00 0.00 0.00 0.00 0.00 0.00 0.00 0.00 0.00 0.00 0.00 0.00 0.01 0.01 0.00 0.00 0.00 0.00 0.00 0.00 0.00 0.11 0.23 0.21 0.32 0.21 0.16 0.11 0.23 0.78 0.15 0.13 0.10 0.03 0.02
0.00 0.00 0.00 0.02 0.00 0.01 0.00 0.00 0.00 0.01 0.00 0.00 0.00 0.00 0.00 0.00 0.00 0.00 0.00 0.00 0.00 0.00 0.00 0.00 0.00 0.00 0.01 0.01 0.01 0.00 0.00 0.00 0.00 0.00 0.00 0.01 0.10 0.18 0.19 0.21 0.10 0.09 0.11 0.22 0.15 0.11 0.24 0.01 0.00
0.00 0.00 0.00 0.00 0.01 0.01 0.03 0.01 0.00 0.01 0.00 0.00 0.00 0.00 0.00 0.00 0.00 0.00 0.00 0.00 0.00 0.00 0.00 0.00 0.00 0.00 0.00 0.02 0.02 0.00 0.00 0.00 0.00 0.00 0.00 0.00 0.03 0.08 0.10 0.14 0.07 0.17 0.24 0.18 0.15 0.12 0.27 0.02 0.00
0.00 0.00 0.00 0.00 0.00 0.00 0.01 0.00 0.00 0.02 0.01 0.00 0.00 0.00 0.00 0.00 0.00 0.00 0.00 0.00 0.00 0.00 0.00 0.00 0.00 0.00 0.00 0.02 0.02 0.00 0.00 0.00 0.00 0.00 0.00 0.00 0.00 0.02 0.09 0.27 0.19 0.24 0.20 0.20 0.18 0.13 0.08 0.00 0.00
0.00 0.00 0.00 0.00 0.00 0.00 0.00 0.00 0.01 0.04 0.02 0.01 0.01 0.01 0.00 0.00 0.00 0.00 0.00 0.00 0.00 0.00 0.00 0.00 0.00 0.00 0.00 0.00 0.01 0.00 0.01 0.03 0.01 0.01 0.00 0.03 0.07 0.11 0.27 0.28 0.25 0.15 0.21 0.17 0.13 0.10 0.05 0.00 0.00
0.00 0.00 0.00 0.00 0.00 0.00 0.00 0.06 0.09 0.01 0.02 0.15 0.10 0.05 0.00 0.00 0.00 0.00 0.00 0.00 0.00 0.00 0.00 0.00 0.00 0.00 0.00 0.07 0.11 0.07 0.04 0.00 0.00 0.00 0.03 0.07 0.04 0.12 0.14 0.20 0.34 0.13 0.11 0.16 0.18 0.09 0.00 0.00 0.00
0.00 0.00 0.00 0.00 0.00 0.00 0.00 0.01 0.08 0.00 0.18 0.47 0.22 0.10 0.04 0.00 0.00 0.00 0.00 0.00 0.00 0.00 0.00 0.00 0.00 0.01 0.02 0.07 0.03 0.03 0.01 0.00 0.00 0.00 0.01 0.02 0.02 0.11 0.13 0.20 0.38 0.16 0.13 0.16 0.11 0.04 0.00 0.00 0.00
0.00 0.00 0.00 0.00 0.00 0.00 0.00 0.00 0.00 0.00 0.06 0.22 0.14 0.08 0.03 0.00 0.00 0.00 0.00 0.00 0.00 0.00 0.00 0.00 0.00 0.00 0.00 0.01 0.01 0.01 0.01 0.00 0.00 0.00 0.01 0.01 0.02 0.05 0.14 0.31 0.20 0.10 0.13 0.17 0.08 0.07 0.04 0.00 0.00
0.00 0.00 0.00 0.00 0.00 0.00 0.00 0.01 0.02 0.01 0.03 0.01 0.07 0.05 0.09 0.00 0.00 0.00 0.00 0.00 0.00 0.00 0.00 0.00 0.00 0.00 0.01 0.02 0.02 0.07 0.08 0.03 0.01 0.00 0.03 0.01 0.02 0.02 0.14 0.24 0.13 0.19 0.11 0.24 0.15 0.04 0.02 0.01 0.00
0.00 0.00 0.00 0.00 0.00 0.00 0.00 0.00 0.01 0.02 0.03 0.01 0.00 0.00 0.07 0.01 0.01 0.00 0.00 0.00 0.00 0.00 0.00 0.00 0.00 0.00 0.01 0.03 0.01 0.05 0.02 0.01 0.00 0.00 0.00 0.01 0.01 0.01 0.03 0.08 0.10 0.07 0.05 0.16 0.17 0.02 0.01 0.00 0.00
0.00 0.00 0.00 0.00 0.00 0.00 0.00 0.00 0.00 0.00 0.00 0.00 0.00 0.00 0.10 0.15 0.01 0.01 0.00 0.00 0.00 0.00 0.00 0.00 0.00 0.00 0.01 0.02 0.01 0.04 0.01 0.00 0.00 0.00 0.00 0.01 0.03 0.00 0.00 0.02 0.12 0.03 0.04 0.07 0.11 0.03 0.00 0.00 0.00
0.00 0.00 0.00 0.00 0.00 0.00 0.00 0.00 0.00 0.00 0.00 0.00 0.00 0.00 0.00 0.00 0.00 0.01 0.00 0.00 0.00 0.00 0.00 0.00 0.00 0.00 0.00 0.01 0.01 0.04 0.03 0.00 0.00 0.00 0.00 0.00 0.00 0.00 0.00 0.02 0.04 0.04 0.01 0.03 0.07 0.03 0.00 0.00 0.00
0.00 0.00 0.00 0.00 0.00 0.00 0.00 0.00 0.00 0.00 0.00 0.00 0.00 0.01 0.00 0.00 0.00 0.01 0.00 0.00 0.00 0.00 0.00 0.00 0.00 0.00 0.00 0.00 0.00 0.01 0.01 0.01 0.01 0.01 0.00 0.00 0.00 0.00 0.00 0.01 0.04 0.01 0.00 0.01 0.01 0.02 0.00 0.00 0.00
0.00 0.00 0.00 0.00 0.00 0.00 0.00 0.00 0.00 0.00 0.00 0.00 0.00 0.00 0.00 0.00 0.00 0.00 0.00 0.00 0.00 0.00 0.00 0.00 0.00 0.00 0.00 0.00 0.00 0.00 0.00 0.00 0.00 0.00 0.00 0.00 0.00 0.00 0.00 0.00 0.00 0.00 0.00 0.00 0.00 0.00 0.00 0.00 0.00
0.00 0.00 0.00 0.00 0.00 0.00 0.00 0.00 0.00 0.00 0.00 0.00 0.00 0.00 0.00 0.00 0.00 0.00 0.00 0.00 0.00 0.00 0.00 0.00 0.00 0.00 0.00 0.00 0.00 0.00 0.00 0.00 0.00 0.00 0.00 0.00 0.00 0.00 0.00 0.00 0.00 0.00 0.00 0.00 0.00 0.00 0.00 0.00 0.00
0.00 0.00 0.00 0.00 0.00 0.00 0.00 0.00 0.00 0.00 0.00 0.00 0.00 0.00 0.00 0.00 0.00 0.00 0.00 0.00 0.00 0.00 0.00 0.00 0.00 0.00 0.00 0.00 0.00 0.00 0.00 0.00 0.00 0.00 0.00 0.00 0.00 0.00 0.00 0.00 0.00 0.00 0.00 0.00 0.00 0.00 0.00 0.00 0.00
0.00 0.00 0.00 0.00 0.00 0.00 0.00 0.00 0.00 0.00 0.00 0.00 0.00 0.00 0.00 0.00 0.00 0.00 0.00 0.00 0.00 0.00 0.00 0.00 0.00 0.00 0.00 0.00 0.00 0.00 0.00 0.00 0.00 0.00 0.00 0.00 0.00 0.00 0.00 0.00 0.00 0.00 0.00 0.00 0.00 0.00 0.00 0.00 0.00
0.00 0.00 0.00 0.00 0.00 0.00 0.00 0.00 0.00 0.00 0.00 0.00 0.00 0.00 0.00 0.00 0.00 0.00 0.00 0.00 0.00 0.00 0.00 0.00 0.00 0.00 0.00 0.00 0.00 0.00 0.00 0.00 0.00 0.00 0.00 0.00 0.00 0.00 0.00 0.00 0.00 0.00 0.00 0.00 0.00 0.00 0.00 0.00 0.00

GFSSGP_prec_precacc_042.txt.gz
Total_Precipitation_Accumulation
0.02 0.11 0.38 0.91 1.93 0.88 0.75 0.59 0.43 0.25 0.22 0.13 0.09 0.15 0.24 0.18 0.32 0.27 0.11 0.17 0.16 0.24 0.12 0.35 0.62 0.57 0.32 0.13 0.11 0.07 0.05 0.04 0.01 0.02 0.05 0.04 0.08 0.08 0.07 0.08 0.05 0.04 0.04 0.05 0.04 0.03 0.02 0.02 0.06
0.03 0.33 1.08 2.45 1.64 1.71 1.45 0.62 0.42 0.21 0.18 0.20 0.11 0.09 0.01 0.01 0.03 0.04 0.13 0.16 0.04 0.01 0.05 0.07 0.67 0.42 0.20 0.11 0.08 0.04 0.04 0.02 0.01 0.03 0.05 0.06 0.17 0.12 0.03 0.02 0.03 0.03 0.08 0.15 0.24 0.17 0.05 0.08 0.13
0.09 1.09 2.31 2.21 0.91 1.01 0.85 0.72 0.34 0.15 0.16 0.16 0.14 0.09 0.04 0.02 0.01 0.06 0.06 0.05 0.02 0.01 0.02 0.08 0.25 0.25 0.15 0.09 0.04 0.03 0.03 0.00 0.01 0.02 0.03 0.09 0.09 0.06 0.02 0.02 0.04 0.06 0.03 0.03 0.02 0.03 0.07 0.14 0.25
0.27 2.83 3.27 1.63 0.79 0.29 0.21 0.25 0.38 0.22 0.33 0.29 0.17 0.06 0.02 0.00 0.01 0.01 0.01 0.02 0.03 0.03 0.02 0.06 0.07 0.06 0.06 0.03 0.02 0.03 0.04 0.02 0.02 0.03 0.06 0.09 0.05 0.01 0.02 0.07 0.08 0.07 0.02 0.00 0.00 0.00 0.01 0.12 0.23
0.41 1.69 1.08 1.06 0.52 0.42 0.15 0.37 0.65 0.56 0.49 0.26 0.08 0.03 0.03 0.02 0.00 0.00 0.00 0.02 0.04 0.03 0.01 0.02 0.13 0.09 0.05 0.03 0.01 0.02 0.03 0.04 0.02 0.02 0.03 0.02 0.01 0.02 0.06 0.06 0.05 0.07 0.02 0.05 0.02 0.01 0.02 0.08 0.32
1.03 0.54 0.58 0.17 0.13 0.19 0.20 0.26 0.36 0.50 0.51 0.22 0.03 0.00 0.06 0.02 0.00 0.00 0.01 0.02 0.04 0.02 0.00 0.01 0.07 0.05 0.08 0.06 0.01 0.02 0.01 0.01 0.03 0.05 0.03 0.01 0.00 0.01 0.02 0.01 0.01 0.02 0.01 0.06 0.01 0.02 0.06 0.09 0.17
0.79 1.21 0.87 0.16 0.31 0.19 0.23 0.26 0.27 0.52 0.34 0.13 0.01 0.00 0.04 0.02 0.00 0.00 0.00 0.01 0.02 0.01 0.00 0.01 0.01 0.02 0.07 0.07 0.02 0.01 0.01 0.02 0.01 0.01 0.01 0.00 0.00 0.01 0.00 0.01 0.00 0.01 0.03 0.06 0.01 0.02 0.04 0.08 0.14
0.22 0.48 1.89 0.65 0.20 1.00 0.55 0.35 0.36 0.35 0.19 0.05 0.02 0.00 0.01 0.01 0.00 0.00 0.01 0.01 0.01 0.00 0.01 0.00 0.00 0.00 0.01 0.01 0.01 0.00 0.01 0.00 0.00 0.00 0.01 0.04 0.08 0.07 0.05 0.05 0.06 0.03 0.01 0.02 0.05 0.07 0.08 0.08 0.16
0.33 1.15 1.62 0.42 0.27 0.96 0.49 0.32 0.22 0.29 0.08 0.04 0.08 0.00 0.00 0.00 0.00 0.00 0.01 0.01 0.01 0.01 0.01 0.00 0.00 0.05 0.05 0.00 0.01 0.00 0.00 0.00 0.00 0.01 0.06 0.31 0.35 0.37 0.39 0.18 0.09 0.06 0.06 0.02 0.05 0.05 0.08 0.09 0.11
0.27 0.79 0.52 0.04 0.03 0.11 0.33 0.47 0.42 0.20 0.04 0.02 0.01 0.00 0.00 0.00 0.00 0.00 0.00 0.00 0.00 0.00 0.00 0.00 0.00 0.00 0.00 0.00 0.00 0.00 0.00 0.00 0.00 0.01 0.19 0.80 0.32 0.21 0.26 0.18 0.13 0.09 0.10 0.08 0.10 0.12 0.12 0.12 0.05
0.10 0.26 0.17 0.00 0.00 0.03 0.05 0.07 0.22 0.10 0.01 0.00 0.00 0.00 0.00 0.00 0.00 0.00 0.00 0.00 0.00 0.00 0.00 0.00 0.00 0.01 0.01 0.01 0.00 0.00 0.00 0.00 0.00 0.03 0.26 0.84 0.35 0.34 0.41 0.31 0.74 0.25 0.16 0.25 0.16 0.12 0.03 0.00 0.00
0.01 0.03 0.09 0.00 0.00 0.00 0.01 0.07 0.07 0.03 0.00 0.00 0.00 0.00 0.00 0.00 0.00 0.00 0.00 0.00 0.00 0.00 0.00 0.00 0.00 0.00 0.02 0.01 0.00 0.00 0.00 0.00 0.00 0.01 0.06 0.18 0.30 0.24 0.35 0.50 0.34 0.19 0.26 0.19 0.14 0.07 0.08 0.06 0.00
0.00 0.00 0.01 0.05 0.00 0.00 0.00 0.14 0.10 0.01 0.00 0.00 0.00 0.00 0.00 0.00 0.00 0.00 0.00 0.00 0.00 0.00 0.00 0.00 0.00 0.00 0.01 0.01 0.00 0.00 0.00 0.00 0.00 0.00 0.00 0.11 0.23 0.22 0.32 0.21 0.17 0.11 0.24 0.80 0.16 0.13 0.10 0.03 0.02
0.00 0.00 0.01 0.02 0.00 0.01 0.00 0.00 0.00 0.01 0.00 0.00 0.00 0.00 0.00 0.00 0.00 0.00 0.00 0.00 0.00 0.00 0.00 0.00 0.00 0.00 0.01 0.01 0.01 0.00 0.00 0.00 0.00 0.00 0.00 0.01 0.11 0.25 0.27 0.24 0.10 0.10 0.14 0.25 0.15 0.11 0.24 0.01 0.00
0.00 0.00 0.00 0.00 0.01 0.01 0.03 0.01 0.00 0.01 0.00 0.00 0.00 0.00 0.00 0.00 0.00 0.00 0.00 0.00 0.00 0.00 0.00 0.00 0.00 0.00 0.00 0.02 0.02 0.00 0.00 0.00 0.00 0.00 0.00 0.00 0.03 0.12 0.14 0.19 0.12 0.19 0.24 0.18 0.15 0.12 0.27 0.02 0.00
0.00 0.00 0.00 0.00 0.00 0.00 0.01 0.00 0.00 0.02 0.01 0.00 0.00 0.00 0.00 0.00 0.00 0.00 0.00 0.00 0.00 0.00 0.00 0.00 0.00 0.00 0.00 0.02 0.02 0.00 0.00 0.00 0.00 0.00 0.00 0.00 0.00 0.04 0.14 0.31 0.21 0.25 0.21 0.20 0.18 0.14 0.08 0.00 0.00
0.00 0.00 0.00 0.00 0.00 0.00 0.00 0.00 0.01 0.04 0.02 0.01 0.01 0.01 0.00 0.00 0.00 0.00 0.00 0.00 0.00 0.00 0.00 0.00 0.00 0.00 0.00 0.00 0.01 0.00 0.01 0.03 0.01 0.01 0.00 0.03 0.07 0.11 0.29 0.36 0.32 0.15 0.21 0.17 0.13 0.12 0.05 0.00 0.00
0.00 0.00 0.00 0.00 0.00 0.00 0.00 0.06 0.09 0.01 0.02 0.15 0.10 0.05 0.00 0.00 0.00 0.00 0.00 0.00 0.00 0.00 0.00 0.00 0.00 0.00 0.00 0.07 0.11 0.07 0.04 0.00 0.00 0.00 0.03 0.07 0.04 0.12 0.15 0.30 0.44 0.18 0.15 0.17 0.18 0.09 0.00 0.00 0.00
0.00 0.00 0.00 0.00 0.00 0.00 0.00 0.01 0.08 0.00 0.18 0.47 0.22 0.10 0.04 0.00 0.00 0.00 0.00 0.00 0.00 0.00 0.00 0.00 0.00 0.01 0.02 0.07 0.03 0.03 0.01 0.00 0.00 0.00 0.01 0.02 0.02 0.11 0.13 0.22 0.42 0.20 0.17 0.17 0.12 0.04 0.00 0.00 0.00
0.00 0.00 0.00 0.00 0.00 0.00 0.00 0.00 0.00 0.00 0.06 0.22 0.14 0.08 0.03 0.00 0.00 0.00 0.00 0.00 0.00 0.00 0.00 0.00 0.00 0.00 0.00 0.01 0.01 0.01 0.01 0.00 0.00 0.00 0.01 0.01 0.02 0.05 0.14 0.31 0.21 0.15 0.15 0.17 0.08 0.07 0.04 0.00 0.00
0.00 0.00 0.00 0.00 0.00 0.00 0.00 0.01 0.02 0.01 0.03 0.01 0.07 0.05 0.09 0.00 0.00 0.00 0.00 0.00 0.00 0.00 0.00 0.00 0.00 0.00 0.01 0.02 0.02 0.07 0.08 0.03 0.01 0.00 0.03 0.01 0.02 0.02 0.14 0.24 0.14 0.20 0.14 0.24 0.15 0.04 0.02 0.01 0.00
0.00 0.00 0.00 0.00 0.00 0.00 0.00 0.00 0.01 0.02 0.03 0.01 0.00 0.00 0.07 0.01 0.01 0.00 0.00 0.00 0.00 0.00 0.00 0.00 0.00 0.00 0.01 0.03 0.01 0.05 0.02 0.01 0.00 0.00 0.00 0.01 0.01 0.01 0.03 0.08 0.10 0.07 0.06 0.16 0.17 0.02 0.01 0.00 0.00
0.00 0.00 0.00 0.00 0.00 0.00 0.00 0.00 0.00 0.00 0.00 0.00 0.00 0.00 0.10 0.15 0.01 0.01 0.00 0.00 0.00 0.00 0.00 0.00 0.00 0.00 0.01 0.02 0.01 0.04 0.01 0.00 0.00 0.00 0.00 0.01 0.03 0.00 0.00 0.02 0.12 0.03 0.05 0.10 0.11 0.03 0.00 0.00 0.00
0.00 0.00 0.00 0.00 0.00 0.00 0.00 0.00 0.00 0.00 0.00 0.00 0.00 0.00 0.00 0.00 0.00 0.01 0.00 0.00 0.00 0.00 0.00 0.00 0.00 0.00 0.00 0.01 0.01 0.04 0.03 0.00 0.00 0.00 0.00 0.00 0.00 0.00 0.00 0.02 0.04 0.04 0.01 0.03 0.07 0.03 0.00 0.00 0.00
0.00 0.00 0.00 0.00 0.00 0.00 0.00 0.00 0.00 0.00 0.00 0.00 0.00 0.01 0.00 0.00 0.00 0.01 0.00 0.00 0.00 0.00 0.00 0.00 0.00 0.00 0.00 0.00 0.00 0.01 0.01 0.01 0.01 0.01 0.00 0.00 0.00 0.00 0.00 0.01 0.04 0.01 0.00 0.01 0.01 0.02 0.00 0.00 0.00
0.00 0.00 0.00 0.00 0.00 0.00 0.00 0.00 0.00 0.00 0.00 0.00 0.00 0.00 0.00 0.00 0.00 0.00 0.00 0.00 0.00 0.00 0.00 0.00 0.00 0.00 0.00 0.00 0.00 0.00 0.00 0.00 0.00 0.00 0.00 0.00 0.00 0.00 0.00 0.00 0.00 0.00 0.00 0.00 0.00 0.00 0.00 0.00 0.00
0.00 0.00 0.00 0.00 0.00 0.00 0.00 0.00 0.00 0.00 0.00 0.00 0.00 0.00 0.00 0.00 0.00 0.00 0.00 0.00 0.00 0.00 0.00 0.00 0.00 0.00 0.00 0.00 0.00 0.00 0.00 0.00 0.00 0.00 0.00 0.00 0.00 0.00 0.00 0.00 0.00 0.00 0.00 0.00 0.00 0.00 0.00 0.00 0.00
0.00 0.00 0.00 0.00 0.00 0.00 0.00 0.00 0.00 0.00 0.00 0.00 0.00 0.00 0.00 0.00 0.00 0.00 0.00 0.00 0.00 0.00 0.00 0.00 0.00 0.00 0.00 0.00 0.00 0.00 0.00 0.00 0.00 0.00 0.00 0.00 0.00 0.00 0.00 0.00 0.00 0.00 0.00 0.00 0.00 0.00 0.00 0.00 0.00
0.00 0.00 0.00 0.00 0.00 0.00 0.00 0.00 0.00 0.00 0.00 0.00 0.00 0.00 0.00 0.00 0.00 0.00 0.00 0.00 0.00 0.00 0.00 0.00 0.00 0.00 0.00 0.00 0.00 0.00 0.00 0.00 0.00 0.00 0.00 0.00 0.00 0.00 0.00 0.00 0.00 0.00 0.00 0.00 0.00 0.00 0.00 0.00 0.00
0.00 0.00 0.00 0.00 0.00 0.00 0.00 0.00 0.00 0.00 0.00 0.00 0.00 0.00 0.00 0.00 0.00 0.00 0.00 0.00 0.00 0.00 0.00 0.00 0.00 0.00 0.00 0.00 0.00 0.00 0.00 0.00 0.00 0.00 0.00 0.00 0.00 0.00 0.00 0.00 0.00 0.00 0.00 0.00 0.00 0.00 0.00 0.00 0.00

GFSSGP_prec_precacc_045.txt.gz
Total_Precipitation_Accumulation
0.02 0.11 0.38 0.94 1.96 0.90 0.75 0.61 0.46 0.26 0.24 0.13 0.09 0.15 0.24 0.18 0.32 0.27 0.11 0.17 0.16 0.24 0.13 0.36 0.66 0.59 0.32 0.14 0.12 0.07 0.05 0.04 0.03 0.05 0.10 0.06 0.09 0.10 0.12 0.09 0.06 0.05 0.07 0.08 0.05 0.03 0.02 0.03 0.08
0.03 0.33 1.10 2.55 1.96 1.75 1.45 0.65 0.45 0.22 0.21 0.21 0.11 0.09 0.02 0.01 0.03 0.05 0.13 0.16 0.04 0.01 0.05 0.08 0.70 0.44 0.21 0.13 0.08 0.05 0.04 0.06 0.09 0.08 0.06 0.07 0.20 0.14 0.06 0.05 0.07 0.07 0.08 0.15 0.24 0.18 0.05 0.08 0.15
0.09 1.10 2.50 2.59 1.15 1.01 0.85 0.74 0.36 0.19 0.24 0.19 0.14 0.09 0.04 0.02 0.01 0.06 0.06 0.05 0.02 0.02 0.03 0.09 0.26 0.26 0.16 0.09 0.05 0.04 0.03 0.01 0.02 0.04 0.08 0.11 0.15 0.13 0.09 0.09 0.06 0.06 0.04 0.04 0.03 0.03 0.07 0.14 0.30
0.27 2.86 3.39 1.94 0.86 0.30 0.23 0.30 0.42 0.26 0.41 0.41 0.23 0.08 0.03 0.00 0.01 0.01 0.01 0.02 0.03 0.03 0.02 0.07 0.09 0.06 0.06 0.04 0.04 0.03 0.04 0.02 0.06 0.05 0.06 0.10 0.10 0.05 0.03 0.07 0.08 0.07 0.03 0.00 0.00 0.00 0.01 0.12 0.25
0.41 1.75 1.20 1.09 0.54 0.43 0.15 0.40 0.68 0.60 0.59 0.44 0.19 0.05 0.05 0.02 0.00 0.00 0.00 0.02 0.04 0.03 0.01 0.02 0.16 0.10 0.06 0.04 0.02 0.03 0.04 0.06 0.05 0.02 0.03 0.03 0.02 0.03 0.06 0.07 0.06 0.07 0.03 0.05 0.02 0.01 0.03 0.13 0.36
1.05 0.55 0.59 0.17 0.13 0.19 0.20 0.26 0.38 0.56 0.65 0.29 0.08 0.02 0.06 0.02 0.00 0.00 0.01 0.02 0.04 0.02 0.01 0.02 0.07 0.06 0.10 0.06 0.02 0.02 0.03 0.02 0.03 0.05 0.03 0.02 0.01 0.01 0.02 0.01 0.01 0.02 0.01 0.06 0.03 0.06 0.09 0.11 0.27
0.81 1.21 0.87 0.16 0.31 0.19 0.23 0.27 0.36 0.61 0.37 0.14 0.02 0.01 0.06 0.04 0.01 0.00 0.00 0.01 0.02 0.01 0.01 0.02 0.01 0.04 0.09 0.10 0.03 0.01 0.02 0.02 0.02 0.01 0.02 0.00 0.00 0.01 0.00 0.01 0.00 0.01 0.03 0.06 0.02 0.03 0.06 0.12 0.19
0.23 0.48 1.89 0.65 0.20 1.00 0.56 0.36 0.47 0.40 0.21 0.05 0.02 0.00 0.02 0.01 0.00 0.00 0.01 0.01 0.01 0.01 0.02 0.00 0.01 0.01 0.02 0.04 0.03 0.02 0.03 0.03 0.01 0.01 0.01 0.04 0.08 0.08 0.05 0.05 0.07 0.03 0.01 0.02 0.05 0.07 0.09 0.10 0.17
0.34 1.15 1.62 0.42 0.27 0.96 0.52 0.32 0.24 0.33 0.09 0.04 0.08 0.00 0.00 0.00 0.00 0.01 0.01 0.02 0.02 0.02 0.01 0.00 0.01 0.05 0.05 0.01 0.03 0.06 0.03 0.00 0.00 0.01 0.06 0.31 0.35 0.37 0.40 0.23 0.10 0.06 0.07 0.05 0.08 0.05 0.08 0.09 0.11
0.27 0.79 0.52 0.04 0.03 0.11 0.34 0.47 0.44 0.24 0.04 0.02 0.01 0.00 0.00 0.00 0.00 0.01 0.00 0.01 0.01 0.00 0.01 0.00 0.00 0.00 0.00 0.00 0.01 0.01 0.00 0.00 0.00 0.01 0.19 0.80 0.32 0.21 0.26 0.22 0.16 0.11 0.14 0.13 0.14 0.15 0.12 0.12 0.05
0.10 0.26 0.17 0.00 0.00 0.03 0.05 0.07 0.22 0.11 0.01 0.00 0.00 0.00 0.00 0.00 0.00 0.00 0.00 0.00 0.00 0.00 0.00 0.00 0.00 0.01 0.01 0.01 0.00 0.00 0.00 0.00 0.00 0.03 0.26 0.84 0.35 0.34 0.41 0.31 0.75 0.25 0.16 0.25 0.16 0.12 0.03 0.00 0.00
0.01 0.04 0.09 0.00 0.00 0.00 0.01 0.07 0.07 0.03 0.00 0.00 0.00 0.00 0.00 0.00 0.00 0.00 0.00 0.00 0.00 0.00 0.00 0.00 0.00 0.00 0.02 0.01 0.00 0.00 0.00 0.00 0.00 0.01 0.06 0.18 0.30 0.24 0.35 0.50 0.34 0.19 0.26 0.19 0.14 0.07 0.08 0.06 0.00
0.00 0.00 0.01 0.05 0.00 0.00 0.00 0.14 0.10 0.01 0.00 0.00 0.00 0.00 0.00 0.00 0.00 0.00 0.00 0.00 0.00 0.00 0.00 0.00 0.00 0.00 0.01 0.01 0.00 0.00 0.00 0.00 0.00 0.00 0.00 0.11 0.23 0.22 0.32 0.22 0.17 0.11 0.24 0.81 0.16 0.13 0.10 0.03 0.02
0.00 0.00 0.01 0.02 0.00 0.01 0.00 0.00 0.00 0.01 0.00 0.00 0.00 0.00 0.00 0.00 0.00 0.00 0.00 0.00 0.00 0.00 0.00 0.00 0.00 0.00 0.01 0.01 0.01 0.00 0.00 0.00 0.00 0.00 0.00 0.01 0.12 0.25 0.30 0.30 0.14 0.11 0.14 0.25 0.15 0.11 0.24 0.01 0.00
0.00 0.00 0.00 0.00 0.01 0.01 0.03 0.01 0.00 0.01 0.00 0.00 0.00 0.00 0.00 0.00 0.00 0.00 0.00 0.00 0.00 0.00 0.00 0.00 0.00 0.00 0.00 0.02 0.02 0.00 0.00 0.00 0.00 0.00 0.00 0.00 0.04 0.13 0.14 0.23 0.19 0.21 0.24 0.18 0.15 0.12 0.27 0.02 0.00
0.00 0.00 0.00 0.00 0.00 0.00 0.01 0.00 0.00 0.02 0.01 0.00 0.00 0.00 0.00 0.00 0.00 0.00 0.00 0.00 0.00 0.00 0.00 0.00 0.00 0.00 0.00 0.02 0.02 0.00 0.00 0.00 0.00 0.00 0.00 0.00 0.01 0.05 0.14 0.31 0.22 0.25 0.21 0.21 0.18 0.14 0.08 0.00 0.00
0.00 0.00 0.00 0.00 0.00 0.00 0.00 0.00 0.01 0.04 0.02 0.01 0.01 0.01 0.00 0.00 0.00 0.00 0.00 0.00 0.00 0.00 0.00 0.00 0.00 0.00 0.00 0.00 0.01 0.00 0.01 0.03 0.01 0.01 0.00 0.03 0.07 0.12 0.31 0.37 0.33 0.16 0.22 0.17 0.13 0.12 0.05 0.00 0.00
0.00 0.00 0.00 0.00 0.00 0.00 0.00 0.06 0.09 0.01 0.02 0.15 0.10 0.05 0.00 0.00 0.00 0.00 0.00 0.00 0.00 0.00 0.00 0.00 0.00 0.00 0.00 0.07 0.11 0.07 0.04 0.00 0.00 0.00 0.03 0.07 0.04 0.12 0.16 0.31 0.44 0.19 0.18 0.18 0.20 0.09 0.00 0.00 0.00
0.00 0.00 0.00 0.00 0.00 0.00 0.00 0.01 0.08 0.00 0.18 0.47 0.22 0.10 0.04 0.00 0.00 0.00 0.00 0.00 0.00 0.00 0.00 0.00 0.00 0.01 0.02 0.07 0.03 0.03 0.01 0.00 0.00 0.00 0.01 0.02 0.02 0.11 0.14 0.22 0.44 0.22 0.18 0.17 0.13 0.04 0.00 0.00 0.00
0.00 0.00 0.00 0.00 0.00 0.00 0.00 0.00 0.00 0.00 0.06 0.22 0.14 0.08 0.03 0.00 0.00 0.00 0.00 0.00 0.00 0.00 0.00 0.00 0.00 0.00 0.00 0.01 0.01 0.01 0.01 0.00 0.00 0.00 0.01 0.01 0.02 0.05 0.14 0.31 0.24 0.17 0.17 0.20 0.09 0.07 0.04 0.00 0.00
0.00 0.00 0.00 0.00 0.00 0.00 0.00 0.01 0.02 0.01 0.03 0.01 0.07 0.05 0.09 0.00 0.00 0.00 0.00 0.00 0.00 0.00 0.00 0.00 0.00 0.00 0.01 0.02 0.02 0.07 0.08 0.03 0.01 0.00 0.03 0.01 0.02 0.02 0.14 0.25 0.14 0.21 0.19 0.31 0.18 0.04 0.02 0.01 0.00
0.00 0.00 0.00 0.00 0.00 0.00 0.00 0.00 0.01 0.02 0.03 0.01 0.00 0.00 0.07 0.01 0.01 0.00 0.00 0.00 0.00 0.00 0.00 0.00 0.00 0.00 0.01 0.03 0.01 0.05 0.02 0.01 0.00 0.00 0.00 0.01 0.01 0.01 0.03 0.09 0.13 0.15 0.09 0.23 0.18 0.02 0.01 0.00 0.00
0.00 0.00 0.00 0.00 0.00 0.00 0.00 0.00 0.00 0.00 0.00 0.00 0.00 0.00 0.10 0.15 0.01 0.01 0.00 0.00 0.00 0.00 0.00 0.00 0.00 0.00 0.01 0.02 0.01 0.04 0.01 0.00 0.00 0.00 0.00 0.01 0.03 0.00 0.00 0.02 0.15 0.10 0.09 0.15 0.12 0.05 0.00 0.00 0.00
0.00 0.00 0.00 0.00 0.00 0.00 0.00 0.00 0.00 0.00 0.00 0.00 0.00 0.00 0.00 0.00 0.00 0.01 0.00 0.00 0.00 0.00 0.00 0.00 0.00 0.00 0.00 0.01 0.01 0.04 0.03 0.00 0.00 0.00 0.00 0.00 0.00 0.00 0.00 0.02 0.04 0.05 0.01 0.04 0.07 0.06 0.02 0.00 0.00
0.00 0.00 0.00 0.00 0.00 0.00 0.00 0.00 0.00 0.00 0.00 0.00 0.00 0.01 0.00 0.00 0.00 0.01 0.00 0.00 0.00 0.00 0.00 0.00 0.00 0.00 0.00 0.00 0.00 0.01 0.01 0.01 0.01 0.01 0.00 0.00 0.00 0.00 0.00 0.01 0.04 0.01 0.00 0.01 0.01 0.03 0.01 0.00 0.00
0.00 0.00 0.00 0.00 0.00 0.00 0.00 0.00 0.00 0.00 0.00 0.00 0.00 0.00 0.00 0.00 0.00 0.00 0.00 0.00 0.00 0.00 0.00 0.00 0.00 0.00 0.00 0.00 0.00 0.00 0.00 0.00 0.00 0.00 0.00 0.00 0.00 0.00 0.00 0.00 0.00 0.00 0.00 0.00 0.00 0.00 0.00 0.00 0.00
0.00 0.00 0.00 0.00 0.00 0.00 0.00 0.00 0.00 0.00 0.00 0.00 0.00 0.00 0.00 0.00 0.00 0.00 0.00 0.00 0.00 0.00 0.00 0.00 0.00 0.00 0.00 0.00 0.00 0.00 0.00 0.00 0.00 0.00 0.00 0.00 0.00 0.00 0.00 0.00 0.00 0.00 0.00 0.00 0.00 0.00 0.00 0.00 0.00
0.00 0.00 0.00 0.00 0.00 0.00 0.00 0.00 0.00 0.00 0.00 0.00 0.00 0.00 0.00 0.00 0.00 0.00 0.00 0.00 0.00 0.00 0.00 0.00 0.00 0.00 0.00 0.00 0.00 0.00 0.00 0.00 0.00 0.00 0.00 0.00 0.00 0.00 0.00 0.00 0.00 0.00 0.00 0.00 0.00 0.00 0.00 0.00 0.00
0.00 0.00 0.00 0.00 0.00 0.00 0.00 0.00 0.00 0.00 0.00 0.00 0.00 0.00 0.00 0.00 0.00 0.00 0.00 0.00 0.00 0.00 0.00 0.00 0.00 0.00 0.00 0.00 0.00 0.00 0.00 0.00 0.00 0.00 0.00 0.00 0.00 0.00 0.00 0.00 0.00 0.00 0.00 0.00 0.00 0.00 0.00 0.00 0.00
0.00 0.00 0.00 0.00 0.00 0.00 0.00 0.00 0.00 0.00 0.00 0.00 0.00 0.00 0.00 0.00 0.00 0.00 0.00 0.00 0.00 0.00 0.00 0.00 0.00 0.00 0.00 0.00 0.00 0.00 0.00 0.00 0.00 0.00 0.00 0.00 0.00 0.00 0.00 0.00 0.00 0.00 0.00 0.00 0.00 0.00 0.00 0.00 0.00

GFSSGP_prec_precacc_048.txt.gz
Total_Precipitation_Accumulation
0.02 0.11 0.38 0.95 2.00 0.91 0.76 0.65 0.57 0.33 0.24 0.13 0.09 0.15 0.24 0.18 0.33 0.31 0.11 0.17 0.16 0.24 0.13 0.36 0.67 0.60 0.34 0.15 0.12 0.08 0.06 0.04 0.03 0.05 0.11 0.08 0.09 0.10 0.15 0.10 0.08 0.08 0.09 0.09 0.05 0.04 0.03 0.07 0.08
0.03 0.34 1.11 2.60 2.03 1.79 1.50 0.71 0.55 0.24 0.21 0.21 0.11 0.09 0.02 0.01 0.03 0.05 0.13 0.16 0.04 0.01 0.05 0.08 0.71 0.45 0.22 0.13 0.09 0.08 0.05 0.06 0.11 0.13 0.11 0.08 0.20 0.17 0.13 0.06 0.07 0.09 0.11 0.16 0.24 0.18 0.08 0.10 0.18
0.09 1.11 2.57 2.68 1.19 1.03 0.91 0.76 0.39 0.21 0.26 0.19 0.14 0.10 0.04 0.02 0.01 0.06 0.06 0.05 0.02 0.02 0.03 0.09 0.27 0.26 0.16 0.10 0.05 0.06 0.04 0.03 0.06 0.09 0.09 0.12 0.16 0.14 0.11 0.10 0.06 0.06 0.05 0.05 0.03 0.03 0.08 0.17 0.33
0.27 2.89 3.56 2.11 0.92 0.31 0.23 0.31 0.43 0.31 0.45 0.43 0.24 0.08 0.04 0.01 0.01 0.01 0.01 0.02 0.03 0.03 0.02 0.07 0.09 0.07 0.07 0.09 0.05 0.05 0.07 0.05 0.07 0.06 0.07 0.15 0.12 0.11 0.04 0.08 0.08 0.07 0.04 0.00 0.00 0.00 0.02 0.12 0.26
0.42 1.89 1.36 1.24 0.63 0.48 0.15 0.41 0.74 0.73 0.64 0.49 0.22 0.07 0.08 0.03 0.00 0.00 0.00 0.02 0.04 0.03 0.01 0.02 0.18 0.11 0.08 0.07 0.02 0.05 0.06 0.07 0.06 0.04 0.07 0.08 0.06 0.06 0.07 0.07 0.06 0.07 0.03 0.05 0.03 0.01 0.04 0.14 0.39
1.10 0.59 0.62 0.19 0.14 0.20 0.21 0.27 0.42 0.62 0.73 0.35 0.11 0.04 0.09 0.03 0.01 0.00 0.01 0.02 0.04 0.02 0.01 0.02 0.09 0.07 0.12 0.07 0.04 0.04 0.03 0.02 0.04 0.08 0.06 0.04 0.02 0.02 0.02 0.01 0.01 0.02 0.01 0.06 0.03 0.10 0.11 0.12 0.30
0.85 1.24 0.88 0.16 0.31 0.22 0.26 0.27 0.51 0.76 0.37 0.15 0.04 0.01 0.07 0.05 0.01 0.00 0.00 0.01 0.02 0.01 0.01 0.02 0.01 0.05 0.12 0.11 0.04 0.02 0.02 0.02 0.05 0.06 0.05 0.01 0.01 0.01 0.00 0.01 0.00 0.01 0.03 0.06 0.03 0.05 0.06 0.13 0.21
0.24 0.48 1.89 0.65 0.21 1.07 0.57 0.36 0.56 0.50 0.21 0.05 0.02 0.00 0.03 0.02 0.01 0.00 0.01 0.01 0.01 0.01 0.02 0.01 0.01 0.02 0.04 0.05 0.04 0.02 0.04 0.05 0.06 0.01 0.01 0.05 0.08 0.08 0.05 0.05 0.07 0.03 0.01 0.03 0.05 0.07 0.09 0.11 0.21
0.34 1.15 1.64 0.42 0.28 0.97 0.52 0.32 0.25 0.36 0.11 0.04 0.08 0.00 0.00 0.00 0.00 0.01 0.01 0.02 0.02 0.02 0.01 0.00 0.03 0.06 0.13 0.02 0.05 0.07 0.05 0.02 0.01 0.01 0.07 0.32 0.35 0.37 0.40 0.23 0.11 0.07 0.08 0.07 0.09 0.05 0.08 0.09 0.12
0.28 0.80 0.52 0.04 0.03 0.11 0.36 0.48 0.44 0.24 0.04 0.02 0.01 0.00 0.00 0.01 0.01 0.01 0.01 0.01 0.01 0.00 0.01 0.00 0.00 0.01 0.07 0.02 0.04 0.05 0.02 0.00 0.00 0.01 0.19 0.80 0.32 0.21 0.26 0.23 0.19 0.13 0.14 0.13 0.17 0.16 0.12 0.13 0.05
0.10 0.26 0.17 0.00 0.00 0.03 0.06 0.07 0.22 0.11 0.02 0.00 0.00 0.00 0.00 0.00 0.00 0.00 0.00 0.00 0.00 0.00 0.00 0.00 0.00 0.01 0.02 0.03 0.01 0.01 0.00 0.00 0.00 0.03 0.26 0.84 0.35 0.34 0.41 0.31 0.75 0.25 0.16 0.25 0.16 0.12 0.03 0.00 0.00
0.01 0.04 0.09 0.00 0.00 0.00 0.01 0.07 0.07 0.03 0.01 0.00 0.00 0.00 0.00 0.00 0.00 0.00 0.00 0.00 0.00 0.00 0.00 0.00 0.00 0.00 0.02 0.01 0.00 0.00 0.00 0.00 0.00 0.01 0.06 0.18 0.30 0.24 0.35 0.50 0.34 0.19 0.26 0.19 0.14 0.07 0.08 0.06 0.00
0.00 0.01 0.01 0.05 0.00 0.00 0.00 0.14 0.10 0.01 0.00 0.00 0.00 0.00 0.00 0.00 0.00 0.00 0.00 0.00 0.00 0.00 0.00 0.00 0.00 0.00 0.01 0.01 0.00 0.00 0.00 0.00 0.00 0.00 0.00 0.11 0.23 0.22 0.33 0.24 0.18 0.11 0.24 0.81 0.16 0.13 0.10 0.03 0.02
0.00 0.00 0.01 0.02 0.00 0.01 0.00 0.00 0.00 0.01 0.00 0.00 0.00 0.00 0.00 0.00 0.00 0.00 0.00 0.00 0.00 0.00 0.00 0.00 0.00 0.00 0.01 0.01 0.01 0.00 0.00 0.00 0.00 0.00 0.00 0.01 0.12 0.31 0.35 0.35 0.18 0.13 0.14 0.25 0.15 0.11 0.24 0.01 0.00
0.00 0.00 0.00 0.00 0.01 0.01 0.03 0.01 0.00 0.01 0.00 0.00 0.00 0.00 0.00 0.00 0.00 0.00 0.00 0.00 0.00 0.00 0.00 0.00 0.00 0.00 0.00 0.02 0.02 0.00 0.00 0.00 0.00 0.00 0.00 0.00 0.05 0.21 0.24 0.30 0.25 0.23 0.24 0.18 0.15 0.12 0.27 0.02 0.00
0.00 0.00 0.00 0.00 0.00 0.00 0.01 0.01 0.00 0.02 0.01 0.00 0.00 0.00 0.00 0.00 0.00 0.00 0.00 0.00 0.00 0.00 0.00 0.00 0.00 0.00 0.00 0.02 0.02 0.00 0.00 0.00 0.00 0.00 0.00 0.00 0.01 0.11 0.20 0.37 0.27 0.27 0.21 0.21 0.18 0.14 0.08 0.00 0.00
0.00 0.00 0.00 0.00 0.00 0.00 0.00 0.00 0.01 0.04 0.02 0.01 0.01 0.01 0.00 0.00 0.00 0.00 0.00 0.00 0.00 0.00 0.00 0.00 0.00 0.00 0.00 0.00 0.01 0.00 0.01 0.03 0.01 0.01 0.00 0.03 0.07 0.12 0.31 0.38 0.39 0.22 0.26 0.19 0.13 0.12 0.05 0.00 0.00
0.00 0.00 0.00 0.00 0.00 0.01 0.00 0.06 0.09 0.01 0.02 0.15 0.10 0.05 0.00 0.00 0.00 0.00 0.00 0.00 0.00 0.00 0.00 0.00 0.00 0.00 0.00 0.07 0.11 0.07 0.04 0.00 0.00 0.00 0.03 0.07 0.04 0.12 0.16 0.34 0.56 0.27 0.22 0.24 0.20 0.09 0.00 0.00 0.00
0.00 0.00 0.00 0.00 0.00 0.01 0.00 0.01 0.08 0.00 0.18 0.47 0.22 0.10 0.04 0.00 0.00 0.00 0.00 0.00 0.00 0.00 0.00 0.00 0.00 0.01 0.02 0.07 0.03 0.03 0.01 0.00 0.00 0.00 0.01 0.02 0.02 0.11 0.15 0.26 0.51 0.26 0.21 0.21 0.15 0.04 0.00 0.00 0.00
0.00 0.00 0.00 0.00 0.00 0.00 0.00 0.00 0.00 0.00 0.06 0.22 0.14 0.08 0.03 0.00 0.00 0.00 0.00 0.00 0.00 0.00 0.00 0.00 0.00 0.00 0.00 0.01 0.01 0.01 0.01 0.00 0.00 0.00 0.01 0.01 0.02 0.05 0.15 0.36 0.28 0.21 0.24 0.26 0.16 0.10 0.04 0.00 0.00
0.00 0.00 0.00 0.00 0.00 0.00 0.00 0.01 0.02 0.01 0.03 0.01 0.07 0.05 0.09 0.00 0.00 0.00 0.00 0.00 0.00 0.00 0.00 0.00 0.00 0.00 0.01 0.02 0.02 0.07 0.08 0.03 0.01 0.00 0.03 0.01 0.02 0.02 0.14 0.28 0.19 0.30 0.26 0.33 0.20 0.05 0.02 0.01 0.00
0.00 0.00 0.00 0.00 0.00 0.00 0.00 0.00 0.01 0.02 0.03 0.01 0.00 0.00 0.07 0.01 0.01 0.00 0.00 0.00 0.00 0.00 0.00 0.00 0.00 0.00 0.01 0.03 0.01 0.05 0.02 0.01 0.00 0.00 0.00 0.01 0.01 0.01 0.03 0.15 0.21 0.20 0.19 0.28 0.21 0.02 0.01 0.00 0.00
0.00 0.00 0.00 0.00 0.00 0.00 0.00 0.00 0.00 0.00 0.00 0.00 0.00 0.00 0.10 0.15 0.01 0.01 0.00 0.00 0.00 0.00 0.00 0.00 0.00 0.00 0.01 0.02 0.01 0.04 0.01 0.00 0.00 0.00 0.00 0.01 0.03 0.00 0.00 0.07 0.21 0.12 0.12 0.16 0.18 0.10 0.00 0.00 0.00
0.00 0.00 0.00 0.00 0.00 0.00 0.00 0.00 0.00 0.00 0.00 0.00 0.00 0.00 0.00 0.00 0.00 0.01 0.00 0.00 0.00 0.00 0.00 0.00 0.00 0.00 0.00 0.01 0.01 0.04 0.03 0.00 0.00 0.00 0.00 0.00 0.00 0.00 0.00 0.02 0.05 0.07 0.04 0.06 0.12 0.13 0.04 0.00 0.00
0.00 0.00 0.00 0.00 0.00 0.00 0.00 0.00 0.00 0.00 0.00 0.00 0.00 0.01 0.00 0.00 0.00 0.01 0.00 0.00 0.00 0.00 0.00 0.00 0.00 0.00 0.00 0.00 0.00 0.01 0.01 0.01 0.01 0.01 0.00 0.00 0.00 0.00 0.00 0.01 0.04 0.01 0.02 0.02 0.03 0.09 0.07 0.02 0.00
0.00 0.00 0.00 0.00 0.00 0.00 0.00 0.00 0.00 0.00 0.00 0.00 0.00 0.00 0.00 0.00 0.00 0.00 0.00 0.00 0.00 0.00 0.00 0.00 0.00 0.00 0.00 0.00 0.00 0.00 0.00 0.00 0.00 0.00 0.00 0.00 0.00 0.00 0.00 0.00 0.00 0.00 0.00 0.00 0.00 0.01 0.01 0.01 0.00
0.00 0.00 0.00 0.00 0.00 0.00 0.00 0.00 0.00 0.00 0.00 0.00 0.00 0.00 0.00 0.00 0.00 0.00 0.00 0.00 0.00 0.00 0.00 0.00 0.00 0.00 0.00 0.00 0.00 0.00 0.00 0.00 0.00 0.00 0.00 0.00 0.00 0.00 0.00 0.00 0.00 0.00 0.00 0.00 0.00 0.00 0.00 0.00 0.00
0.00 0.00 0.00 0.00 0.00 0.00 0.00 0.00 0.00 0.00 0.00 0.00 0.00 0.00 0.00 0.00 0.00 0.00 0.00 0.00 0.00 0.00 0.00 0.00 0.00 0.00 0.00 0.00 0.00 0.00 0.00 0.00 0.00 0.00 0.00 0.00 0.00 0.00 0.00 0.00 0.00 0.00 0.00 0.00 0.00 0.00 0.00 0.00 0.00
0.00 0.00 0.00 0.00 0.00 0.00 0.00 0.00 0.00 0.00 0.00 0.00 0.00 0.00 0.00 0.00 0.00 0.00 0.00 0.00 0.00 0.00 0.00 0.00 0.00 0.00 0.00 0.00 0.00 0.00 0.00 0.00 0.00 0.00 0.00 0.00 0.00 0.00 0.00 0.00 0.00 0.00 0.00 0.00 0.00 0.00 0.00 0.00 0.00
0.00 0.00 0.00 0.00 0.00 0.00 0.00 0.00 0.00 0.00 0.00 0.00 0.00 0.00 0.00 0.00 0.00 0.00 0.00 0.00 0.00 0.00 0.00 0.00 0.00 0.00 0.00 0.00 0.00 0.00 0.00 0.00 0.00 0.00 0.00 0.00 0.00 0.00 0.00 0.00 0.00 0.00 0.00 0.00 0.00 0.00 0.00 0.00 0.00

GFSSGP_prec_precacc_051.txt.gz
Total_Precipitation_Accumulation
0.02 0.11 0.38 0.96 2.03 0.94 0.81 0.70 0.59 0.37 0.24 0.13 0.09 0.15 0.25 0.19 0.38 0.38 0.12 0.17 0.16 0.24 0.13 0.37 0.71 0.61 0.34 0.15 0.12 0.08 0.06 0.05 0.03 0.05 0.13 0.11 0.10 0.10 0.15 0.10 0.09 0.09 0.10 0.09 0.05 0.05 0.09 0.07 0.09
0.03 0.34 1.11 2.66 2.08 1.82 1.60 0.74 0.64 0.27 0.22 0.21 0.11 0.09 0.03 0.02 0.03 0.05 0.13 0.16 0.04 0.01 0.05 0.08 0.72 0.46 0.23 0.13 0.10 0.08 0.05 0.07 0.13 0.15 0.13 0.10 0.20 0.17 0.16 0.09 0.09 0.12 0.11 0.16 0.25 0.20 0.13 0.15 0.22
0.09 1.12 2.62 2.76 1.21 1.07 1.05 0.87 0.47 0.22 0.26 0.19 0.14 0.10 0.06 0.03 0.01 0.06 0.06 0.05 0.02 0.02 0.03 0.09 0.27 0.27 0.16 0.11 0.07 0.06 0.04 0.04 0.10 0.14 0.13 0.13 0.16 0.15 0.12 0.11 0.06 0.08 0.06 0.05 0.03 0.03 0.10 0.19 0.34
0.27 2.94 3.64 2.16 1.01 0.34 0.26 0.36 0.47 0.34 0.45 0.43 0.24 0.08 0.04 0.02 0.01 0.01 0.01 0.02 0.03 0.03 0.02 0.07 0.09 0.07 0.07 0.10 0.06 0.05 0.07 0.06 0.08 0.07 0.07 0.15 0.15 0.16 0.06 0.09 0.11 0.08 0.04 0.00 0.01 0.02 0.05 0.12 0.26
0.43 2.05 1.44 1.29 0.79 0.56 0.16 0.42 0.77 0.90 0.70 0.49 0.23 0.08 0.09 0.04 0.00 0.00 0.00 0.02 0.04 0.03 0.01 0.02 0.19 0.12 0.08 0.07 0.02 0.05 0.08 0.09 0.07 0.04 0.07 0.08 0.08 0.10 0.08 0.08 0.07 0.07 0.03 0.05 0.07 0.05 0.06 0.14 0.39
1.17 0.70 0.74 0.28 0.20 0.24 0.26 0.27 0.47 0.93 0.97 0.37 0.12 0.08 0.14 0.05 0.01 0.00 0.01 0.02 0.04 0.02 0.01 0.02 0.10 0.09 0.14 0.07 0.04 0.04 0.04 0.03 0.09 0.11 0.07 0.07 0.04 0.05 0.03 0.02 0.01 0.02 0.01 0.06 0.03 0.14 0.13 0.12 0.30
0.89 1.37 0.94 0.20 0.32 0.27 0.34 0.29 0.59 0.97 0.41 0.16 0.12 0.04 0.09 0.06 0.01 0.00 0.00 0.01 0.02 0.01 0.01 0.02 0.02 0.07 0.14 0.12 0.05 0.04 0.04 0.06 0.09 0.07 0.09 0.04 0.02 0.01 0.00 0.01 0.00 0.01 0.03 0.06 0.03 0.06 0.07 0.13 0.21
0.24 0.50 1.92 0.65 0.23 1.22 0.61 0.37 0.57 0.60 0.28 0.07 0.04 0.02 0.04 0.03 0.01 0.00 0.01 0.01 0.01 0.01 0.02 0.01 0.01 0.02 0.04 0.06 0.07 0.03 0.05 0.06 0.09 0.03 0.03 0.05 0.08 0.08 0.05 0.06 0.07 0.03 0.01 0.03 0.05 0.07 0.09 0.12 0.21
0.34 1.19 1.69 0.44 0.31 1.03 0.52 0.32 0.25 0.38 0.11 0.04 0.08 0.01 0.00 0.00 0.00 0.01 0.01 0.02 0.02 0.02 0.01 0.00 0.03 0.06 0.15 0.02 0.07 0.08 0.07 0.07 0.02 0.02 0.07 0.32 0.35 0.37 0.41 0.24 0.11 0.07 0.08 0.07 0.09 0.05 0.08 0.09 0.12
0.28 0.81 0.54 0.05 0.03 0.14 0.36 0.49 0.44 0.24 0.04 0.02 0.01 0.00 0.00 0.01 0.01 0.01 0.01 0.01 0.01 0.00 0.01 0.00 0.00 0.01 0.07 0.02 0.06 0.08 0.02 0.00 0.00 0.01 0.19 0.80 0.32 0.21 0.26 0.23 0.19 0.13 0.14 0.13 0.17 0.17 0.18 0.33 0.10
0.10 0.26 0.17 0.01 0.00 0.03 0.07 0.08 0.22 0.14 0.03 0.00 0.00 0.00 0.00 0.00 0.00 0.00 0.00 0.00 0.00 0.00 0.00 0.00 0.00 0.01 0.02 0.03 0.01 0.01 0.00 0.00 0.00 0.03 0.27 0.84 0.35 0.34 0.41 0.31 0.75 0.25 0.17 0.26 0.16 0.13 0.10 0.28 0.15
0.01 0.04 0.09 0.01 0.01 0.03 0.11 0.19 0.09 0.04 0.15 0.00 0.00 0.00 0.00 0.00 0.00 0.00 0.00 0.00 0.00 0.00 0.00 0.00 0.00 0.00 0.02 0.01 0.00 0.00 0.00 0.00 0.00 0.01 0.06 0.18 0.30 0.24 0.36 0.50 0.34 0.19 0.26 0.19 0.15 0.07 0.08 0.06 0.01
0.00 0.01 0.01 0.06 0.00 0.02 0.01 0.19 0.13 0.02 0.02 0.00 0.00 0.00 0.00 0.00 0.00 0.00 0.00 0.00 0.00 0.00 0.00 0.00 0.00 0.00 0.02 0.01 0.00 0.00 0.00 0.00 0.00 0.00 0.00 0.11 0.24 0.22 0.33 0.24 0.18 0.11 0.24 0.81 0.16 0.13 0.10 0.03 0.02
0.00 0.00 0.01 0.02 0.01 0.03 0.00 0.02 0.00 0.02 0.00 0.00 0.00 0.00 0.00 0.00 0.00 0.00 0.00 0.00 0.00 0.00 0.00 0.00 0.00 0.00 0.01 0.01 0.01 0.00 0.00 0.00 0.00 0.00 0.00 0.01 0.16 0.31 0.36 0.35 0.18 0.13 0.16 0.25 0.15 0.11 0.24 0.01 0.00
0.00 0.00 0.00 0.00 0.01 0.04 0.03 0.03 0.00 0.02 0.00 0.00 0.00 0.00 0.00 0.00 0.00 0.00 0.00 0.00 0.00 0.00 0.00 0.00 0.00 0.00 0.00 0.02 0.02 0.00 0.00 0.00 0.00 0.00 0.00 0.00 0.10 0.22 0.24 0.30 0.25 0.24 0.24 0.18 0.15 0.12 0.27 0.02 0.00
0.00 0.00 0.00 0.00 0.00 0.00 0.01 0.02 0.00 0.02 0.01 0.00 0.00 0.00 0.00 0.00 0.00 0.00 0.00 0.00 0.00 0.00 0.00 0.00 0.00 0.00 0.00 0.02 0.02 0.00 0.00 0.00 0.00 0.00 0.00 0.00 0.07 0.15 0.21 0.37 0.27 0.27 0.21 0.21 0.18 0.14 0.08 0.00 0.00
0.00 0.00 0.00 0.00 0.00 0.00 0.00 0.11 0.14 0.04 0.02 0.01 0.01 0.01 0.00 0.00 0.00 0.00 0.00 0.00 0.00 0.00 0.00 0.00 0.00 0.00 0.00 0.00 0.01 0.00 0.01 0.03 0.01 0.01 0.00 0.03 0.08 0.13 0.42 0.42 0.41 0.22 0.26 0.20 0.13 0.12 0.05 0.00 0.00
0.00 0.00 0.00 0.00 0.00 0.01 0.01 0.10 0.25 0.01 0.02 0.15 0.10 0.05 0.00 0.00 0.00 0.00 0.00 0.00 0.00 0.00 0.00 0.00 0.00 0.00 0.00 0.07 0.11 0.07 0.04 0.00 0.00 0.01 0.04 0.07 0.04 0.12 0.21 0.36 0.57 0.27 0.22 0.29 0.26 0.09 0.00 0.00 0.00
0.00 0.00 0.00 0.00 0.00 0.01 0.01 0.02 0.22 0.00 0.18 0.47 0.22 0.10 0.04 0.00 0.00 0.00 0.00 0.00 0.00 0.00 0.00 0.00 0.00 0.01 0.02 0.07 0.03 0.03 0.01 0.00 0.00 0.00 0.01 0.02 0.02 0.11 0.17 0.29 0.51 0.26 0.21 0.21 0.15 0.04 0.00 0.00 0.00
0.00 0.00 0.00 0.00 0.00 0.00 0.01 0.01 0.01 0.00 0.06 0.22 0.14 0.08 0.03 0.00 0.00 0.00 0.00 0.00 0.00 0.00 0.00 0.00 0.00 0.00 0.00 0.01 0.01 0.01 0.01 0.00 0.00 0.00 0.01 0.01 0.02 0.05 0.15 0.36 0.28 0.24 0.25 0.26 0.16 0.10 0.04 0.00 0.00
0.00 0.00 0.00 0.00 0.00 0.00 0.01 0.02 0.02 0.02 0.03 0.01 0.07 0.05 0.09 0.00 0.00 0.00 0.00 0.00 0.00 0.00 0.00 0.00 0.00 0.00 0.01 0.02 0.02 0.07 0.08 0.03 0.01 0.00 0.03 0.01 0.02 0.02 0.14 0.28 0.20 0.30 0.26 0.33 0.20 0.05 0.02 0.01 0.00
0.00 0.00 0.00 0.00 0.00 0.00 0.00 0.00 0.01 0.03 0.04 0.01 0.00 0.00 0.07 0.01 0.01 0.00 0.00 0.00 0.00 0.00 0.00 0.00 0.00 0.00 0.01 0.03 0.01 0.05 0.02 0.01 0.00 0.00 0.00 0.01 0.01 0.01 0.03 0.15 0.21 0.20 0.20 0.28 0.22 0.02 0.01 0.00 0.00
0.00 0.00 0.00 0.00 0.00 0.00 0.00 0.00 0.00 0.00 0.01 0.01 0.00 0.00 0.10 0.15 0.01 0.01 0.00 0.00 0.00 0.00 0.00 0.00 0.00 0.00 0.01 0.02 0.01 0.04 0.01 0.00 0.00 0.00 0.00 0.01 0.03 0.00 0.00 0.08 0.21 0.12 0.12 0.17 0.20 0.11 0.00 0.00 0.00
0.00 0.00 0.00 0.00 0.00 0.00 0.00 0.00 0.00 0.00 0.00 0.00 0.00 0.00 0.00 0.00 0.00 0.01 0.00 0.00 0.00 0.00 0.00 0.00 0.00 0.00 0.00 0.01 0.01 0.04 0.03 0.00 0.00 0.00 0.00 0.00 0.00 0.00 0.00 0.02 0.05 0.07 0.04 0.07 0.14 0.14 0.04 0.00 0.00
0.00 0.00 0.00 0.00 0.00 0.00 0.00 0.00 0.00 0.00 0.00 0.00 0.00 0.01 0.00 0.00 0.00 0.01 0.00 0.00 0.00 0.00 0.00 0.00 0.00 0.00 0.00 0.00 0.00 0.01 0.01 0.01 0.01 0.01 0.00 0.00 0.00 0.00 0.00 0.01 0.05 0.01 0.02 0.02 0.05 0.10 0.07 0.02 0.00
0.00 0.00 0.00 0.00 0.00 0.00 0.00 0.00 0.00 0.00 0.00 0.01 0.01 0.00 0.00 0.00 0.00 0.00 0.00 0.00 0.00 0.00 0.00 0.00 0.00 0.00 0.00 0.00 0.00 0.00 0.00 0.00 0.00 0.00 0.00 0.00 0.00 0.00 0.00 0.00 0.00 0.00 0.00 0.00 0.00 0.02 0.01 0.01 0.00
0.00 0.00 0.00 0.00 0.00 0.00 0.00 0.00 0.00 0.00 0.00 0.00 0.00 0.00 0.01 0.00 0.00 0.00 0.00 0.00 0.00 0.00 0.00 0.00 0.00 0.00 0.00 0.00 0.00 0.00 0.00 0.00 0.00 0.00 0.00 0.00 0.00 0.00 0.00 0.00 0.00 0.00 0.00 0.00 0.00 0.01 0.01 0.01 0.00
0.00 0.00 0.00 0.00 0.00 0.00 0.00 0.00 0.00 0.00 0.00 0.00 0.00 0.00 0.00 0.00 0.00 0.00 0.00 0.00 0.00 0.00 0.00 0.00 0.00 0.00 0.00 0.00 0.00 0.00 0.00 0.00 0.00 0.00 0.00 0.00 0.00 0.00 0.00 0.00 0.00 0.00 0.00 0.00 0.00 0.00 0.00 0.00 0.00
0.00 0.00 0.00 0.00 0.00 0.00 0.00 0.00 0.00 0.00 0.00 0.00 0.00 0.00 0.00 0.00 0.00 0.00 0.00 0.00 0.00 0.00 0.00 0.00 0.00 0.00 0.00 0.00 0.00 0.00 0.00 0.00 0.00 0.00 0.00 0.00 0.00 0.00 0.00 0.00 0.00 0.00 0.00 0.00 0.00 0.00 0.00 0.00 0.00
0.00 0.00 0.00 0.00 0.00 0.00 0.00 0.00 0.00 0.00 0.00 0.00 0.00 0.00 0.00 0.00 0.00 0.00 0.00 0.00 0.00 0.00 0.00 0.00 0.00 0.00 0.00 0.00 0.00 0.00 0.00 0.00 0.00 0.00 0.00 0.00 0.00 0.00 0.00 0.00 0.00 0.00 0.00 0.00 0.00 0.00 0.00 0.00 0.00

GFSSGP_prec_precacc_054.txt.gz
Total_Precipitation_Accumulation
0.02 0.11 0.38 0.96 2.06 0.95 0.90 0.75 0.66 0.39 0.25 0.16 0.10 0.15 0.25 0.20 0.40 0.43 0.12 0.17 0.16 0.24 0.13 0.37 0.78 0.62 0.35 0.17 0.12 0.09 0.06 0.05 0.03 0.05 0.13 0.11 0.10 0.10 0.15 0.10 0.11 0.11 0.10 0.09 0.06 0.06 0.09 0.07 0.09
0.03 0.34 1.11 2.72 2.14 1.83 1.69 0.76 0.66 0.29 0.24 0.22 0.11 0.09 0.03 0.02 0.03 0.05 0.13 0.16 0.04 0.01 0.05 0.08 0.74 0.47 0.23 0.13 0.10 0.08 0.05 0.07 0.13 0.16 0.14 0.11 0.21 0.17 0.18 0.10 0.11 0.13 0.12 0.17 0.26 0.20 0.13 0.15 0.22
0.09 1.12 2.64 2.80 1.22 1.12 1.20 0.99 0.50 0.26 0.28 0.19 0.14 0.13 0.06 0.03 0.01 0.06 0.06 0.05 0.02 0.02 0.03 0.09 0.28 0.28 0.17 0.11 0.08 0.07 0.04 0.05 0.10 0.14 0.13 0.13 0.16 0.15 0.13 0.11 0.07 0.09 0.07 0.05 0.03 0.03 0.10 0.19 0.34
0.27 2.96 3.71 2.18 1.08 0.40 0.29 0.45 0.57 0.37 0.45 0.44 0.24 0.09 0.05 0.02 0.01 0.01 0.01 0.02 0.03 0.03 0.02 0.07 0.09 0.07 0.08 0.11 0.07 0.05 0.07 0.06 0.08 0.08 0.08 0.15 0.16 0.20 0.07 0.09 0.12 0.08 0.04 0.02 0.01 0.02 0.05 0.12 0.26
0.43 2.15 1.51 1.35 0.95 0.71 0.17 0.49 0.79 0.91 0.71 0.52 0.24 0.09 0.10 0.04 0.01 0.00 0.00 0.02 0.04 0.03 0.01 0.02 0.19 0.12 0.08 0.07 0.03 0.05 0.08 0.10 0.07 0.07 0.09 0.14 0.09 0.10 0.09 0.09 0.07 0.07 0.03 0.08 0.07 0.05 0.06 0.14 0.39
1.19 0.79 0.90 0.61 0.32 0.32 0.30 0.30 0.48 1.03 1.09 0.41 0.18 0.11 0.14 0.05 0.01 0.00 0.01 0.02 0.04 0.02 0.01 0.02 0.10 0.09 0.14 0.08 0.06 0.04 0.04 0.05 0.10 0.12 0.10 0.08 0.05 0.06 0.03 0.02 0.01 0.02 0.01 0.06 0.03 0.14 0.13 0.12 0.30
0.91 1.53 1.05 0.37 0.38 0.36 0.48 0.38 0.59 1.15 0.60 0.25 0.27 0.07 0.09 0.06 0.01 0.00 0.00 0.01 0.02 0.01 0.01 0.02 0.02 0.07 0.14 0.13 0.08 0.04 0.06 0.06 0.09 0.07 0.09 0.05 0.02 0.01 0.00 0.01 0.00 0.01 0.03 0.06 0.03 0.06 0.07 0.13 0.21
0.24 0.55 1.93 0.70 0.26 1.33 0.69 0.48 0.58 0.64 0.38 0.14 0.07 0.04 0.04 0.03 0.01 0.00 0.01 0.01 0.01 0.01 0.02 0.01 0.01 0.02 0.04 0.07 0.13 0.04 0.06 0.06 0.09 0.03 0.03 0.05 0.08 0.08 0.05 0.07 0.07 0.03 0.01 0.03 0.05 0.07 0.09 0.12 0.21
0.34 1.19 1.72 0.48 0.33 1.24 0.59 0.35 0.25 0.38 0.12 0.04 0.09 0.01 0.00 0.00 0.00 0.01 0.01 0.02 0.02 0.02 0.01 0.00 0.03 0.06 0.15 0.03 0.09 0.08 0.07 0.07 0.02 0.02 0.09 0.37 0.36 0.37 0.41 0.24 0.11 0.07 0.08 0.07 0.09 0.05 0.09 0.11 0.12
0.28 0.81 0.55 0.07 0.05 0.23 0.45 0.49 0.44 0.24 0.04 0.03 0.02 0.00 0.00 0.01 0.01 0.01 0.01 0.01 0.01 0.00 0.01 0.00 0.00 0.01 0.07 0.02 0.07 0.09 0.02 0.00 0.00 0.02 0.21 0.84 0.34 0.21 0.26 0.23 0.19 0.13 0.14 0.13 0.18 0.18 0.35 0.57 0.20
0.10 0.26 0.17 0.02 0.02 0.06 0.12 0.08 0.22 0.24 0.07 0.01 0.00 0.00 0.00 0.00 0.00 0.00 0.00 0.00 0.00 0.00 0.00 0.00 0.00 0.01 0.03 0.03 0.01 0.01 0.00 0.00 0.00 0.06 0.35 0.86 0.35 0.35 0.42 0.32 0.76 0.28 0.19 0.30 0.41 0.17 0.29 0.83 0.32
0.01 0.04 0.09 0.02 0.03 0.08 0.21 0.27 0.16 0.50 0.72 0.06 0.00 0.00 0.00 0.00 0.00 0.00 0.00 0.00 0.00 0.00 0.00 0.00 0.00 0.01 0.16 0.01 0.00 0.07 0.04 0.00 0.00 0.01 0.07 0.19 0.30 0.24 0.36 0.52 0.37 0.26 0.27 0.21 0.31 0.08 0.11 0.15 0.18
0.00 0.01 0.02 0.06 0.02 0.03 0.01 0.43 0.37 0.13 0.27 0.02 0.00 0.00 0.00 0.00 0.00 0.00 0.00 0.00 0.00 0.00 0.00 0.00 0.00 0.05 0.17 0.02 0.00 0.03 0.00 0.00 0.00 0.00 0.03 0.23 0.24 0.23 0.34 0.25 0.19 0.13 0.26 0.81 0.16 0.14 0.10 0.03 0.03
0.00 0.00 0.01 0.02 0.01 0.03 0.01 0.06 0.01 0.06 0.02 0.00 0.00 0.00 0.00 0.00 0.00 0.00 0.00 0.00 0.00 0.00 0.00 0.00 0.00 0.02 0.05 0.03 0.02 0.00 0.00 0.00 0.00 0.00 0.01 0.12 0.19 0.33 0.36 0.36 0.19 0.17 0.20 0.26 0.16 0.11 0.24 0.01 0.00
0.00 0.00 0.00 0.00 0.01 0.06 0.03 0.04 0.01 0.05 0.03 0.00 0.00 0.00 0.00 0.00 0.00 0.00 0.00 0.00 0.00 0.00 0.00 0.00 0.00 0.00 0.01 0.02 0.02 0.00 0.00 0.00 0.00 0.00 0.00 0.01 0.10 0.22 0.24 0.30 0.28 0.31 0.27 0.19 0.15 0.12 0.27 0.02 0.00
0.00 0.00 0.00 0.00 0.00 0.01 0.01 0.02 0.01 0.26 0.40 0.00 0.00 0.00 0.00 0.00 0.00 0.00 0.00 0.00 0.00 0.00 0.00 0.00 0.00 0.00 0.00 0.02 0.02 0.03 0.00 0.00 0.00 0.00 0.00 0.00 0.07 0.15 0.24 0.40 0.28 0.28 0.22 0.21 0.18 0.14 0.08 0.00 0.00
0.00 0.00 0.00 0.00 0.00 0.00 0.01 0.11 0.24 0.19 0.29 0.01 0.01 0.01 0.00 0.00 0.00 0.00 0.00 0.00 0.00 0.00 0.00 0.00 0.00 0.00 0.00 0.00 0.01 0.01 0.01 0.03 0.01 0.01 0.00 0.03 0.08 0.16 0.60 0.51 0.42 0.23 0.30 0.21 0.13 0.12 0.05 0.00 0.00
0.00 0.00 0.00 0.00 0.00 0.01 0.02 0.12 0.51 0.19 0.11 0.16 0.10 0.05 0.00 0.00 0.00 0.00 0.00 0.00 0.00 0.00 0.00 0.00 0.00 0.00 0.00 0.08 0.11 0.07 0.04 0.00 0.00 0.01 0.04 0.07 0.04 0.17 0.37 0.45 0.58 0.27 0.24 0.34 0.28 0.09 0.00 0.00 0.00
0.00 0.00 0.00 0.00 0.00 0.01 0.01 0.05 0.52 0.28 0.22 0.47 0.22 0.10 0.04 0.00 0.00 0.00 0.00 0.00 0.00 0.00 0.00 0.00 0.00 0.01 0.02 0.07 0.03 0.03 0.01 0.00 0.01 0.00 0.01 0.02 0.02 0.12 0.27 0.37 0.53 0.26 0.22 0.23 0.15 0.04 0.00 0.00 0.00
0.00 0.00 0.00 0.00 0.00 0.00 0.01 0.03 0.09 0.07 0.07 0.22 0.14 0.08 0.03 0.00 0.00 0.00 0.00 0.00 0.00 0.00 0.00 0.00 0.00 0.01 0.00 0.01 0.01 0.01 0.01 0.00 0.00 0.01 0.02 0.01 0.02 0.05 0.16 0.38 0.30 0.25 0.26 0.27 0.16 0.10 0.04 0.00 0.00
0.00 0.00 0.00 0.00 0.00 0.00 0.01 0.03 0.07 0.07 0.14 0.13 0.07 0.05 0.09 0.00 0.00 0.00 0.00 0.00 0.00 0.00 0.00 0.00 0.00 0.00 0.01 0.02 0.02 0.07 0.08 0.03 0.01 0.01 0.03 0.01 0.02 0.02 0.16 0.30 0.24 0.33 0.29 0.34 0.20 0.05 0.03 0.01 0.00
0.00 0.00 0.00 0.00 0.00 0.00 0.00 0.00 0.01 0.04 0.32 0.64 0.07 0.00 0.07 0.01 0.01 0.00 0.00 0.00 0.00 0.00 0.00 0.00 0.00 0.00 0.01 0.03 0.01 0.05 0.02 0.01 0.00 0.00 0.00 0.01 0.01 0.01 0.03 0.15 0.23 0.22 0.22 0.30 0.23 0.03 0.01 0.00 0.00
0.00 0.00 0.00 0.00 0.00 0.00 0.00 0.00 0.00 0.00 0.06 0.47 0.16 0.02 0.10 0.15 0.01 0.01 0.00 0.00 0.00 0.00 0.00 0.00 0.00 0.00 0.01 0.02 0.01 0.04 0.01 0.00 0.00 0.00 0.00 0.02 0.03 0.00 0.00 0.08 0.21 0.13 0.15 0.20 0.21 0.11 0.00 0.01 0.00
0.00 0.00 0.00 0.00 0.00 0.00 0.00 0.00 0.00 0.00 0.00 0.07 0.22 0.11 0.02 0.00 0.00 0.01 0.00 0.00 0.00 0.00 0.00 0.00 0.00 0.00 0.00 0.01 0.01 0.04 0.03 0.00 0.00 0.00 0.00 0.00 0.00 0.00 0.01 0.03 0.05 0.09 0.08 0.13 0.16 0.14 0.04 0.00 0.01
0.00 0.00 0.00 0.00 0.00 0.00 0.00 0.00 0.00 0.00 0.00 0.01 0.07 0.18 0.02 0.00 0.00 0.01 0.00 0.00 0.00 0.00 0.00 0.00 0.00 0.00 0.00 0.00 0.00 0.01 0.01 0.01 0.01 0.01 0.00 0.00 0.00 0.00 0.00 0.01 0.08 0.02 0.03 0.07 0.08 0.13 0.09 0.02 0.00
0.00 0.00 0.00 0.00 0.00 0.00 0.00 0.00 0.00 0.00 0.00 0.01 0.03 0.03 0.06 0.00 0.00 0.00 0.00 0.00 0.00 0.00 0.00 0.00 0.00 0.00 0.00 0.00 0.00 0.00 0.00 0.00 0.00 0.00 0.00 0.00 0.00 0.00 0.00 0.00 0.00 0.01 0.02 0.02 0.05 0.04 0.02 0.02 0.00
0.00 0.00 0.00 0.00 0.00 0.00 0.00 0.00 0.00 0.00 0.00 0.00 0.04 0.07 0.06 0.04 0.00 0.00 0.00 0.00 0.00 0.00 0.00 0.00 0.00 0.00 0.00 0.00 0.00 0.00 0.00 0.00 0.00 0.00 0.00 0.00 0.00 0.00 0.00 0.00 0.00 0.00 0.01 0.01 0.03 0.02 0.03 0.04 0.01
0.00 0.00 0.00 0.00 0.00 0.00 0.00 0.00 0.00 0.00 0.00 0.00 0.00 0.04 0.03 0.14 0.16 0.02 0.00 0.00 0.00 0.00 0.00 0.00 0.00 0.00 0.00 0.00 0.00 0.00 0.00 0.00 0.00 0.00 0.00 0.00 0.00 0.00 0.00 0.00 0.00 0.00 0.00 0.00 0.01 0.00 0.01 0.01 0.01
0.00 0.00 0.00 0.00 0.00 0.00 0.00 0.00 0.00 0.00 0.00 0.00 0.00 0.00 0.00 0.03 0.25 0.25 0.06 0.00 0.00 0.00 0.00 0.00 0.00 0.00 0.00 0.00 0.00 0.00 0.00 0.00 0.00 0.00 0.00 0.00 0.00 0.00 0.00 0.00 0.00 0.00 0.00 0.00 0.00 0.00 0.01 0.01 0.00
0.00 0.00 0.00 0.00 0.00 0.00 0.00 0.00 0.00 0.00 0.00 0.00 0.00 0.00 0.00 0.00 0.07 0.31 0.27 0.01 0.00 0.00 0.00 0.00 0.00 0.00 0.00 0.00 0.00 0.00 0.00 0.00 0.00 0.00 0.00 0.00 0.00 0.00 0.00 0.00 0.00 0.00 0.00 0.00 0.00 0.00 0.00 0.00 0.00

GFSSGP_prec_precacc_057.txt.gz
Total_Precipitation_Accumulation
0.02 0.11 0.38 0.96 2.06 0.96 0.96 0.85 0.84 0.42 0.26 0.16 0.10 0.15 0.25 0.21 0.42 0.50 0.12 0.17 0.16 0.24 0.13 0.37 0.81 0.71 0.43 0.19 0.14 0.09 0.06 0.05 0.03 0.06 0.14 0.11 0.10 0.11 0.18 0.10 0.12 0.12 0.11 0.09 0.06 0.06 0.09 0.07 0.09
0.03 0.34 1.11 2.74 2.15 1.84 1.77 0.97 0.82 0.37 0.26 0.22 0.11 0.09 0.03 0.02 0.04 0.05 0.13 0.16 0.04 0.01 0.05 0.08 0.76 0.53 0.27 0.14 0.10 0.08 0.05 0.07 0.13 0.17 0.14 0.11 0.21 0.19 0.19 0.10 0.12 0.14 0.13 0.18 0.26 0.20 0.13 0.15 0.22
0.09 1.12 2.65 2.83 1.23 1.16 1.32 1.41 1.19 0.32 0.28 0.19 0.15 0.14 0.06 0.03 0.01 0.06 0.06 0.05 0.02 0.02 0.03 0.09 0.29 0.29 0.17 0.11 0.09 0.07 0.05 0.05 0.10 0.16 0.13 0.13 0.16 0.15 0.13 0.11 0.07 0.09 0.07 0.05 0.03 0.03 0.10 0.19 0.34
0.27 2.97 3.76 2.19 1.13 0.47 0.37 0.74 0.69 0.68 0.47 0.45 0.25 0.10 0.05 0.02 0.01 0.01 0.01 0.02 0.03 0.03 0.02 0.07 0.10 0.07 0.08 0.12 0.08 0.05 0.07 0.06 0.09 0.10 0.08 0.15 0.16 0.20 0.07 0.10 0.12 0.08 0.04 0.02 0.01 0.02 0.05 0.12 0.26
0.43 2.18 1.60 1.44 1.08 0.87 0.35 0.69 0.87 1.09 0.79 0.67 0.25 0.09 0.10 0.04 0.01 0.00 0.00 0.02 0.04 0.03 0.01 0.02 0.20 0.13 0.08 0.08 0.04 0.06 0.08 0.10 0.08 0.07 0.09 0.14 0.09 0.10 0.09 0.09 0.07 0.07 0.03 0.08 0.07 0.05 0.06 0.14 0.39
1.19 0.83 1.01 1.10 0.42 0.39 0.56 0.86 0.54 1.04 1.09 0.43 0.19 0.11 0.15 0.06 0.02 0.00 0.01 0.02 0.04 0.02 0.01 0.02 0.10 0.10 0.14 0.08 0.07 0.05 0.04 0.05 0.10 0.12 0.10 0.08 0.05 0.06 0.03 0.02 0.01 0.02 0.01 0.06 0.03 0.14 0.13 0.12 0.30
0.92 1.58 1.15 0.62 0.45 0.52 0.62 0.65 0.62 1.16 0.63 0.27 0.30 0.07 0.09 0.06 0.01 0.00 0.00 0.01 0.02 0.01 0.01 0.02 0.02 0.07 0.14 0.13 0.09 0.04 0.06 0.07 0.09 0.07 0.09 0.05 0.02 0.01 0.00 0.01 0.00 0.01 0.03 0.06 0.03 0.06 0.07 0.13 0.21
0.24 0.55 1.95 0.76 0.28 1.54 0.77 0.54 0.63 0.66 0.39 0.17 0.09 0.05 0.04 0.03 0.01 0.00 0.01 0.01 0.01 0.01 0.02 0.01 0.01 0.02 0.04 0.07 0.13 0.04 0.06 0.06 0.09 0.03 0.03 0.06 0.08 0.08 0.05 0.08 0.08 0.03 0.01 0.03 0.05 0.07 0.09 0.12 0.21
0.34 1.19 1.73 0.52 0.35 1.51 0.89 0.42 0.26 0.38 0.12 0.05 0.10 0.07 0.00 0.00 0.00 0.01 0.01 0.02 0.02 0.02 0.01 0.00 0.03 0.06 0.15 0.03 0.09 0.08 0.07 0.07 0.02 0.02 0.11 0.41 0.36 0.37 0.41 0.25 0.11 0.07 0.08 0.07 0.09 0.05 0.09 0.11 0.12
0.28 0.81 0.55 0.07 0.07 0.40 1.60 0.70 0.44 0.24 0.04 0.04 0.04 0.04 0.01 0.01 0.01 0.01 0.01 0.01 0.01 0.00 0.01 0.00 0.00 0.01 0.07 0.02 0.07 0.09 0.02 0.02 0.03 0.05 0.24 0.86 0.36 0.24 0.27 0.23 0.19 0.13 0.16 0.16 0.21 0.18 0.36 0.58 0.20
0.10 0.26 0.17 0.02 0.03 0.13 0.70 0.45 0.23 0.24 0.08 0.04 0.04 0.03 0.00 0.00 0.00 0.00 0.00 0.00 0.00 0.00 0.00 0.00 0.00 0.01 0.03 0.03 0.01 0.03 0.01 0.00 0.01 0.07 0.38 0.88 0.37 0.35 0.42 0.32 0.76 0.30 0.22 0.37 0.49 0.18 0.30 0.88 0.36
0.01 0.04 0.09 0.02 0.03 0.11 0.47 1.10 0.24 0.61 1.18 0.19 0.05 0.01 0.00 0.00 0.00 0.00 0.00 0.00 0.00 0.00 0.00 0.00 0.00 0.01 0.16 0.02 0.00 0.09 0.05 0.01 0.00 0.02 0.08 0.22 0.32 0.24 0.37 0.55 0.41 0.33 0.31 0.25 0.36 0.10 0.12 0.21 0.21
0.00 0.01 0.02 0.06 0.03 0.10 0.09 0.47 0.42 0.51 0.46 0.13 0.05 0.00 0.00 0.00 0.00 0.00 0.00 0.00 0.00 0.00 0.00 0.00 0.00 0.05 0.18 0.03 0.03 0.06 0.03 0.05 0.00 0.00 0.04 0.25 0.25 0.23 0.36 0.30 0.21 0.20 0.30 0.85 0.18 0.15 0.12 0.03 0.03
0.00 0.00 0.01 0.02 0.02 0.05 0.05 0.16 0.03 0.10 0.05 0.03 0.04 0.00 0.00 0.00 0.00 0.00 0.00 0.00 0.00 0.00 0.00 0.00 0.00 0.02 0.06 0.04 0.03 0.01 0.01 0.01 0.00 0.00 0.04 0.22 0.22 0.36 0.43 0.42 0.20 0.18 0.21 0.26 0.16 0.13 0.27 0.02 0.00
0.00 0.00 0.00 0.00 0.02 0.06 0.06 0.14 0.08 0.12 0.10 0.04 0.01 0.00 0.00 0.00 0.00 0.00 0.00 0.00 0.00 0.00 0.00 0.00 0.00 0.00 0.01 0.04 0.05 0.01 0.00 0.01 0.00 0.00 0.00 0.02 0.21 0.31 0.29 0.32 0.29 0.31 0.27 0.19 0.15 0.12 0.27 0.02 0.00
0.00 0.00 0.00 0.00 0.00 0.01 0.02 0.08 0.04 0.47 1.24 0.07 0.00 0.00 0.00 0.00 0.00 0.00 0.00 0.00 0.00 0.00 0.00 0.00 0.00 0.00 0.01 0.02 0.03 0.03 0.00 0.00 0.00 0.00 0.01 0.01 0.09 0.17 0.29 0.41 0.32 0.29 0.22 0.21 0.18 0.14 0.08 0.00 0.00
0.00 0.00 0.00 0.00 0.00 0.00 0.02 0.16 0.26 0.30 0.54 0.09 0.01 0.01 0.00 0.00 0.00 0.00 0.00 0.00 0.00 0.00 0.00 0.00 0.00 0.00 0.00 0.00 0.01 0.01 0.01 0.03 0.02 0.01 0.01 0.03 0.08 0.17 0.66 0.60 0.47 0.24 0.31 0.21 0.13 0.12 0.05 0.00 0.00
0.00 0.00 0.00 0.00 0.00 0.01 0.02 0.14 0.52 0.30 0.65 0.33 0.10 0.06 0.00 0.00 0.00 0.00 0.00 0.00 0.00 0.00 0.00 0.00 0.00 0.00 0.00 0.08 0.11 0.07 0.04 0.00 0.00 0.01 0.04 0.08 0.06 0.19 0.42 0.48 0.61 0.31 0.24 0.34 0.28 0.09 0.00 0.00 0.00
0.00 0.00 0.00 0.00 0.00 0.01 0.01 0.06 0.53 0.29 0.39 0.85 0.30 0.13 0.04 0.00 0.00 0.00 0.00 0.00 0.00 0.00 0.00 0.00 0.00 0.01 0.02 0.07 0.03 0.03 0.01 0.00 0.01 0.00 0.01 0.02 0.03 0.13 0.30 0.41 0.55 0.29 0.22 0.23 0.15 0.04 0.00 0.00 0.00
0.00 0.00 0.00 0.00 0.00 0.00 0.01 0.03 0.10 0.07 0.11 0.51 0.53 0.11 0.03 0.00 0.00 0.00 0.00 0.00 0.00 0.00 0.00 0.00 0.00 0.01 0.00 0.01 0.01 0.01 0.01 0.00 0.00 0.02 0.05 0.01 0.02 0.05 0.18 0.40 0.32 0.27 0.26 0.27 0.16 0.10 0.04 0.00 0.00
0.00 0.00 0.00 0.00 0.00 0.00 0.01 0.03 0.07 0.09 0.15 0.29 0.28 0.13 0.13 0.00 0.00 0.00 0.00 0.00 0.00 0.00 0.00 0.00 0.00 0.00 0.01 0.02 0.02 0.07 0.08 0.03 0.01 0.03 0.04 0.02 0.02 0.02 0.16 0.30 0.24 0.34 0.30 0.34 0.20 0.05 0.03 0.01 0.00
0.00 0.00 0.00 0.00 0.00 0.00 0.00 0.00 0.01 0.06 0.34 1.08 0.83 0.16 0.11 0.03 0.01 0.00 0.00 0.00 0.00 0.00 0.00 0.00 0.00 0.00 0.01 0.03 0.01 0.05 0.02 0.01 0.00 0.00 0.00 0.02 0.01 0.01 0.03 0.16 0.23 0.23 0.22 0.30 0.23 0.03 0.01 0.00 0.00
0.00 0.00 0.00 0.00 0.00 0.00 0.00 0.00 0.00 0.00 0.07 0.63 0.92 0.23 0.13 0.16 0.01 0.01 0.00 0.00 0.00 0.00 0.00 0.00 0.00 0.00 0.01 0.02 0.01 0.04 0.01 0.00 0.00 0.00 0.01 0.02 0.04 0.00 0.00 0.08 0.22 0.14 0.16 0.20 0.21 0.11 0.00 0.01 0.00
0.00 0.00 0.00 0.00 0.00 0.00 0.00 0.00 0.00 0.00 0.00 0.07 0.27 0.23 0.11 0.01 0.00 0.01 0.00 0.00 0.00 0.00 0.00 0.00 0.00 0.00 0.00 0.01 0.01 0.04 0.03 0.00 0.00 0.00 0.00 0.00 0.00 0.00 0.01 0.03 0.06 0.10 0.08 0.13 0.16 0.14 0.04 0.01 0.01
0.00 0.00 0.00 0.00 0.00 0.00 0.00 0.00 0.00 0.00 0.00 0.01 0.07 0.22 0.10 0.05 0.00 0.01 0.00 0.00 0.00 0.00 0.00 0.00 0.00 0.00 0.00 0.00 0.00 0.01 0.01 0.01 0.01 0.01 0.00 0.00 0.00 0.00 0.00 0.01 0.08 0.02 0.04 0.07 0.08 0.13 0.09 0.02 0.00
0.00 0.00 0.00 0.00 0.00 0.00 0.00 0.00 0.00 0.00 0.00 0.01 0.04 0.04 0.08 0.06 0.04 0.01 0.00 0.00 0.00 0.00 0.00 0.00 0.00 0.00 0.00 0.00 0.00 0.00 0.00 0.00 0.00 0.00 0.00 0.00 0.00 0.00 0.00 0.00 0.00 0.01 0.02 0.02 0.05 0.04 0.02 0.02 0.00
0.00 0.00 0.00 0.00 0.00 0.00 0.00 0.00 0.00 0.00 0.00 0.00 0.05 0.08 0.12 0.17 0.13 0.05 0.01 0.00 0.00 0.00 0.00 0.00 0.00 0.00 0.00 0.00 0.00 0.00 0.00 0.00 0.00 0.00 0.00 0.00 0.00 0.00 0.00 0.00 0.00 0.00 0.01 0.01 0.03 0.02 0.03 0.04 0.01
0.00 0.00 0.00 0.00 0.00 0.00 0.00 0.00 0.00 0.00 0.00 0.00 0.00 0.04 0.03 0.30 0.45 0.20 0.07 0.02 0.03 0.00 0.00 0.00 0.00 0.00 0.00 0.00 0.00 0.00 0.00 0.00 0.00 0.00 0.00 0.00 0.00 0.00 0.00 0.00 0.00 0.00 0.00 0.00 0.01 0.00 0.01 0.01 0.01
0.00 0.00 0.00 0.00 0.00 0.00 0.00 0.00 0.00 0.00 0.00 0.00 0.00 0.00 0.00 0.03 0.49 0.82 0.32 0.11 0.03 0.02 0.00 0.00 0.00 0.00 0.00 0.00 0.00 0.00 0.00 0.00 0.00 0.00 0.00 0.00 0.00 0.00 0.00 0.00 0.00 0.00 0.00 0.00 0.00 0.00 0.01 0.01 0.00
0.00 0.00 0.00 0.00 0.00 0.00 0.00 0.00 0.00 0.00 0.00 0.00 0.01 0.01 0.00 0.00 0.08 0.59 0.63 0.15 0.01 0.00 0.00 0.00 0.00 0.00 0.00 0.00 0.00 0.00 0.00 0.00 0.00 0.00 0.00 0.00 0.00 0.00 0.00 0.00 0.00 0.00 0.00 0.00 0.00 0.00 0.00 0.00 0.00

GFSSGP_prec_precacc_060.txt.gz
Total_Precipitation_Accumulation
0.02 0.11 0.38 0.96 2.06 0.96 0.98 0.98 1.01 0.61 0.27 0.16 0.10 0.15 0.25 0.21 0.42 0.50 0.12 0.17 0.16 0.24 0.13 0.37 0.81 0.71 0.44 0.20 0.16 0.11 0.06 0.05 0.03 0.06 0.14 0.11 0.12 0.12 0.20 0.11 0.12 0.12 0.11 0.09 0.07 0.07 0.09 0.07 0.10
0.03 0.34 1.11 2.74 2.15 1.84 1.83 1.35 1.22 0.44 0.26 0.22 0.11 0.10 0.05 0.02 0.05 0.05 0.13 0.16 0.04 0.01 0.05 0.08 0.77 0.55 0.28 0.15 0.11 0.09 0.05 0.07 0.13 0.17 0.15 0.13 0.24 0.20 0.20 0.12 0.13 0.16 0.15 0.18 0.27 0.20 0.13 0.15 0.22
0.09 1.12 2.65 2.84 1.23 1.18 1.39 1.68 1.48 0.37 0.31 0.20 0.15 0.14 0.07 0.03 0.01 0.06 0.06 0.05 0.02 0.02 0.03 0.09 0.29 0.30 0.17 0.11 0.09 0.07 0.05 0.05 0.10 0.16 0.14 0.14 0.17 0.16 0.13 0.11 0.08 0.09 0.07 0.05 0.03 0.03 0.10 0.19 0.34
0.27 2.98 3.77 2.20 1.14 0.55 0.49 0.81 0.71 1.00 0.61 0.51 0.29 0.10 0.05 0.02 0.01 0.01 0.01 0.02 0.03 0.03 0.02 0.07 0.10 0.08 0.09 0.13 0.08 0.05 0.07 0.06 0.09 0.11 0.09 0.16 0.16 0.21 0.07 0.10 0.13 0.08 0.04 0.02 0.01 0.02 0.05 0.12 0.26
0.43 2.18 1.61 1.47 1.21 0.93 0.60 0.80 0.94 1.53 1.04 0.90 0.31 0.09 0.10 0.04 0.01 0.00 0.00 0.02 0.04 0.03 0.01 0.02 0.20 0.13 0.09 0.08 0.04 0.07 0.08 0.10 0.08 0.07 0.09 0.15 0.09 0.10 0.09 0.09 0.07 0.07 0.03 0.08 0.07 0.05 0.06 0.14 0.40
1.19 0.83 1.02 1.15 0.50 0.51 1.20 1.21 0.72 1.08 1.15 0.47 0.20 0.11 0.15 0.06 0.02 0.00 0.01 0.02 0.04 0.02 0.01 0.02 0.11 0.10 0.15 0.08 0.07 0.06 0.04 0.05 0.10 0.12 0.10 0.09 0.05 0.06 0.03 0.02 0.01 0.02 0.01 0.06 0.03 0.14 0.14 0.16 0.30
0.92 1.58 1.16 0.69 0.53 0.75 0.99 0.88 0.83 1.24 0.67 0.27 0.30 0.07 0.10 0.06 0.01 0.00 0.00 0.01 0.02 0.01 0.01 0.02 0.02 0.08 0.15 0.14 0.09 0.04 0.06 0.07 0.09 0.07 0.09 0.05 0.02 0.01 0.00 0.01 0.00 0.01 0.03 0.06 0.03 0.06 0.08 0.14 0.22
0.24 0.55 1.96 0.83 0.30 1.75 1.11 0.77 0.87 0.78 0.48 0.18 0.09 0.05 0.04 0.03 0.01 0.00 0.01 0.01 0.01 0.01 0.02 0.01 0.01 0.02 0.04 0.07 0.13 0.04 0.06 0.06 0.09 0.03 0.03 0.07 0.08 0.09 0.05 0.08 0.08 0.03 0.01 0.03 0.05 0.07 0.11 0.15 0.26
0.34 1.19 1.73 0.53 0.35 1.62 1.04 0.69 0.44 0.44 0.15 0.06 0.12 0.07 0.00 0.00 0.00 0.01 0.01 0.02 0.02 0.02 0.01 0.00 0.03 0.06 0.15 0.03 0.09 0.08 0.07 0.07 0.02 0.03 0.12 0.43 0.36 0.37 0.41 0.26 0.12 0.07 0.08 0.07 0.09 0.06 0.12 0.13 0.15
0.28 0.82 0.55 0.07 0.07 0.43 1.62 0.82 0.46 0.26 0.11 0.05 0.09 0.05 0.01 0.01 0.01 0.01 0.01 0.01 0.01 0.00 0.01 0.00 0.00 0.01 0.07 0.02 0.07 0.09 0.02 0.02 0.04 0.06 0.24 0.86 0.36 0.24 0.27 0.23 0.20 0.13 0.16 0.16 0.21 0.18 0.36 0.58 0.20
0.10 0.26 0.17 0.03 0.04 0.23 0.86 0.58 0.24 0.24 0.08 0.04 0.06 0.05 0.00 0.00 0.00 0.00 0.00 0.00 0.00 0.00 0.00 0.00 0.00 0.01 0.03 0.03 0.01 0.03 0.01 0.01 0.03 0.07 0.38 0.89 0.38 0.35 0.42 0.32 0.76 0.30 0.22 0.37 0.49 0.18 0.30 0.89 0.36
0.01 0.04 0.09 0.02 0.05 0.19 0.65 1.66 0.29 0.62 1.18 0.23 0.13 0.02 0.00 0.00 0.00 0.00 0.00 0.00 0.00 0.00 0.00 0.00 0.00 0.01 0.16 0.02 0.00 0.09 0.05 0.02 0.00 0.02 0.09 0.22 0.32 0.25 0.38 0.55 0.41 0.34 0.31 0.25 0.36 0.10 0.12 0.23 0.21
0.00 0.01 0.02 0.06 0.03 0.15 0.24 0.59 0.43 0.56 0.47 0.21 0.16 0.02 0.00 0.00 0.00 0.00 0.00 0.00 0.00 0.00 0.00 0.00 0.00 0.05 0.18 0.03 0.05 0.07 0.03 0.05 0.00 0.00 0.04 0.25 0.26 0.23 0.36 0.31 0.23 0.21 0.31 0.85 0.18 0.15 0.12 0.04 0.03
0.00 0.00 0.01 0.02 0.02 0.08 0.10 0.20 0.04 0.11 0.06 0.12 0.10 0.01 0.00 0.00 0.00 0.00 0.00 0.00 0.00 0.00 0.00 0.00 0.00 0.02 0.06 0.04 0.04 0.02 0.01 0.01 0.00 0.00 0.04 0.22 0.22 0.38 0.44 0.42 0.23 0.18 0.21 0.26 0.16 0.13 0.27 0.02 0.00
0.00 0.00 0.00 0.00 0.03 0.08 0.17 0.35 0.15 0.13 0.12 0.10 0.04 0.00 0.00 0.00 0.00 0.00 0.00 0.00 0.00 0.00 0.00 0.00 0.00 0.00 0.01 0.04 0.05 0.01 0.00 0.01 0.00 0.00 0.00 0.02 0.21 0.35 0.33 0.34 0.30 0.33 0.28 0.19 0.15 0.12 0.27 0.02 0.00
0.00 0.00 0.00 0.00 0.01 0.01 0.05 0.21 0.10 0.49 1.30 0.11 0.01 0.00 0.00 0.00 0.00 0.00 0.00 0.00 0.00 0.00 0.00 0.00 0.00 0.00 0.01 0.02 0.03 0.03 0.00 0.00 0.00 0.00 0.01 0.02 0.11 0.21 0.30 0.41 0.32 0.29 0.22 0.21 0.18 0.14 0.08 0.00 0.00
0.00 0.00 0.00 0.00 0.00 0.01 0.07 0.18 0.26 0.31 0.60 0.10 0.02 0.01 0.00 0.00 0.00 0.00 0.00 0.00 0.00 0.00 0.00 0.00 0.00 0.00 0.00 0.01 0.02 0.01 0.01 0.03 0.02 0.01 0.01 0.05 0.08 0.17 0.66 0.61 0.48 0.24 0.31 0.21 0.13 0.12 0.05 0.00 0.00
0.00 0.00 0.00 0.00 0.00 0.01 0.02 0.14 0.54 0.31 0.65 0.34 0.12 0.06 0.00 0.00 0.00 0.00 0.00 0.00 0.00 0.00 0.00 0.00 0.00 0.00 0.00 0.08 0.11 0.07 0.04 0.01 0.01 0.01 0.04 0.08 0.06 0.20 0.42 0.49 0.61 0.31 0.24 0.34 0.28 0.09 0.00 0.00 0.00
0.00 0.00 0.00 0.00 0.00 0.01 0.01 0.07 0.53 0.31 0.39 0.85 0.30 0.14 0.04 0.00 0.00 0.00 0.00 0.00 0.00 0.00 0.00 0.00 0.00 0.01 0.02 0.07 0.03 0.03 0.01 0.00 0.01 0.02 0.01 0.02 0.05 0.14 0.30 0.41 0.55 0.29 0.22 0.23 0.15 0.04 0.00 0.00 0.00
0.00 0.00 0.00 0.00 0.00 0.00 0.01 0.04 0.12 0.11 0.13 0.52 0.63 0.13 0.06 0.00 0.00 0.00 0.00 0.00 0.00 0.00 0.00 0.00 0.00 0.01 0.00 0.01 0.01 0.01 0.01 0.00 0.00 0.04 0.09 0.01 0.03 0.07 0.18 0.40 0.32 0.27 0.26 0.27 0.16 0.10 0.04 0.00 0.00
0.00 0.00 0.00 0.00 0.00 0.00 0.02 0.12 0.16 0.20 0.17 0.32 0.81 0.30 0.18 0.01 0.00 0.00 0.00 0.00 0.00 0.00 0.00 0.00 0.00 0.00 0.01 0.02 0.02 0.07 0.08 0.03 0.01 0.03 0.05 0.02 0.02 0.02 0.16 0.30 0.24 0.34 0.30 0.34 0.20 0.05 0.03 0.01 0.00
0.00 0.00 0.00 0.00 0.00 0.00 0.00 0.02 0.06 0.08 0.34 1.11 1.00 0.37 0.15 0.03 0.01 0.00 0.00 0.00 0.00 0.00 0.00 0.00 0.00 0.00 0.01 0.03 0.01 0.05 0.02 0.01 0.00 0.00 0.00 0.02 0.01 0.01 0.03 0.16 0.23 0.23 0.22 0.30 0.23 0.03 0.01 0.00 0.00
0.00 0.00 0.00 0.00 0.00 0.00 0.00 0.00 0.00 0.00 0.07 0.64 0.95 0.26 0.14 0.16 0.01 0.01 0.00 0.00 0.00 0.00 0.00 0.00 0.00 0.00 0.01 0.02 0.01 0.04 0.01 0.00 0.00 0.00 0.01 0.02 0.04 0.00 0.01 0.08 0.23 0.14 0.16 0.20 0.21 0.11 0.00 0.01 0.00
0.00 0.00 0.00 0.00 0.00 0.00 0.00 0.00 0.00 0.00 0.00 0.07 0.27 0.23 0.11 0.01 0.00 0.01 0.00 0.00 0.00 0.00 0.00 0.00 0.00 0.00 0.00 0.01 0.01 0.04 0.03 0.00 0.00 0.00 0.00 0.00 0.00 0.01 0.01 0.03 0.06 0.10 0.08 0.13 0.16 0.14 0.04 0.01 0.01
0.00 0.00 0.00 0.00 0.00 0.00 0.00 0.00 0.00 0.00 0.00 0.01 0.07 0.22 0.10 0.05 0.01 0.01 0.00 0.00 0.00 0.00 0.00 0.00 0.00 0.00 0.00 0.00 0.00 0.01 0.01 0.01 0.01 0.01 0.00 0.00 0.00 0.00 0.00 0.01 0.08 0.02 0.04 0.07 0.08 0.13 0.09 0.02 0.00
0.00 0.00 0.00 0.00 0.00 0.00 0.00 0.00 0.00 0.00 0.00 0.01 0.04 0.05 0.11 0.07 0.08 0.04 0.00 0.00 0.00 0.00 0.00 0.00 0.00 0.00 0.00 0.00 0.00 0.00 0.00 0.00 0.00 0.00 0.00 0.00 0.00 0.00 0.00 0.00 0.00 0.01 0.02 0.02 0.05 0.04 0.02 0.02 0.00
0.00 0.00 0.00 0.00 0.00 0.00 0.00 0.00 0.00 0.00 0.00 0.00 0.05 0.08 0.13 0.18 0.15 0.09 0.01 0.01 0.00 0.00 0.00 0.00 0.00 0.00 0.00 0.00 0.00 0.00 0.00 0.00 0.00 0.00 0.00 0.00 0.00 0.00 0.00 0.00 0.00 0.00 0.01 0.01 0.03 0.02 0.03 0.04 0.01
0.00 0.00 0.00 0.00 0.00 0.00 0.00 0.00 0.00 0.00 0.00 0.00 0.00 0.04 0.03 0.30 0.45 0.21 0.08 0.03 0.06 0.02 0.00 0.00 0.00 0.00 0.00 0.00 0.00 0.00 0.00 0.00 0.00 0.00 0.00 0.00 0.00 0.00 0.00 0.00 0.00 0.00 0.00 0.00 0.01 0.00 0.01 0.01 0.01
0.00 0.00 0.00 0.00 0.00 0.00 0.00 0.00 0.00 0.00 0.00 0.00 0.00 0.00 0.00 0.03 0.49 0.83 0.32 0.11 0.04 0.05 0.00 0.00 0.00 0.00 0.00 0.00 0.00 0.00 0.00 0.00 0.00 0.00 0.00 0.00 0.00 0.00 0.00 0.00 0.00 0.00 0.00 0.00 0.00 0.00 0.01 0.01 0.00
0.00 0.00 0.00 0.00 0.00 0.00 0.00 0.00 0.00 0.00 0.00 0.00 0.02 0.02 0.01 0.06 0.13 0.61 0.63 0.15 0.01 0.00 0.00 0.00 0.00 0.00 0.00 0.00 0.00 0.00 0.00 0.00 0.00 0.00 0.00 0.00 0.00 0.00 0.00 0.00 0.00 0.00 0.00 0.00 0.00 0.00 0.00 0.00 0.00

GFSSGP_prec_precacc_063.txt.gz
Total_Precipitation_Accumulation
0.02 0.11 0.38 0.96 2.06 0.96 0.99 1.09 1.03 0.64 0.28 0.19 0.11 0.15 0.25 0.21 0.43 0.51 0.12 0.17 0.16 0.24 0.13 0.38 0.82 0.72 0.45 0.20 0.16 0.11 0.06 0.05 0.03 0.06 0.14 0.11 0.12 0.12 0.20 0.11 0.12 0.12 0.12 0.11 0.08 0.07 0.09 0.07 0.10
0.03 0.34 1.11 2.74 2.16 1.84 1.89 1.49 1.54 0.59 0.28 0.27 0.12 0.10 0.07 0.04 0.10 0.06 0.13 0.16 0.04 0.01 0.05 0.08 0.77 0.55 0.29 0.15 0.11 0.09 0.05 0.07 0.13 0.17 0.15 0.13 0.24 0.20 0.20 0.13 0.13 0.16 0.16 0.19 0.27 0.20 0.13 0.16 0.23
0.09 1.12 2.65 2.84 1.23 1.19 1.46 1.81 1.87 0.59 0.33 0.22 0.18 0.18 0.13 0.11 0.06 0.06 0.06 0.05 0.02 0.02 0.03 0.09 0.29 0.31 0.17 0.12 0.09 0.07 0.05 0.05 0.11 0.17 0.14 0.15 0.17 0.16 0.13 0.12 0.08 0.09 0.07 0.05 0.03 0.03 0.10 0.19 0.34
0.27 2.98 3.77 2.20 1.14 0.67 0.73 0.89 0.81 1.24 0.75 0.64 0.39 0.18 0.13 0.13 0.01 0.01 0.01 0.02 0.03 0.03 0.02 0.07 0.10 0.08 0.09 0.13 0.08 0.05 0.07 0.07 0.10 0.13 0.10 0.16 0.16 0.21 0.08 0.11 0.14 0.09 0.04 0.02 0.01 0.02 0.05 0.13 0.30
0.43 2.18 1.63 1.49 1.26 1.00 0.69 0.91 1.05 1.94 1.34 1.11 0.32 0.10 0.11 0.06 0.01 0.00 0.00 0.02 0.04 0.03 0.01 0.02 0.20 0.13 0.10 0.11 0.05 0.07 0.09 0.11 0.09 0.08 0.10 0.16 0.10 0.11 0.11 0.11 0.08 0.07 0.04 0.08 0.07 0.06 0.11 0.25 0.54
1.19 0.83 1.05 1.21 0.62 0.60 1.26 1.36 0.88 1.15 1.19 0.48 0.20 0.11 0.15 0.06 0.02 0.00 0.01 0.02 0.04 0.02 0.01 0.02 0.11 0.10 0.17 0.10 0.07 0.06 0.05 0.06 0.11 0.13 0.13 0.09 0.06 0.06 0.04 0.02 0.02 0.02 0.01 0.06 0.03 0.16 0.21 0.22 0.32
0.92 1.58 1.18 0.78 0.64 0.88 1.25 1.00 1.03 1.34 0.68 0.27 0.31 0.07 0.10 0.06 0.01 0.00 0.00 0.01 0.02 0.01 0.01 0.02 0.02 0.08 0.15 0.16 0.10 0.05 0.06 0.07 0.09 0.08 0.10 0.05 0.02 0.01 0.00 0.01 0.00 0.01 0.03 0.06 0.04 0.08 0.08 0.14 0.22
0.24 0.55 1.97 0.89 0.32 1.89 1.32 0.85 1.00 0.89 0.53 0.18 0.09 0.05 0.04 0.03 0.01 0.00 0.01 0.02 0.01 0.01 0.02 0.01 0.01 0.02 0.04 0.08 0.14 0.04 0.06 0.06 0.09 0.04 0.03 0.07 0.09 0.09 0.05 0.08 0.08 0.03 0.01 0.03 0.08 0.13 0.12 0.16 0.27
0.34 1.20 1.74 0.53 0.36 1.69 1.06 0.78 0.56 0.51 0.16 0.06 0.14 0.07 0.00 0.00 0.00 0.01 0.01 0.02 0.02 0.02 0.01 0.00 0.03 0.06 0.15 0.03 0.10 0.08 0.07 0.07 0.02 0.03 0.13 0.45 0.36 0.37 0.41 0.26 0.12 0.07 0.08 0.07 0.11 0.09 0.13 0.14 0.15
0.30 0.88 0.57 0.08 0.08 0.50 1.66 0.85 0.55 0.28 0.19 0.15 0.10 0.05 0.01 0.01 0.01 0.01 0.01 0.01 0.01 0.00 0.01 0.00 0.00 0.01 0.07 0.02 0.07 0.09 0.02 0.02 0.04 0.06 0.26 0.87 0.36 0.24 0.27 0.23 0.20 0.13 0.17 0.18 0.22 0.18 0.36 0.58 0.20
0.10 0.27 0.17 0.03 0.04 0.25 0.89 0.58 0.24 0.25 0.10 0.08 0.07 0.05 0.00 0.00 0.00 0.00 0.00 0.00 0.00 0.00 0.00 0.00 0.00 0.01 0.03 0.03 0.01 0.03 0.01 0.01 0.03 0.07 0.38 0.89 0.38 0.35 0.43 0.32 0.76 0.31 0.24 0.42 0.49 0.18 0.30 0.89 0.36
0.01 0.04 0.09 0.02 0.05 0.20 0.65 1.66 0.29 0.63 1.18 0.24 0.15 0.02 0.00 0.00 0.00 0.00 0.00 0.00 0.00 0.00 0.00 0.00 0.00 0.01 0.16 0.02 0.00 0.09 0.05 0.02 0.00 0.02 0.09 0.22 0.32 0.25 0.38 0.55 0.41 0.34 0.31 0.25 0.36 0.10 0.12 0.23 0.21
0.00 0.01 0.02 0.06 0.03 0.15 0.25 0.59 0.44 0.59 0.47 0.28 0.23 0.02 0.00 0.00 0.00 0.00 0.00 0.00 0.00 0.00 0.00 0.00 0.00 0.05 0.18 0.03 0.05 0.07 0.03 0.05 0.00 0.00 0.04 0.25 0.26 0.23 0.36 0.31 0.25 0.21 0.31 0.85 0.18 0.15 0.12 0.04 0.03
0.00 0.00 0.01 0.02 0.02 0.08 0.10 0.20 0.04 0.12 0.11 0.23 0.17 0.02 0.00 0.00 0.00 0.00 0.00 0.00 0.00 0.00 0.00 0.00 0.00 0.02 0.06 0.04 0.04 0.02 0.01 0.01 0.00 0.00 0.04 0.22 0.24 0.39 0.46 0.44 0.24 0.19 0.21 0.26 0.16 0.13 0.27 0.02 0.00
0.00 0.00 0.00 0.00 0.03 0.08 0.17 0.36 0.15 0.23 0.14 0.19 0.11 0.01 0.00 0.00 0.00 0.00 0.00 0.00 0.00 0.00 0.00 0.00 0.00 0.00 0.01 0.04 0.05 0.01 0.00 0.02 0.00 0.00 0.00 0.02 0.21 0.35 0.33 0.35 0.31 0.33 0.28 0.19 0.15 0.12 0.27 0.02 0.00
0.00 0.00 0.00 0.00 0.01 0.02 0.06 0.21 0.12 0.55 1.30 0.15 0.08 0.01 0.00 0.00 0.00 0.00 0.00 0.00 0.00 0.00 0.00 0.00 0.00 0.00 0.01 0.03 0.04 0.03 0.00 0.00 0.00 0.00 0.01 0.06 0.12 0.21 0.31 0.41 0.32 0.30 0.22 0.21 0.18 0.14 0.08 0.00 0.00
0.00 0.00 0.00 0.00 0.01 0.03 0.08 0.19 0.26 0.32 0.61 0.12 0.05 0.03 0.00 0.00 0.00 0.00 0.00 0.00 0.00 0.00 0.00 0.00 0.00 0.00 0.00 0.01 0.02 0.01 0.01 0.03 0.02 0.01 0.03 0.09 0.09 0.18 0.67 0.61 0.48 0.24 0.31 0.21 0.13 0.12 0.05 0.00 0.00
0.00 0.00 0.00 0.00 0.01 0.02 0.03 0.15 0.54 0.31 0.65 0.35 0.15 0.07 0.00 0.00 0.00 0.00 0.00 0.00 0.00 0.00 0.00 0.00 0.00 0.00 0.00 0.08 0.13 0.07 0.04 0.01 0.01 0.01 0.07 0.15 0.12 0.26 0.43 0.49 0.61 0.31 0.24 0.34 0.28 0.09 0.00 0.00 0.00
0.00 0.00 0.00 0.00 0.00 0.01 0.01 0.07 0.53 0.31 0.41 0.85 0.31 0.15 0.04 0.00 0.00 0.00 0.00 0.00 0.00 0.00 0.00 0.00 0.00 0.01 0.02 0.07 0.03 0.03 0.01 0.00 0.01 0.04 0.06 0.08 0.07 0.15 0.31 0.41 0.55 0.30 0.22 0.23 0.15 0.04 0.00 0.00 0.00
0.00 0.00 0.00 0.00 0.00 0.00 0.01 0.04 0.13 0.18 0.15 0.52 0.63 0.13 0.06 0.00 0.00 0.00 0.00 0.00 0.00 0.00 0.00 0.00 0.00 0.01 0.00 0.01 0.01 0.01 0.01 0.01 0.02 0.06 0.10 0.04 0.09 0.11 0.18 0.40 0.32 0.27 0.26 0.27 0.16 0.10 0.04 0.00 0.00
0.00 0.00 0.00 0.00 0.00 0.00 0.02 0.13 0.24 0.40 0.22 0.32 0.81 0.30 0.18 0.01 0.00 0.00 0.00 0.00 0.00 0.00 0.00 0.00 0.00 0.00 0.01 0.02 0.02 0.07 0.08 0.03 0.02 0.05 0.05 0.02 0.02 0.03 0.16 0.30 0.24 0.34 0.30 0.34 0.20 0.05 0.03 0.01 0.00
0.00 0.00 0.00 0.00 0.00 0.00 0.00 0.03 0.11 0.18 0.34 1.11 1.00 0.37 0.15 0.03 0.01 0.00 0.00 0.00 0.00 0.00 0.00 0.00 0.00 0.00 0.01 0.03 0.01 0.05 0.02 0.01 0.00 0.01 0.01 0.02 0.02 0.01 0.06 0.16 0.23 0.23 0.22 0.30 0.23 0.03 0.01 0.00 0.00
0.00 0.00 0.00 0.00 0.00 0.00 0.00 0.00 0.00 0.01 0.07 0.64 0.95 0.26 0.14 0.16 0.01 0.01 0.00 0.00 0.00 0.00 0.00 0.00 0.00 0.00 0.01 0.02 0.01 0.04 0.01 0.00 0.00 0.00 0.01 0.02 0.05 0.00 0.04 0.12 0.23 0.14 0.16 0.20 0.21 0.11 0.00 0.01 0.00
0.00 0.00 0.00 0.00 0.00 0.00 0.00 0.00 0.00 0.00 0.00 0.07 0.27 0.23 0.11 0.01 0.00 0.01 0.00 0.00 0.00 0.00 0.00 0.00 0.00 0.00 0.00 0.01 0.01 0.04 0.03 0.00 0.00 0.00 0.00 0.00 0.00 0.01 0.02 0.04 0.06 0.10 0.08 0.13 0.16 0.14 0.04 0.01 0.01
0.00 0.00 0.00 0.00 0.00 0.00 0.00 0.00 0.00 0.00 0.00 0.01 0.07 0.22 0.10 0.05 0.01 0.01 0.00 0.00 0.00 0.00 0.00 0.00 0.00 0.00 0.00 0.00 0.00 0.01 0.01 0.01 0.01 0.01 0.00 0.00 0.00 0.00 0.00 0.01 0.08 0.02 0.04 0.07 0.08 0.16 0.09 0.02 0.00
0.00 0.00 0.00 0.00 0.00 0.00 0.00 0.00 0.00 0.00 0.00 0.01 0.04 0.05 0.11 0.07 0.08 0.04 0.00 0.00 0.00 0.00 0.00 0.00 0.00 0.00 0.00 0.00 0.00 0.00 0.00 0.00 0.00 0.00 0.00 0.00 0.00 0.00 0.00 0.00 0.00 0.01 0.02 0.02 0.05 0.05 0.03 0.02 0.00
0.00 0.00 0.00 0.00 0.00 0.00 0.00 0.00 0.00 0.00 0.00 0.00 0.05 0.08 0.13 0.18 0.15 0.09 0.01 0.01 0.00 0.00 0.00 0.00 0.00 0.00 0.00 0.00 0.00 0.00 0.00 0.00 0.00 0.00 0.00 0.00 0.00 0.00 0.00 0.01 0.00 0.00 0.01 0.01 0.03 0.02 0.03 0.04 0.01
0.00 0.00 0.00 0.00 0.00 0.00 0.00 0.00 0.00 0.00 0.00 0.00 0.00 0.04 0.03 0.30 0.45 0.21 0.08 0.03 0.06 0.02 0.00 0.00 0.00 0.00 0.00 0.00 0.00 0.00 0.00 0.00 0.00 0.00 0.00 0.00 0.00 0.00 0.00 0.00 0.02 0.01 0.00 0.00 0.01 0.00 0.01 0.01 0.01
0.00 0.00 0.00 0.00 0.00 0.00 0.00 0.00 0.00 0.00 0.00 0.00 0.00 0.00 0.00 0.03 0.49 0.83 0.33 0.14 0.05 0.05 0.01 0.00 0.00 0.00 0.00 0.00 0.00 0.00 0.00 0.00 0.00 0.00 0.00 0.00 0.00 0.00 0.00 0.00 0.00 0.01 0.00 0.00 0.00 0.00 0.01 0.01 0.00
0.00 0.00 0.00 0.00 0.00 0.00 0.00 0.00 0.00 0.00 0.00 0.00 0.02 0.02 0.01 0.06 0.13 0.61 0.73 0.36 0.14 0.07 0.04 0.03 0.01 0.00 0.00 0.00 0.00 0.00 0.00 0.00 0.00 0.00 0.00 0.00 0.00 0.00 0.01 0.00 0.00 0.00 0.00 0.00 0.00 0.00 0.00 0.00 0.00

GFSSGP_prec_precacc_066.txt.gz
Total_Precipitation_Accumulation
0.02 0.11 0.38 0.96 2.07 0.96 0.99 1.10 1.09 0.68 0.30 0.22 0.11 0.15 0.25 0.21 0.44 0.51 0.12 0.17 0.16 0.24 0.13 0.40 0.86 0.72 0.48 0.20 0.16 0.11 0.07 0.05 0.03 0.06 0.14 0.12 0.13 0.12 0.20 0.13 0.12 0.13 0.14 0.12 0.09 0.09 0.11 0.11 0.13
0.03 0.34 1.11 2.74 2.16 1.85 1.96 1.58 1.62 0.75 0.35 0.38 0.12 0.10 0.09 0.04 0.10 0.06 0.13 0.16 0.04 0.01 0.05 0.08 0.78 0.58 0.36 0.17 0.12 0.09 0.06 0.07 0.13 0.17 0.15 0.13 0.25 0.20 0.21 0.14 0.15 0.17 0.21 0.30 0.28 0.21 0.16 0.17 0.23
0.09 1.12 2.65 2.85 1.24 1.20 1.54 1.97 2.12 0.88 0.41 0.30 0.19 0.26 0.17 0.17 0.07 0.06 0.06 0.05 0.02 0.02 0.03 0.09 0.30 0.32 0.20 0.14 0.09 0.07 0.06 0.05 0.11 0.17 0.14 0.15 0.17 0.16 0.14 0.13 0.09 0.10 0.07 0.11 0.04 0.05 0.13 0.20 0.35
0.27 2.98 3.77 2.20 1.15 0.72 0.95 0.99 0.98 1.50 0.88 0.74 0.44 0.24 0.21 0.21 0.02 0.01 0.01 0.02 0.03 0.03 0.02 0.07 0.11 0.08 0.09 0.13 0.08 0.06 0.09 0.07 0.11 0.13 0.10 0.16 0.16 0.21 0.08 0.13 0.16 0.09 0.05 0.02 0.02 0.03 0.07 0.15 0.40
0.43 2.19 1.63 1.52 1.44 1.09 0.80 0.99 1.69 2.82 1.58 1.30 0.35 0.13 0.16 0.09 0.01 0.00 0.00 0.02 0.04 0.03 0.01 0.02 0.21 0.14 0.10 0.11 0.08 0.09 0.11 0.11 0.13 0.08 0.10 0.16 0.10 0.14 0.15 0.14 0.15 0.13 0.05 0.08 0.08 0.08 0.13 0.26 0.58
1.19 0.84 1.07 1.26 0.70 0.66 1.33 1.45 1.26 1.42 1.21 0.50 0.25 0.16 0.16 0.06 0.02 0.00 0.01 0.02 0.04 0.02 0.01 0.02 0.11 0.10 0.17 0.11 0.09 0.09 0.07 0.07 0.11 0.13 0.13 0.09 0.07 0.16 0.16 0.07 0.03 0.03 0.02 0.06 0.04 0.17 0.22 0.29 0.36
0.92 1.59 1.18 0.78 0.65 0.92 1.29 1.25 1.17 1.41 0.68 0.27 0.32 0.08 0.11 0.07 0.01 0.00 0.00 0.01 0.02 0.01 0.01 0.02 0.02 0.11 0.16 0.16 0.13 0.12 0.11 0.07 0.10 0.08 0.11 0.05 0.04 0.11 0.13 0.04 0.01 0.02 0.04 0.06 0.04 0.08 0.09 0.16 0.23
0.24 0.55 1.97 0.89 0.32 1.94 1.34 0.93 1.11 0.93 0.55 0.19 0.09 0.05 0.05 0.03 0.01 0.00 0.01 0.02 0.03 0.01 0.02 0.01 0.01 0.03 0.04 0.08 0.16 0.06 0.06 0.06 0.10 0.04 0.03 0.07 0.10 0.15 0.09 0.09 0.11 0.04 0.01 0.03 0.08 0.13 0.12 0.19 0.27
0.34 1.20 1.74 0.53 0.36 1.73 1.08 0.90 0.62 0.55 0.16 0.07 0.14 0.07 0.00 0.00 0.00 0.01 0.02 0.02 0.02 0.02 0.01 0.00 0.03 0.06 0.15 0.03 0.10 0.09 0.07 0.07 0.02 0.03 0.13 0.45 0.36 0.37 0.41 0.26 0.14 0.07 0.08 0.07 0.11 0.11 0.20 0.17 0.15
0.31 0.88 0.58 0.08 0.08 0.51 1.67 0.95 0.65 0.30 0.19 0.15 0.11 0.05 0.01 0.01 0.01 0.01 0.01 0.01 0.01 0.01 0.01 0.00 0.00 0.01 0.07 0.02 0.07 0.09 0.02 0.02 0.04 0.06 0.26 0.87 0.36 0.24 0.28 0.25 0.20 0.13 0.17 0.18 0.22 0.19 0.37 0.59 0.20
0.10 0.27 0.17 0.03 0.04 0.25 0.92 0.60 0.26 0.26 0.11 0.11 0.07 0.05 0.00 0.00 0.00 0.00 0.00 0.00 0.00 0.00 0.00 0.00 0.00 0.01 0.03 0.03 0.01 0.03 0.01 0.01 0.03 0.07 0.38 0.89 0.38 0.35 0.45 0.36 0.77 0.32 0.26 0.42 0.49 0.19 0.30 0.89 0.36
0.01 0.04 0.09 0.02 0.05 0.20 0.66 1.66 0.29 0.63 1.19 0.28 0.17 0.02 0.00 0.00 0.00 0.00 0.00 0.00 0.00 0.00 0.00 0.00 0.00 0.01 0.16 0.02 0.00 0.09 0.05 0.02 0.01 0.02 0.09 0.22 0.32 0.25 0.38 0.56 0.41 0.34 0.31 0.25 0.36 0.11 0.12 0.25 0.22
0.00 0.01 0.02 0.06 0.03 0.15 0.25 0.59 0.45 0.59 0.49 0.30 0.25 0.04 0.01 0.01 0.00 0.01 0.01 0.00 0.00 0.00 0.00 0.00 0.00 0.05 0.18 0.03 0.05 0.07 0.03 0.05 0.00 0.00 0.04 0.25 0.26 0.23 0.36 0.31 0.25 0.21 0.31 0.85 0.18 0.16 0.12 0.04 0.03
0.00 0.00 0.01 0.02 0.02 0.08 0.10 0.20 0.05 0.13 0.17 0.33 0.24 0.03 0.00 0.00 0.00 0.01 0.01 0.00 0.00 0.00 0.00 0.00 0.00 0.02 0.06 0.04 0.04 0.02 0.01 0.01 0.00 0.00 0.06 0.23 0.24 0.47 0.50 0.45 0.25 0.19 0.21 0.26 0.16 0.13 0.28 0.02 0.00
0.00 0.00 0.00 0.00 0.03 0.08 0.17 0.36 0.16 0.24 0.20 0.29 0.12 0.01 0.00 0.00 0.00 0.00 0.00 0.00 0.00 0.00 0.00 0.00 0.00 0.00 0.01 0.04 0.05 0.01 0.00 0.02 0.00 0.01 0.04 0.05 0.24 0.42 0.39 0.38 0.31 0.33 0.28 0.19 0.15 0.12 0.27 0.02 0.00
0.00 0.00 0.00 0.00 0.01 0.02 0.07 0.23 0.14 0.55 1.36 0.20 0.08 0.01 0.00 0.00 0.00 0.00 0.00 0.00 0.00 0.00 0.00 0.00 0.00 0.00 0.01 0.03 0.04 0.03 0.00 0.00 0.00 0.00 0.01 0.15 0.27 0.28 0.32 0.44 0.32 0.30 0.22 0.21 0.18 0.14 0.08 0.00 0.00
0.00 0.00 0.00 0.00 0.01 0.05 0.11 0.20 0.27 0.32 0.61 0.12 0.06 0.03 0.00 0.00 0.00 0.00 0.00 0.00 0.00 0.00 0.00 0.00 0.00 0.00 0.00 0.01 0.02 0.01 0.01 0.03 0.02 0.01 0.03 0.17 0.20 0.24 0.77 0.64 0.48 0.24 0.31 0.21 0.13 0.12 0.05 0.00 0.00
0.00 0.00 0.00 0.00 0.01 0.03 0.03 0.15 0.54 0.31 0.65 0.35 0.15 0.07 0.00 0.00 0.00 0.00 0.00 0.00 0.00 0.00 0.00 0.00 0.00 0.00 0.00 0.08 0.13 0.07 0.04 0.01 0.01 0.01 0.07 0.20 0.16 0.34 0.52 0.51 0.61 0.31 0.24 0.34 0.28 0.09 0.00 0.00 0.00
0.00 0.00 0.00 0.00 0.00 0.01 0.01 0.07 0.53 0.31 0.41 0.85 0.31 0.15 0.04 0.00 0.00 0.00 0.00 0.00 0.00 0.00 0.00 0.00 0.00 0.01 0.02 0.07 0.03 0.03 0.01 0.00 0.01 0.04 0.07 0.11 0.08 0.19 0.33 0.43 0.55 0.30 0.22 0.23 0.15 0.04 0.00 0.00 0.00
0.00 0.00 0.00 0.00 0.00 0.00 0.01 0.04 0.13 0.18 0.20 0.53 0.63 0.13 0.06 0.00 0.00 0.00 0.00 0.00 0.00 0.00 0.00 0.00 0.00 0.01 0.00 0.01 0.01 0.01 0.01 0.01 0.02 0.06 0.11 0.04 0.11 0.18 0.18 0.41 0.32 0.27 0.26 0.27 0.16 0.10 0.04 0.00 0.00
0.00 0.00 0.00 0.00 0.00 0.00 0.02 0.13 0.24 0.41 0.23 0.32 0.81 0.30 0.18 0.01 0.00 0.00 0.00 0.00 0.00 0.00 0.00 0.00 0.00 0.00 0.01 0.02 0.02 0.07 0.08 0.03 0.02 0.05 0.07 0.02 0.03 0.08 0.18 0.30 0.24 0.34 0.30 0.34 0.20 0.05 0.03 0.01 0.00
0.00 0.00 0.00 0.00 0.00 0.00 0.00 0.03 0.11 0.19 0.35 1.11 1.00 0.37 0.15 0.03 0.01 0.00 0.00 0.00 0.00 0.00 0.00 0.00 0.00 0.00 0.01 0.03 0.01 0.05 0.02 0.01 0.00 0.01 0.01 0.02 0.02 0.03 0.08 0.16 0.23 0.23 0.22 0.30 0.23 0.03 0.01 0.00 0.00
0.00 0.00 0.00 0.00 0.00 0.00 0.00 0.00 0.00 0.01 0.07 0.64 0.95 0.26 0.14 0.16 0.01 0.01 0.00 0.00 0.00 0.00 0.00 0.00 0.00 0.00 0.01 0.02 0.01 0.04 0.01 0.00 0.00 0.00 0.01 0.03 0.05 0.01 0.07 0.13 0.29 0.15 0.16 0.20 0.21 0.11 0.00 0.01 0.00
0.00 0.00 0.00 0.00 0.00 0.00 0.00 0.00 0.00 0.00 0.00 0.07 0.27 0.23 0.11 0.01 0.00 0.01 0.00 0.00 0.00 0.00 0.00 0.00 0.00 0.00 0.00 0.01 0.01 0.04 0.03 0.00 0.00 0.00 0.00 0.00 0.01 0.02 0.03 0.05 0.13 0.15 0.08 0.13 0.16 0.14 0.04 0.01 0.01
0.00 0.00 0.00 0.00 0.00 0.00 0.00 0.00 0.00 0.00 0.00 0.01 0.07 0.22 0.10 0.05 0.01 0.01 0.00 0.00 0.00 0.00 0.00 0.00 0.00 0.00 0.00 0.00 0.00 0.01 0.01 0.01 0.01 0.01 0.00 0.00 0.00 0.00 0.00 0.01 0.11 0.05 0.04 0.08 0.09 0.16 0.09 0.02 0.00
0.00 0.00 0.00 0.00 0.00 0.00 0.00 0.00 0.00 0.00 0.00 0.01 0.04 0.05 0.11 0.07 0.08 0.04 0.00 0.00 0.00 0.00 0.00 0.00 0.00 0.00 0.00 0.00 0.00 0.00 0.00 0.00 0.00 0.00 0.00 0.00 0.00 0.00 0.01 0.03 0.02 0.05 0.02 0.02 0.06 0.06 0.04 0.02 0.00
0.00 0.00 0.00 0.00 0.00 0.00 0.00 0.00 0.00 0.00 0.00 0.00 0.05 0.08 0.13 0.18 0.15 0.09 0.01 0.01 0.00 0.00 0.00 0.00 0.00 0.00 0.00 0.00 0.00 0.00 0.00 0.00 0.00 0.00 0.00 0.00 0.00 0.00 0.01 0.04 0.04 0.02 0.02 0.02 0.05 0.03 0.05 0.07 0.01
0.00 0.00 0.00 0.00 0.00 0.00 0.00 0.00 0.00 0.00 0.00 0.00 0.00 0.04 0.03 0.30 0.45 0.21 0.08 0.03 0.06 0.02 0.00 0.00 0.00 0.00 0.00 0.00 0.00 0.00 0.00 0.00 0.00 0.00 0.00 0.00 0.00 0.00 0.00 0.01 0.04 0.04 0.03 0.02 0.01 0.01 0.01 0.01 0.01
0.00 0.00 0.00 0.00 0.00 0.00 0.00 0.00 0.00 0.00 0.00 0.00 0.00 0.00 0.00 0.03 0.49 0.84 0.38 0.17 0.07 0.06 0.01 0.00 0.00 0.00 0.00 0.00 0.00 0.00 0.00 0.00 0.00 0.00 0.00 0.00 0.00 0.00 0.00 0.00 0.02 0.02 0.03 0.02 0.01 0.00 0.01 0.01 0.00
0.00 0.00 0.00 0.00 0.00 0.00 0.00 0.00 0.00 0.00 0.00 0.00 0.02 0.02 0.01 0.06 0.13 0.61 0.77 0.45 0.19 0.09 0.05 0.03 0.01 0.00 0.00 0.00 0.00 0.00 0.00 0.00 0.00 0.00 0.00 0.00 0.00 0.00 0.01 0.00 0.00 0.00 0.00 0.02 0.00 0.01 0.00 0.00 0.00

GFSSGP_prec_precacc_069.txt.gz
Total_Precipitation_Accumulation
0.02 0.11 0.38 0.96 2.07 0.96 0.99 1.17 1.22 0.80 0.32 0.22 0.11 0.15 0.25 0.21 0.44 0.51 0.12 0.17 0.16 0.24 0.13 0.40 0.88 0.72 0.48 0.20 0.16 0.11 0.07 0.05 0.04 0.06 0.15 0.13 0.13 0.13 0.24 0.13 0.14 0.15 0.15 0.12 0.10 0.11 0.18 0.16 0.17
0.03 0.34 1.11 2.74 2.16 1.85 1.99 1.65 1.72 0.83 0.42 0.38 0.12 0.10 0.09 0.04 0.11 0.06 0.13 0.16 0.04 0.01 0.05 0.08 0.81 0.59 0.36 0.17 0.12 0.09 0.06 0.07 0.14 0.18 0.18 0.15 0.30 0.25 0.27 0.16 0.16 0.18 0.22 0.31 0.29 0.26 0.20 0.21 0.29
0.09 1.12 2.65 2.85 1.24 1.20 1.62 2.14 2.31 1.00 0.48 0.31 0.20 0.26 0.17 0.17 0.07 0.06 0.06 0.05 0.02 0.02 0.03 0.09 0.31 0.33 0.20 0.14 0.09 0.08 0.06 0.05 0.11 0.17 0.16 0.18 0.21 0.18 0.18 0.18 0.12 0.10 0.10 0.14 0.04 0.06 0.13 0.20 0.42
0.27 2.98 3.77 2.20 1.15 0.74 1.06 1.28 1.25 1.64 1.05 0.76 0.44 0.25 0.22 0.21 0.02 0.01 0.01 0.02 0.03 0.03 0.02 0.07 0.11 0.09 0.10 0.13 0.09 0.06 0.09 0.08 0.12 0.14 0.11 0.16 0.17 0.22 0.11 0.15 0.18 0.10 0.06 0.06 0.02 0.03 0.07 0.21 0.46
0.43 2.19 1.63 1.52 1.47 1.19 0.94 1.12 2.38 3.25 1.79 1.32 0.35 0.14 0.17 0.09 0.01 0.00 0.00 0.02 0.04 0.03 0.01 0.03 0.23 0.15 0.10 0.11 0.08 0.09 0.11 0.11 0.13 0.09 0.11 0.16 0.11 0.16 0.24 0.16 0.21 0.18 0.05 0.08 0.08 0.08 0.13 0.30 0.65
1.19 0.84 1.08 1.27 0.71 0.73 1.39 1.58 1.88 1.92 1.23 0.53 0.32 0.17 0.16 0.06 0.02 0.00 0.01 0.02 0.04 0.02 0.01 0.02 0.12 0.12 0.17 0.11 0.09 0.10 0.07 0.07 0.11 0.13 0.13 0.09 0.07 0.18 0.20 0.15 0.07 0.03 0.02 0.06 0.04 0.20 0.28 0.38 0.47
0.92 1.59 1.18 0.78 0.66 1.00 1.34 1.32 1.29 1.45 0.68 0.28 0.34 0.08 0.12 0.07 0.01 0.00 0.00 0.01 0.02 0.01 0.01 0.02 0.02 0.11 0.17 0.18 0.15 0.14 0.14 0.07 0.10 0.08 0.11 0.05 0.05 0.14 0.20 0.08 0.02 0.02 0.04 0.06 0.04 0.16 0.15 0.26 0.30
0.24 0.55 1.97 0.89 0.32 1.99 1.37 1.03 1.19 0.94 0.56 0.20 0.09 0.05 0.05 0.03 0.01 0.00 0.01 0.02 0.03 0.01 0.02 0.01 0.01 0.04 0.06 0.13 0.18 0.08 0.06 0.07 0.10 0.04 0.03 0.09 0.12 0.17 0.11 0.10 0.12 0.04 0.01 0.03 0.09 0.19 0.23 0.36 0.38
0.34 1.20 1.74 0.53 0.36 1.74 1.11 0.99 0.67 0.56 0.17 0.07 0.14 0.07 0.00 0.00 0.00 0.01 0.02 0.03 0.03 0.02 0.01 0.00 0.03 0.07 0.17 0.07 0.14 0.09 0.07 0.07 0.02 0.03 0.13 0.45 0.36 0.37 0.42 0.27 0.15 0.07 0.08 0.07 0.11 0.14 0.29 0.28 0.22
0.32 0.88 0.58 0.08 0.08 0.51 1.72 1.06 0.76 0.31 0.19 0.15 0.11 0.05 0.01 0.01 0.01 0.01 0.01 0.01 0.01 0.01 0.01 0.00 0.00 0.01 0.07 0.03 0.10 0.09 0.03 0.02 0.04 0.06 0.26 0.87 0.36 0.24 0.28 0.25 0.20 0.13 0.17 0.18 0.22 0.21 0.38 0.59 0.23
0.10 0.27 0.17 0.03 0.04 0.25 0.97 0.71 0.31 0.26 0.12 0.12 0.07 0.05 0.01 0.00 0.00 0.00 0.00 0.00 0.00 0.00 0.01 0.00 0.00 0.01 0.03 0.03 0.01 0.03 0.01 0.01 0.03 0.07 0.38 0.89 0.38 0.35 0.45 0.36 0.77 0.32 0.26 0.42 0.49 0.19 0.30 0.89 0.36
0.01 0.04 0.09 0.02 0.05 0.20 0.66 1.67 0.30 0.64 1.26 0.30 0.17 0.02 0.00 0.00 0.00 0.00 0.00 0.00 0.00 0.00 0.00 0.00 0.00 0.01 0.16 0.02 0.00 0.09 0.05 0.02 0.01 0.02 0.09 0.22 0.32 0.25 0.38 0.56 0.41 0.34 0.31 0.25 0.36 0.11 0.12 0.25 0.22
0.00 0.01 0.02 0.06 0.03 0.15 0.25 0.59 0.45 0.61 0.54 0.30 0.25 0.04 0.01 0.01 0.00 0.01 0.01 0.00 0.00 0.00 0.00 0.00 0.00 0.05 0.18 0.03 0.05 0.07 0.03 0.05 0.00 0.00 0.04 0.25 0.26 0.23 0.36 0.31 0.25 0.21 0.31 0.85 0.18 0.16 0.12 0.04 0.03
0.00 0.00 0.01 0.02 0.02 0.08 0.10 0.20 0.06 0.15 0.18 0.37 0.28 0.03 0.00 0.00 0.00 0.01 0.01 0.00 0.00 0.00 0.00 0.00 0.00 0.02 0.06 0.04 0.04 0.02 0.01 0.01 0.00 0.00 0.06 0.23 0.24 0.47 0.51 0.45 0.25 0.19 0.21 0.26 0.16 0.13 0.28 0.02 0.00
0.00 0.00 0.00 0.00 0.03 0.08 0.17 0.37 0.16 0.27 0.32 0.33 0.16 0.02 0.00 0.00 0.00 0.00 0.00 0.00 0.00 0.00 0.00 0.00 0.00 0.00 0.01 0.04 0.05 0.01 0.00 0.02 0.00 0.01 0.04 0.05 0.24 0.43 0.41 0.40 0.33 0.33 0.28 0.19 0.15 0.12 0.27 0.02 0.00
0.00 0.00 0.00 0.00 0.01 0.02 0.07 0.24 0.16 0.61 1.47 0.23 0.10 0.01 0.00 0.00 0.00 0.00 0.00 0.00 0.00 0.00 0.00 0.00 0.00 0.00 0.01 0.03 0.04 0.03 0.00 0.00 0.00 0.00 0.01 0.16 0.27 0.29 0.35 0.47 0.37 0.30 0.22 0.21 0.18 0.14 0.08 0.00 0.00
0.00 0.00 0.00 0.00 0.01 0.05 0.12 0.22 0.29 0.34 0.63 0.16 0.10 0.04 0.00 0.00 0.00 0.00 0.00 0.00 0.00 0.00 0.00 0.00 0.00 0.00 0.00 0.01 0.02 0.01 0.01 0.03 0.02 0.01 0.03 0.17 0.20 0.24 0.80 0.66 0.49 0.24 0.31 0.21 0.13 0.12 0.05 0.00 0.00
0.00 0.00 0.00 0.00 0.01 0.03 0.03 0.15 0.54 0.31 0.66 0.39 0.19 0.08 0.00 0.00 0.00 0.00 0.00 0.00 0.00 0.00 0.00 0.00 0.00 0.00 0.00 0.08 0.13 0.07 0.04 0.01 0.01 0.01 0.07 0.20 0.16 0.34 0.53 0.51 0.61 0.31 0.24 0.34 0.28 0.09 0.00 0.00 0.00
0.00 0.00 0.00 0.00 0.00 0.01 0.01 0.07 0.53 0.31 0.41 0.85 0.32 0.15 0.04 0.00 0.00 0.00 0.00 0.00 0.00 0.00 0.00 0.00 0.00 0.01 0.02 0.07 0.03 0.03 0.01 0.00 0.01 0.04 0.07 0.13 0.09 0.19 0.33 0.46 0.55 0.30 0.22 0.23 0.15 0.04 0.00 0.00 0.00
0.00 0.00 0.00 0.00 0.00 0.00 0.01 0.04 0.13 0.18 0.20 0.53 0.63 0.13 0.06 0.00 0.00 0.00 0.00 0.00 0.00 0.00 0.00 0.00 0.00 0.01 0.00 0.01 0.01 0.01 0.01 0.01 0.02 0.06 0.11 0.06 0.12 0.20 0.18 0.41 0.32 0.27 0.26 0.27 0.16 0.10 0.04 0.00 0.00
0.00 0.00 0.00 0.00 0.00 0.00 0.02 0.13 0.24 0.41 0.23 0.32 0.81 0.30 0.18 0.01 0.00 0.00 0.00 0.00 0.00 0.00 0.00 0.00 0.00 0.00 0.01 0.02 0.02 0.07 0.08 0.03 0.02 0.05 0.07 0.02 0.04 0.10 0.18 0.30 0.24 0.34 0.30 0.34 0.20 0.05 0.03 0.01 0.00
0.00 0.00 0.00 0.00 0.00 0.00 0.00 0.03 0.11 0.19 0.35 1.11 1.00 0.37 0.15 0.03 0.01 0.00 0.00 0.00 0.00 0.00 0.00 0.00 0.00 0.00 0.01 0.03 0.01 0.05 0.02 0.01 0.01 0.01 0.01 0.02 0.02 0.05 0.09 0.16 0.23 0.23 0.22 0.30 0.23 0.03 0.01 0.00 0.00
0.00 0.00 0.00 0.00 0.00 0.00 0.00 0.00 0.00 0.01 0.07 0.64 0.95 0.26 0.14 0.16 0.01 0.01 0.00 0.00 0.00 0.00 0.00 0.00 0.00 0.00 0.01 0.02 0.01 0.04 0.01 0.00 0.00 0.00 0.01 0.03 0.05 0.04 0.08 0.13 0.29 0.15 0.16 0.21 0.21 0.11 0.00 0.01 0.00
0.00 0.00 0.00 0.00 0.00 0.00 0.00 0.00 0.00 0.00 0.00 0.08 0.27 0.23 0.11 0.01 0.00 0.01 0.00 0.00 0.00 0.00 0.00 0.00 0.00 0.00 0.00 0.01 0.01 0.04 0.03 0.00 0.00 0.00 0.00 0.00 0.01 0.07 0.03 0.05 0.15 0.15 0.08 0.14 0.17 0.14 0.04 0.01 0.01
0.00 0.00 0.00 0.00 0.00 0.00 0.00 0.00 0.00 0.00 0.00 0.01 0.07 0.22 0.10 0.05 0.01 0.01 0.00 0.00 0.00 0.00 0.00 0.00 0.00 0.00 0.00 0.00 0.00 0.01 0.01 0.01 0.01 0.01 0.00 0.00 0.00 0.01 0.01 0.01 0.12 0.07 0.04 0.11 0.09 0.16 0.09 0.02 0.00
0.00 0.00 0.00 0.00 0.00 0.00 0.00 0.00 0.00 0.00 0.00 0.01 0.04 0.05 0.11 0.07 0.08 0.04 0.00 0.00 0.00 0.00 0.00 0.00 0.00 0.00 0.00 0.00 0.00 0.00 0.00 0.00 0.00 0.00 0.00 0.00 0.00 0.00 0.02 0.03 0.07 0.07 0.02 0.03 0.06 0.06 0.04 0.02 0.00
0.00 0.00 0.00 0.00 0.00 0.00 0.00 0.00 0.00 0.00 0.00 0.00 0.05 0.08 0.13 0.18 0.15 0.09 0.01 0.01 0.00 0.00 0.00 0.00 0.00 0.00 0.00 0.00 0.00 0.00 0.00 0.00 0.00 0.00 0.00 0.00 0.00 0.00 0.01 0.04 0.04 0.03 0.04 0.03 0.05 0.03 0.05 0.07 0.01
0.00 0.00 0.00 0.00 0.00 0.00 0.00 0.00 0.00 0.00 0.00 0.00 0.00 0.04 0.03 0.30 0.45 0.21 0.08 0.04 0.06 0.02 0.00 0.00 0.00 0.00 0.00 0.00 0.00 0.00 0.00 0.00 0.00 0.00 0.00 0.00 0.00 0.00 0.00 0.01 0.04 0.04 0.04 0.03 0.02 0.01 0.01 0.01 0.01
0.00 0.00 0.00 0.00 0.00 0.00 0.00 0.00 0.00 0.00 0.00 0.00 0.00 0.00 0.00 0.03 0.49 0.84 0.38 0.20 0.10 0.06 0.01 0.00 0.00 0.00 0.00 0.00 0.00 0.00 0.00 0.00 0.00 0.00 0.00 0.00 0.00 0.00 0.00 0.00 0.02 0.02 0.03 0.02 0.02 0.00 0.01 0.01 0.00
0.00 0.00 0.00 0.00 0.00 0.00 0.00 0.00 0.00 0.00 0.00 0.00 0.02 0.02 0.01 0.06 0.13 0.61 0.77 0.47 0.21 0.10 0.05 0.03 0.01 0.00 0.00 0.00 0.00 0.00 0.00 0.00 0.00 0.00 0.00 0.00 0.00 0.00 0.01 0.00 0.00 0.00 0.00 0.02 0.01 0.06 0.00 0.00 0.00

GFSSGP_prec_precacc_072.txt.gz
Total_Precipitation_Accumulation
0.02 0.11 0.38 0.96 2.07 0.97 1.07 1.25 1.27 0.83 0.32 0.22 0.11 0.15 0.25 0.21 0.44 0.53 0.12 0.17 0.16 0.24 0.13 0.40 0.89 0.72 0.48 0.20 0.17 0.11 0.07 0.06 0.05 0.07 0.15 0.13 0.13 0.14 0.24 0.14 0.15 0.15 0.15 0.13 0.11 0.12 0.23 0.17 0.18
0.03 0.34 1.11 2.74 2.16 1.88 2.06 1.77 1.79 0.92 0.45 0.38 0.12 0.10 0.09 0.04 0.11 0.06 0.13 0.16 0.04 0.01 0.05 0.08 0.81 0.59 0.36 0.17 0.12 0.09 0.06 0.09 0.15 0.19 0.19 0.15 0.31 0.26 0.28 0.17 0.19 0.21 0.23 0.31 0.29 0.27 0.23 0.22 0.31
0.09 1.12 2.66 2.87 1.25 1.23 1.69 2.49 2.53 1.04 0.49 0.31 0.20 0.26 0.17 0.17 0.07 0.06 0.06 0.05 0.02 0.02 0.03 0.09 0.31 0.33 0.20 0.15 0.09 0.08 0.06 0.06 0.11 0.19 0.17 0.19 0.22 0.20 0.20 0.18 0.12 0.11 0.11 0.14 0.04 0.08 0.16 0.31 0.49
0.27 3.01 3.79 2.21 1.22 0.78 1.11 1.45 1.31 1.70 1.06 0.76 0.44 0.25 0.22 0.21 0.02 0.01 0.01 0.02 0.03 0.03 0.02 0.07 0.12 0.09 0.10 0.13 0.09 0.06 0.10 0.10 0.15 0.17 0.12 0.18 0.18 0.23 0.13 0.16 0.19 0.11 0.09 0.07 0.03 0.06 0.16 0.32 0.55
0.44 2.23 1.72 1.64 1.59 1.29 0.99 1.19 2.47 3.34 1.85 1.33 0.35 0.14 0.17 0.10 0.01 0.00 0.00 0.02 0.04 0.03 0.01 0.03 0.26 0.16 0.10 0.11 0.09 0.10 0.12 0.14 0.17 0.10 0.13 0.20 0.14 0.17 0.25 0.17 0.22 0.18 0.08 0.10 0.08 0.09 0.22 0.38 0.72
1.19 0.85 1.19 1.35 0.80 0.80 1.41 1.61 1.97 1.96 1.25 0.53 0.33 0.17 0.17 0.07 0.02 0.00 0.01 0.02 0.04 0.02 0.01 0.02 0.14 0.14 0.17 0.11 0.10 0.11 0.08 0.08 0.12 0.13 0.16 0.11 0.07 0.18 0.20 0.15 0.07 0.03 0.02 0.06 0.04 0.25 0.39 0.53 0.58
0.93 1.66 1.24 0.79 0.74 1.08 1.40 1.33 1.30 1.46 0.69 0.28 0.35 0.09 0.13 0.07 0.01 0.00 0.00 0.01 0.02 0.01 0.01 0.02 0.03 0.11 0.17 0.19 0.17 0.15 0.14 0.07 0.11 0.09 0.11 0.05 0.05 0.14 0.21 0.08 0.02 0.02 0.06 0.15 0.14 0.26 0.31 0.41 0.32
0.24 0.57 1.98 0.90 0.38 2.04 1.40 1.05 1.22 0.98 0.57 0.20 0.09 0.05 0.05 0.03 0.01 0.00 0.01 0.02 0.03 0.01 0.02 0.01 0.01 0.05 0.08 0.15 0.20 0.09 0.08 0.08 0.11 0.05 0.07 0.19 0.15 0.18 0.11 0.11 0.12 0.05 0.08 0.12 0.18 0.24 0.28 0.45 0.43
0.34 1.24 1.75 0.53 0.38 1.79 1.12 1.03 0.77 0.60 0.17 0.07 0.14 0.07 0.00 0.00 0.00 0.01 0.02 0.03 0.03 0.02 0.01 0.00 0.04 0.07 0.23 0.15 0.19 0.10 0.10 0.10 0.02 0.05 0.18 0.51 0.37 0.37 0.42 0.27 0.15 0.07 0.09 0.07 0.13 0.18 0.30 0.33 0.24
0.33 0.97 0.58 0.08 0.08 0.57 1.81 1.16 0.82 0.33 0.19 0.15 0.11 0.05 0.01 0.01 0.01 0.01 0.01 0.01 0.01 0.01 0.01 0.01 0.01 0.01 0.08 0.05 0.13 0.09 0.03 0.02 0.04 0.06 0.26 0.87 0.36 0.24 0.29 0.25 0.20 0.13 0.17 0.20 0.24 0.25 0.40 0.63 0.26
0.11 0.33 0.17 0.03 0.04 0.25 1.05 0.77 0.43 0.28 0.13 0.12 0.07 0.05 0.01 0.00 0.00 0.00 0.00 0.00 0.00 0.00 0.01 0.00 0.00 0.02 0.04 0.06 0.02 0.03 0.01 0.01 0.03 0.07 0.38 0.89 0.38 0.35 0.45 0.36 0.77 0.32 0.26 0.42 0.50 0.20 0.30 0.89 0.36
0.03 0.04 0.09 0.02 0.05 0.20 0.66 1.71 0.40 0.76 1.29 0.31 0.17 0.02 0.00 0.00 0.00 0.00 0.00 0.00 0.00 0.00 0.00 0.00 0.00 0.02 0.17 0.03 0.00 0.09 0.05 0.02 0.01 0.02 0.09 0.22 0.32 0.25 0.38 0.56 0.41 0.34 0.31 0.25 0.36 0.11 0.12 0.25 0.22
0.00 0.01 0.02 0.06 0.03 0.15 0.25 0.60 0.49 0.70 0.54 0.30 0.25 0.04 0.01 0.01 0.00 0.01 0.01 0.00 0.00 0.00 0.00 0.00 0.00 0.05 0.18 0.04 0.05 0.07 0.03 0.05 0.00 0.00 0.04 0.25 0.26 0.23 0.36 0.31 0.25 0.21 0.31 0.85 0.18 0.16 0.12 0.04 0.03
0.00 0.00 0.01 0.02 0.02 0.08 0.10 0.20 0.10 0.20 0.18 0.38 0.28 0.03 0.00 0.00 0.00 0.01 0.01 0.00 0.00 0.00 0.00 0.00 0.00 0.02 0.06 0.04 0.04 0.02 0.01 0.01 0.00 0.00 0.06 0.24 0.24 0.47 0.51 0.45 0.25 0.19 0.21 0.26 0.16 0.13 0.28 0.02 0.00
0.00 0.00 0.00 0.00 0.03 0.08 0.17 0.41 0.21 0.29 0.34 0.34 0.16 0.02 0.00 0.00 0.00 0.00 0.00 0.00 0.00 0.00 0.00 0.00 0.00 0.00 0.01 0.04 0.05 0.01 0.00 0.02 0.00 0.01 0.04 0.05 0.25 0.46 0.42 0.40 0.34 0.33 0.28 0.19 0.15 0.12 0.27 0.02 0.00
0.00 0.00 0.00 0.00 0.01 0.02 0.09 0.38 0.19 0.62 1.50 0.23 0.11 0.01 0.00 0.00 0.00 0.00 0.00 0.00 0.00 0.00 0.00 0.00 0.00 0.00 0.01 0.03 0.04 0.03 0.00 0.00 0.00 0.00 0.01 0.16 0.30 0.40 0.44 0.50 0.39 0.30 0.22 0.21 0.18 0.14 0.08 0.00 0.00
0.00 0.00 0.00 0.00 0.01 0.05 0.12 0.25 0.34 0.34 0.63 0.16 0.11 0.04 0.00 0.00 0.00 0.00 0.00 0.00 0.00 0.00 0.00 0.00 0.00 0.00 0.00 0.01 0.02 0.01 0.01 0.03 0.02 0.01 0.03 0.17 0.22 0.35 0.89 0.71 0.51 0.24 0.31 0.21 0.13 0.12 0.05 0.00 0.00
0.00 0.00 0.00 0.00 0.01 0.03 0.03 0.15 0.54 0.31 0.67 0.39 0.19 0.08 0.00 0.00 0.00 0.00 0.00 0.00 0.00 0.00 0.00 0.00 0.00 0.00 0.00 0.08 0.13 0.07 0.04 0.01 0.01 0.01 0.08 0.20 0.17 0.43 0.61 0.56 0.65 0.31 0.24 0.34 0.28 0.09 0.00 0.00 0.00
0.00 0.00 0.00 0.00 0.00 0.01 0.01 0.07 0.53 0.31 0.41 0.85 0.32 0.15 0.04 0.00 0.00 0.00 0.00 0.00 0.00 0.00 0.00 0.00 0.00 0.01 0.02 0.07 0.03 0.03 0.01 0.00 0.01 0.04 0.07 0.13 0.10 0.22 0.38 0.47 0.57 0.30 0.22 0.23 0.15 0.04 0.00 0.00 0.00
0.00 0.00 0.00 0.00 0.00 0.00 0.01 0.04 0.13 0.18 0.20 0.53 0.63 0.13 0.06 0.00 0.00 0.00 0.00 0.00 0.00 0.00 0.00 0.00 0.00 0.01 0.00 0.01 0.01 0.01 0.01 0.01 0.03 0.06 0.11 0.06 0.13 0.25 0.21 0.43 0.32 0.27 0.26 0.27 0.16 0.10 0.04 0.00 0.00
0.00 0.00 0.00 0.00 0.00 0.00 0.02 0.13 0.24 0.41 0.23 0.33 0.81 0.30 0.18 0.01 0.00 0.00 0.00 0.00 0.00 0.00 0.00 0.00 0.00 0.00 0.01 0.02 0.02 0.07 0.08 0.05 0.08 0.07 0.07 0.03 0.07 0.10 0.18 0.31 0.24 0.34 0.30 0.34 0.20 0.05 0.03 0.01 0.00
0.00 0.00 0.00 0.00 0.00 0.00 0.00 0.03 0.11 0.19 0.35 1.12 1.01 0.37 0.15 0.03 0.01 0.00 0.00 0.00 0.00 0.00 0.00 0.00 0.00 0.00 0.01 0.03 0.01 0.05 0.02 0.01 0.02 0.01 0.01 0.03 0.06 0.06 0.09 0.16 0.23 0.23 0.22 0.30 0.23 0.03 0.01 0.00 0.00
0.00 0.00 0.00 0.00 0.00 0.00 0.00 0.00 0.00 0.01 0.07 0.65 0.96 0.27 0.14 0.16 0.01 0.01 0.00 0.00 0.00 0.00 0.00 0.00 0.00 0.00 0.01 0.02 0.01 0.04 0.01 0.00 0.02 0.01 0.09 0.09 0.10 0.07 0.08 0.13 0.29 0.15 0.16 0.21 0.21 0.11 0.00 0.01 0.00
0.00 0.00 0.00 0.00 0.00 0.00 0.00 0.00 0.00 0.00 0.00 0.08 0.27 0.23 0.11 0.01 0.00 0.01 0.00 0.00 0.00 0.00 0.00 0.00 0.00 0.00 0.00 0.01 0.01 0.04 0.03 0.01 0.00 0.02 0.08 0.05 0.04 0.10 0.06 0.08 0.16 0.16 0.12 0.17 0.18 0.14 0.05 0.01 0.01
0.00 0.00 0.00 0.00 0.00 0.00 0.00 0.00 0.00 0.00 0.00 0.01 0.07 0.22 0.10 0.05 0.01 0.01 0.00 0.00 0.00 0.00 0.00 0.00 0.00 0.00 0.00 0.00 0.00 0.01 0.01 0.02 0.04 0.06 0.02 0.00 0.00 0.01 0.04 0.12 0.26 0.11 0.09 0.14 0.13 0.16 0.10 0.03 0.00
0.00 0.00 0.00 0.00 0.00 0.00 0.00 0.00 0.00 0.00 0.00 0.01 0.04 0.05 0.11 0.07 0.08 0.04 0.00 0.00 0.00 0.00 0.00 0.00 0.00 0.00 0.00 0.00 0.00 0.00 0.00 0.00 0.00 0.00 0.00 0.00 0.00 0.00 0.04 0.10 0.13 0.09 0.03 0.04 0.11 0.07 0.04 0.02 0.00
0.00 0.00 0.00 0.00 0.00 0.00 0.00 0.00 0.00 0.00 0.00 0.00 0.05 0.08 0.13 0.18 0.15 0.09 0.01 0.01 0.00 0.00 0.00 0.00 0.00 0.00 0.00 0.00 0.00 0.00 0.00 0.00 0.00 0.00 0.00 0.00 0.00 0.00 0.01 0.05 0.09 0.06 0.07 0.05 0.06 0.05 0.07 0.07 0.01
0.00 0.00 0.00 0.00 0.00 0.00 0.00 0.00 0.00 0.00 0.00 0.00 0.00 0.04 0.03 0.30 0.45 0.21 0.08 0.04 0.06 0.02 0.00 0.00 0.00 0.00 0.00 0.00 0.00 0.00 0.00 0.00 0.00 0.00 0.00 0.00 0.00 0.00 0.00 0.03 0.08 0.10 0.07 0.07 0.02 0.01 0.01 0.01 0.01
0.00 0.00 0.00 0.00 0.00 0.00 0.00 0.00 0.00 0.00 0.00 0.00 0.00 0.00 0.00 0.04 0.50 0.84 0.40 0.21 0.10 0.06 0.01 0.00 0.00 0.00 0.00 0.00 0.00 0.00 0.00 0.00 0.00 0.00 0.00 0.00 0.00 0.00 0.01 0.06 0.08 0.07 0.05 0.02 0.04 0.02 0.01 0.01 0.00
0.00 0.00 0.00 0.00 0.00 0.00 0.00 0.00 0.00 0.00 0.00 0.00 0.02 0.02 0.01 0.06 0.14 0.63 0.78 0.50 0.23 0.11 0.05 0.03 0.01 0.00 0.00 0.00 0.00 0.00 0.00 0.00 0.00 0.00 0.00 0.00 0.00 0.00 0.02 0.07 0.05 0.05 0.01 0.02 0.05 0.07 0.01 0.01 0.00

GFSSGP_prec_precacc_075.txt.gz
Total_Precipitation_Accumulation
0.02 0.11 0.38 0.96 2.08 1.00 1.20 1.31 1.38 0.87 0.32 0.22 0.11 0.15 0.25 0.21 0.47 0.58 0.12 0.17 0.16 0.24 0.13 0.40 0.89 0.72 0.49 0.22 0.17 0.11 0.08 0.08 0.13 0.10 0.16 0.15 0.13 0.14 0.26 0.14 0.15 0.15 0.16 0.14 0.11 0.12 0.25 0.17 0.18
0.03 0.34 1.11 2.74 2.18 1.94 2.10 1.79 1.90 1.01 0.46 0.38 0.12 0.10 0.09 0.04 0.11 0.06 0.13 0.16 0.04 0.01 0.05 0.08 0.81 0.59 0.38 0.18 0.12 0.11 0.12 0.13 0.22 0.21 0.20 0.16 0.31 0.27 0.29 0.17 0.19 0.21 0.23 0.31 0.31 0.29 0.24 0.22 0.35
0.09 1.12 2.68 2.93 1.28 1.32 1.75 2.51 2.65 1.08 0.49 0.31 0.20 0.26 0.17 0.17 0.07 0.06 0.06 0.05 0.02 0.02 0.03 0.09 0.31 0.33 0.21 0.17 0.09 0.10 0.11 0.07 0.12 0.19 0.18 0.19 0.22 0.20 0.21 0.18 0.12 0.11 0.11 0.14 0.06 0.10 0.18 0.35 0.55
0.27 3.07 3.87 2.32 1.37 0.87 1.13 1.49 1.34 1.73 1.06 0.77 0.44 0.26 0.22 0.21 0.02 0.01 0.01 0.02 0.03 0.03 0.03 0.08 0.12 0.09 0.10 0.15 0.09 0.08 0.12 0.12 0.16 0.17 0.12 0.18 0.19 0.23 0.14 0.17 0.19 0.11 0.10 0.09 0.06 0.08 0.17 0.35 0.56
0.46 2.37 1.93 1.85 1.79 1.44 1.06 1.22 2.51 3.37 1.87 1.35 0.37 0.14 0.17 0.10 0.01 0.00 0.00 0.02 0.04 0.03 0.01 0.03 0.29 0.18 0.11 0.16 0.19 0.20 0.13 0.15 0.18 0.11 0.14 0.21 0.15 0.17 0.25 0.17 0.23 0.19 0.09 0.10 0.09 0.12 0.26 0.40 0.73
1.25 0.96 1.38 1.42 0.94 0.87 1.45 1.66 2.03 1.97 1.27 0.53 0.34 0.17 0.17 0.07 0.02 0.00 0.01 0.02 0.04 0.02 0.01 0.02 0.16 0.15 0.18 0.14 0.19 0.15 0.08 0.09 0.15 0.13 0.17 0.11 0.07 0.18 0.20 0.16 0.08 0.04 0.02 0.06 0.07 0.29 0.51 0.66 0.61
1.00 1.86 1.34 0.87 0.88 1.18 1.43 1.34 1.30 1.47 0.77 0.35 0.36 0.09 0.13 0.07 0.01 0.00 0.00 0.01 0.02 0.01 0.01 0.02 0.03 0.12 0.17 0.23 0.25 0.17 0.15 0.08 0.11 0.09 0.12 0.05 0.05 0.14 0.21 0.09 0.03 0.04 0.07 0.17 0.17 0.30 0.40 0.47 0.32
0.24 0.64 2.03 0.92 0.51 2.09 1.42 1.06 1.22 1.06 0.65 0.21 0.10 0.08 0.05 0.03 0.01 0.00 0.01 0.02 0.03 0.01 0.02 0.01 0.01 0.05 0.08 0.17 0.24 0.11 0.08 0.09 0.11 0.05 0.09 0.22 0.15 0.18 0.11 0.13 0.15 0.13 0.12 0.15 0.19 0.25 0.29 0.45 0.43
0.36 1.38 1.77 0.55 0.42 1.80 1.12 1.06 0.83 0.61 0.18 0.08 0.15 0.08 0.00 0.00 0.00 0.01 0.02 0.03 0.03 0.03 0.01 0.00 0.04 0.08 0.29 0.17 0.21 0.12 0.15 0.11 0.02 0.05 0.19 0.60 0.38 0.37 0.45 0.28 0.16 0.16 0.18 0.08 0.13 0.18 0.31 0.33 0.24
0.37 1.13 0.60 0.08 0.08 0.57 1.81 1.17 0.89 0.34 0.21 0.16 0.11 0.05 0.01 0.01 0.01 0.01 0.01 0.01 0.01 0.01 0.01 0.01 0.01 0.01 0.08 0.05 0.14 0.09 0.03 0.02 0.04 0.06 0.26 0.90 0.36 0.24 0.29 0.25 0.20 0.14 0.18 0.20 0.24 0.25 0.42 0.66 0.26
0.13 0.40 0.19 0.03 0.04 0.25 1.06 0.78 0.44 0.29 0.15 0.14 0.07 0.05 0.01 0.00 0.00 0.00 0.00 0.00 0.00 0.00 0.01 0.00 0.00 0.02 0.04 0.07 0.02 0.03 0.01 0.01 0.03 0.07 0.38 0.89 0.38 0.35 0.45 0.36 0.77 0.32 0.26 0.42 0.50 0.20 0.30 0.89 0.36
0.06 0.06 0.09 0.02 0.05 0.20 0.66 1.71 0.42 0.80 1.32 0.31 0.17 0.02 0.00 0.00 0.00 0.00 0.00 0.00 0.00 0.00 0.00 0.00 0.00 0.02 0.17 0.03 0.00 0.09 0.05 0.02 0.01 0.02 0.09 0.22 0.32 0.25 0.38 0.56 0.41 0.34 0.31 0.25 0.37 0.11 0.12 0.25 0.22
0.01 0.01 0.02 0.06 0.03 0.15 0.25 0.60 0.52 0.78 0.55 0.30 0.25 0.04 0.01 0.01 0.00 0.01 0.01 0.00 0.00 0.00 0.00 0.00 0.00 0.06 0.19 0.04 0.05 0.07 0.03 0.05 0.00 0.00 0.04 0.25 0.26 0.23 0.36 0.31 0.25 0.21 0.31 0.85 0.18 0.16 0.12 0.04 0.03
0.00 0.00 0.01 0.02 0.02 0.08 0.10 0.21 0.16 0.30 0.19 0.38 0.28 0.03 0.00 0.00 0.00 0.01 0.01 0.00 0.00 0.00 0.00 0.00 0.00 0.02 0.06 0.04 0.04 0.02 0.01 0.01 0.00 0.00 0.06 0.25 0.24 0.47 0.51 0.45 0.25 0.19 0.21 0.26 0.16 0.13 0.28 0.02 0.00
0.00 0.00 0.00 0.00 0.03 0.08 0.18 0.53 0.29 0.31 0.34 0.34 0.16 0.02 0.00 0.00 0.00 0.00 0.00 0.00 0.00 0.00 0.00 0.00 0.00 0.00 0.01 0.04 0.05 0.01 0.00 0.02 0.00 0.02 0.04 0.05 0.27 0.47 0.43 0.40 0.34 0.33 0.28 0.19 0.15 0.12 0.27 0.02 0.00
0.00 0.00 0.00 0.00 0.01 0.02 0.14 0.62 0.27 0.62 1.50 0.23 0.11 0.01 0.00 0.00 0.00 0.00 0.00 0.00 0.00 0.00 0.00 0.00 0.00 0.00 0.01 0.03 0.04 0.03 0.00 0.01 0.00 0.00 0.01 0.16 0.32 0.40 0.44 0.50 0.40 0.30 0.22 0.21 0.18 0.14 0.08 0.00 0.00
0.00 0.00 0.00 0.00 0.01 0.05 0.16 0.33 0.35 0.34 0.63 0.16 0.11 0.04 0.00 0.00 0.00 0.00 0.00 0.00 0.00 0.00 0.00 0.00 0.00 0.00 0.00 0.01 0.02 0.01 0.01 0.03 0.02 0.01 0.03 0.17 0.22 0.35 0.89 0.71 0.51 0.24 0.31 0.21 0.13 0.12 0.05 0.00 0.00
0.00 0.00 0.00 0.00 0.01 0.03 0.04 0.36 0.54 0.31 0.67 0.39 0.20 0.10 0.02 0.00 0.00 0.00 0.00 0.00 0.00 0.00 0.00 0.00 0.00 0.00 0.00 0.08 0.13 0.07 0.04 0.01 0.01 0.02 0.09 0.20 0.19 0.44 0.61 0.56 0.65 0.31 0.24 0.34 0.28 0.09 0.00 0.00 0.00
0.00 0.00 0.00 0.00 0.00 0.01 0.01 0.08 0.53 0.31 0.41 0.86 0.32 0.16 0.05 0.01 0.00 0.00 0.00 0.00 0.00 0.00 0.00 0.00 0.00 0.01 0.02 0.07 0.03 0.03 0.01 0.00 0.01 0.05 0.07 0.13 0.12 0.25 0.39 0.47 0.57 0.31 0.22 0.23 0.15 0.04 0.00 0.00 0.00
0.00 0.00 0.00 0.00 0.00 0.00 0.01 0.04 0.13 0.18 0.20 0.53 0.63 0.16 0.07 0.01 0.00 0.00 0.00 0.00 0.00 0.00 0.00 0.00 0.00 0.01 0.00 0.01 0.01 0.01 0.01 0.01 0.04 0.07 0.11 0.06 0.14 0.26 0.21 0.43 0.32 0.27 0.26 0.27 0.16 0.10 0.04 0.00 0.00
0.00 0.00 0.00 0.00 0.00 0.00 0.02 0.13 0.24 0.41 0.23 0.33 0.82 0.31 0.19 0.02 0.01 0.00 0.00 0.00 0.00 0.00 0.00 0.00 0.00 0.00 0.01 0.02 0.02 0.07 0.10 0.08 0.13 0.08 0.07 0.03 0.16 0.12 0.18 0.31 0.24 0.34 0.30 0.34 0.20 0.05 0.03 0.02 0.00
0.00 0.00 0.00 0.00 0.00 0.00 0.00 0.03 0.11 0.19 0.35 1.12 1.01 0.38 0.15 0.04 0.01 0.00 0.00 0.00 0.00 0.00 0.00 0.00 0.00 0.00 0.01 0.03 0.01 0.05 0.02 0.01 0.02 0.01 0.01 0.03 0.06 0.06 0.09 0.16 0.23 0.23 0.23 0.31 0.23 0.03 0.02 0.00 0.00
0.00 0.00 0.00 0.00 0.00 0.00 0.00 0.00 0.02 0.02 0.08 0.65 0.96 0.27 0.16 0.16 0.01 0.02 0.00 0.00 0.01 0.00 0.00 0.00 0.00 0.00 0.01 0.02 0.02 0.04 0.01 0.01 0.02 0.01 0.11 0.11 0.10 0.07 0.08 0.13 0.29 0.15 0.16 0.21 0.21 0.11 0.00 0.01 0.00
0.00 0.00 0.00 0.00 0.00 0.00 0.00 0.00 0.01 0.01 0.04 0.09 0.27 0.23 0.11 0.02 0.01 0.04 0.01 0.00 0.00 0.00 0.00 0.00 0.00 0.00 0.00 0.01 0.01 0.04 0.04 0.01 0.00 0.07 0.11 0.06 0.04 0.10 0.06 0.08 0.20 0.21 0.13 0.17 0.18 0.14 0.05 0.02 0.01
0.00 0.00 0.00 0.00 0.00 0.00 0.00 0.00 0.00 0.00 0.00 0.01 0.07 0.24 0.12 0.08 0.02 0.02 0.01 0.00 0.00 0.00 0.00 0.00 0.00 0.00 0.00 0.00 0.00 0.01 0.01 0.02 0.05 0.10 0.02 0.00 0.00 0.01 0.04 0.12 0.28 0.13 0.09 0.14 0.13 0.17 0.10 0.03 0.00
0.00 0.00 0.00 0.00 0.00 0.00 0.00 0.00 0.00 0.00 0.00 0.01 0.04 0.05 0.11 0.07 0.08 0.04 0.01 0.00 0.00 0.00 0.00 0.00 0.00 0.00 0.00 0.00 0.00 0.00 0.00 0.00 0.00 0.00 0.00 0.01 0.00 0.01 0.04 0.10 0.13 0.09 0.03 0.04 0.11 0.07 0.04 0.02 0.00
0.00 0.00 0.00 0.00 0.00 0.00 0.00 0.00 0.00 0.00 0.00 0.00 0.05 0.08 0.13 0.19 0.17 0.09 0.01 0.01 0.01 0.00 0.00 0.00 0.00 0.00 0.00 0.00 0.00 0.00 0.00 0.00 0.00 0.00 0.00 0.00 0.00 0.02 0.01 0.05 0.09 0.06 0.07 0.05 0.08 0.06 0.07 0.07 0.01
0.00 0.00 0.00 0.00 0.00 0.00 0.00 0.00 0.00 0.00 0.00 0.00 0.00 0.04 0.05 0.39 0.59 0.38 0.15 0.08 0.07 0.03 0.00 0.00 0.00 0.00 0.00 0.00 0.00 0.00 0.00 0.00 0.00 0.00 0.00 0.00 0.00 0.00 0.06 0.04 0.09 0.10 0.07 0.08 0.03 0.02 0.01 0.01 0.01
0.00 0.00 0.00 0.00 0.00 0.00 0.00 0.00 0.00 0.00 0.00 0.00 0.00 0.00 0.01 0.14 0.66 1.04 0.71 0.42 0.19 0.11 0.03 0.00 0.00 0.00 0.00 0.00 0.00 0.00 0.00 0.00 0.00 0.00 0.00 0.00 0.00 0.00 0.03 0.07 0.08 0.08 0.05 0.02 0.05 0.02 0.01 0.01 0.00
0.00 0.00 0.00 0.00 0.00 0.00 0.00 0.00 0.00 0.00 0.00 0.00 0.02 0.02 0.02 0.11 0.30 0.83 1.09 0.81 0.51 0.27 0.17 0.12 0.02 0.00 0.00 0.00 0.00 0.00 0.00 0.00 0.00 0.00 0.00 0.00 0.00 0.00 0.04 0.07 0.05 0.05 0.01 0.02 0.05 0.07 0.01 0.01 0.00

GFSSGP_prec_precacc_078.txt.gz
Total_Precipitation_Accumulation
0.02 0.11 0.38 0.96 2.09 1.07 1.39 1.43 1.55 0.90 0.33 0.22 0.11 0.15 0.25 0.22 0.49 0.60 0.12 0.17 0.16 0.24 0.13 0.40 0.89 0.74 0.49 0.22 0.17 0.12 0.09 0.09 0.15 0.10 0.17 0.15 0.14 0.16 0.26 0.14 0.18 0.18 0.17 0.15 0.12 0.13 0.26 0.17 0.18
0.03 0.34 1.11 2.75 2.20 2.16 2.42 1.90 2.02 1.04 0.46 0.38 0.12 0.10 0.09 0.04 0.11 0.06 0.13 0.16 0.04 0.01 0.05 0.08 0.81 0.59 0.38 0.18 0.12 0.11 0.13 0.14 0.25 0.22 0.24 0.18 0.32 0.30 0.30 0.17 0.20 0.23 0.25 0.33 0.31 0.29 0.24 0.22 0.37
0.09 1.12 2.70 2.97 1.33 1.51 1.88 2.52 2.68 1.10 0.49 0.31 0.20 0.27 0.17 0.17 0.07 0.06 0.06 0.05 0.02 0.02 0.03 0.09 0.31 0.33 0.23 0.17 0.11 0.11 0.13 0.15 0.18 0.22 0.18 0.19 0.22 0.20 0.21 0.19 0.13 0.13 0.14 0.16 0.09 0.13 0.19 0.35 0.55
0.27 3.09 3.94 2.46 1.59 1.07 1.17 1.49 1.39 1.75 1.06 0.77 0.44 0.26 0.22 0.21 0.02 0.01 0.01 0.02 0.03 0.04 0.03 0.08 0.12 0.09 0.11 0.15 0.11 0.12 0.12 0.13 0.17 0.18 0.13 0.20 0.23 0.26 0.14 0.18 0.21 0.13 0.11 0.09 0.06 0.09 0.20 0.35 0.56
0.46 2.50 2.17 2.12 2.05 1.56 1.07 1.28 2.54 3.41 1.90 1.39 0.41 0.14 0.17 0.10 0.01 0.00 0.00 0.02 0.04 0.04 0.01 0.03 0.29 0.18 0.12 0.16 0.22 0.23 0.14 0.15 0.19 0.11 0.15 0.21 0.16 0.17 0.25 0.18 0.26 0.20 0.09 0.11 0.09 0.12 0.28 0.40 0.73
1.29 1.13 1.58 1.60 1.03 0.90 1.45 1.69 2.04 2.00 1.31 0.57 0.38 0.17 0.17 0.07 0.02 0.00 0.01 0.02 0.05 0.02 0.01 0.02 0.16 0.15 0.18 0.14 0.23 0.16 0.09 0.09 0.15 0.14 0.17 0.11 0.08 0.18 0.20 0.16 0.09 0.04 0.02 0.07 0.07 0.29 0.52 0.66 0.61
1.09 2.18 1.45 1.11 0.93 1.21 1.43 1.34 1.30 1.47 0.79 0.40 0.36 0.09 0.13 0.07 0.01 0.00 0.00 0.02 0.03 0.01 0.01 0.02 0.03 0.12 0.17 0.25 0.28 0.18 0.15 0.08 0.11 0.09 0.12 0.05 0.05 0.15 0.22 0.10 0.04 0.04 0.07 0.17 0.17 0.30 0.40 0.47 0.32
0.28 0.79 2.09 1.05 0.59 2.11 1.42 1.06 1.22 1.07 0.71 0.24 0.13 0.09 0.05 0.03 0.01 0.00 0.01 0.02 0.04 0.03 0.02 0.01 0.01 0.06 0.09 0.19 0.26 0.12 0.08 0.09 0.11 0.05 0.11 0.26 0.15 0.18 0.13 0.14 0.16 0.14 0.12 0.15 0.19 0.25 0.29 0.45 0.43
0.38 1.47 1.81 0.61 0.43 1.80 1.12 1.07 0.84 0.63 0.22 0.15 0.19 0.08 0.00 0.00 0.00 0.01 0.02 0.03 0.05 0.05 0.02 0.00 0.04 0.09 0.33 0.18 0.21 0.12 0.15 0.11 0.03 0.09 0.29 0.75 0.41 0.38 0.49 0.31 0.16 0.16 0.18 0.08 0.13 0.18 0.31 0.33 0.24
0.54 1.18 0.61 0.12 0.09 0.57 1.81 1.18 0.90 0.35 0.27 0.19 0.17 0.06 0.01 0.01 0.01 0.01 0.01 0.01 0.01 0.01 0.02 0.01 0.01 0.01 0.08 0.05 0.14 0.09 0.04 0.04 0.04 0.08 0.44 1.01 0.37 0.24 0.29 0.25 0.20 0.16 0.18 0.20 0.25 0.25 0.45 0.69 0.26
0.36 0.43 0.20 0.04 0.05 0.25 1.06 0.78 0.44 0.38 0.18 0.15 0.09 0.05 0.01 0.00 0.00 0.00 0.00 0.00 0.00 0.00 0.01 0.01 0.01 0.02 0.05 0.07 0.02 0.03 0.01 0.03 0.03 0.07 0.39 0.89 0.38 0.35 0.45 0.36 0.77 0.32 0.28 0.46 0.54 0.21 0.33 0.89 0.36
0.10 0.06 0.10 0.04 0.05 0.20 0.66 1.71 0.42 0.85 1.34 0.32 0.18 0.02 0.00 0.00 0.00 0.00 0.00 0.00 0.00 0.00 0.00 0.00 0.00 0.02 0.18 0.03 0.00 0.09 0.05 0.02 0.01 0.02 0.09 0.22 0.32 0.25 0.42 0.56 0.44 0.34 0.40 0.71 0.46 0.11 0.13 0.25 0.22
0.10 0.04 0.02 0.06 0.03 0.15 0.28 0.61 0.54 0.81 0.57 0.31 0.25 0.04 0.01 0.01 0.00 0.01 0.01 0.00 0.00 0.00 0.00 0.00 0.00 0.06 0.19 0.04 0.05 0.07 0.03 0.05 0.00 0.00 0.04 0.25 0.26 0.24 0.37 0.35 0.25 0.24 0.35 0.91 0.21 0.17 0.12 0.04 0.03
0.01 0.04 0.01 0.02 0.02 0.08 0.11 0.24 0.22 0.39 0.19 0.39 0.28 0.03 0.00 0.00 0.00 0.01 0.01 0.00 0.00 0.00 0.00 0.00 0.00 0.02 0.06 0.04 0.04 0.03 0.02 0.01 0.00 0.00 0.07 0.26 0.24 0.48 0.51 0.46 0.25 0.19 0.24 0.28 0.18 0.15 0.28 0.02 0.00
0.00 0.01 0.00 0.00 0.03 0.08 0.19 0.62 0.33 0.32 0.34 0.34 0.16 0.02 0.00 0.00 0.00 0.00 0.00 0.00 0.00 0.00 0.00 0.00 0.00 0.00 0.01 0.04 0.05 0.01 0.01 0.02 0.01 0.02 0.09 0.17 0.31 0.48 0.46 0.40 0.34 0.33 0.28 0.19 0.17 0.13 0.27 0.03 0.01
0.00 0.00 0.00 0.00 0.01 0.02 0.18 0.86 0.36 0.63 1.50 0.23 0.11 0.01 0.00 0.00 0.00 0.00 0.00 0.00 0.00 0.00 0.00 0.00 0.00 0.00 0.01 0.03 0.04 0.03 0.01 0.01 0.00 0.01 0.01 0.18 0.37 0.41 0.52 0.52 0.40 0.30 0.22 0.21 0.21 0.15 0.09 0.00 0.00
0.00 0.00 0.00 0.01 0.01 0.05 0.19 0.62 0.48 0.36 0.63 0.16 0.11 0.04 0.00 0.00 0.00 0.00 0.00 0.00 0.00 0.00 0.00 0.00 0.00 0.00 0.00 0.01 0.02 0.01 0.03 0.05 0.03 0.05 0.12 0.19 0.22 0.35 0.90 0.72 0.52 0.24 0.31 0.22 0.15 0.12 0.05 0.00 0.00
0.00 0.00 0.00 0.01 0.01 0.03 0.05 0.79 1.16 0.34 0.67 0.39 0.20 0.10 0.02 0.00 0.00 0.00 0.00 0.00 0.00 0.00 0.00 0.00 0.00 0.00 0.00 0.08 0.13 0.08 0.05 0.06 0.06 0.06 0.22 0.25 0.21 0.44 0.62 0.58 0.65 0.31 0.25 0.35 0.28 0.10 0.01 0.02 0.00
0.00 0.00 0.00 0.00 0.00 0.01 0.02 0.19 0.77 0.32 0.41 0.86 0.32 0.16 0.07 0.01 0.01 0.00 0.00 0.00 0.00 0.00 0.00 0.00 0.00 0.01 0.02 0.07 0.03 0.03 0.01 0.01 0.02 0.08 0.10 0.17 0.17 0.25 0.40 0.48 0.57 0.35 0.28 0.23 0.15 0.04 0.00 0.00 0.00
0.00 0.00 0.00 0.01 0.01 0.01 0.04 0.08 0.28 0.19 0.20 0.53 0.63 0.16 0.08 0.02 0.01 0.00 0.00 0.00 0.01 0.00 0.00 0.00 0.00 0.01 0.00 0.01 0.01 0.01 0.01 0.02 0.06 0.12 0.14 0.06 0.14 0.26 0.22 0.44 0.32 0.30 0.29 0.27 0.16 0.11 0.05 0.00 0.00
0.00 0.00 0.00 0.00 0.02 0.00 0.02 0.14 0.25 0.41 0.23 0.33 0.82 0.32 0.22 0.03 0.03 0.00 0.00 0.00 0.02 0.01 0.00 0.00 0.00 0.00 0.01 0.02 0.02 0.08 0.14 0.14 0.27 0.25 0.10 0.03 0.16 0.12 0.19 0.31 0.24 0.34 0.30 0.34 0.20 0.05 0.05 0.02 0.00
0.00 0.00 0.00 0.00 0.00 0.00 0.00 0.03 0.12 0.19 0.36 1.15 1.02 0.38 0.16 0.04 0.02 0.01 0.00 0.01 0.01 0.01 0.00 0.00 0.00 0.00 0.01 0.03 0.01 0.05 0.03 0.03 0.03 0.02 0.02 0.04 0.06 0.06 0.09 0.16 0.23 0.24 0.26 0.33 0.23 0.03 0.02 0.00 0.00
0.00 0.00 0.00 0.00 0.00 0.00 0.00 0.00 0.03 0.10 0.20 0.71 0.98 0.28 0.19 0.16 0.01 0.02 0.01 0.00 0.01 0.00 0.00 0.00 0.00 0.00 0.01 0.02 0.04 0.06 0.02 0.16 0.13 0.04 0.25 0.18 0.12 0.08 0.08 0.13 0.29 0.17 0.20 0.24 0.23 0.11 0.00 0.02 0.01
0.00 0.00 0.00 0.00 0.00 0.00 0.00 0.00 0.01 0.25 0.35 0.26 0.28 0.24 0.24 0.06 0.03 0.04 0.01 0.01 0.00 0.00 0.00 0.00 0.00 0.00 0.01 0.01 0.02 0.05 0.07 0.20 0.23 0.16 0.19 0.10 0.04 0.10 0.06 0.08 0.21 0.24 0.22 0.20 0.18 0.14 0.05 0.02 0.02
0.00 0.00 0.00 0.00 0.00 0.00 0.00 0.00 0.00 0.06 0.44 0.36 0.09 0.24 0.14 0.11 0.08 0.04 0.01 0.01 0.00 0.00 0.00 0.00 0.00 0.00 0.00 0.00 0.00 0.01 0.04 0.08 0.24 0.34 0.04 0.02 0.03 0.01 0.05 0.13 0.30 0.16 0.14 0.17 0.14 0.17 0.10 0.03 0.00
0.00 0.00 0.00 0.00 0.00 0.00 0.00 0.00 0.00 0.00 0.02 0.06 0.04 0.05 0.11 0.09 0.11 0.16 0.01 0.02 0.00 0.00 0.00 0.00 0.00 0.00 0.00 0.00 0.01 0.02 0.02 0.03 0.02 0.13 0.02 0.04 0.07 0.04 0.13 0.15 0.13 0.10 0.04 0.04 0.12 0.08 0.04 0.02 0.00
0.00 0.00 0.00 0.00 0.00 0.00 0.00 0.00 0.00 0.00 0.00 0.00 0.05 0.08 0.14 0.31 0.30 0.18 0.04 0.02 0.06 0.00 0.00 0.00 0.00 0.00 0.00 0.00 0.00 0.00 0.01 0.00 0.01 0.01 0.01 0.00 0.03 0.11 0.19 0.13 0.09 0.07 0.08 0.06 0.10 0.07 0.09 0.09 0.01
0.00 0.00 0.00 0.00 0.00 0.00 0.00 0.00 0.00 0.00 0.00 0.00 0.00 0.04 0.05 0.43 1.01 0.94 0.37 0.16 0.12 0.04 0.01 0.00 0.00 0.00 0.00 0.00 0.00 0.00 0.00 0.01 0.00 0.01 0.00 0.00 0.02 0.14 0.35 0.37 0.13 0.11 0.08 0.10 0.06 0.03 0.02 0.03 0.01
0.00 0.00 0.00 0.00 0.00 0.00 0.00 0.01 0.00 0.00 0.00 0.00 0.00 0.00 0.01 0.16 0.92 1.78 1.51 0.68 0.36 0.19 0.12 0.09 0.02 0.00 0.00 0.00 0.00 0.00 0.00 0.00 0.00 0.00 0.00 0.00 0.00 0.04 0.24 0.74 0.14 0.14 0.06 0.03 0.06 0.09 0.06 0.03 0.01
0.00 0.00 0.00 0.00 0.00 0.00 0.00 0.03 0.00 0.00 0.00 0.00 0.02 0.02 0.02 0.12 0.39 1.04 1.56 1.27 0.94 0.50 0.30 0.27 0.14 0.04 0.01 0.00 0.01 0.00 0.00 0.00 0.00 0.00 0.00 0.00 0.00 0.01 0.06 0.10 0.12 0.12 0.04 0.07 0.10 0.09 0.04 0.07 0.01

GFSSGP_prec_precacc_081.txt.gz
Total_Precipitation_Accumulation
0.02 0.11 0.38 0.96 2.10 1.35 2.24 1.53 1.82 1.00 0.36 0.22 0.11 0.15 0.25 0.24 0.50 0.62 0.12 0.17 0.16 0.24 0.13 0.40 0.89 0.74 0.49 0.22 0.17 0.12 0.09 0.09 0.15 0.10 0.17 0.15 0.14 0.16 0.27 0.15 0.18 0.18 0.19 0.17 0.12 0.13 0.26 0.17 0.19
0.03 0.34 1.11 2.75 2.22 2.60 3.03 2.01 2.04 1.04 0.49 0.38 0.13 0.10 0.09 0.06 0.13 0.06 0.13 0.16 0.04 0.01 0.05 0.08 0.82 0.60 0.38 0.19 0.12 0.11 0.13 0.14 0.25 0.22 0.25 0.19 0.32 0.30 0.30 0.17 0.20 0.25 0.32 0.38 0.36 0.29 0.24 0.23 0.37
0.09 1.12 2.71 3.00 1.39 2.02 2.13 2.56 2.68 1.11 0.50 0.31 0.20 0.27 0.17 0.17 0.07 0.06 0.06 0.05 0.02 0.02 0.03 0.09 0.31 0.33 0.23 0.17 0.11 0.12 0.13 0.15 0.19 0.22 0.18 0.20 0.23 0.20 0.21 0.19 0.14 0.18 0.15 0.18 0.16 0.14 0.19 0.35 0.55
0.27 3.10 3.99 2.59 1.85 1.53 1.22 1.49 1.39 1.78 1.07 0.79 0.45 0.26 0.22 0.21 0.02 0.01 0.01 0.02 0.03 0.04 0.03 0.08 0.12 0.09 0.11 0.16 0.12 0.12 0.13 0.15 0.18 0.20 0.15 0.20 0.24 0.27 0.15 0.19 0.22 0.14 0.12 0.09 0.06 0.09 0.20 0.35 0.56
0.46 2.55 2.30 2.29 2.20 1.66 1.11 1.32 2.57 3.45 1.94 1.43 0.41 0.14 0.17 0.10 0.01 0.00 0.00 0.02 0.04 0.04 0.01 0.03 0.30 0.19 0.12 0.16 0.22 0.23 0.15 0.15 0.19 0.13 0.15 0.21 0.17 0.18 0.27 0.19 0.27 0.20 0.09 0.11 0.09 0.12 0.28 0.40 0.73
1.31 1.21 1.71 1.75 1.07 0.90 1.45 1.70 2.05 2.03 1.34 0.58 0.38 0.17 0.17 0.07 0.02 0.00 0.01 0.02 0.05 0.02 0.01 0.02 0.17 0.16 0.18 0.14 0.23 0.16 0.09 0.10 0.16 0.14 0.17 0.11 0.08 0.19 0.21 0.17 0.09 0.04 0.02 0.07 0.07 0.29 0.52 0.66 0.61
1.17 2.35 1.57 1.30 0.95 1.22 1.43 1.34 1.30 1.50 0.82 0.40 0.36 0.09 0.13 0.07 0.01 0.01 0.00 0.02 0.03 0.01 0.01 0.02 0.03 0.12 0.17 0.25 0.28 0.18 0.15 0.09 0.11 0.09 0.12 0.06 0.05 0.15 0.22 0.10 0.04 0.04 0.07 0.17 0.17 0.30 0.40 0.47 0.32
0.33 0.96 2.22 1.13 0.60 2.11 1.42 1.06 1.26 1.11 0.74 0.26 0.15 0.09 0.05 0.03 0.01 0.01 0.02 0.03 0.04 0.03 0.02 0.01 0.01 0.06 0.09 0.19 0.26 0.12 0.09 0.10 0.11 0.06 0.14 0.29 0.15 0.18 0.13 0.14 0.16 0.14 0.12 0.15 0.19 0.25 0.29 0.45 0.43
0.45 1.68 1.86 0.64 0.43 1.80 1.12 1.07 0.87 0.77 0.29 0.22 0.22 0.08 0.00 0.00 0.00 0.01 0.02 0.04 0.06 0.07 0.03 0.00 0.04 0.09 0.33 0.18 0.21 0.12 0.17 0.23 0.16 0.20 0.35 0.84 0.43 0.39 0.49 0.32 0.16 0.16 0.18 0.08 0.13 0.18 0.31 0.33 0.24
1.14 1.26 0.65 0.14 0.10 0.57 1.81 1.18 0.93 0.63 0.32 0.22 0.19 0.06 0.01 0.01 0.01 0.01 0.01 0.01 0.02 0.03 0.05 0.01 0.02 0.01 0.08 0.05 0.14 0.09 0.04 0.09 0.16 0.27 0.59 1.02 0.42 0.25 0.29 0.25 0.20 0.16 0.20 0.24 0.29 0.27 0.46 0.69 0.26
1.12 0.56 0.27 0.06 0.05 0.25 1.06 0.79 0.52 0.63 0.25 0.17 0.09 0.05 0.01 0.00 0.00 0.00 0.00 0.00 0.00 0.00 0.01 0.01 0.01 0.02 0.05 0.07 0.02 0.03 0.01 0.04 0.05 0.09 0.40 0.91 0.42 0.38 0.48 0.40 0.79 0.33 0.30 0.52 0.67 0.34 0.37 0.90 0.36
0.23 0.16 0.15 0.08 0.06 0.20 0.66 1.73 0.47 1.18 1.39 0.32 0.18 0.02 0.00 0.00 0.00 0.00 0.00 0.00 0.00 0.00 0.00 0.00 0.00 0.02 0.18 0.04 0.01 0.09 0.05 0.02 0.01 0.02 0.11 0.23 0.34 0.37 0.53 0.69 0.50 0.37 0.42 0.73 0.50 0.15 0.13 0.26 0.22
0.18 0.10 0.04 0.10 0.05 0.16 0.30 0.62 0.55 0.83 0.60 0.32 0.25 0.04 0.01 0.01 0.00 0.01 0.01 0.00 0.00 0.00 0.00 0.00 0.00 0.06 0.19 0.04 0.05 0.07 0.03 0.05 0.00 0.01 0.06 0.31 0.30 0.26 0.42 0.45 0.36 0.32 0.40 0.94 0.23 0.18 0.13 0.04 0.03
0.08 0.09 0.04 0.06 0.04 0.10 0.15 0.35 0.26 0.39 0.19 0.39 0.28 0.03 0.00 0.00 0.00 0.01 0.01 0.00 0.00 0.00 0.00 0.00 0.00 0.02 0.06 0.04 0.04 0.03 0.02 0.01 0.00 0.01 0.09 0.29 0.27 0.50 0.54 0.53 0.32 0.21 0.30 0.32 0.20 0.15 0.29 0.02 0.00
0.02 0.09 0.03 0.01 0.03 0.08 0.22 0.83 0.42 0.33 0.35 0.36 0.16 0.02 0.00 0.00 0.00 0.00 0.00 0.00 0.00 0.00 0.00 0.00 0.00 0.00 0.01 0.04 0.05 0.01 0.01 0.02 0.02 0.03 0.17 0.23 0.37 0.49 0.50 0.42 0.37 0.38 0.30 0.20 0.23 0.16 0.28 0.03 0.01
0.00 0.01 0.02 0.00 0.01 0.02 0.20 1.06 0.54 0.65 1.52 0.27 0.11 0.01 0.00 0.00 0.00 0.00 0.00 0.00 0.00 0.00 0.00 0.00 0.00 0.00 0.01 0.03 0.04 0.03 0.01 0.03 0.03 0.10 0.07 0.20 0.40 0.41 0.53 0.53 0.41 0.31 0.25 0.23 0.24 0.19 0.11 0.00 0.00
0.00 0.00 0.00 0.03 0.01 0.05 0.20 0.74 1.11 0.44 0.68 0.19 0.12 0.04 0.00 0.00 0.00 0.00 0.00 0.00 0.00 0.00 0.00 0.00 0.00 0.00 0.00 0.01 0.02 0.01 0.04 0.07 0.08 0.12 0.23 0.24 0.23 0.36 0.93 0.73 0.53 0.25 0.32 0.23 0.16 0.12 0.05 0.01 0.00
0.00 0.00 0.00 0.01 0.02 0.03 0.07 0.84 1.89 0.88 0.71 0.42 0.20 0.10 0.02 0.00 0.00 0.00 0.00 0.00 0.00 0.00 0.00 0.00 0.00 0.00 0.00 0.08 0.13 0.08 0.06 0.08 0.10 0.11 0.33 0.30 0.25 0.45 0.64 0.58 0.67 0.34 0.26 0.35 0.29 0.10 0.01 0.03 0.00
0.00 0.00 0.00 0.01 0.01 0.04 0.11 0.26 1.09 0.57 0.44 0.86 0.32 0.16 0.07 0.01 0.01 0.00 0.00 0.00 0.00 0.00 0.00 0.00 0.00 0.01 0.02 0.07 0.03 0.04 0.02 0.01 0.07 0.16 0.23 0.25 0.26 0.27 0.41 0.50 0.59 0.41 0.28 0.23 0.15 0.04 0.00 0.00 0.00
0.00 0.00 0.00 0.02 0.02 0.04 0.10 0.10 0.29 0.20 0.20 0.53 0.63 0.16 0.08 0.02 0.01 0.00 0.00 0.00 0.01 0.00 0.00 0.00 0.01 0.01 0.00 0.01 0.02 0.01 0.02 0.04 0.10 0.25 0.30 0.10 0.19 0.27 0.23 0.48 0.33 0.34 0.30 0.27 0.16 0.11 0.05 0.00 0.00
0.00 0.00 0.00 0.00 0.03 0.04 0.08 0.20 0.31 0.45 0.24 0.33 0.82 0.32 0.22 0.03 0.03 0.00 0.00 0.00 0.02 0.01 0.00 0.00 0.00 0.00 0.01 0.02 0.03 0.10 0.17 0.21 0.35 0.31 0.17 0.06 0.16 0.12 0.19 0.31 0.26 0.34 0.30 0.34 0.20 0.05 0.05 0.02 0.00
0.00 0.00 0.00 0.00 0.00 0.00 0.02 0.08 0.20 0.24 0.37 1.18 1.03 0.38 0.16 0.04 0.03 0.01 0.00 0.01 0.01 0.01 0.00 0.00 0.00 0.00 0.01 0.04 0.02 0.07 0.06 0.07 0.06 0.06 0.08 0.07 0.06 0.06 0.09 0.17 0.26 0.24 0.26 0.33 0.23 0.03 0.02 0.00 0.00
0.00 0.00 0.00 0.00 0.00 0.00 0.00 0.01 0.04 0.17 0.47 1.01 1.08 0.31 0.19 0.17 0.03 0.02 0.01 0.00 0.01 0.00 0.00 0.00 0.00 0.00 0.01 0.02 0.05 0.06 0.02 0.17 0.15 0.09 0.38 0.19 0.13 0.08 0.08 0.13 0.30 0.17 0.20 0.24 0.23 0.11 0.00 0.02 0.01
0.00 0.00 0.00 0.00 0.00 0.00 0.00 0.01 0.02 0.29 0.46 0.62 0.61 0.33 0.25 0.08 0.07 0.06 0.02 0.01 0.00 0.00 0.00 0.00 0.00 0.00 0.01 0.01 0.02 0.07 0.08 0.21 0.27 0.20 0.26 0.11 0.05 0.10 0.06 0.08 0.22 0.25 0.22 0.20 0.18 0.14 0.05 0.02 0.02
0.00 0.00 0.00 0.00 0.00 0.00 0.00 0.00 0.02 0.08 0.49 0.58 0.52 0.36 0.19 0.13 0.14 0.06 0.02 0.02 0.01 0.00 0.00 0.00 0.00 0.00 0.00 0.00 0.01 0.05 0.07 0.12 0.28 0.35 0.04 0.06 0.14 0.07 0.07 0.15 0.32 0.16 0.14 0.17 0.14 0.18 0.10 0.03 0.00
0.00 0.00 0.00 0.00 0.00 0.00 0.00 0.00 0.00 0.00 0.02 0.10 0.09 0.09 0.21 0.17 0.20 0.25 0.10 0.03 0.01 0.03 0.00 0.00 0.00 0.00 0.00 0.00 0.01 0.04 0.07 0.06 0.04 0.15 0.06 0.11 0.16 0.07 0.14 0.17 0.16 0.12 0.04 0.05 0.12 0.08 0.04 0.02 0.00
0.00 0.00 0.00 0.00 0.00 0.00 0.00 0.00 0.02 0.04 0.05 0.02 0.09 0.14 0.20 0.50 0.55 0.34 0.14 0.06 0.08 0.06 0.00 0.00 0.00 0.00 0.00 0.00 0.01 0.01 0.01 0.02 0.02 0.04 0.06 0.02 0.08 0.12 0.20 0.15 0.13 0.10 0.10 0.06 0.10 0.07 0.09 0.09 0.01
0.00 0.00 0.00 0.00 0.00 0.00 0.02 0.03 0.09 0.08 0.06 0.05 0.01 0.04 0.06 0.51 1.41 1.45 0.89 0.32 0.22 0.16 0.06 0.09 0.04 0.01 0.01 0.00 0.01 0.03 0.01 0.03 0.03 0.05 0.03 0.01 0.05 0.21 0.41 0.44 0.17 0.14 0.10 0.10 0.06 0.05 0.04 0.03 0.01
0.00 0.00 0.00 0.00 0.00 0.00 0.03 0.07 0.08 0.10 0.05 0.01 0.00 0.00 0.02 0.19 1.06 2.19 2.05 1.52 0.59 0.41 0.21 0.33 0.33 0.24 0.11 0.04 0.05 0.05 0.05 0.02 0.02 0.03 0.02 0.04 0.07 0.12 0.27 0.80 0.15 0.16 0.09 0.04 0.07 0.09 0.06 0.04 0.01
0.00 0.00 0.00 0.00 0.00 0.00 0.02 0.06 0.05 0.08 0.02 0.00 0.03 0.03 0.02 0.15 0.44 1.06 1.62 1.42 1.24 0.97 0.54 0.62 0.99 0.42 0.23 0.16 0.16 0.09 0.05 0.05 0.07 0.02 0.01 0.00 0.02 0.03 0.08 0.11 0.12 0.13 0.05 0.10 0.13 0.10 0.04 0.07 0.02

GFSSGP_prec_precacc_084.txt.gz
Total_Precipitation_Accumulation
0.02 0.11 0.38 0.96 2.10 1.56 2.58 1.68 1.96 1.07 0.39 0.22 0.12 0.15 0.26 0.24 0.50 0.62 0.12 0.17 0.16 0.24 0.13 0.42 0.90 0.74 0.49 0.22 0.17 0.12 0.09 0.09 0.15 0.10 0.17 0.16 0.16 0.18 0.28 0.16 0.19 0.20 0.22 0.18 0.13 0.13 0.26 0.19 0.23
0.03 0.34 1.11 2.76 2.22 2.90 3.66 2.13 2.14 1.16 0.54 0.40 0.16 0.10 0.10 0.06 0.14 0.06 0.13 0.16 0.04 0.01 0.05 0.08 0.82 0.60 0.39 0.19 0.12 0.11 0.13 0.14 0.25 0.23 0.25 0.19 0.32 0.31 0.31 0.19 0.22 0.27 0.34 0.38 0.36 0.29 0.25 0.24 0.39
0.09 1.12 2.71 3.03 1.50 2.48 2.25 2.58 2.73 1.21 0.55 0.31 0.20 0.27 0.17 0.17 0.07 0.06 0.06 0.05 0.02 0.02 0.03 0.09 0.31 0.33 0.23 0.17 0.11 0.12 0.13 0.15 0.19 0.22 0.19 0.20 0.23 0.21 0.22 0.21 0.15 0.18 0.15 0.18 0.16 0.14 0.19 0.35 0.58
0.27 3.10 4.02 2.83 2.10 2.54 1.41 1.51 1.48 1.85 1.09 0.79 0.45 0.26 0.22 0.21 0.02 0.01 0.01 0.02 0.03 0.04 0.03 0.08 0.12 0.09 0.11 0.16 0.12 0.12 0.13 0.15 0.18 0.20 0.15 0.21 0.25 0.28 0.15 0.20 0.22 0.14 0.12 0.09 0.06 0.09 0.20 0.36 0.60
0.46 2.55 2.31 2.39 2.34 1.74 1.15 1.34 2.64 3.47 1.94 1.43 0.41 0.14 0.17 0.10 0.01 0.00 0.00 0.02 0.04 0.04 0.01 0.03 0.30 0.19 0.12 0.16 0.22 0.23 0.15 0.15 0.19 0.14 0.16 0.23 0.17 0.18 0.27 0.19 0.27 0.20 0.09 0.11 0.09 0.12 0.31 0.45 0.82
1.33 1.22 1.73 1.94 1.13 0.92 1.47 1.75 2.13 2.05 1.34 0.58 0.38 0.17 0.17 0.07 0.02 0.00 0.01 0.02 0.05 0.02 0.01 0.02 0.17 0.16 0.18 0.14 0.23 0.16 0.09 0.12 0.16 0.14 0.17 0.12 0.09 0.19 0.21 0.17 0.09 0.04 0.02 0.07 0.07 0.29 0.55 0.73 0.67
1.19 2.36 1.61 1.35 0.95 1.23 1.44 1.36 1.36 1.51 0.82 0.40 0.36 0.09 0.13 0.07 0.01 0.01 0.00 0.02 0.03 0.01 0.01 0.02 0.03 0.12 0.17 0.25 0.28 0.18 0.15 0.10 0.11 0.09 0.12 0.06 0.05 0.15 0.22 0.10 0.04 0.04 0.07 0.17 0.17 0.30 0.40 0.49 0.33
0.36 0.99 2.27 1.20 0.62 2.11 1.43 1.08 1.32 1.11 0.74 0.26 0.15 0.09 0.06 0.03 0.01 0.01 0.02 0.03 0.04 0.03 0.02 0.01 0.01 0.06 0.09 0.19 0.26 0.12 0.09 0.10 0.11 0.06 0.14 0.29 0.16 0.18 0.13 0.14 0.16 0.14 0.12 0.15 0.19 0.25 0.29 0.45 0.43
0.50 1.76 1.91 0.71 0.43 1.80 1.12 1.14 0.98 0.80 0.29 0.23 0.23 0.08 0.00 0.00 0.01 0.02 0.02 0.04 0.06 0.07 0.03 0.00 0.04 0.09 0.33 0.18 0.21 0.12 0.17 0.24 0.17 0.20 0.35 0.85 0.43 0.40 0.49 0.32 0.16 0.16 0.18 0.08 0.13 0.18 0.31 0.33 0.24
1.24 1.32 0.69 0.20 0.12 0.57 1.81 1.21 1.01 0.71 0.42 0.27 0.19 0.06 0.01 0.01 0.01 0.01 0.01 0.01 0.02 0.03 0.05 0.01 0.02 0.01 0.08 0.05 0.14 0.09 0.04 0.09 0.16 0.27 0.59 1.02 0.42 0.26 0.29 0.26 0.21 0.16 0.20 0.24 0.29 0.27 0.46 0.69 0.26
1.18 0.65 0.30 0.07 0.05 0.25 1.06 0.80 0.58 0.73 0.40 0.20 0.09 0.05 0.01 0.00 0.00 0.00 0.00 0.00 0.00 0.00 0.01 0.01 0.01 0.02 0.05 0.07 0.02 0.03 0.01 0.04 0.05 0.09 0.40 0.91 0.42 0.39 0.50 0.45 0.86 0.37 0.30 0.52 0.67 0.34 0.37 0.90 0.36
0.24 0.27 0.28 0.11 0.06 0.20 0.67 1.77 0.52 1.35 1.45 0.33 0.18 0.02 0.00 0.00 0.00 0.00 0.00 0.00 0.00 0.00 0.00 0.01 0.00 0.02 0.18 0.04 0.01 0.09 0.05 0.02 0.01 0.03 0.11 0.23 0.35 0.37 0.57 0.70 0.51 0.38 0.42 0.73 0.50 0.15 0.13 0.26 0.23
0.21 0.14 0.20 0.13 0.06 0.16 0.36 0.69 0.56 0.87 0.63 0.32 0.25 0.04 0.01 0.01 0.00 0.01 0.01 0.00 0.00 0.00 0.01 0.01 0.00 0.06 0.19 0.04 0.05 0.07 0.03 0.05 0.00 0.01 0.08 0.32 0.30 0.26 0.44 0.45 0.38 0.32 0.41 0.96 0.23 0.18 0.13 0.04 0.03
0.11 0.12 0.27 0.25 0.15 0.14 0.22 0.41 0.27 0.41 0.20 0.39 0.28 0.03 0.00 0.00 0.00 0.01 0.01 0.00 0.00 0.00 0.00 0.00 0.00 0.02 0.06 0.04 0.04 0.03 0.02 0.01 0.00 0.01 0.09 0.30 0.27 0.51 0.55 0.53 0.32 0.21 0.31 0.32 0.21 0.15 0.29 0.02 0.00
0.04 0.09 0.06 0.08 0.13 0.16 0.30 0.93 0.46 0.34 0.35 0.36 0.16 0.02 0.00 0.00 0.00 0.00 0.00 0.00 0.00 0.00 0.00 0.00 0.00 0.00 0.01 0.04 0.05 0.01 0.01 0.02 0.02 0.04 0.19 0.24 0.37 0.50 0.50 0.42 0.38 0.42 0.31 0.21 0.24 0.16 0.28 0.03 0.01
0.05 0.02 0.05 0.02 0.03 0.03 0.24 1.22 0.72 0.73 1.55 0.28 0.11 0.01 0.00 0.00 0.00 0.00 0.00 0.00 0.00 0.00 0.00 0.00 0.00 0.00 0.01 0.03 0.04 0.03 0.01 0.03 0.04 0.11 0.08 0.21 0.44 0.43 0.54 0.53 0.41 0.34 0.28 0.25 0.24 0.19 0.11 0.00 0.00
0.00 0.00 0.01 0.06 0.03 0.07 0.28 0.87 1.63 0.56 0.72 0.23 0.12 0.04 0.00 0.00 0.00 0.00 0.00 0.00 0.00 0.00 0.00 0.00 0.00 0.00 0.00 0.01 0.02 0.01 0.04 0.07 0.09 0.14 0.25 0.24 0.25 0.37 0.95 0.77 0.53 0.26 0.33 0.23 0.16 0.12 0.05 0.01 0.00
0.00 0.00 0.00 0.03 0.05 0.14 0.16 0.87 1.99 0.99 0.77 0.45 0.21 0.10 0.02 0.00 0.00 0.00 0.00 0.00 0.00 0.00 0.00 0.00 0.00 0.00 0.00 0.08 0.13 0.08 0.06 0.08 0.10 0.11 0.35 0.39 0.30 0.45 0.68 0.60 0.68 0.35 0.26 0.35 0.29 0.10 0.01 0.03 0.00
0.00 0.00 0.00 0.01 0.03 0.11 0.21 0.29 1.09 0.58 0.44 0.88 0.32 0.16 0.07 0.01 0.01 0.00 0.00 0.00 0.00 0.00 0.00 0.00 0.00 0.01 0.02 0.07 0.03 0.04 0.05 0.01 0.07 0.17 0.27 0.36 0.31 0.30 0.46 0.51 0.61 0.42 0.29 0.23 0.16 0.05 0.00 0.00 0.00
0.00 0.00 0.00 0.02 0.03 0.04 0.19 0.18 0.31 0.24 0.28 0.60 0.64 0.16 0.08 0.02 0.01 0.00 0.00 0.00 0.01 0.00 0.00 0.00 0.01 0.01 0.00 0.01 0.02 0.02 0.03 0.05 0.12 0.25 0.33 0.16 0.21 0.28 0.25 0.49 0.34 0.34 0.30 0.27 0.17 0.11 0.05 0.00 0.00
0.00 0.00 0.00 0.00 0.03 0.04 0.12 0.24 0.33 0.47 0.32 0.44 0.84 0.32 0.22 0.03 0.04 0.00 0.00 0.00 0.02 0.01 0.00 0.00 0.00 0.00 0.01 0.02 0.03 0.11 0.18 0.22 0.39 0.32 0.17 0.08 0.16 0.14 0.26 0.32 0.26 0.35 0.30 0.35 0.21 0.06 0.05 0.02 0.00
0.00 0.00 0.00 0.00 0.00 0.00 0.05 0.13 0.24 0.29 0.44 1.25 1.06 0.38 0.16 0.05 0.05 0.04 0.00 0.01 0.01 0.01 0.00 0.00 0.00 0.00 0.01 0.04 0.02 0.07 0.07 0.08 0.06 0.06 0.09 0.08 0.07 0.08 0.13 0.19 0.27 0.25 0.27 0.33 0.23 0.03 0.02 0.00 0.00
0.00 0.00 0.00 0.00 0.00 0.00 0.00 0.03 0.04 0.28 0.58 1.15 1.17 0.34 0.23 0.18 0.07 0.05 0.02 0.01 0.01 0.00 0.00 0.00 0.00 0.00 0.01 0.02 0.05 0.06 0.02 0.18 0.16 0.10 0.44 0.20 0.14 0.09 0.10 0.14 0.31 0.17 0.20 0.24 0.23 0.12 0.00 0.02 0.01
0.00 0.00 0.00 0.00 0.00 0.00 0.00 0.01 0.02 0.29 0.47 0.70 0.68 0.41 0.30 0.09 0.09 0.08 0.03 0.02 0.01 0.00 0.00 0.00 0.00 0.00 0.01 0.01 0.02 0.07 0.08 0.21 0.28 0.22 0.37 0.17 0.06 0.12 0.07 0.08 0.22 0.25 0.22 0.20 0.18 0.15 0.05 0.02 0.02
0.00 0.00 0.00 0.00 0.00 0.00 0.00 0.00 0.02 0.08 0.49 0.59 0.53 0.36 0.19 0.13 0.15 0.06 0.02 0.02 0.01 0.00 0.00 0.00 0.00 0.00 0.00 0.00 0.01 0.05 0.07 0.12 0.28 0.38 0.05 0.07 0.14 0.07 0.07 0.15 0.32 0.16 0.14 0.17 0.14 0.18 0.10 0.03 0.00
0.00 0.00 0.00 0.00 0.00 0.00 0.00 0.00 0.00 0.02 0.11 0.19 0.13 0.09 0.21 0.19 0.24 0.30 0.13 0.04 0.02 0.06 0.00 0.00 0.00 0.00 0.00 0.00 0.01 0.04 0.07 0.06 0.05 0.15 0.06 0.11 0.18 0.08 0.14 0.17 0.17 0.13 0.04 0.05 0.12 0.08 0.04 0.02 0.00
0.00 0.00 0.00 0.00 0.00 0.00 0.00 0.00 0.02 0.07 0.13 0.03 0.09 0.14 0.20 0.50 0.55 0.41 0.19 0.12 0.16 0.13 0.02 0.00 0.00 0.00 0.00 0.00 0.01 0.01 0.01 0.02 0.02 0.04 0.07 0.03 0.10 0.12 0.21 0.15 0.13 0.10 0.11 0.07 0.10 0.07 0.09 0.09 0.01
0.00 0.00 0.00 0.00 0.00 0.00 0.07 0.07 0.12 0.10 0.08 0.06 0.02 0.04 0.08 0.54 1.42 1.57 1.04 0.43 0.26 0.27 0.15 0.17 0.07 0.01 0.02 0.01 0.02 0.03 0.02 0.03 0.03 0.06 0.03 0.03 0.05 0.21 0.41 0.44 0.17 0.14 0.10 0.10 0.06 0.05 0.04 0.03 0.01
0.00 0.00 0.00 0.00 0.00 0.00 0.05 0.10 0.12 0.15 0.10 0.05 0.04 0.04 0.05 0.28 1.16 2.28 2.16 1.74 0.76 0.56 0.45 0.69 0.55 0.42 0.26 0.16 0.13 0.11 0.08 0.03 0.02 0.03 0.03 0.06 0.07 0.13 0.27 0.83 0.15 0.16 0.09 0.04 0.07 0.09 0.06 0.04 0.01
0.00 0.00 0.00 0.00 0.00 0.00 0.02 0.07 0.08 0.23 0.16 0.07 0.05 0.06 0.06 0.23 0.53 1.16 1.69 1.50 1.30 1.06 0.71 0.90 1.40 0.60 0.31 0.19 0.21 0.19 0.20 0.17 0.12 0.02 0.02 0.04 0.02 0.03 0.08 0.11 0.12 0.13 0.05 0.10 0.13 0.10 0.04 0.07 0.02

GFSSGP_prec_precacc_087.txt.gz
Total_Precipitation_Accumulation
0.02 0.11 0.38 0.96 2.10 1.58 2.65 1.74 1.98 1.10 0.40 0.22 0.12 0.15 0.26 0.24 0.50 0.62 0.12 0.17 0.16 0.24 0.13 0.43 0.92 0.74 0.49 0.24 0.18 0.16 0.12 0.10 0.15 0.10 0.17 0.16 0.17 0.18 0.29 0.17 0.23 0.24 0.23 0.18 0.13 0.14 0.29 0.22 0.24
0.03 0.34 1.11 2.76 2.23 3.05 3.88 2.19 2.26 1.25 0.54 0.40 0.16 0.10 0.10 0.06 0.14 0.06 0.13 0.16 0.04 0.01 0.05 0.08 0.82 0.60 0.42 0.22 0.13 0.13 0.16 0.18 0.27 0.24 0.25 0.19 0.35 0.31 0.33 0.20 0.23 0.30 0.36 0.38 0.36 0.31 0.27 0.26 0.40
0.09 1.12 2.71 3.04 1.55 2.58 2.34 2.70 3.00 1.25 0.56 0.31 0.20 0.27 0.17 0.18 0.07 0.06 0.06 0.05 0.02 0.02 0.03 0.09 0.33 0.36 0.25 0.20 0.13 0.12 0.13 0.15 0.21 0.25 0.21 0.28 0.25 0.22 0.23 0.21 0.16 0.19 0.16 0.18 0.19 0.16 0.22 0.36 0.59
0.27 3.11 4.06 3.03 2.60 2.62 1.45 1.55 1.57 2.03 1.10 0.79 0.45 0.26 0.22 0.21 0.02 0.01 0.01 0.02 0.03 0.04 0.03 0.08 0.12 0.09 0.12 0.16 0.12 0.12 0.14 0.18 0.20 0.24 0.15 0.22 0.30 0.28 0.16 0.21 0.22 0.16 0.12 0.10 0.07 0.11 0.21 0.36 0.61
0.47 2.59 2.36 2.94 2.64 1.74 1.17 1.36 2.74 3.55 1.95 1.43 0.41 0.14 0.17 0.10 0.01 0.00 0.00 0.02 0.04 0.04 0.01 0.03 0.30 0.19 0.12 0.16 0.22 0.23 0.15 0.18 0.21 0.19 0.19 0.23 0.19 0.19 0.29 0.20 0.27 0.21 0.10 0.11 0.09 0.12 0.31 0.46 0.84
1.33 1.25 1.82 2.59 1.20 0.93 1.48 1.77 2.15 2.06 1.34 0.58 0.38 0.17 0.17 0.07 0.02 0.00 0.01 0.02 0.05 0.02 0.01 0.02 0.17 0.16 0.18 0.14 0.24 0.16 0.09 0.13 0.17 0.15 0.20 0.13 0.10 0.22 0.21 0.17 0.09 0.04 0.02 0.07 0.08 0.32 0.55 0.76 0.69
1.20 2.40 1.67 1.40 0.96 1.23 1.45 1.39 1.37 1.51 0.82 0.40 0.36 0.09 0.13 0.07 0.01 0.01 0.00 0.02 0.03 0.01 0.01 0.02 0.03 0.12 0.18 0.25 0.28 0.18 0.15 0.10 0.11 0.09 0.13 0.07 0.07 0.15 0.23 0.14 0.12 0.04 0.07 0.18 0.21 0.34 0.44 0.55 0.39
0.37 1.00 2.33 1.23 0.62 2.12 1.44 1.13 1.33 1.11 0.74 0.26 0.15 0.09 0.06 0.03 0.01 0.01 0.02 0.03 0.04 0.03 0.02 0.01 0.01 0.06 0.09 0.19 0.26 0.12 0.09 0.10 0.12 0.06 0.14 0.29 0.16 0.18 0.15 0.19 0.24 0.15 0.12 0.15 0.20 0.30 0.38 0.55 0.52
0.51 1.77 1.92 0.72 0.43 1.80 1.12 1.19 1.02 0.80 0.29 0.23 0.23 0.08 0.00 0.00 0.01 0.02 0.02 0.04 0.06 0.07 0.03 0.00 0.04 0.09 0.33 0.18 0.21 0.12 0.17 0.24 0.17 0.20 0.35 0.85 0.43 0.49 0.52 0.32 0.16 0.16 0.18 0.08 0.13 0.18 0.32 0.34 0.26
1.24 1.32 0.69 0.20 0.12 0.57 1.81 1.25 1.06 0.72 0.42 0.27 0.19 0.06 0.01 0.01 0.01 0.01 0.01 0.01 0.02 0.03 0.05 0.01 0.02 0.01 0.08 0.05 0.16 0.15 0.05 0.09 0.16 0.27 0.59 1.02 0.42 0.26 0.29 0.26 0.21 0.16 0.20 0.24 0.29 0.27 0.46 0.69 0.26
1.18 0.66 0.30 0.07 0.05 0.25 1.06 0.86 0.62 0.75 0.43 0.20 0.09 0.05 0.01 0.00 0.00 0.00 0.00 0.00 0.00 0.00 0.01 0.01 0.01 0.02 0.05 0.07 0.02 0.03 0.01 0.04 0.05 0.09 0.40 0.91 0.42 0.39 0.51 0.46 0.87 0.40 0.31 0.52 0.67 0.35 0.37 0.90 0.36
0.24 0.30 0.31 0.11 0.06 0.21 0.67 1.78 0.56 1.40 1.49 0.33 0.18 0.02 0.00 0.00 0.00 0.00 0.00 0.00 0.00 0.00 0.00 0.01 0.00 0.02 0.18 0.04 0.01 0.09 0.05 0.02 0.01 0.03 0.11 0.23 0.35 0.37 0.57 0.70 0.51 0.38 0.42 0.73 0.50 0.15 0.17 0.29 0.23
0.23 0.15 0.21 0.13 0.07 0.18 0.39 0.70 0.58 0.91 0.64 0.32 0.25 0.04 0.01 0.01 0.00 0.01 0.01 0.00 0.00 0.00 0.01 0.01 0.00 0.06 0.19 0.04 0.05 0.07 0.03 0.05 0.00 0.01 0.08 0.32 0.30 0.27 0.46 0.46 0.38 0.32 0.41 0.96 0.25 0.19 0.13 0.04 0.03
0.20 0.14 0.35 0.30 0.16 0.23 0.31 0.45 0.29 0.43 0.20 0.39 0.28 0.03 0.00 0.00 0.00 0.01 0.01 0.00 0.00 0.00 0.00 0.00 0.00 0.02 0.06 0.04 0.04 0.03 0.02 0.01 0.00 0.01 0.09 0.31 0.27 0.51 0.55 0.53 0.32 0.21 0.31 0.34 0.24 0.15 0.29 0.02 0.00
0.04 0.09 0.08 0.15 0.21 0.29 0.37 1.11 0.54 0.36 0.35 0.36 0.16 0.02 0.00 0.00 0.00 0.00 0.00 0.00 0.00 0.00 0.00 0.00 0.00 0.00 0.02 0.04 0.05 0.01 0.01 0.02 0.02 0.04 0.19 0.25 0.38 0.50 0.51 0.42 0.38 0.42 0.32 0.21 0.24 0.16 0.28 0.03 0.01
0.05 0.02 0.06 0.10 0.22 0.24 0.37 1.35 0.82 0.74 1.55 0.28 0.11 0.01 0.00 0.00 0.00 0.00 0.00 0.00 0.00 0.00 0.00 0.00 0.00 0.00 0.01 0.03 0.04 0.03 0.01 0.03 0.04 0.11 0.08 0.21 0.45 0.44 0.54 0.53 0.41 0.34 0.28 0.25 0.24 0.19 0.11 0.00 0.00
0.00 0.02 0.01 0.13 0.11 0.22 0.41 0.90 1.81 0.58 0.72 0.23 0.12 0.04 0.00 0.00 0.00 0.00 0.00 0.00 0.00 0.00 0.00 0.00 0.00 0.00 0.00 0.01 0.02 0.01 0.04 0.07 0.09 0.14 0.25 0.24 0.25 0.37 0.96 0.77 0.54 0.26 0.33 0.24 0.16 0.12 0.05 0.01 0.00
0.02 0.03 0.00 0.05 0.15 0.43 0.31 0.88 1.99 0.99 0.78 0.46 0.21 0.10 0.02 0.00 0.00 0.00 0.00 0.00 0.00 0.00 0.00 0.00 0.00 0.00 0.00 0.08 0.13 0.08 0.08 0.09 0.12 0.11 0.35 0.39 0.32 0.49 0.69 0.60 0.70 0.36 0.27 0.35 0.30 0.11 0.02 0.03 0.00
0.00 0.00 0.00 0.01 0.06 0.35 0.30 0.32 1.09 0.58 0.44 0.88 0.33 0.16 0.07 0.01 0.01 0.00 0.00 0.00 0.00 0.00 0.00 0.00 0.00 0.01 0.02 0.07 0.03 0.05 0.10 0.03 0.09 0.17 0.27 0.36 0.34 0.36 0.46 0.51 0.61 0.42 0.30 0.23 0.18 0.06 0.00 0.00 0.00
0.00 0.00 0.00 0.03 0.13 0.16 0.27 0.24 0.31 0.24 0.32 0.62 0.65 0.16 0.08 0.02 0.01 0.00 0.00 0.00 0.01 0.00 0.00 0.00 0.01 0.01 0.00 0.01 0.02 0.02 0.06 0.06 0.12 0.26 0.33 0.16 0.21 0.33 0.25 0.49 0.34 0.34 0.30 0.27 0.17 0.11 0.05 0.00 0.00
0.00 0.00 0.00 0.02 0.08 0.11 0.19 0.29 0.33 0.48 0.39 0.54 0.86 0.32 0.23 0.03 0.04 0.00 0.00 0.00 0.02 0.01 0.00 0.00 0.00 0.00 0.01 0.02 0.03 0.11 0.18 0.22 0.39 0.32 0.17 0.08 0.16 0.15 0.28 0.32 0.27 0.35 0.30 0.35 0.21 0.07 0.05 0.02 0.00
0.00 0.00 0.00 0.00 0.01 0.01 0.05 0.13 0.24 0.29 0.47 1.31 1.14 0.39 0.17 0.07 0.05 0.04 0.00 0.01 0.01 0.01 0.00 0.00 0.00 0.00 0.01 0.04 0.02 0.09 0.07 0.08 0.06 0.06 0.09 0.08 0.08 0.09 0.13 0.19 0.27 0.25 0.27 0.34 0.23 0.04 0.02 0.00 0.00
0.00 0.00 0.00 0.00 0.00 0.00 0.00 0.03 0.04 0.28 0.58 1.16 1.21 0.35 0.23 0.19 0.08 0.06 0.02 0.03 0.04 0.00 0.00 0.00 0.00 0.00 0.01 0.02 0.05 0.06 0.03 0.18 0.16 0.10 0.45 0.20 0.14 0.10 0.13 0.14 0.31 0.17 0.20 0.24 0.23 0.13 0.00 0.02 0.01
0.00 0.00 0.00 0.00 0.00 0.00 0.00 0.01 0.02 0.29 0.47 0.70 0.68 0.42 0.31 0.10 0.11 0.09 0.05 0.05 0.04 0.01 0.00 0.00 0.00 0.00 0.01 0.01 0.02 0.07 0.08 0.21 0.29 0.22 0.39 0.17 0.06 0.12 0.09 0.08 0.22 0.27 0.22 0.20 0.19 0.15 0.05 0.02 0.02
0.00 0.00 0.00 0.00 0.00 0.00 0.00 0.00 0.02 0.08 0.49 0.59 0.53 0.41 0.27 0.18 0.19 0.09 0.05 0.05 0.06 0.01 0.00 0.00 0.00 0.00 0.00 0.00 0.01 0.05 0.07 0.12 0.29 0.38 0.06 0.09 0.15 0.07 0.07 0.15 0.32 0.16 0.14 0.17 0.14 0.18 0.10 0.03 0.00
0.00 0.00 0.00 0.00 0.00 0.00 0.00 0.00 0.00 0.03 0.14 0.22 0.20 0.11 0.24 0.21 0.25 0.31 0.19 0.10 0.11 0.10 0.00 0.00 0.00 0.00 0.00 0.00 0.01 0.04 0.07 0.06 0.05 0.15 0.06 0.12 0.18 0.08 0.14 0.17 0.18 0.13 0.04 0.05 0.12 0.08 0.04 0.02 0.00
0.00 0.00 0.00 0.00 0.00 0.00 0.00 0.00 0.02 0.10 0.17 0.07 0.12 0.15 0.21 0.52 0.55 0.41 0.21 0.16 0.19 0.18 0.02 0.00 0.00 0.00 0.00 0.00 0.01 0.01 0.01 0.02 0.02 0.04 0.07 0.05 0.10 0.13 0.21 0.15 0.13 0.10 0.11 0.07 0.10 0.07 0.09 0.09 0.01
0.00 0.00 0.00 0.00 0.00 0.00 0.07 0.07 0.12 0.13 0.12 0.12 0.11 0.12 0.10 0.56 1.43 1.57 1.05 0.44 0.31 0.40 0.21 0.19 0.08 0.02 0.03 0.01 0.02 0.03 0.02 0.03 0.03 0.06 0.03 0.08 0.09 0.25 0.42 0.46 0.18 0.16 0.11 0.11 0.06 0.05 0.04 0.03 0.01
0.00 0.00 0.00 0.00 0.00 0.00 0.05 0.11 0.12 0.16 0.13 0.07 0.05 0.09 0.10 0.31 1.23 2.42 2.29 1.88 0.80 0.72 0.58 0.77 0.65 0.54 0.40 0.18 0.14 0.11 0.08 0.03 0.05 0.03 0.03 0.07 0.13 0.16 0.29 0.84 0.15 0.16 0.09 0.04 0.07 0.09 0.06 0.04 0.01
0.00 0.00 0.00 0.00 0.00 0.00 0.02 0.07 0.08 0.24 0.16 0.08 0.06 0.08 0.09 0.29 0.62 1.26 1.80 1.72 1.48 1.15 0.83 1.04 1.64 0.81 0.44 0.24 0.22 0.19 0.20 0.17 0.15 0.06 0.03 0.07 0.03 0.05 0.16 0.13 0.12 0.13 0.05 0.10 0.13 0.10 0.04 0.07 0.02

GFSSGP_prec_precacc_090.txt.gz
Total_Precipitation_Accumulation
0.02 0.11 0.38 0.96 2.11 1.58 2.66 1.74 1.98 1.10 0.40 0.22 0.12 0.15 0.26 0.24 0.50 0.62 0.12 0.17 0.16 0.24 0.14 0.51 0.99 0.74 0.50 0.25 0.18 0.18 0.12 0.10 0.15 0.14 0.18 0.18 0.21 0.21 0.31 0.18 0.23 0.26 0.23 0.20 0.14 0.14 0.29 0.22 0.24
0.03 0.34 1.11 2.76 2.27 3.12 3.89 2.21 2.28 1.25 0.55 0.40 0.16 0.10 0.10 0.06 0.14 0.06 0.13 0.16 0.04 0.01 0.05 0.09 0.82 0.62 0.44 0.24 0.14 0.14 0.18 0.21 0.27 0.26 0.27 0.20 0.38 0.32 0.33 0.22 0.29 0.37 0.43 0.43 0.37 0.31 0.27 0.26 0.40
0.09 1.12 2.71 3.05 1.59 2.66 2.39 2.77 3.05 1.27 0.57 0.31 0.23 0.27 0.19 0.18 0.08 0.06 0.06 0.05 0.02 0.02 0.03 0.09 0.33 0.38 0.27 0.22 0.17 0.13 0.14 0.16 0.23 0.26 0.22 0.29 0.27 0.24 0.25 0.32 0.27 0.30 0.26 0.22 0.21 0.17 0.22 0.36 0.59
0.27 3.12 4.10 3.27 2.87 2.63 1.49 1.60 1.58 2.04 1.11 0.79 0.46 0.26 0.22 0.21 0.02 0.01 0.01 0.02 0.03 0.04 0.03 0.08 0.13 0.10 0.12 0.16 0.13 0.13 0.14 0.19 0.22 0.25 0.18 0.23 0.31 0.30 0.20 0.27 0.29 0.22 0.15 0.11 0.08 0.12 0.21 0.36 0.61
0.47 2.62 2.62 3.24 2.74 1.74 1.21 1.41 2.78 3.58 1.95 1.43 0.42 0.15 0.17 0.10 0.01 0.00 0.00 0.02 0.04 0.04 0.01 0.03 0.32 0.21 0.16 0.18 0.26 0.29 0.17 0.19 0.22 0.21 0.23 0.26 0.22 0.23 0.34 0.26 0.31 0.22 0.10 0.11 0.09 0.12 0.32 0.47 0.84
1.34 1.29 1.91 2.61 1.20 0.93 1.52 1.80 2.18 2.06 1.35 0.58 0.38 0.17 0.17 0.07 0.02 0.00 0.01 0.02 0.05 0.02 0.01 0.03 0.21 0.19 0.22 0.17 0.29 0.23 0.14 0.16 0.21 0.19 0.25 0.17 0.13 0.24 0.22 0.18 0.11 0.05 0.02 0.08 0.09 0.32 0.56 0.77 0.69
1.21 2.43 1.78 1.43 0.96 1.24 1.47 1.43 1.42 1.54 0.82 0.40 0.36 0.09 0.13 0.07 0.01 0.01 0.00 0.02 0.03 0.01 0.01 0.03 0.04 0.13 0.19 0.26 0.33 0.24 0.17 0.10 0.14 0.14 0.16 0.11 0.10 0.20 0.31 0.21 0.15 0.05 0.07 0.21 0.22 0.36 0.48 0.63 0.44
0.38 1.03 2.41 1.25 0.62 2.13 1.45 1.17 1.34 1.12 0.74 0.26 0.15 0.09 0.06 0.03 0.01 0.01 0.02 0.03 0.04 0.03 0.02 0.01 0.01 0.06 0.09 0.19 0.27 0.13 0.10 0.10 0.12 0.08 0.18 0.32 0.18 0.27 0.23 0.27 0.29 0.15 0.13 0.16 0.23 0.35 0.44 0.60 0.55
0.54 1.79 1.94 0.74 0.43 1.80 1.13 1.19 1.03 0.80 0.29 0.23 0.23 0.08 0.00 0.00 0.01 0.02 0.02 0.04 0.06 0.07 0.03 0.00 0.04 0.09 0.33 0.18 0.21 0.12 0.17 0.24 0.18 0.25 0.42 0.86 0.46 0.63 0.59 0.33 0.17 0.16 0.18 0.15 0.23 0.25 0.41 0.42 0.31
1.24 1.33 0.69 0.20 0.12 0.57 1.81 1.25 1.06 0.72 0.42 0.27 0.19 0.06 0.01 0.01 0.01 0.01 0.01 0.01 0.02 0.03 0.05 0.01 0.02 0.01 0.08 0.07 0.18 0.15 0.05 0.09 0.16 0.27 0.59 1.02 0.42 0.27 0.29 0.26 0.21 0.16 0.20 0.26 0.32 0.29 0.47 0.69 0.31
1.19 0.66 0.31 0.07 0.05 0.25 1.06 0.87 0.63 0.75 0.43 0.20 0.09 0.05 0.01 0.00 0.00 0.00 0.00 0.00 0.00 0.00 0.01 0.01 0.01 0.02 0.05 0.09 0.02 0.03 0.01 0.04 0.05 0.09 0.40 0.91 0.42 0.39 0.51 0.47 0.87 0.41 0.31 0.52 0.67 0.35 0.38 0.90 0.36
0.24 0.30 0.31 0.11 0.06 0.21 0.67 1.80 0.56 1.42 1.50 0.33 0.18 0.02 0.00 0.00 0.00 0.00 0.00 0.00 0.00 0.00 0.00 0.01 0.00 0.02 0.18 0.04 0.01 0.09 0.05 0.02 0.01 0.03 0.11 0.23 0.35 0.37 0.57 0.70 0.51 0.38 0.42 0.73 0.53 0.20 0.18 0.29 0.23
0.23 0.22 0.22 0.13 0.08 0.19 0.40 0.71 0.58 0.93 0.67 0.32 0.25 0.04 0.01 0.01 0.00 0.01 0.01 0.00 0.00 0.00 0.01 0.01 0.00 0.06 0.19 0.04 0.05 0.07 0.03 0.05 0.00 0.01 0.08 0.32 0.30 0.28 0.48 0.46 0.38 0.33 0.42 0.96 0.28 0.22 0.13 0.04 0.03
0.21 0.22 0.41 0.30 0.20 0.30 0.35 0.50 0.31 0.47 0.37 0.42 0.28 0.03 0.00 0.00 0.00 0.01 0.01 0.00 0.00 0.00 0.00 0.00 0.00 0.02 0.06 0.04 0.04 0.03 0.02 0.01 0.00 0.01 0.09 0.31 0.27 0.51 0.56 0.53 0.32 0.21 0.31 0.34 0.27 0.16 0.29 0.02 0.00
0.05 0.10 0.11 0.17 0.31 0.54 0.47 1.24 0.60 0.40 0.44 0.37 0.16 0.02 0.00 0.00 0.00 0.00 0.00 0.00 0.00 0.00 0.00 0.00 0.00 0.00 0.02 0.04 0.05 0.01 0.01 0.02 0.02 0.04 0.19 0.25 0.38 0.50 0.51 0.42 0.38 0.42 0.32 0.22 0.26 0.16 0.28 0.03 0.01
0.05 0.02 0.07 0.16 0.34 0.52 0.58 1.49 0.87 0.79 1.58 0.28 0.11 0.01 0.00 0.00 0.00 0.00 0.00 0.00 0.00 0.00 0.00 0.00 0.00 0.00 0.01 0.03 0.04 0.03 0.01 0.03 0.04 0.11 0.08 0.22 0.45 0.44 0.54 0.53 0.41 0.34 0.28 0.29 0.25 0.19 0.11 0.00 0.00
0.02 0.06 0.02 0.23 0.24 0.36 0.46 1.00 1.83 0.61 0.73 0.23 0.12 0.04 0.00 0.01 0.00 0.00 0.00 0.00 0.00 0.00 0.00 0.00 0.00 0.00 0.00 0.01 0.02 0.01 0.04 0.07 0.09 0.14 0.25 0.24 0.25 0.37 0.96 0.77 0.54 0.26 0.33 0.25 0.16 0.12 0.05 0.01 0.00
0.04 0.11 0.05 0.09 0.20 0.56 0.44 0.95 1.99 1.00 0.78 0.46 0.21 0.10 0.03 0.01 0.00 0.00 0.00 0.00 0.00 0.00 0.00 0.00 0.00 0.00 0.00 0.08 0.13 0.08 0.08 0.12 0.14 0.11 0.35 0.40 0.32 0.49 0.70 0.60 0.70 0.36 0.27 0.35 0.30 0.11 0.02 0.03 0.00
0.00 0.02 0.03 0.02 0.07 0.53 0.48 0.49 1.14 0.58 0.44 0.88 0.33 0.16 0.07 0.01 0.01 0.00 0.00 0.00 0.00 0.00 0.00 0.00 0.00 0.01 0.02 0.07 0.03 0.05 0.10 0.05 0.10 0.17 0.28 0.38 0.35 0.36 0.46 0.51 0.61 0.42 0.30 0.23 0.18 0.06 0.00 0.00 0.00
0.00 0.00 0.01 0.07 0.25 0.36 0.62 0.42 0.39 0.25 0.32 0.62 0.65 0.16 0.08 0.02 0.01 0.00 0.00 0.00 0.01 0.00 0.00 0.00 0.01 0.01 0.00 0.01 0.02 0.02 0.06 0.06 0.12 0.26 0.33 0.16 0.21 0.33 0.25 0.49 0.34 0.34 0.30 0.27 0.17 0.11 0.05 0.00 0.00
0.00 0.00 0.00 0.03 0.16 0.27 0.42 0.42 0.36 0.49 0.40 0.60 0.86 0.33 0.23 0.04 0.04 0.00 0.00 0.00 0.02 0.01 0.00 0.00 0.00 0.00 0.01 0.02 0.03 0.11 0.18 0.22 0.39 0.32 0.17 0.08 0.16 0.15 0.28 0.32 0.27 0.35 0.30 0.35 0.21 0.07 0.05 0.02 0.00
0.00 0.00 0.00 0.00 0.01 0.05 0.14 0.19 0.24 0.29 0.49 1.31 1.14 0.39 0.17 0.07 0.05 0.04 0.00 0.01 0.01 0.01 0.00 0.00 0.00 0.00 0.01 0.04 0.02 0.09 0.07 0.09 0.07 0.06 0.09 0.08 0.09 0.09 0.13 0.19 0.27 0.25 0.27 0.34 0.23 0.04 0.02 0.00 0.00
0.00 0.00 0.00 0.00 0.00 0.00 0.02 0.03 0.04 0.28 0.58 1.16 1.21 0.35 0.23 0.19 0.08 0.06 0.02 0.03 0.04 0.00 0.00 0.00 0.00 0.00 0.01 0.02 0.05 0.06 0.03 0.18 0.16 0.10 0.45 0.20 0.14 0.10 0.13 0.14 0.31 0.17 0.20 0.24 0.23 0.13 0.00 0.02 0.01
0.00 0.00 0.00 0.00 0.00 0.00 0.00 0.01 0.02 0.29 0.47 0.70 0.68 0.42 0.31 0.10 0.11 0.10 0.05 0.05 0.04 0.01 0.00 0.00 0.00 0.00 0.01 0.01 0.02 0.07 0.08 0.22 0.29 0.22 0.39 0.17 0.06 0.12 0.09 0.08 0.22 0.27 0.22 0.20 0.19 0.15 0.05 0.02 0.02
0.00 0.00 0.00 0.00 0.00 0.00 0.00 0.00 0.02 0.08 0.49 0.59 0.53 0.42 0.30 0.18 0.20 0.09 0.06 0.07 0.08 0.02 0.00 0.00 0.00 0.00 0.00 0.00 0.01 0.05 0.07 0.12 0.29 0.39 0.08 0.10 0.15 0.07 0.07 0.15 0.32 0.16 0.14 0.17 0.14 0.18 0.10 0.03 0.00
0.00 0.00 0.00 0.00 0.00 0.00 0.00 0.00 0.00 0.03 0.14 0.22 0.20 0.16 0.28 0.25 0.27 0.33 0.22 0.15 0.19 0.14 0.00 0.00 0.00 0.00 0.00 0.00 0.01 0.04 0.07 0.06 0.06 0.15 0.07 0.14 0.18 0.08 0.14 0.18 0.18 0.13 0.04 0.05 0.12 0.08 0.04 0.02 0.00
0.00 0.00 0.00 0.00 0.00 0.00 0.00 0.00 0.02 0.10 0.17 0.07 0.12 0.16 0.24 0.55 0.57 0.42 0.22 0.22 0.29 0.24 0.04 0.00 0.00 0.00 0.01 0.00 0.01 0.01 0.01 0.02 0.02 0.04 0.07 0.06 0.10 0.13 0.21 0.19 0.19 0.13 0.11 0.07 0.10 0.07 0.09 0.09 0.01
0.00 0.00 0.00 0.00 0.00 0.00 0.07 0.07 0.12 0.13 0.12 0.14 0.13 0.15 0.15 0.60 1.45 1.59 1.13 0.50 0.44 0.54 0.25 0.19 0.08 0.04 0.07 0.03 0.02 0.03 0.02 0.03 0.03 0.06 0.05 0.10 0.09 0.27 0.47 0.46 0.19 0.23 0.13 0.12 0.06 0.05 0.04 0.03 0.01
0.00 0.00 0.00 0.00 0.00 0.00 0.05 0.11 0.12 0.16 0.13 0.07 0.07 0.17 0.18 0.38 1.25 2.45 2.40 1.91 0.96 0.92 0.59 0.79 0.71 0.65 0.60 0.36 0.16 0.11 0.08 0.03 0.05 0.03 0.03 0.07 0.16 0.20 0.41 0.91 0.15 0.19 0.13 0.05 0.07 0.09 0.06 0.04 0.01
0.00 0.00 0.00 0.00 0.00 0.00 0.02 0.07 0.08 0.24 0.16 0.08 0.07 0.12 0.15 0.34 0.64 1.27 1.83 1.74 1.56 1.36 0.91 1.08 1.73 0.97 0.74 0.50 0.32 0.21 0.21 0.17 0.19 0.08 0.06 0.08 0.08 0.16 0.29 0.19 0.16 0.14 0.07 0.10 0.13 0.12 0.08 0.10 0.02

GFSSGP_prec_precacc_093.txt.gz
Total_Precipitation_Accumulation
0.02 0.11 0.38 0.96 2.11 1.58 2.67 1.74 1.98 1.10 0.40 0.22 0.12 0.15 0.26 0.24 0.50 0.62 0.12 0.17 0.16 0.24 0.14 0.52 1.00 0.74 0.50 0.26 0.20 0.19 0.12 0.10 0.16 0.16 0.19 0.18 0.22 0.23 0.36 0.25 0.27 0.27 0.24 0.21 0.14 0.14 0.29 0.24 0.27
0.03 0.34 1.11 2.76 2.29 3.13 3.90 2.21 2.28 1.25 0.55 0.40 0.16 0.10 0.10 0.06 0.14 0.06 0.13 0.16 0.04 0.01 0.05 0.09 0.82 0.62 0.44 0.24 0.15 0.16 0.19 0.21 0.29 0.30 0.28 0.23 0.41 0.36 0.37 0.24 0.29 0.37 0.43 0.43 0.37 0.31 0.28 0.27 0.40
0.09 1.12 2.72 3.06 1.62 2.67 2.39 2.77 3.05 1.27 0.57 0.31 0.23 0.27 0.19 0.20 0.08 0.06 0.06 0.05 0.02 0.02 0.03 0.09 0.33 0.38 0.27 0.24 0.21 0.18 0.18 0.17 0.25 0.32 0.25 0.33 0.31 0.29 0.28 0.33 0.27 0.30 0.26 0.22 0.25 0.25 0.25 0.37 0.59
0.27 3.12 4.15 3.32 2.90 2.63 1.50 1.60 1.58 2.04 1.11 0.79 0.46 0.26 0.22 0.21 0.02 0.01 0.01 0.02 0.03 0.04 0.03 0.08 0.13 0.10 0.12 0.18 0.15 0.14 0.17 0.22 0.25 0.28 0.20 0.27 0.35 0.32 0.23 0.29 0.30 0.24 0.17 0.18 0.18 0.27 0.30 0.36 0.61
0.47 2.68 3.14 3.35 2.77 1.74 1.23 1.43 2.81 3.59 1.95 1.43 0.42 0.16 0.18 0.10 0.01 0.00 0.00 0.02 0.04 0.04 0.02 0.04 0.33 0.21 0.16 0.18 0.26 0.32 0.21 0.22 0.25 0.27 0.27 0.30 0.26 0.26 0.44 0.32 0.36 0.25 0.11 0.12 0.14 0.16 0.37 0.49 0.85
1.35 1.34 2.04 2.62 1.20 0.93 1.53 1.80 2.18 2.06 1.35 0.58 0.38 0.17 0.18 0.07 0.02 0.00 0.01 0.02 0.05 0.02 0.01 0.03 0.25 0.21 0.22 0.17 0.30 0.26 0.16 0.17 0.21 0.22 0.28 0.19 0.18 0.31 0.32 0.30 0.16 0.05 0.02 0.09 0.11 0.35 0.58 0.78 0.69
1.22 2.48 1.87 1.44 0.96 1.24 1.47 1.43 1.42 1.54 0.82 0.40 0.36 0.09 0.14 0.08 0.01 0.01 0.00 0.02 0.03 0.01 0.01 0.04 0.07 0.16 0.22 0.29 0.34 0.26 0.18 0.12 0.15 0.16 0.17 0.17 0.20 0.36 0.43 0.31 0.16 0.05 0.07 0.21 0.22 0.36 0.49 0.65 0.44
0.40 1.10 2.49 1.25 0.62 2.14 1.46 1.20 1.34 1.12 0.74 0.26 0.15 0.09 0.06 0.03 0.01 0.01 0.02 0.03 0.04 0.03 0.02 0.01 0.02 0.08 0.11 0.22 0.31 0.13 0.10 0.13 0.13 0.10 0.22 0.37 0.21 0.31 0.28 0.32 0.31 0.15 0.13 0.16 0.23 0.35 0.46 0.62 0.55
0.58 1.83 1.99 0.76 0.43 1.80 1.13 1.20 1.03 0.80 0.29 0.23 0.23 0.08 0.00 0.00 0.01 0.02 0.02 0.04 0.06 0.07 0.03 0.01 0.04 0.09 0.36 0.20 0.23 0.13 0.18 0.27 0.19 0.26 0.45 0.86 0.46 0.66 0.68 0.35 0.17 0.16 0.18 0.15 0.23 0.26 0.44 0.45 0.32
1.24 1.33 0.70 0.21 0.12 0.57 1.81 1.25 1.06 0.72 0.42 0.27 0.19 0.06 0.01 0.01 0.01 0.01 0.01 0.01 0.02 0.04 0.05 0.01 0.02 0.01 0.10 0.11 0.18 0.15 0.05 0.09 0.16 0.27 0.59 1.02 0.44 0.32 0.30 0.26 0.21 0.17 0.23 0.28 0.33 0.32 0.47 0.70 0.34
1.19 0.66 0.31 0.07 0.05 0.25 1.06 0.87 0.63 0.75 0.43 0.20 0.09 0.05 0.01 0.00 0.00 0.00 0.00 0.00 0.00 0.00 0.01 0.01 0.01 0.02 0.13 0.16 0.02 0.03 0.01 0.04 0.05 0.09 0.40 0.91 0.42 0.39 0.51 0.47 0.88 0.42 0.33 0.54 0.67 0.35 0.38 0.90 0.36
0.24 0.31 0.31 0.11 0.06 0.22 0.68 1.80 0.56 1.42 1.50 0.33 0.18 0.02 0.00 0.00 0.00 0.00 0.00 0.00 0.00 0.00 0.00 0.01 0.00 0.02 0.19 0.04 0.01 0.09 0.05 0.02 0.01 0.03 0.11 0.23 0.35 0.37 0.57 0.70 0.51 0.38 0.42 0.73 0.53 0.20 0.18 0.29 0.23
0.25 0.24 0.22 0.13 0.08 0.19 0.41 0.73 0.58 0.94 0.67 0.32 0.25 0.04 0.01 0.01 0.00 0.01 0.01 0.00 0.00 0.00 0.01 0.01 0.00 0.06 0.19 0.04 0.05 0.07 0.03 0.05 0.00 0.01 0.08 0.32 0.30 0.28 0.48 0.46 0.38 0.33 0.42 0.97 0.28 0.22 0.13 0.04 0.03
0.22 0.23 0.41 0.30 0.21 0.31 0.40 0.52 0.32 0.49 0.40 0.42 0.28 0.03 0.00 0.00 0.00 0.01 0.01 0.00 0.00 0.00 0.00 0.00 0.00 0.02 0.06 0.04 0.04 0.03 0.02 0.01 0.00 0.01 0.09 0.31 0.27 0.51 0.56 0.53 0.32 0.21 0.31 0.34 0.27 0.16 0.29 0.02 0.00
0.09 0.12 0.12 0.21 0.42 0.70 0.57 1.31 0.62 0.42 0.49 0.37 0.16 0.02 0.00 0.00 0.00 0.00 0.00 0.00 0.00 0.00 0.00 0.00 0.00 0.00 0.02 0.04 0.05 0.01 0.01 0.02 0.02 0.04 0.19 0.25 0.38 0.51 0.52 0.42 0.38 0.42 0.32 0.22 0.27 0.16 0.28 0.03 0.01
0.15 0.02 0.09 0.21 0.44 0.77 0.70 1.65 0.90 0.82 1.65 0.28 0.11 0.01 0.00 0.00 0.00 0.00 0.00 0.00 0.00 0.00 0.00 0.00 0.00 0.00 0.01 0.03 0.04 0.03 0.01 0.03 0.04 0.11 0.08 0.22 0.45 0.44 0.54 0.53 0.41 0.34 0.28 0.29 0.25 0.19 0.11 0.00 0.00
0.07 0.09 0.07 0.31 0.41 0.48 0.60 1.25 1.91 0.78 0.83 0.24 0.12 0.04 0.00 0.01 0.00 0.00 0.00 0.00 0.00 0.00 0.00 0.00 0.00 0.00 0.00 0.01 0.02 0.01 0.04 0.07 0.09 0.14 0.25 0.24 0.25 0.37 0.96 0.77 0.54 0.26 0.33 0.25 0.16 0.12 0.05 0.01 0.00
0.06 0.12 0.07 0.16 0.26 0.60 0.60 1.04 2.03 1.12 0.82 0.46 0.21 0.10 0.03 0.01 0.00 0.00 0.00 0.00 0.00 0.00 0.00 0.00 0.00 0.00 0.00 0.08 0.13 0.08 0.08 0.12 0.14 0.11 0.35 0.40 0.32 0.49 0.70 0.60 0.70 0.36 0.27 0.35 0.30 0.11 0.02 0.03 0.00
0.01 0.03 0.09 0.07 0.08 0.63 0.65 0.60 1.22 0.60 0.46 0.88 0.33 0.16 0.07 0.01 0.01 0.00 0.00 0.00 0.00 0.00 0.00 0.00 0.00 0.01 0.02 0.07 0.03 0.05 0.10 0.05 0.10 0.17 0.28 0.38 0.35 0.36 0.46 0.51 0.61 0.42 0.30 0.23 0.18 0.06 0.00 0.00 0.00
0.00 0.00 0.02 0.12 0.32 0.48 0.89 0.62 0.47 0.31 0.35 0.63 0.65 0.16 0.08 0.02 0.01 0.00 0.00 0.00 0.01 0.00 0.00 0.00 0.01 0.01 0.00 0.01 0.02 0.02 0.06 0.06 0.12 0.26 0.33 0.16 0.21 0.33 0.25 0.49 0.34 0.34 0.30 0.27 0.17 0.11 0.05 0.00 0.00
0.00 0.00 0.00 0.06 0.31 0.48 0.61 0.70 0.41 0.53 0.44 0.60 0.86 0.33 0.23 0.04 0.04 0.00 0.00 0.00 0.02 0.01 0.00 0.00 0.00 0.00 0.01 0.02 0.03 0.11 0.18 0.22 0.39 0.32 0.17 0.08 0.16 0.15 0.28 0.32 0.27 0.35 0.30 0.35 0.21 0.07 0.05 0.02 0.00
0.00 0.00 0.00 0.00 0.03 0.16 0.21 0.34 0.27 0.29 0.49 1.31 1.14 0.39 0.17 0.07 0.05 0.04 0.00 0.01 0.01 0.01 0.00 0.00 0.00 0.00 0.01 0.04 0.02 0.12 0.10 0.13 0.09 0.06 0.09 0.08 0.09 0.09 0.13 0.19 0.27 0.25 0.27 0.34 0.23 0.04 0.02 0.00 0.00
0.00 0.00 0.00 0.00 0.00 0.04 0.07 0.09 0.06 0.28 0.58 1.16 1.21 0.35 0.23 0.19 0.08 0.06 0.02 0.03 0.04 0.00 0.00 0.00 0.00 0.00 0.01 0.02 0.05 0.07 0.06 0.20 0.17 0.10 0.45 0.20 0.14 0.10 0.13 0.14 0.31 0.17 0.20 0.24 0.23 0.13 0.00 0.02 0.01
0.00 0.00 0.00 0.00 0.00 0.00 0.00 0.01 0.02 0.29 0.47 0.70 0.68 0.42 0.31 0.10 0.11 0.10 0.05 0.05 0.04 0.01 0.00 0.00 0.00 0.00 0.01 0.01 0.02 0.07 0.10 0.27 0.31 0.25 0.40 0.17 0.06 0.12 0.09 0.08 0.22 0.27 0.22 0.20 0.19 0.15 0.05 0.02 0.02
0.00 0.00 0.00 0.00 0.00 0.00 0.00 0.00 0.02 0.08 0.49 0.59 0.53 0.42 0.31 0.19 0.20 0.09 0.06 0.07 0.09 0.02 0.00 0.00 0.00 0.00 0.00 0.00 0.01 0.05 0.07 0.13 0.39 0.47 0.08 0.10 0.17 0.09 0.07 0.16 0.33 0.16 0.14 0.17 0.14 0.19 0.12 0.03 0.00
0.00 0.00 0.00 0.00 0.00 0.00 0.00 0.00 0.00 0.03 0.14 0.22 0.20 0.16 0.30 0.29 0.28 0.33 0.22 0.16 0.22 0.16 0.01 0.00 0.00 0.00 0.00 0.00 0.01 0.04 0.07 0.06 0.09 0.21 0.11 0.14 0.22 0.13 0.17 0.23 0.22 0.14 0.04 0.05 0.12 0.08 0.05 0.02 0.00
0.00 0.00 0.00 0.00 0.00 0.00 0.00 0.00 0.02 0.10 0.17 0.07 0.12 0.16 0.24 0.58 0.63 0.46 0.23 0.23 0.30 0.28 0.05 0.00 0.00 0.00 0.01 0.00 0.01 0.03 0.02 0.02 0.03 0.05 0.08 0.06 0.10 0.14 0.22 0.24 0.27 0.16 0.12 0.07 0.10 0.07 0.09 0.09 0.01
0.00 0.00 0.00 0.00 0.00 0.00 0.07 0.07 0.12 0.13 0.12 0.14 0.13 0.15 0.15 0.60 1.46 1.63 1.18 0.53 0.45 0.56 0.33 0.22 0.09 0.06 0.12 0.05 0.07 0.15 0.10 0.08 0.04 0.08 0.05 0.11 0.09 0.28 0.49 0.47 0.21 0.26 0.13 0.13 0.07 0.05 0.04 0.03 0.01
0.00 0.00 0.00 0.00 0.00 0.00 0.05 0.11 0.12 0.16 0.13 0.07 0.07 0.17 0.18 0.38 1.25 2.47 2.44 1.95 0.98 0.95 0.62 0.81 0.72 0.65 0.63 0.51 0.23 0.16 0.15 0.09 0.08 0.05 0.03 0.09 0.19 0.21 0.42 0.92 0.15 0.22 0.21 0.08 0.11 0.13 0.07 0.04 0.01
0.00 0.00 0.00 0.00 0.00 0.00 0.02 0.07 0.08 0.24 0.16 0.08 0.07 0.13 0.15 0.34 0.65 1.30 1.86 1.78 1.58 1.39 0.92 1.09 1.74 1.05 0.81 0.64 0.61 0.34 0.27 0.23 0.23 0.10 0.06 0.08 0.09 0.16 0.29 0.21 0.17 0.19 0.16 0.18 0.18 0.14 0.10 0.13 0.05

GFSSGP_prec_precacc_096.txt.gz
Total_Precipitation_Accumulation
0.02 0.11 0.38 0.96 2.12 1.60 2.67 1.74 1.98 1.10 0.40 0.22 0.12 0.15 0.26 0.24 0.50 0.62 0.12 0.17 0.16 0.24 0.14 0.53 1.02 0.74 0.51 0.31 0.22 0.19 0.12 0.11 0.16 0.16 0.20 0.19 0.22 0.23 0.36 0.25 0.30 0.29 0.26 0.23 0.16 0.16 0.30 0.25 0.28
0.03 0.34 1.11 2.76 2.31 3.15 3.90 2.21 2.28 1.25 0.55 0.40 0.16 0.10 0.10 0.08 0.14 0.06 0.13 0.16 0.04 0.03 0.06 0.09 0.84 0.63 0.45 0.26 0.16 0.16 0.20 0.24 0.31 0.32 0.29 0.24 0.41 0.37 0.39 0.25 0.32 0.43 0.46 0.44 0.37 0.31 0.28 0.27 0.40
0.09 1.12 2.73 3.06 1.64 2.69 2.39 2.77 3.05 1.27 0.57 0.31 0.23 0.27 0.19 0.21 0.08 0.06 0.06 0.05 0.02 0.03 0.03 0.10 0.37 0.43 0.29 0.25 0.21 0.18 0.18 0.18 0.28 0.34 0.26 0.34 0.32 0.32 0.28 0.34 0.30 0.33 0.30 0.28 0.35 0.31 0.25 0.38 0.59
0.27 3.12 4.17 3.33 2.92 2.64 1.50 1.60 1.58 2.04 1.11 0.79 0.46 0.29 0.22 0.21 0.02 0.01 0.01 0.02 0.03 0.04 0.03 0.10 0.19 0.18 0.18 0.21 0.16 0.14 0.18 0.22 0.26 0.29 0.22 0.28 0.38 0.33 0.27 0.33 0.34 0.30 0.22 0.20 0.19 0.27 0.30 0.36 0.61
0.47 2.70 3.18 3.36 2.77 1.74 1.23 1.44 2.81 3.59 1.95 1.43 0.43 0.21 0.18 0.10 0.01 0.00 0.00 0.02 0.04 0.04 0.02 0.04 0.35 0.23 0.16 0.19 0.27 0.32 0.21 0.22 0.26 0.29 0.29 0.35 0.36 0.37 0.52 0.34 0.38 0.30 0.16 0.14 0.15 0.17 0.38 0.49 0.86
1.37 1.51 2.10 2.62 1.20 0.93 1.53 1.81 2.18 2.06 1.35 0.58 0.38 0.17 0.18 0.07 0.02 0.01 0.01 0.02 0.05 0.02 0.01 0.03 0.25 0.21 0.24 0.18 0.30 0.27 0.16 0.19 0.22 0.26 0.37 0.33 0.41 0.37 0.36 0.32 0.17 0.06 0.03 0.10 0.12 0.38 0.58 0.78 0.69
1.27 2.63 1.96 1.44 0.96 1.24 1.47 1.43 1.42 1.54 0.82 0.40 0.36 0.09 0.14 0.08 0.01 0.01 0.00 0.02 0.03 0.01 0.01 0.04 0.07 0.18 0.24 0.32 0.38 0.27 0.20 0.14 0.15 0.21 0.24 0.21 0.25 0.39 0.46 0.33 0.16 0.05 0.07 0.21 0.22 0.36 0.49 0.65 0.44
0.42 1.27 2.55 1.25 0.62 2.14 1.46 1.20 1.34 1.12 0.74 0.26 0.15 0.09 0.06 0.03 0.01 0.02 0.02 0.03 0.04 0.03 0.03 0.02 0.03 0.10 0.13 0.24 0.34 0.14 0.11 0.17 0.16 0.11 0.25 0.39 0.22 0.31 0.33 0.35 0.31 0.15 0.13 0.16 0.23 0.35 0.46 0.62 0.55
0.59 1.97 2.04 0.77 0.43 1.80 1.13 1.20 1.03 0.80 0.29 0.23 0.23 0.08 0.00 0.00 0.01 0.03 0.02 0.04 0.06 0.07 0.03 0.01 0.04 0.10 0.39 0.23 0.26 0.14 0.19 0.31 0.22 0.27 0.46 0.92 0.48 0.72 0.77 0.37 0.18 0.16 0.18 0.15 0.23 0.26 0.44 0.45 0.32
1.28 1.43 0.75 0.22 0.12 0.57 1.81 1.25 1.06 0.72 0.42 0.27 0.19 0.06 0.01 0.01 0.01 0.01 0.01 0.01 0.02 0.04 0.05 0.02 0.02 0.01 0.10 0.11 0.19 0.16 0.06 0.10 0.17 0.27 0.59 1.04 0.47 0.42 0.30 0.26 0.21 0.17 0.23 0.28 0.33 0.32 0.47 0.70 0.35
1.19 0.73 0.35 0.08 0.05 0.25 1.06 0.87 0.63 0.75 0.43 0.20 0.09 0.05 0.01 0.00 0.00 0.00 0.00 0.00 0.00 0.00 0.01 0.01 0.01 0.03 0.13 0.17 0.03 0.03 0.01 0.04 0.05 0.09 0.40 0.91 0.42 0.39 0.51 0.47 0.88 0.42 0.33 0.54 0.67 0.35 0.38 0.90 0.37
0.24 0.31 0.31 0.12 0.06 0.22 0.68 1.80 0.56 1.42 1.50 0.33 0.18 0.02 0.00 0.00 0.00 0.00 0.00 0.00 0.00 0.00 0.00 0.01 0.00 0.05 0.20 0.04 0.01 0.09 0.05 0.02 0.01 0.03 0.11 0.23 0.35 0.37 0.57 0.70 0.51 0.38 0.42 0.73 0.53 0.20 0.18 0.29 0.23
0.25 0.25 0.22 0.13 0.08 0.19 0.41 0.73 0.58 0.94 0.67 0.32 0.25 0.04 0.01 0.01 0.00 0.01 0.01 0.00 0.00 0.00 0.01 0.01 0.00 0.06 0.20 0.04 0.05 0.07 0.03 0.05 0.00 0.01 0.08 0.32 0.30 0.28 0.48 0.46 0.38 0.33 0.42 0.97 0.28 0.22 0.13 0.04 0.03
0.23 0.23 0.41 0.31 0.21 0.31 0.40 0.52 0.32 0.49 0.40 0.42 0.28 0.03 0.00 0.00 0.00 0.01 0.01 0.00 0.00 0.00 0.00 0.00 0.00 0.02 0.06 0.04 0.04 0.03 0.02 0.01 0.00 0.01 0.09 0.31 0.27 0.51 0.56 0.53 0.32 0.21 0.31 0.34 0.27 0.16 0.29 0.02 0.00
0.16 0.12 0.13 0.27 0.48 0.76 0.59 1.32 0.63 0.42 0.49 0.37 0.16 0.02 0.00 0.00 0.00 0.00 0.00 0.00 0.00 0.00 0.00 0.00 0.00 0.00 0.02 0.04 0.05 0.01 0.01 0.02 0.02 0.04 0.19 0.25 0.38 0.51 0.52 0.42 0.38 0.42 0.32 0.22 0.27 0.16 0.28 0.03 0.01
0.23 0.09 0.16 0.35 0.55 0.88 0.78 1.70 0.93 0.83 1.65 0.28 0.11 0.01 0.00 0.00 0.00 0.00 0.00 0.00 0.00 0.00 0.00 0.00 0.00 0.00 0.01 0.03 0.05 0.03 0.01 0.03 0.04 0.11 0.08 0.22 0.45 0.44 0.54 0.53 0.41 0.34 0.28 0.29 0.25 0.19 0.11 0.00 0.00
0.20 0.21 0.19 0.42 0.53 0.70 0.92 1.36 2.03 0.89 0.86 0.24 0.12 0.04 0.00 0.01 0.00 0.00 0.00 0.00 0.00 0.00 0.00 0.00 0.00 0.00 0.00 0.01 0.02 0.01 0.04 0.07 0.09 0.14 0.25 0.24 0.25 0.37 0.96 0.77 0.54 0.26 0.33 0.25 0.16 0.12 0.05 0.01 0.00
0.09 0.17 0.13 0.25 0.34 0.79 0.97 1.23 2.18 1.40 0.98 0.48 0.21 0.10 0.03 0.01 0.00 0.00 0.00 0.00 0.00 0.00 0.00 0.00 0.00 0.00 0.01 0.09 0.13 0.08 0.08 0.13 0.14 0.11 0.35 0.40 0.32 0.49 0.70 0.60 0.70 0.36 0.27 0.35 0.30 0.11 0.02 0.03 0.00
0.01 0.05 0.14 0.11 0.13 0.89 0.98 0.85 1.39 0.76 0.62 0.91 0.33 0.16 0.07 0.01 0.01 0.00 0.00 0.00 0.00 0.00 0.00 0.00 0.00 0.02 0.06 0.08 0.03 0.05 0.10 0.05 0.10 0.17 0.28 0.38 0.35 0.36 0.46 0.51 0.61 0.42 0.30 0.23 0.18 0.06 0.00 0.00 0.00
0.00 0.01 0.03 0.16 0.47 0.63 1.08 0.76 0.61 0.53 0.48 0.65 0.65 0.16 0.08 0.02 0.01 0.00 0.00 0.00 0.01 0.00 0.00 0.00 0.01 0.02 0.02 0.03 0.05 0.04 0.06 0.06 0.12 0.26 0.33 0.16 0.21 0.33 0.25 0.49 0.34 0.34 0.30 0.27 0.17 0.11 0.05 0.00 0.00
0.00 0.00 0.00 0.11 0.38 0.56 0.71 0.78 0.49 0.66 0.72 0.69 0.86 0.33 0.23 0.04 0.04 0.00 0.00 0.00 0.02 0.01 0.00 0.00 0.00 0.00 0.01 0.02 0.06 0.29 0.25 0.26 0.41 0.32 0.17 0.08 0.16 0.15 0.28 0.32 0.27 0.35 0.30 0.35 0.21 0.07 0.05 0.02 0.00
0.00 0.00 0.00 0.00 0.07 0.26 0.23 0.40 0.34 0.34 0.68 1.40 1.17 0.39 0.17 0.07 0.05 0.04 0.00 0.01 0.01 0.01 0.00 0.00 0.00 0.00 0.01 0.04 0.03 0.20 0.25 0.28 0.19 0.06 0.10 0.09 0.09 0.09 0.13 0.19 0.27 0.25 0.27 0.34 0.23 0.04 0.02 0.00 0.00
0.00 0.00 0.00 0.00 0.01 0.08 0.09 0.09 0.09 0.31 0.60 1.18 1.22 0.35 0.23 0.19 0.08 0.06 0.02 0.03 0.04 0.00 0.00 0.00 0.00 0.00 0.01 0.03 0.06 0.10 0.11 0.30 0.22 0.10 0.53 0.25 0.16 0.10 0.13 0.14 0.31 0.17 0.20 0.24 0.23 0.13 0.00 0.02 0.01
0.00 0.00 0.00 0.00 0.00 0.02 0.01 0.01 0.03 0.29 0.47 0.70 0.68 0.42 0.31 0.10 0.11 0.10 0.05 0.05 0.04 0.01 0.00 0.00 0.00 0.00 0.01 0.01 0.02 0.08 0.18 0.35 0.50 0.44 0.48 0.18 0.07 0.12 0.09 0.08 0.22 0.27 0.22 0.20 0.19 0.16 0.06 0.02 0.02
0.00 0.00 0.00 0.00 0.00 0.00 0.00 0.00 0.02 0.08 0.49 0.59 0.53 0.42 0.31 0.19 0.20 0.09 0.06 0.07 0.09 0.02 0.00 0.00 0.00 0.00 0.00 0.00 0.01 0.05 0.11 0.25 0.49 0.61 0.22 0.12 0.27 0.17 0.08 0.20 0.37 0.16 0.14 0.17 0.14 0.23 0.15 0.03 0.00
0.00 0.00 0.00 0.00 0.00 0.00 0.00 0.00 0.00 0.03 0.14 0.22 0.20 0.16 0.30 0.29 0.28 0.33 0.22 0.16 0.22 0.16 0.01 0.00 0.00 0.00 0.00 0.01 0.01 0.04 0.09 0.10 0.19 0.27 0.24 0.22 0.28 0.16 0.20 0.26 0.23 0.14 0.04 0.05 0.12 0.08 0.05 0.05 0.01
0.00 0.00 0.00 0.00 0.00 0.00 0.00 0.00 0.02 0.10 0.17 0.07 0.12 0.16 0.24 0.58 0.63 0.47 0.23 0.23 0.30 0.28 0.06 0.00 0.00 0.00 0.01 0.01 0.01 0.05 0.09 0.06 0.07 0.22 0.18 0.14 0.20 0.16 0.26 0.25 0.28 0.18 0.13 0.07 0.10 0.07 0.09 0.09 0.01
0.00 0.00 0.00 0.00 0.00 0.00 0.07 0.07 0.12 0.13 0.12 0.14 0.13 0.15 0.15 0.60 1.48 1.66 1.18 0.53 0.45 0.56 0.37 0.24 0.09 0.07 0.13 0.05 0.10 0.22 0.15 0.13 0.09 0.15 0.15 0.18 0.10 0.33 0.63 0.56 0.27 0.29 0.16 0.19 0.11 0.05 0.04 0.03 0.01
0.00 0.00 0.00 0.00 0.00 0.00 0.05 0.11 0.12 0.16 0.13 0.07 0.07 0.17 0.18 0.38 1.25 2.47 2.45 1.95 0.98 0.95 0.63 0.92 0.79 0.70 0.63 0.51 0.23 0.24 0.22 0.11 0.11 0.12 0.12 0.17 0.22 0.23 0.50 1.04 0.23 0.34 0.31 0.16 0.21 0.18 0.07 0.04 0.02
0.00 0.00 0.00 0.00 0.00 0.00 0.02 0.07 0.08 0.24 0.16 0.08 0.07 0.13 0.15 0.34 0.65 1.31 1.90 1.78 1.58 1.39 0.92 1.12 1.82 1.15 0.85 0.67 0.62 0.34 0.30 0.28 0.24 0.11 0.12 0.16 0.16 0.26 0.38 0.25 0.27 0.39 0.18 0.22 0.22 0.18 0.13 0.15 0.06

GFSSGP_prec_precacc_099.txt.gz
Total_Precipitation_Accumulation
0.02 0.11 0.38 0.96 2.18 1.61 2.67 1.74 1.98 1.10 0.40 0.22 0.12 0.15 0.26 0.24 0.50 0.63 0.12 0.17 0.16 0.24 0.14 0.53 1.02 0.74 0.55 0.35 0.22 0.20 0.13 0.11 0.16 0.17 0.21 0.19 0.22 0.26 0.37 0.26 0.33 0.31 0.27 0.25 0.20 0.22 0.32 0.25 0.28
0.03 0.34 1.11 2.77 2.38 3.17 3.90 2.21 2.28 1.25 0.55 0.40 0.16 0.11 0.11 0.08 0.14 0.06 0.13 0.16 0.05 0.04 0.06 0.09 0.84 0.68 0.53 0.29 0.17 0.16 0.20 0.24 0.31 0.32 0.29 0.24 0.42 0.39 0.40 0.25 0.33 0.43 0.47 0.45 0.38 0.31 0.28 0.27 0.40
0.09 1.12 2.74 3.06 1.70 2.71 2.39 2.77 3.05 1.27 0.57 0.31 0.23 0.28 0.19 0.21 0.08 0.06 0.06 0.05 0.04 0.06 0.04 0.10 0.41 0.47 0.32 0.29 0.25 0.19 0.18 0.18 0.28 0.34 0.26 0.34 0.35 0.38 0.30 0.35 0.32 0.37 0.38 0.36 0.42 0.35 0.27 0.39 0.60
0.27 3.13 4.17 3.35 3.00 2.66 1.50 1.60 1.58 2.04 1.11 0.79 0.46 0.31 0.22 0.21 0.02 0.01 0.01 0.04 0.05 0.05 0.03 0.11 0.23 0.25 0.25 0.22 0.17 0.15 0.18 0.22 0.26 0.29 0.23 0.30 0.40 0.34 0.30 0.37 0.39 0.34 0.25 0.21 0.22 0.29 0.30 0.37 0.61
0.47 2.70 3.18 3.39 2.80 1.74 1.23 1.44 2.81 3.59 1.95 1.44 0.45 0.24 0.18 0.10 0.01 0.00 0.01 0.04 0.05 0.04 0.02 0.06 0.43 0.26 0.19 0.20 0.27 0.32 0.22 0.23 0.26 0.30 0.31 0.41 0.39 0.38 0.54 0.38 0.46 0.38 0.18 0.15 0.16 0.17 0.38 0.49 0.86
1.38 1.58 2.15 2.66 1.21 0.93 1.53 1.81 2.18 2.06 1.35 0.59 0.39 0.17 0.18 0.07 0.03 0.02 0.01 0.02 0.05 0.03 0.01 0.03 0.27 0.22 0.24 0.19 0.31 0.28 0.17 0.19 0.22 0.27 0.40 0.35 0.51 0.40 0.40 0.35 0.20 0.07 0.03 0.10 0.12 0.38 0.58 0.78 0.69
1.40 2.81 2.11 1.47 0.96 1.24 1.47 1.43 1.42 1.54 0.82 0.40 0.36 0.09 0.14 0.08 0.02 0.01 0.00 0.02 0.03 0.02 0.01 0.04 0.07 0.19 0.25 0.33 0.39 0.27 0.21 0.16 0.16 0.21 0.25 0.21 0.26 0.39 0.47 0.34 0.16 0.05 0.08 0.21 0.22 0.36 0.49 0.65 0.44
0.52 1.50 2.63 1.27 0.63 2.14 1.46 1.20 1.34 1.12 0.74 0.26 0.15 0.09 0.06 0.03 0.01 0.02 0.02 0.03 0.04 0.03 0.03 0.02 0.03 0.13 0.14 0.24 0.35 0.15 0.12 0.19 0.16 0.12 0.25 0.41 0.22 0.31 0.34 0.36 0.31 0.15 0.13 0.16 0.23 0.35 0.46 0.62 0.55
0.62 2.30 2.13 0.78 0.43 1.80 1.13 1.20 1.03 0.81 0.29 0.23 0.23 0.08 0.00 0.00 0.01 0.03 0.02 0.04 0.06 0.07 0.03 0.01 0.04 0.10 0.39 0.23 0.26 0.14 0.20 0.32 0.25 0.28 0.54 1.12 0.49 0.73 0.80 0.39 0.18 0.16 0.18 0.15 0.23 0.26 0.44 0.45 0.32
1.38 1.67 0.85 0.25 0.12 0.57 1.81 1.25 1.06 0.72 0.43 0.27 0.19 0.06 0.01 0.01 0.01 0.01 0.01 0.01 0.02 0.04 0.05 0.02 0.02 0.02 0.10 0.11 0.20 0.16 0.07 0.10 0.20 0.28 0.63 1.10 0.47 0.46 0.30 0.26 0.21 0.17 0.23 0.28 0.33 0.32 0.47 0.72 0.35
1.25 1.01 0.43 0.09 0.06 0.25 1.06 0.87 0.63 0.76 0.44 0.20 0.09 0.05 0.01 0.00 0.00 0.00 0.00 0.00 0.00 0.00 0.01 0.01 0.01 0.03 0.13 0.17 0.03 0.03 0.01 0.04 0.05 0.12 0.45 0.91 0.42 0.39 0.51 0.47 0.88 0.42 0.33 0.54 0.67 0.35 0.38 0.90 0.37
0.26 0.34 0.34 0.13 0.06 0.22 0.69 1.80 0.56 1.42 1.50 0.33 0.18 0.02 0.00 0.00 0.00 0.00 0.00 0.00 0.00 0.00 0.00 0.01 0.00 0.06 0.20 0.04 0.01 0.09 0.05 0.02 0.01 0.03 0.11 0.23 0.35 0.37 0.57 0.70 0.51 0.38 0.42 0.73 0.53 0.20 0.18 0.29 0.23
0.27 0.28 0.24 0.17 0.09 0.20 0.42 0.73 0.58 0.94 0.67 0.32 0.25 0.04 0.01 0.01 0.00 0.01 0.01 0.00 0.00 0.00 0.01 0.01 0.00 0.08 0.20 0.04 0.05 0.07 0.03 0.05 0.00 0.01 0.08 0.32 0.30 0.28 0.48 0.46 0.38 0.33 0.42 0.97 0.28 0.22 0.13 0.04 0.03
0.27 0.26 0.43 0.34 0.23 0.32 0.41 0.52 0.32 0.49 0.40 0.42 0.28 0.03 0.00 0.00 0.00 0.01 0.01 0.00 0.00 0.00 0.00 0.00 0.00 0.02 0.06 0.04 0.04 0.03 0.02 0.01 0.00 0.01 0.09 0.31 0.27 0.51 0.56 0.53 0.32 0.22 0.31 0.34 0.27 0.16 0.29 0.02 0.00
0.24 0.16 0.18 0.34 0.48 0.76 0.60 1.34 0.65 0.42 0.49 0.37 0.16 0.02 0.00 0.00 0.00 0.00 0.00 0.00 0.00 0.00 0.00 0.00 0.00 0.00 0.02 0.04 0.05 0.01 0.01 0.02 0.02 0.04 0.19 0.25 0.38 0.51 0.53 0.43 0.38 0.42 0.32 0.22 0.27 0.16 0.28 0.03 0.01
0.32 0.19 0.24 0.44 0.57 0.89 0.81 1.79 0.98 0.83 1.65 0.28 0.11 0.01 0.00 0.00 0.00 0.00 0.00 0.00 0.00 0.00 0.00 0.00 0.00 0.00 0.01 0.03 0.05 0.03 0.01 0.03 0.04 0.11 0.08 0.22 0.45 0.44 0.54 0.53 0.41 0.34 0.28 0.29 0.25 0.19 0.11 0.00 0.00
0.36 0.39 0.34 0.56 0.60 0.73 0.98 1.46 2.14 0.90 0.86 0.24 0.12 0.04 0.00 0.01 0.00 0.00 0.00 0.00 0.00 0.00 0.00 0.00 0.00 0.00 0.00 0.01 0.02 0.01 0.04 0.07 0.09 0.14 0.25 0.24 0.25 0.37 0.96 0.77 0.54 0.26 0.33 0.25 0.16 0.12 0.05 0.01 0.00
0.16 0.36 0.29 0.39 0.42 0.83 1.04 1.37 2.28 1.44 0.98 0.48 0.21 0.10 0.03 0.01 0.00 0.00 0.00 0.00 0.00 0.00 0.00 0.00 0.00 0.00 0.04 0.11 0.14 0.08 0.08 0.13 0.14 0.11 0.35 0.40 0.32 0.49 0.70 0.60 0.70 0.36 0.27 0.35 0.30 0.11 0.02 0.03 0.00
0.07 0.29 0.61 0.24 0.16 1.17 1.17 1.04 1.64 1.05 0.76 0.93 0.33 0.16 0.07 0.01 0.01 0.00 0.00 0.00 0.00 0.00 0.00 0.00 0.01 0.05 0.12 0.12 0.03 0.05 0.10 0.05 0.10 0.17 0.28 0.38 0.35 0.36 0.46 0.51 0.61 0.42 0.30 0.23 0.18 0.06 0.00 0.00 0.00
0.00 0.15 0.78 0.49 0.52 0.69 1.29 0.94 0.93 1.12 0.81 0.70 0.65 0.16 0.08 0.02 0.01 0.00 0.00 0.00 0.01 0.00 0.00 0.00 0.01 0.06 0.06 0.04 0.06 0.05 0.07 0.06 0.13 0.26 0.34 0.16 0.21 0.33 0.25 0.49 0.34 0.34 0.30 0.27 0.17 0.11 0.05 0.00 0.00
0.00 0.04 0.53 0.59 0.46 0.68 0.94 1.07 0.67 1.00 1.18 0.82 0.88 0.33 0.23 0.04 0.04 0.00 0.00 0.00 0.02 0.01 0.00 0.00 0.00 0.03 0.02 0.04 0.09 0.32 0.31 0.37 0.47 0.33 0.17 0.08 0.16 0.15 0.28 0.32 0.29 0.35 0.30 0.35 0.21 0.07 0.05 0.02 0.00
0.00 0.01 0.29 0.39 0.10 0.36 0.35 0.52 0.40 0.40 1.06 1.65 1.21 0.39 0.18 0.08 0.06 0.04 0.00 0.01 0.01 0.01 0.00 0.00 0.00 0.01 0.02 0.04 0.05 0.23 0.42 0.46 0.28 0.09 0.14 0.10 0.09 0.09 0.13 0.19 0.27 0.25 0.28 0.35 0.23 0.04 0.02 0.00 0.00
0.00 0.00 0.12 0.11 0.04 0.10 0.12 0.14 0.13 0.33 0.81 1.45 1.24 0.36 0.23 0.20 0.08 0.07 0.02 0.03 0.04 0.00 0.00 0.00 0.00 0.00 0.02 0.03 0.09 0.12 0.11 0.31 0.24 0.18 0.62 0.30 0.17 0.10 0.13 0.14 0.31 0.17 0.20 0.24 0.23 0.13 0.00 0.02 0.01
0.00 0.00 0.00 0.00 0.01 0.07 0.02 0.01 0.04 0.30 0.54 0.89 0.73 0.45 0.31 0.11 0.11 0.11 0.05 0.05 0.04 0.01 0.00 0.00 0.00 0.00 0.01 0.02 0.03 0.11 0.26 0.38 0.62 0.64 0.63 0.19 0.07 0.12 0.09 0.08 0.22 0.27 0.23 0.20 0.19 0.16 0.06 0.02 0.02
0.00 0.00 0.00 0.00 0.02 0.00 0.00 0.00 0.02 0.08 0.51 0.64 0.56 0.43 0.31 0.21 0.21 0.10 0.06 0.08 0.09 0.02 0.00 0.00 0.00 0.00 0.00 0.00 0.01 0.05 0.14 0.30 0.52 0.68 0.26 0.20 0.30 0.20 0.11 0.23 0.39 0.16 0.14 0.17 0.14 0.23 0.15 0.03 0.00
0.00 0.00 0.00 0.00 0.00 0.00 0.00 0.00 0.00 0.03 0.14 0.22 0.20 0.16 0.30 0.29 0.29 0.33 0.22 0.18 0.23 0.16 0.01 0.00 0.00 0.00 0.00 0.02 0.03 0.05 0.10 0.10 0.20 0.28 0.24 0.23 0.33 0.16 0.23 0.26 0.23 0.14 0.04 0.05 0.12 0.08 0.05 0.05 0.01
0.00 0.00 0.00 0.00 0.00 0.01 0.01 0.00 0.02 0.10 0.17 0.07 0.12 0.16 0.24 0.58 0.64 0.47 0.23 0.24 0.31 0.29 0.06 0.02 0.00 0.01 0.03 0.03 0.04 0.11 0.14 0.07 0.10 0.29 0.18 0.15 0.22 0.32 0.30 0.25 0.28 0.18 0.13 0.07 0.11 0.07 0.09 0.11 0.02
0.00 0.00 0.00 0.00 0.00 0.00 0.07 0.07 0.12 0.13 0.12 0.14 0.13 0.15 0.15 0.60 1.48 1.66 1.18 0.53 0.45 0.58 0.42 0.26 0.10 0.07 0.14 0.07 0.12 0.24 0.15 0.13 0.09 0.15 0.15 0.22 0.13 0.64 0.78 0.56 0.27 0.29 0.16 0.20 0.12 0.05 0.04 0.04 0.02
0.00 0.00 0.00 0.00 0.00 0.00 0.06 0.11 0.12 0.16 0.13 0.07 0.07 0.17 0.18 0.38 1.25 2.47 2.45 1.95 0.98 0.95 0.66 0.94 0.81 0.70 0.66 0.55 0.29 0.35 0.22 0.11 0.11 0.12 0.12 0.17 0.24 0.31 0.55 1.04 0.23 0.34 0.31 0.16 0.21 0.18 0.09 0.04 0.02
0.00 0.00 0.00 0.00 0.00 0.00 0.02 0.08 0.08 0.24 0.16 0.08 0.07 0.13 0.15 0.38 0.69 1.31 1.90 1.79 1.59 1.41 0.94 1.12 1.87 1.24 0.90 0.71 0.69 0.44 0.31 0.30 0.27 0.13 0.12 0.16 0.17 0.27 0.46 0.33 0.38 0.40 0.18 0.22 0.28 0.18 0.13 0.15 0.06

GFSSGP_prec_precacc_102.txt.gz
Total_Precipitation_Accumulation
0.02 0.11 0.38 0.98 2.29 1.71 2.67 1.74 1.98 1.10 0.40 0.22 0.12 0.15 0.26 0.24 0.50 0.63 0.13 0.19 0.16 0.24 0.14 0.53 1.02 0.75 0.59 0.35 0.23 0.22 0.15 0.12 0.18 0.18 0.23 0.21 0.22 0.27 0.39 0.32 0.38 0.34 0.30 0.27 0.23 0.23 0.32 0.25 0.29
0.03 0.34 1.12 2.89 2.50 3.21 3.90 2.21 2.28 1.25 0.55 0.40 0.16 0.11 0.11 0.08 0.14 0.06 0.13 0.16 0.06 0.05 0.06 0.09 0.84 0.70 0.55 0.29 0.20 0.18 0.23 0.25 0.34 0.34 0.32 0.28 0.47 0.43 0.42 0.30 0.36 0.46 0.48 0.45 0.38 0.31 0.28 0.27 0.40
0.09 1.12 2.77 3.13 1.72 2.72 2.39 2.77 3.05 1.27 0.57 0.32 0.31 0.29 0.19 0.21 0.08 0.06 0.06 0.05 0.04 0.07 0.04 0.10 0.41 0.48 0.34 0.30 0.28 0.21 0.22 0.20 0.31 0.36 0.28 0.37 0.39 0.42 0.33 0.41 0.38 0.41 0.40 0.38 0.42 0.35 0.28 0.39 0.60
0.27 3.15 4.18 3.42 3.03 2.66 1.50 1.60 1.58 2.04 1.11 0.79 0.47 0.31 0.22 0.21 0.02 0.01 0.01 0.05 0.06 0.05 0.03 0.11 0.24 0.25 0.26 0.23 0.17 0.16 0.23 0.25 0.27 0.29 0.24 0.32 0.43 0.36 0.36 0.39 0.42 0.34 0.26 0.21 0.24 0.30 0.31 0.37 0.61
0.47 2.71 3.21 3.56 2.84 1.74 1.23 1.44 2.81 3.59 1.95 1.44 0.45 0.24 0.18 0.10 0.01 0.00 0.01 0.04 0.05 0.04 0.02 0.06 0.44 0.27 0.21 0.20 0.27 0.33 0.24 0.25 0.27 0.31 0.33 0.47 0.43 0.40 0.55 0.40 0.47 0.38 0.19 0.16 0.17 0.18 0.38 0.49 0.86
1.40 1.59 2.25 2.77 1.21 0.93 1.53 1.81 2.18 2.07 1.36 0.59 0.39 0.17 0.18 0.07 0.03 0.02 0.02 0.06 0.06 0.03 0.01 0.03 0.27 0.22 0.24 0.20 0.32 0.29 0.18 0.20 0.22 0.27 0.40 0.36 0.61 0.41 0.43 0.37 0.21 0.07 0.03 0.11 0.12 0.38 0.58 0.78 0.69
1.50 2.96 2.24 1.49 0.96 1.24 1.47 1.43 1.42 1.54 0.83 0.41 0.36 0.09 0.14 0.08 0.02 0.02 0.02 0.03 0.03 0.02 0.01 0.04 0.07 0.19 0.25 0.34 0.40 0.29 0.21 0.16 0.16 0.21 0.25 0.21 0.26 0.40 0.48 0.34 0.16 0.05 0.08 0.21 0.22 0.36 0.49 0.65 0.44
0.64 1.84 2.84 1.37 0.63 2.14 1.46 1.20 1.34 1.12 0.75 0.26 0.16 0.09 0.06 0.03 0.01 0.02 0.02 0.04 0.04 0.03 0.06 0.03 0.04 0.13 0.15 0.24 0.36 0.16 0.13 0.19 0.16 0.12 0.31 0.44 0.22 0.35 0.35 0.36 0.31 0.15 0.13 0.16 0.23 0.35 0.46 0.62 0.55
0.68 3.31 2.39 1.07 0.44 1.81 1.13 1.20 1.03 0.81 0.29 0.23 0.23 0.08 0.00 0.00 0.01 0.03 0.02 0.04 0.06 0.07 0.03 0.01 0.04 0.11 0.39 0.23 0.26 0.14 0.21 0.35 0.26 0.28 0.56 1.22 0.49 0.73 0.84 0.42 0.18 0.16 0.18 0.15 0.23 0.26 0.45 0.46 0.32
1.49 2.02 0.96 0.34 0.15 0.58 1.81 1.26 1.06 0.73 0.43 0.28 0.19 0.06 0.01 0.01 0.01 0.01 0.01 0.01 0.02 0.04 0.05 0.02 0.02 0.02 0.10 0.11 0.20 0.16 0.10 0.13 0.24 0.33 0.66 1.15 0.47 0.46 0.30 0.26 0.21 0.17 0.23 0.28 0.34 0.32 0.53 0.98 0.46
1.30 1.73 0.71 0.20 0.11 0.27 1.06 0.88 0.63 0.76 0.44 0.20 0.09 0.05 0.01 0.00 0.00 0.00 0.00 0.00 0.00 0.00 0.01 0.01 0.01 0.03 0.13 0.17 0.03 0.03 0.01 0.05 0.15 0.24 0.49 0.92 0.42 0.39 0.51 0.47 0.90 0.44 0.38 0.69 0.70 0.35 0.38 1.01 0.42
0.29 0.40 0.39 0.19 0.12 0.22 0.70 1.80 0.57 1.42 1.50 0.33 0.18 0.02 0.00 0.00 0.00 0.00 0.00 0.00 0.00 0.00 0.00 0.01 0.00 0.06 0.20 0.04 0.01 0.09 0.05 0.02 0.17 0.17 0.11 0.23 0.35 0.37 0.57 0.70 0.73 0.63 0.50 1.22 0.55 0.20 0.18 0.29 0.23
0.31 0.31 0.27 0.25 0.13 0.21 0.42 0.73 0.58 0.95 0.67 0.32 0.25 0.04 0.01 0.01 0.00 0.01 0.01 0.00 0.00 0.00 0.01 0.01 0.00 0.08 0.20 0.04 0.05 0.07 0.03 0.05 0.00 0.01 0.08 0.32 0.30 0.28 0.49 0.48 0.46 0.44 0.45 1.00 0.28 0.23 0.14 0.04 0.03
0.28 0.30 0.47 0.36 0.28 0.34 0.41 0.52 0.32 0.49 0.40 0.42 0.28 0.03 0.00 0.00 0.00 0.01 0.01 0.00 0.00 0.00 0.00 0.00 0.00 0.02 0.06 0.04 0.04 0.03 0.02 0.01 0.00 0.01 0.10 0.37 0.27 0.51 0.59 0.61 0.33 0.27 0.32 0.34 0.27 0.24 0.35 0.02 0.00
0.24 0.18 0.24 0.45 0.54 0.77 0.61 1.35 0.65 0.42 0.49 0.37 0.16 0.02 0.00 0.00 0.00 0.00 0.00 0.00 0.00 0.00 0.00 0.00 0.00 0.00 0.02 0.04 0.05 0.01 0.01 0.02 0.02 0.04 0.22 0.33 0.38 0.57 0.68 0.48 0.38 0.42 0.32 0.22 0.27 0.16 0.28 0.03 0.01
0.37 0.25 0.31 0.59 0.63 0.90 0.83 1.86 0.99 0.83 1.65 0.28 0.11 0.01 0.00 0.00 0.00 0.00 0.00 0.00 0.00 0.00 0.00 0.00 0.00 0.00 0.01 0.03 0.05 0.03 0.01 0.03 0.04 0.11 0.08 0.22 0.45 0.47 0.57 0.53 0.41 0.34 0.28 0.29 0.25 0.19 0.11 0.00 0.00
0.50 0.49 0.42 0.71 0.65 0.73 1.01 1.58 2.16 0.90 0.86 0.24 0.12 0.04 0.00 0.01 0.00 0.00 0.00 0.00 0.00 0.00 0.00 0.00 0.00 0.00 0.00 0.01 0.02 0.01 0.04 0.07 0.09 0.14 0.25 0.24 0.25 0.37 0.97 0.78 0.54 0.26 0.34 0.26 0.16 0.12 0.05 0.01 0.00
0.34 0.56 0.42 0.55 0.65 0.84 1.07 1.49 2.32 1.44 0.98 0.48 0.21 0.10 0.03 0.01 0.00 0.00 0.00 0.00 0.00 0.00 0.00 0.00 0.00 0.00 0.04 0.11 0.14 0.08 0.09 0.13 0.14 0.11 0.35 0.40 0.32 0.49 0.71 0.62 0.70 0.37 0.28 0.35 0.30 0.11 0.02 0.03 0.00
0.38 0.54 0.94 0.67 0.39 1.18 1.18 1.11 1.77 1.07 0.76 0.93 0.33 0.16 0.07 0.01 0.01 0.00 0.00 0.00 0.00 0.00 0.00 0.00 0.01 0.05 0.12 0.12 0.04 0.05 0.10 0.05 0.11 0.17 0.28 0.38 0.35 0.36 0.47 0.51 0.61 0.60 0.34 0.23 0.18 0.06 0.00 0.00 0.00
0.03 0.24 1.18 1.36 1.04 0.92 1.31 0.96 1.00 1.46 0.87 0.71 0.66 0.16 0.08 0.02 0.01 0.00 0.00 0.00 0.01 0.00 0.00 0.00 0.04 0.08 0.06 0.05 0.08 0.10 0.08 0.07 0.13 0.26 0.34 0.16 0.21 0.33 0.25 0.49 0.36 0.39 0.30 0.27 0.17 0.11 0.05 0.00 0.00
0.00 0.05 0.83 1.80 1.54 1.18 0.98 1.17 0.83 1.33 1.50 0.91 0.90 0.33 0.25 0.04 0.04 0.00 0.00 0.00 0.02 0.01 0.00 0.00 0.02 0.07 0.04 0.11 0.13 0.39 0.39 0.45 0.54 0.37 0.19 0.08 0.16 0.15 0.28 0.35 0.49 0.41 0.38 0.39 0.21 0.07 0.05 0.02 0.00
0.01 0.07 0.34 1.12 1.25 0.75 0.40 0.58 0.58 0.60 1.27 1.84 1.25 0.40 0.18 0.08 0.06 0.04 0.00 0.01 0.01 0.01 0.00 0.00 0.01 0.08 0.05 0.10 0.11 0.28 0.47 0.53 0.34 0.19 0.37 0.25 0.09 0.09 0.13 0.20 0.32 0.32 0.58 0.60 0.24 0.04 0.02 0.00 0.00
0.00 0.00 0.17 0.62 0.83 0.52 0.18 0.16 0.16 0.35 0.84 1.64 1.31 0.39 0.24 0.20 0.09 0.07 0.02 0.03 0.04 0.00 0.00 0.00 0.00 0.01 0.03 0.05 0.23 0.19 0.12 0.33 0.30 0.29 0.87 0.43 0.20 0.10 0.13 0.14 0.31 0.19 0.31 0.34 0.31 0.14 0.00 0.02 0.01
0.00 0.00 0.00 0.24 0.82 0.32 0.04 0.03 0.07 0.30 0.55 0.98 0.79 0.61 0.34 0.12 0.12 0.12 0.06 0.05 0.04 0.01 0.00 0.00 0.00 0.00 0.02 0.02 0.05 0.21 0.32 0.45 0.70 0.89 0.78 0.30 0.16 0.14 0.09 0.08 0.22 0.28 0.44 0.39 0.20 0.17 0.06 0.02 0.02
0.00 0.00 0.02 0.11 0.31 0.18 0.06 0.01 0.03 0.08 0.51 0.67 0.58 0.53 0.38 0.23 0.22 0.11 0.07 0.08 0.09 0.02 0.00 0.00 0.00 0.00 0.00 0.00 0.01 0.06 0.17 0.36 0.60 0.77 0.31 0.28 0.45 0.44 0.16 0.26 0.40 0.17 0.16 0.19 0.16 0.25 0.16 0.03 0.01
0.00 0.00 0.00 0.02 0.04 0.11 0.07 0.03 0.00 0.03 0.14 0.22 0.21 0.17 0.50 0.33 0.32 0.37 0.25 0.21 0.25 0.16 0.01 0.06 0.02 0.02 0.00 0.02 0.03 0.05 0.10 0.10 0.22 0.33 0.33 0.44 0.53 0.45 0.33 0.33 0.25 0.15 0.05 0.05 0.12 0.09 0.05 0.06 0.02
0.00 0.00 0.00 0.00 0.01 0.03 0.08 0.07 0.02 0.10 0.17 0.07 0.12 0.16 0.32 0.61 0.69 0.50 0.25 0.29 0.58 0.38 0.19 0.04 0.08 0.06 0.06 0.03 0.04 0.11 0.14 0.08 0.12 0.32 0.19 0.19 0.33 0.58 0.85 0.36 0.30 0.19 0.13 0.07 0.11 0.08 0.10 0.18 0.19
0.00 0.00 0.00 0.00 0.00 0.02 0.10 0.11 0.13 0.13 0.12 0.14 0.13 0.15 0.15 0.62 1.54 1.72 1.24 0.59 0.54 0.69 0.84 0.44 0.14 0.11 0.20 0.08 0.12 0.24 0.15 0.13 0.09 0.15 0.16 0.29 0.39 1.69 1.53 0.65 0.29 0.29 0.16 0.20 0.13 0.05 0.04 0.06 0.07
0.00 0.00 0.00 0.00 0.00 0.00 0.08 0.16 0.13 0.16 0.13 0.07 0.07 0.17 0.18 0.38 1.29 2.56 2.52 2.03 1.00 0.96 0.69 0.97 0.82 0.71 0.67 0.55 0.38 0.47 0.28 0.12 0.12 0.12 0.12 0.18 0.31 0.59 0.68 1.18 0.28 0.35 0.32 0.17 0.22 0.19 0.12 0.09 0.05
0.00 0.00 0.00 0.00 0.00 0.00 0.02 0.12 0.19 0.35 0.17 0.08 0.07 0.13 0.15 0.38 0.70 1.39 1.97 1.93 1.61 1.44 0.95 1.12 1.87 1.25 0.91 0.72 0.71 0.49 0.62 0.43 0.31 0.19 0.18 0.18 0.19 0.30 0.53 0.40 0.48 0.48 0.24 0.31 0.33 0.19 0.15 0.20 0.08

GFSSGP_prec_precacc_105.txt.gz
Total_Precipitation_Accumulation
0.02 0.11 0.40 1.09 2.35 1.76 2.67 1.74 1.98 1.10 0.40 0.22 0.12 0.15 0.26 0.24 0.50 0.63 0.16 0.29 0.17 0.24 0.14 0.53 1.02 0.75 0.59 0.35 0.23 0.23 0.15 0.12 0.18 0.19 0.24 0.21 0.22 0.27 0.39 0.33 0.40 0.36 0.30 0.27 0.23 0.23 0.32 0.25 0.29
0.03 0.36 1.16 3.38 2.58 3.23 3.90 2.21 2.28 1.25 0.55 0.40 0.16 0.11 0.11 0.08 0.14 0.06 0.14 0.17 0.07 0.05 0.07 0.09 0.84 0.70 0.55 0.30 0.20 0.18 0.23 0.26 0.34 0.35 0.32 0.28 0.48 0.44 0.43 0.30 0.36 0.46 0.48 0.45 0.38 0.31 0.28 0.27 0.40
0.09 1.15 2.82 3.43 1.73 2.73 2.39 2.77 3.05 1.27 0.57 0.32 0.31 0.29 0.19 0.21 0.08 0.06 0.06 0.06 0.06 0.08 0.04 0.10 0.41 0.48 0.34 0.30 0.28 0.22 0.23 0.22 0.33 0.37 0.29 0.39 0.40 0.42 0.34 0.41 0.39 0.42 0.41 0.38 0.43 0.35 0.28 0.39 0.60
0.27 3.15 4.18 3.44 3.03 2.66 1.50 1.60 1.58 2.04 1.11 0.79 0.47 0.31 0.22 0.21 0.02 0.02 0.03 0.05 0.06 0.05 0.03 0.11 0.24 0.25 0.26 0.24 0.20 0.18 0.26 0.26 0.30 0.32 0.27 0.34 0.45 0.36 0.36 0.39 0.42 0.35 0.26 0.21 0.24 0.30 0.31 0.37 0.61
0.47 2.71 3.28 3.63 2.85 1.74 1.23 1.44 2.81 3.59 1.95 1.44 0.45 0.24 0.18 0.10 0.01 0.00 0.03 0.05 0.05 0.04 0.02 0.06 0.45 0.28 0.21 0.22 0.33 0.36 0.26 0.26 0.31 0.34 0.35 0.48 0.44 0.40 0.55 0.40 0.47 0.39 0.19 0.16 0.18 0.18 0.38 0.49 0.86
1.41 1.61 2.52 2.94 1.22 0.93 1.53 1.81 2.18 2.07 1.36 0.59 0.39 0.17 0.18 0.07 0.03 0.02 0.05 0.09 0.06 0.03 0.01 0.03 0.27 0.23 0.25 0.20 0.34 0.30 0.20 0.22 0.24 0.28 0.41 0.38 0.61 0.41 0.45 0.38 0.21 0.07 0.03 0.11 0.12 0.38 0.58 0.78 0.69
1.54 3.06 2.39 1.53 0.96 1.24 1.47 1.43 1.42 1.54 0.83 0.41 0.36 0.09 0.14 0.08 0.02 0.03 0.04 0.07 0.04 0.02 0.01 0.04 0.07 0.19 0.25 0.34 0.40 0.29 0.21 0.16 0.16 0.21 0.25 0.21 0.27 0.40 0.50 0.35 0.16 0.05 0.08 0.21 0.22 0.36 0.49 0.65 0.44
0.71 2.19 3.22 1.53 0.63 2.14 1.46 1.21 1.34 1.12 0.75 0.26 0.16 0.09 0.06 0.03 0.01 0.02 0.03 0.06 0.05 0.03 0.06 0.03 0.04 0.13 0.15 0.24 0.36 0.16 0.13 0.19 0.16 0.13 0.35 0.48 0.26 0.42 0.44 0.43 0.32 0.15 0.13 0.16 0.23 0.35 0.46 0.62 0.55
0.78 3.47 2.64 1.56 0.44 1.81 1.13 1.21 1.03 0.81 0.29 0.23 0.23 0.08 0.00 0.00 0.01 0.03 0.02 0.04 0.06 0.07 0.03 0.01 0.04 0.11 0.39 0.23 0.26 0.15 0.22 0.37 0.30 0.35 0.67 1.31 0.53 0.74 0.87 0.47 0.21 0.16 0.18 0.15 0.24 0.26 0.45 0.46 0.32
1.69 2.62 1.27 0.66 0.19 0.58 1.81 1.26 1.06 0.73 0.43 0.28 0.19 0.06 0.01 0.01 0.01 0.01 0.01 0.01 0.02 0.05 0.09 0.02 0.02 0.02 0.10 0.11 0.20 0.16 0.12 0.20 0.39 0.44 0.77 1.20 0.52 0.48 0.31 0.29 0.30 0.28 0.32 0.39 0.43 0.39 0.54 0.98 0.46
1.43 2.48 1.07 0.33 0.30 0.27 1.06 0.88 0.63 0.76 0.44 0.20 0.09 0.05 0.01 0.00 0.00 0.00 0.00 0.00 0.00 0.00 0.02 0.01 0.01 0.03 0.13 0.17 0.03 0.03 0.02 0.08 0.20 0.35 0.58 0.98 0.48 0.40 0.53 0.57 1.05 0.58 0.49 0.76 0.75 0.42 0.42 1.03 0.42
0.33 0.48 1.08 0.66 0.52 0.25 0.71 1.80 0.57 1.42 1.50 0.33 0.18 0.02 0.00 0.00 0.00 0.00 0.00 0.00 0.00 0.00 0.00 0.01 0.00 0.06 0.20 0.04 0.02 0.09 0.05 0.03 0.18 0.18 0.15 0.26 0.35 0.46 0.72 0.78 1.02 0.84 0.75 1.31 0.58 0.22 0.18 0.29 0.23
0.35 0.33 0.50 0.70 0.29 0.27 0.43 0.73 0.58 0.95 0.67 0.32 0.25 0.04 0.01 0.01 0.00 0.01 0.01 0.00 0.00 0.00 0.01 0.01 0.00 0.08 0.20 0.04 0.05 0.07 0.04 0.05 0.01 0.05 0.12 0.38 0.33 0.41 0.61 0.54 0.80 0.62 0.53 1.08 0.30 0.23 0.14 0.04 0.03
0.33 0.38 0.54 0.76 0.79 0.46 0.42 0.53 0.32 0.49 0.40 0.42 0.28 0.03 0.00 0.00 0.00 0.01 0.01 0.00 0.00 0.00 0.00 0.00 0.00 0.02 0.06 0.04 0.04 0.03 0.02 0.01 0.00 0.08 0.18 0.38 0.29 0.55 0.63 0.65 0.39 0.32 0.37 0.36 0.27 0.25 0.35 0.02 0.00
0.28 0.25 0.27 0.53 0.87 0.86 0.64 1.36 0.65 0.42 0.50 0.37 0.16 0.02 0.00 0.00 0.00 0.00 0.00 0.00 0.00 0.00 0.00 0.00 0.00 0.00 0.02 0.04 0.05 0.01 0.01 0.02 0.02 0.04 0.24 0.43 0.40 0.59 0.73 0.51 0.41 0.45 0.35 0.23 0.27 0.16 0.28 0.03 0.01
0.39 0.30 0.48 0.81 1.15 0.97 0.85 1.88 0.99 0.83 1.65 0.28 0.11 0.01 0.00 0.00 0.00 0.00 0.00 0.00 0.00 0.00 0.00 0.00 0.00 0.00 0.01 0.03 0.05 0.03 0.01 0.03 0.04 0.11 0.10 0.24 0.47 0.49 0.62 0.55 0.41 0.36 0.29 0.31 0.25 0.19 0.11 0.01 0.01
0.60 0.59 0.60 1.08 1.34 0.90 1.02 1.60 2.16 0.90 0.86 0.24 0.12 0.04 0.00 0.01 0.00 0.00 0.00 0.00 0.00 0.00 0.00 0.00 0.00 0.00 0.00 0.01 0.03 0.04 0.06 0.07 0.09 0.14 0.25 0.24 0.25 0.41 0.97 0.78 0.54 0.26 0.35 0.29 0.16 0.12 0.05 0.01 0.00
0.41 0.73 0.64 0.87 1.42 1.38 1.15 1.52 2.34 1.44 0.98 0.48 0.21 0.10 0.03 0.01 0.00 0.00 0.00 0.00 0.00 0.00 0.00 0.00 0.00 0.00 0.04 0.13 0.17 0.13 0.12 0.13 0.14 0.11 0.35 0.40 0.33 0.50 0.71 0.64 0.72 0.38 0.30 0.37 0.30 0.11 0.02 0.03 0.01
0.39 0.64 1.08 1.11 1.58 1.98 1.35 1.15 1.83 1.08 0.76 0.93 0.33 0.16 0.07 0.01 0.01 0.00 0.00 0.00 0.00 0.00 0.00 0.00 0.01 0.05 0.12 0.13 0.05 0.06 0.11 0.05 0.11 0.17 0.28 0.38 0.35 0.36 0.48 0.56 0.66 0.82 0.36 0.23 0.18 0.06 0.00 0.00 0.00
0.06 0.29 1.32 1.56 1.76 1.52 1.59 1.02 1.06 1.49 0.87 0.71 0.66 0.17 0.08 0.02 0.01 0.00 0.00 0.00 0.01 0.00 0.00 0.00 0.04 0.08 0.06 0.06 0.09 0.10 0.09 0.08 0.14 0.27 0.34 0.16 0.21 0.33 0.27 0.55 0.40 0.45 0.33 0.28 0.17 0.11 0.05 0.00 0.00
0.03 0.08 0.85 1.91 1.78 1.84 1.45 1.30 0.88 1.36 1.53 0.91 0.90 0.33 0.25 0.04 0.04 0.00 0.00 0.00 0.02 0.01 0.00 0.00 0.02 0.09 0.05 0.12 0.13 0.40 0.39 0.46 0.59 0.41 0.24 0.09 0.16 0.15 0.29 0.41 0.56 0.45 0.41 0.39 0.22 0.09 0.06 0.03 0.00
0.08 0.13 0.38 1.14 1.39 1.41 1.22 0.89 0.69 0.65 1.31 1.86 1.25 0.40 0.19 0.09 0.06 0.04 0.00 0.01 0.01 0.01 0.00 0.00 0.01 0.10 0.08 0.10 0.11 0.29 0.48 0.56 0.37 0.22 0.41 0.27 0.10 0.09 0.14 0.22 0.34 0.35 0.62 0.60 0.25 0.06 0.03 0.01 0.00
0.04 0.03 0.18 0.62 0.94 0.89 0.69 0.51 0.28 0.38 0.86 1.64 1.31 0.39 0.25 0.21 0.09 0.08 0.02 0.03 0.04 0.00 0.00 0.00 0.00 0.03 0.05 0.07 0.24 0.22 0.15 0.37 0.36 0.31 0.89 0.43 0.21 0.11 0.13 0.15 0.32 0.22 0.34 0.35 0.31 0.16 0.01 0.03 0.03
0.01 0.03 0.03 0.25 0.90 0.54 0.18 0.18 0.14 0.31 0.55 0.98 0.79 0.61 0.34 0.13 0.13 0.13 0.06 0.05 0.04 0.01 0.00 0.00 0.00 0.00 0.02 0.02 0.07 0.22 0.35 0.50 0.76 0.91 0.80 0.33 0.20 0.16 0.11 0.09 0.23 0.30 0.44 0.42 0.23 0.17 0.06 0.03 0.05
0.00 0.01 0.10 0.16 0.45 0.42 0.11 0.12 0.18 0.08 0.51 0.67 0.58 0.54 0.39 0.24 0.22 0.12 0.08 0.09 0.09 0.02 0.00 0.00 0.00 0.00 0.00 0.00 0.01 0.07 0.20 0.40 0.64 0.78 0.35 0.31 0.49 0.54 0.24 0.31 0.42 0.19 0.17 0.22 0.19 0.27 0.16 0.03 0.01
0.00 0.00 0.01 0.04 0.09 0.16 0.13 0.31 0.09 0.04 0.14 0.22 0.21 0.19 0.51 0.34 0.32 0.37 0.25 0.23 0.30 0.16 0.02 0.06 0.02 0.02 0.00 0.02 0.03 0.05 0.10 0.11 0.24 0.35 0.51 0.55 0.64 0.73 0.39 0.43 0.30 0.19 0.09 0.06 0.13 0.09 0.05 0.06 0.02
0.00 0.00 0.00 0.01 0.04 0.07 0.23 0.40 0.12 0.12 0.17 0.07 0.12 0.16 0.32 0.62 0.70 0.50 0.25 0.41 0.81 0.52 0.25 0.07 0.08 0.07 0.06 0.03 0.04 0.11 0.14 0.08 0.13 0.36 0.34 0.34 0.45 0.74 0.90 0.43 0.31 0.20 0.15 0.07 0.11 0.08 0.10 0.18 0.19
0.00 0.00 0.00 0.00 0.00 0.05 0.25 0.64 0.33 0.14 0.12 0.14 0.13 0.15 0.15 0.62 1.55 1.72 1.24 0.65 0.81 1.07 1.03 0.64 0.21 0.15 0.22 0.08 0.12 0.25 0.15 0.14 0.10 0.19 0.25 0.37 0.47 1.72 1.55 0.69 0.34 0.30 0.16 0.20 0.13 0.06 0.05 0.06 0.07
0.00 0.00 0.00 0.00 0.00 0.00 0.11 0.21 0.17 0.18 0.13 0.07 0.07 0.18 0.19 0.38 1.30 2.59 2.53 2.09 1.12 1.14 0.83 1.59 0.89 0.74 0.68 0.57 0.49 0.62 0.33 0.15 0.14 0.14 0.14 0.21 0.38 0.62 0.69 1.23 0.37 0.37 0.33 0.18 0.22 0.20 0.13 0.10 0.05
0.00 0.00 0.00 0.00 0.00 0.00 0.02 0.15 0.24 0.38 0.19 0.09 0.10 0.17 0.20 0.39 0.72 1.43 1.99 2.13 1.79 1.49 1.03 1.24 1.94 1.32 1.02 0.85 0.90 0.59 0.72 0.59 0.38 0.24 0.20 0.21 0.20 0.30 0.54 0.41 0.50 0.51 0.27 0.32 0.34 0.20 0.17 0.22 0.10

GFSSGP_prec_precacc_108.txt.gz
Total_Precipitation_Accumulation
0.02 0.11 0.42 1.14 2.37 1.77 2.67 1.74 1.98 1.10 0.40 0.22 0.12 0.15 0.26 0.24 0.50 0.63 0.19 0.31 0.17 0.24 0.14 0.53 1.02 0.75 0.59 0.36 0.24 0.25 0.17 0.16 0.22 0.19 0.24 0.21 0.23 0.28 0.40 0.34 0.40 0.36 0.30 0.27 0.23 0.23 0.34 0.25 0.29
0.03 0.40 1.19 3.41 2.59 3.23 3.90 2.21 2.28 1.25 0.55 0.40 0.16 0.11 0.11 0.08 0.14 0.06 0.15 0.18 0.07 0.05 0.07 0.09 0.84 0.70 0.55 0.30 0.21 0.19 0.26 0.29 0.35 0.35 0.34 0.30 0.50 0.47 0.44 0.31 0.36 0.46 0.48 0.45 0.38 0.31 0.28 0.28 0.40
0.09 1.19 2.83 3.47 1.73 2.73 2.39 2.77 3.05 1.27 0.57 0.32 0.31 0.29 0.19 0.21 0.08 0.06 0.08 0.10 0.09 0.08 0.04 0.10 0.41 0.48 0.34 0.31 0.28 0.22 0.24 0.23 0.33 0.38 0.31 0.42 0.45 0.45 0.35 0.41 0.39 0.42 0.41 0.38 0.43 0.35 0.28 0.39 0.60
0.27 3.16 4.18 3.44 3.03 2.66 1.50 1.60 1.58 2.04 1.11 0.79 0.47 0.31 0.22 0.21 0.02 0.03 0.08 0.11 0.07 0.05 0.03 0.11 0.24 0.25 0.26 0.24 0.20 0.18 0.26 0.27 0.31 0.32 0.29 0.36 0.46 0.37 0.37 0.39 0.42 0.35 0.26 0.21 0.24 0.30 0.31 0.37 0.61
0.47 2.71 3.28 3.63 2.85 1.74 1.23 1.44 2.81 3.59 1.95 1.44 0.45 0.24 0.18 0.10 0.01 0.01 0.03 0.05 0.05 0.04 0.02 0.06 0.45 0.28 0.22 0.22 0.33 0.36 0.27 0.27 0.32 0.34 0.35 0.48 0.45 0.40 0.55 0.40 0.48 0.40 0.19 0.16 0.18 0.18 0.38 0.49 0.86
1.41 1.61 2.57 2.95 1.22 0.93 1.53 1.81 2.18 2.07 1.36 0.59 0.39 0.17 0.18 0.07 0.03 0.02 0.05 0.09 0.06 0.03 0.01 0.03 0.27 0.23 0.25 0.20 0.34 0.30 0.21 0.23 0.24 0.29 0.42 0.39 0.63 0.43 0.46 0.39 0.22 0.07 0.03 0.11 0.12 0.38 0.58 0.78 0.69
1.54 3.07 2.45 1.54 0.96 1.24 1.47 1.43 1.42 1.54 0.83 0.41 0.36 0.09 0.14 0.08 0.04 0.03 0.04 0.07 0.04 0.02 0.01 0.04 0.07 0.19 0.25 0.34 0.42 0.30 0.22 0.18 0.17 0.24 0.27 0.27 0.30 0.40 0.50 0.35 0.16 0.05 0.08 0.21 0.22 0.36 0.49 0.65 0.44
0.73 2.24 3.30 1.55 0.63 2.14 1.46 1.21 1.34 1.12 0.75 0.26 0.16 0.09 0.06 0.03 0.03 0.02 0.04 0.06 0.05 0.03 0.06 0.03 0.04 0.13 0.15 0.24 0.37 0.16 0.13 0.19 0.17 0.16 0.37 0.53 0.28 0.42 0.45 0.43 0.32 0.15 0.13 0.16 0.23 0.35 0.46 0.62 0.55
0.89 3.57 2.75 1.62 0.44 1.81 1.13 1.22 1.03 0.81 0.29 0.23 0.23 0.08 0.00 0.00 0.01 0.03 0.03 0.05 0.14 0.08 0.04 0.01 0.04 0.11 0.39 0.23 0.27 0.18 0.26 0.41 0.33 0.36 0.70 1.39 0.56 0.78 0.89 0.49 0.22 0.16 0.19 0.17 0.24 0.26 0.45 0.46 0.32
1.84 3.33 1.66 0.72 0.20 0.58 1.81 1.27 1.06 0.73 0.43 0.28 0.19 0.06 0.01 0.01 0.01 0.01 0.01 0.02 0.08 0.06 0.09 0.02 0.02 0.02 0.10 0.11 0.22 0.18 0.16 0.24 0.40 0.45 0.78 1.20 0.56 0.52 0.37 0.38 0.32 0.28 0.32 0.40 0.43 0.39 0.54 0.98 0.46
1.59 2.79 1.25 0.38 0.31 0.28 1.07 0.88 0.63 0.76 0.44 0.20 0.09 0.05 0.01 0.00 0.00 0.00 0.00 0.00 0.01 0.01 0.02 0.01 0.01 0.03 0.13 0.17 0.03 0.03 0.03 0.08 0.20 0.38 0.58 0.98 0.50 0.41 0.55 0.58 1.05 0.58 0.49 0.77 0.76 0.42 0.42 1.03 0.42
0.46 0.62 1.14 0.69 0.55 0.27 0.71 1.80 0.57 1.43 1.51 0.33 0.18 0.02 0.00 0.00 0.00 0.00 0.00 0.00 0.00 0.00 0.00 0.01 0.00 0.06 0.20 0.04 0.02 0.09 0.06 0.04 0.19 0.25 0.17 0.28 0.35 0.46 0.72 0.78 1.02 0.84 0.75 1.31 0.60 0.22 0.19 0.29 0.23
0.42 0.47 0.73 0.87 0.33 0.35 0.50 0.73 0.58 0.95 0.68 0.33 0.25 0.04 0.01 0.01 0.00 0.01 0.01 0.00 0.00 0.00 0.01 0.01 0.00 0.08 0.20 0.08 0.07 0.12 0.06 0.05 0.02 0.07 0.16 0.40 0.33 0.42 0.61 0.54 0.81 0.62 0.53 1.09 0.30 0.23 0.14 0.04 0.03
0.34 0.46 0.84 1.36 1.01 0.70 0.49 0.57 0.33 0.50 0.40 0.42 0.28 0.03 0.00 0.00 0.00 0.01 0.01 0.00 0.00 0.00 0.00 0.00 0.00 0.02 0.06 0.05 0.05 0.05 0.04 0.01 0.01 0.10 0.22 0.39 0.31 0.55 0.63 0.65 0.40 0.33 0.38 0.36 0.28 0.25 0.35 0.02 0.00
0.29 0.45 0.65 1.06 1.58 1.52 0.84 1.45 0.65 0.42 0.50 0.37 0.16 0.02 0.00 0.00 0.00 0.00 0.00 0.00 0.00 0.00 0.00 0.00 0.00 0.00 0.02 0.05 0.09 0.02 0.01 0.02 0.04 0.06 0.30 0.46 0.41 0.59 0.73 0.52 0.43 0.50 0.40 0.26 0.28 0.17 0.28 0.03 0.01
0.41 0.44 0.71 1.09 1.53 1.80 1.11 1.96 0.99 0.83 1.65 0.28 0.11 0.01 0.00 0.00 0.00 0.00 0.00 0.00 0.00 0.00 0.00 0.00 0.00 0.00 0.01 0.03 0.05 0.03 0.01 0.03 0.04 0.12 0.10 0.25 0.47 0.51 0.62 0.58 0.53 0.59 0.96 0.40 0.31 0.22 0.11 0.01 0.01
0.63 0.70 0.75 1.68 1.90 1.99 1.39 1.72 2.16 0.90 0.87 0.24 0.12 0.04 0.00 0.01 0.00 0.00 0.00 0.00 0.00 0.00 0.00 0.00 0.00 0.00 0.00 0.01 0.03 0.04 0.07 0.08 0.09 0.14 0.25 0.24 0.26 0.43 0.99 0.81 0.59 0.41 0.42 0.33 0.18 0.14 0.05 0.01 0.00
0.41 0.77 0.78 1.10 2.03 1.97 1.57 1.64 2.35 1.44 0.99 0.48 0.21 0.10 0.03 0.01 0.00 0.00 0.00 0.00 0.00 0.00 0.00 0.00 0.00 0.00 0.05 0.14 0.20 0.16 0.12 0.13 0.14 0.11 0.35 0.40 0.33 0.51 0.76 0.65 0.74 0.41 0.30 0.37 0.30 0.11 0.02 0.03 0.01
0.39 0.71 1.19 1.27 1.86 2.52 2.01 1.30 1.90 1.09 0.76 0.93 0.33 0.16 0.07 0.01 0.01 0.00 0.00 0.00 0.00 0.00 0.00 0.00 0.01 0.05 0.12 0.13 0.05 0.07 0.12 0.06 0.12 0.20 0.28 0.39 0.35 0.37 0.50 0.57 0.66 0.82 0.36 0.23 0.18 0.06 0.00 0.00 0.00
0.11 0.37 1.36 1.58 1.88 1.79 2.19 1.30 1.15 1.54 0.89 0.71 0.66 0.17 0.08 0.02 0.01 0.00 0.00 0.00 0.01 0.00 0.00 0.00 0.04 0.08 0.06 0.06 0.09 0.11 0.09 0.08 0.14 0.31 0.36 0.17 0.21 0.34 0.28 0.56 0.40 0.45 0.33 0.28 0.17 0.11 0.05 0.00 0.00
0.07 0.11 0.87 1.91 1.80 1.86 1.61 1.79 0.98 1.39 1.55 0.91 0.90 0.33 0.25 0.04 0.04 0.00 0.00 0.00 0.02 0.01 0.00 0.00 0.02 0.09 0.05 0.12 0.13 0.40 0.39 0.46 0.60 0.44 0.25 0.09 0.18 0.17 0.31 0.42 0.57 0.46 0.41 0.39 0.23 0.10 0.06 0.03 0.00
0.10 0.14 0.40 1.15 1.40 1.42 1.33 1.24 1.06 0.71 1.32 1.86 1.25 0.40 0.19 0.09 0.06 0.04 0.00 0.01 0.01 0.01 0.00 0.00 0.01 0.10 0.08 0.10 0.11 0.29 0.48 0.56 0.38 0.24 0.41 0.27 0.11 0.11 0.14 0.22 0.34 0.35 0.62 0.60 0.26 0.10 0.04 0.01 0.00
0.04 0.03 0.18 0.62 0.94 0.90 0.78 0.75 0.57 0.61 0.88 1.64 1.31 0.39 0.25 0.21 0.09 0.08 0.02 0.03 0.04 0.00 0.00 0.00 0.00 0.03 0.05 0.07 0.25 0.22 0.15 0.37 0.36 0.31 0.89 0.43 0.22 0.11 0.14 0.15 0.32 0.22 0.34 0.35 0.31 0.17 0.07 0.04 0.03
0.01 0.04 0.04 0.25 0.90 0.56 0.25 0.35 0.34 0.50 0.58 0.98 0.80 0.62 0.34 0.13 0.13 0.13 0.06 0.05 0.04 0.01 0.00 0.00 0.00 0.00 0.02 0.02 0.07 0.22 0.35 0.50 0.80 0.95 0.80 0.33 0.20 0.16 0.11 0.09 0.23 0.30 0.44 0.42 0.23 0.18 0.07 0.05 0.06
0.00 0.01 0.11 0.18 0.46 0.43 0.12 0.15 0.30 0.10 0.51 0.67 0.59 0.54 0.39 0.24 0.22 0.12 0.08 0.09 0.09 0.02 0.00 0.00 0.00 0.00 0.00 0.00 0.01 0.07 0.22 0.41 0.65 0.78 0.36 0.31 0.49 0.54 0.24 0.31 0.42 0.19 0.17 0.22 0.19 0.27 0.16 0.04 0.04
0.00 0.00 0.01 0.05 0.11 0.19 0.17 0.34 0.13 0.04 0.14 0.22 0.21 0.19 0.52 0.34 0.32 0.37 0.25 0.23 0.30 0.16 0.02 0.06 0.02 0.02 0.00 0.02 0.03 0.05 0.12 0.12 0.25 0.36 0.53 0.55 0.64 0.73 0.39 0.43 0.30 0.19 0.09 0.07 0.14 0.09 0.05 0.06 0.03
0.00 0.00 0.00 0.01 0.04 0.08 0.28 0.45 0.15 0.12 0.17 0.07 0.12 0.17 0.32 0.62 0.70 0.50 0.25 0.41 0.81 0.52 0.27 0.07 0.08 0.07 0.06 0.03 0.04 0.11 0.14 0.08 0.13 0.36 0.36 0.36 0.45 0.74 0.90 0.43 0.31 0.20 0.15 0.07 0.11 0.08 0.10 0.18 0.19
0.00 0.00 0.00 0.01 0.00 0.05 0.26 0.77 0.42 0.14 0.12 0.14 0.13 0.15 0.15 0.63 1.55 1.72 1.24 0.65 0.82 1.27 1.11 0.72 0.23 0.15 0.22 0.08 0.12 0.25 0.15 0.14 0.11 0.19 0.25 0.37 0.47 1.72 1.55 0.69 0.34 0.30 0.16 0.20 0.14 0.06 0.05 0.06 0.07
0.00 0.00 0.00 0.00 0.00 0.00 0.12 0.25 0.18 0.18 0.13 0.07 0.07 0.18 0.19 0.38 1.31 2.60 2.54 2.12 1.13 1.53 1.05 1.76 0.98 0.76 0.69 0.57 0.50 0.62 0.33 0.15 0.14 0.14 0.14 0.21 0.38 0.62 0.69 1.23 0.38 0.37 0.33 0.18 0.22 0.20 0.13 0.10 0.05
0.00 0.00 0.00 0.00 0.00 0.00 0.02 0.15 0.24 0.38 0.19 0.09 0.10 0.17 0.20 0.40 0.73 1.43 1.99 2.14 1.80 1.58 1.13 1.34 2.05 1.49 1.23 1.11 1.21 0.77 0.83 0.68 0.44 0.27 0.21 0.21 0.20 0.30 0.54 0.41 0.50 0.51 0.28 0.33 0.34 0.21 0.18 0.22 0.11

GFSSGP_prec_precacc_111.txt.gz
Total_Precipitation_Accumulation
0.02 0.11 0.42 1.15 2.38 1.78 2.67 1.74 1.98 1.10 0.40 0.22 0.12 0.15 0.26 0.24 0.50 0.63 0.19 0.31 0.17 0.24 0.14 0.54 1.05 0.76 0.60 0.37 0.25 0.27 0.20 0.19 0.24 0.22 0.26 0.22 0.24 0.30 0.46 0.36 0.41 0.36 0.31 0.27 0.23 0.25 0.36 0.27 0.29
0.03 0.40 1.19 3.41 2.59 3.23 3.91 2.21 2.28 1.25 0.55 0.40 0.16 0.11 0.11 0.08 0.14 0.06 0.15 0.18 0.07 0.05 0.07 0.09 0.84 0.70 0.56 0.31 0.22 0.20 0.27 0.30 0.35 0.37 0.34 0.31 0.54 0.53 0.47 0.31 0.36 0.46 0.48 0.45 0.38 0.32 0.30 0.28 0.42
0.09 1.19 2.83 3.47 1.73 2.73 2.40 2.77 3.05 1.27 0.57 0.32 0.31 0.29 0.19 0.21 0.08 0.06 0.08 0.10 0.09 0.08 0.04 0.10 0.41 0.49 0.34 0.31 0.29 0.24 0.27 0.26 0.35 0.39 0.34 0.45 0.47 0.46 0.36 0.42 0.39 0.42 0.41 0.38 0.43 0.35 0.29 0.39 0.60
0.27 3.16 4.18 3.44 3.03 2.66 1.50 1.60 1.58 2.04 1.11 0.79 0.47 0.31 0.22 0.21 0.02 0.03 0.08 0.11 0.07 0.05 0.03 0.11 0.24 0.26 0.27 0.25 0.22 0.22 0.30 0.30 0.34 0.34 0.31 0.37 0.47 0.37 0.37 0.39 0.42 0.35 0.26 0.21 0.24 0.30 0.31 0.37 0.61
0.47 2.71 3.28 3.63 2.85 1.74 1.23 1.44 2.81 3.59 1.95 1.44 0.45 0.25 0.18 0.10 0.01 0.01 0.03 0.05 0.05 0.04 0.02 0.06 0.45 0.29 0.23 0.23 0.37 0.38 0.28 0.29 0.33 0.36 0.36 0.49 0.45 0.40 0.55 0.40 0.48 0.40 0.19 0.16 0.18 0.18 0.38 0.50 0.88
1.41 1.61 2.57 2.95 1.22 0.93 1.53 1.81 2.18 2.07 1.36 0.59 0.39 0.17 0.18 0.07 0.03 0.02 0.05 0.09 0.06 0.04 0.01 0.03 0.28 0.24 0.28 0.21 0.36 0.32 0.21 0.25 0.25 0.31 0.43 0.40 0.64 0.43 0.46 0.39 0.22 0.07 0.03 0.11 0.12 0.38 0.58 0.80 0.77
1.54 3.07 2.45 1.54 0.96 1.24 1.47 1.43 1.42 1.54 0.83 0.41 0.36 0.09 0.14 0.09 0.06 0.03 0.04 0.07 0.04 0.02 0.01 0.04 0.07 0.20 0.27 0.35 0.43 0.32 0.23 0.19 0.19 0.24 0.28 0.27 0.30 0.40 0.50 0.35 0.16 0.05 0.08 0.21 0.22 0.36 0.49 0.65 0.45
0.73 2.25 3.31 1.56 0.63 2.14 1.46 1.21 1.34 1.12 0.75 0.26 0.16 0.09 0.06 0.04 0.14 0.08 0.04 0.06 0.07 0.08 0.06 0.03 0.04 0.13 0.15 0.25 0.38 0.16 0.13 0.20 0.17 0.16 0.37 0.53 0.28 0.42 0.45 0.43 0.32 0.15 0.13 0.16 0.23 0.35 0.46 0.62 0.55
0.94 3.58 2.78 1.62 0.44 1.81 1.13 1.22 1.03 0.81 0.29 0.23 0.23 0.08 0.00 0.00 0.05 0.05 0.03 0.05 0.15 0.10 0.04 0.01 0.04 0.11 0.39 0.23 0.28 0.27 0.27 0.42 0.33 0.39 0.75 1.45 0.56 0.78 0.89 0.49 0.22 0.16 0.19 0.17 0.24 0.26 0.45 0.46 0.32
1.87 3.38 1.71 0.74 0.20 0.58 1.81 1.27 1.06 0.73 0.43 0.28 0.19 0.06 0.01 0.01 0.01 0.03 0.02 0.02 0.11 0.07 0.09 0.02 0.02 0.02 0.10 0.11 0.23 0.24 0.16 0.25 0.41 0.47 0.80 1.20 0.56 0.52 0.37 0.38 0.32 0.28 0.32 0.40 0.44 0.42 0.58 1.00 0.46
1.60 2.89 1.34 0.39 0.32 0.28 1.07 0.88 0.63 0.76 0.44 0.20 0.09 0.05 0.01 0.00 0.00 0.02 0.02 0.01 0.02 0.01 0.02 0.01 0.01 0.03 0.13 0.17 0.03 0.03 0.03 0.08 0.21 0.39 0.59 0.98 0.50 0.41 0.55 0.58 1.05 0.58 0.49 0.77 0.76 0.42 0.43 1.04 0.42
0.50 0.72 1.22 0.71 0.55 0.27 0.73 1.83 0.57 1.43 1.51 0.33 0.18 0.02 0.00 0.00 0.00 0.01 0.00 0.00 0.00 0.00 0.00 0.01 0.00 0.06 0.20 0.05 0.05 0.10 0.07 0.04 0.19 0.25 0.17 0.28 0.35 0.46 0.72 0.78 1.02 0.84 0.75 1.31 0.60 0.23 0.19 0.29 0.23
0.47 0.58 0.82 0.89 0.34 0.35 0.51 0.76 0.58 0.95 0.68 0.33 0.25 0.04 0.01 0.01 0.00 0.01 0.01 0.00 0.00 0.00 0.01 0.01 0.00 0.08 0.20 0.08 0.08 0.19 0.09 0.05 0.03 0.07 0.16 0.40 0.34 0.42 0.61 0.54 0.81 0.62 0.53 1.09 0.31 0.23 0.14 0.04 0.03
0.35 0.51 0.94 1.41 1.03 0.70 0.52 0.60 0.36 0.51 0.41 0.42 0.28 0.03 0.00 0.00 0.00 0.01 0.02 0.00 0.00 0.00 0.00 0.00 0.00 0.02 0.06 0.08 0.12 0.08 0.04 0.01 0.01 0.12 0.22 0.41 0.32 0.55 0.63 0.65 0.40 0.35 0.39 0.36 0.28 0.25 0.35 0.02 0.00
0.30 0.51 0.78 1.20 1.70 1.64 0.96 1.53 0.68 0.43 0.53 0.37 0.16 0.02 0.00 0.00 0.00 0.00 0.00 0.00 0.00 0.00 0.00 0.00 0.00 0.00 0.02 0.07 0.10 0.04 0.01 0.03 0.04 0.08 0.30 0.46 0.41 0.59 0.75 0.54 0.45 0.50 0.40 0.26 0.28 0.17 0.28 0.03 0.01
0.43 0.52 0.88 1.16 1.73 2.10 1.30 2.07 1.01 0.86 1.67 0.29 0.11 0.01 0.00 0.00 0.00 0.00 0.00 0.00 0.00 0.00 0.00 0.00 0.00 0.00 0.01 0.03 0.05 0.03 0.01 0.06 0.04 0.12 0.11 0.25 0.47 0.51 0.63 0.59 0.53 0.59 0.96 0.40 0.31 0.22 0.11 0.01 0.01
0.63 0.72 0.87 2.45 2.45 2.44 1.79 2.26 2.23 0.95 0.89 0.25 0.12 0.04 0.00 0.01 0.00 0.00 0.00 0.00 0.00 0.00 0.00 0.00 0.00 0.00 0.00 0.01 0.03 0.04 0.07 0.09 0.09 0.14 0.28 0.24 0.26 0.45 1.00 0.81 0.61 0.42 0.42 0.34 0.19 0.16 0.05 0.01 0.00
0.42 0.81 0.85 1.50 2.90 2.69 2.04 2.19 2.45 1.49 1.03 0.48 0.21 0.10 0.03 0.01 0.00 0.00 0.00 0.00 0.00 0.00 0.00 0.00 0.00 0.00 0.05 0.14 0.20 0.17 0.13 0.14 0.14 0.13 0.37 0.41 0.35 0.53 0.78 0.66 0.76 0.44 0.34 0.39 0.31 0.11 0.02 0.03 0.01
0.39 0.71 1.25 1.36 2.14 3.18 2.66 1.79 2.14 1.14 0.79 0.93 0.33 0.16 0.07 0.01 0.01 0.00 0.00 0.00 0.00 0.00 0.00 0.00 0.01 0.05 0.12 0.13 0.06 0.08 0.12 0.06 0.12 0.24 0.34 0.43 0.38 0.41 0.54 0.57 0.66 0.83 0.37 0.23 0.19 0.06 0.00 0.00 0.00
0.11 0.37 1.38 1.60 1.99 1.90 2.54 1.77 1.65 1.62 0.93 0.71 0.66 0.17 0.08 0.02 0.01 0.00 0.00 0.00 0.01 0.00 0.00 0.00 0.04 0.08 0.06 0.06 0.09 0.11 0.09 0.09 0.16 0.33 0.41 0.20 0.25 0.36 0.30 0.56 0.40 0.45 0.33 0.28 0.18 0.11 0.05 0.00 0.00
0.12 0.13 0.88 1.91 1.80 1.86 1.66 2.13 1.31 1.50 1.60 0.92 0.90 0.34 0.25 0.04 0.04 0.00 0.00 0.00 0.02 0.01 0.00 0.00 0.02 0.09 0.05 0.12 0.13 0.40 0.39 0.47 0.60 0.44 0.25 0.11 0.19 0.17 0.31 0.42 0.57 0.46 0.41 0.39 0.24 0.10 0.06 0.03 0.00
0.15 0.15 0.40 1.15 1.40 1.42 1.34 1.40 1.30 0.85 1.39 1.88 1.25 0.40 0.19 0.09 0.06 0.04 0.00 0.01 0.01 0.01 0.00 0.00 0.01 0.10 0.08 0.10 0.11 0.29 0.48 0.56 0.38 0.28 0.44 0.27 0.11 0.11 0.15 0.22 0.34 0.35 0.62 0.60 0.27 0.10 0.04 0.01 0.00
0.04 0.04 0.18 0.62 0.94 0.90 0.79 0.76 0.65 0.80 0.97 1.66 1.32 0.39 0.25 0.21 0.09 0.08 0.02 0.03 0.04 0.00 0.00 0.00 0.00 0.03 0.05 0.07 0.25 0.22 0.15 0.37 0.36 0.31 0.90 0.43 0.22 0.11 0.14 0.15 0.32 0.22 0.34 0.35 0.31 0.18 0.07 0.04 0.03
0.02 0.04 0.04 0.25 0.90 0.56 0.25 0.35 0.35 0.58 0.66 0.99 0.81 0.62 0.35 0.13 0.13 0.13 0.06 0.05 0.04 0.01 0.00 0.00 0.00 0.00 0.02 0.02 0.07 0.22 0.35 0.50 0.80 0.95 0.80 0.33 0.20 0.16 0.11 0.09 0.23 0.30 0.44 0.42 0.23 0.19 0.08 0.05 0.06
0.01 0.02 0.11 0.18 0.46 0.43 0.12 0.15 0.30 0.11 0.55 0.72 0.61 0.56 0.39 0.24 0.22 0.12 0.08 0.09 0.09 0.02 0.00 0.00 0.00 0.00 0.00 0.00 0.01 0.07 0.22 0.41 0.65 0.78 0.36 0.31 0.49 0.54 0.24 0.31 0.42 0.19 0.17 0.22 0.19 0.27 0.16 0.04 0.04
0.00 0.00 0.01 0.05 0.11 0.21 0.19 0.35 0.14 0.04 0.14 0.25 0.23 0.21 0.53 0.35 0.33 0.37 0.25 0.23 0.30 0.16 0.02 0.06 0.02 0.02 0.00 0.02 0.03 0.05 0.12 0.12 0.25 0.36 0.53 0.55 0.64 0.73 0.39 0.43 0.30 0.19 0.09 0.07 0.14 0.09 0.05 0.06 0.03
0.01 0.00 0.00 0.01 0.04 0.08 0.28 0.45 0.15 0.12 0.17 0.07 0.13 0.17 0.34 0.63 0.72 0.50 0.26 0.41 0.81 0.52 0.27 0.07 0.08 0.07 0.06 0.03 0.04 0.11 0.14 0.08 0.13 0.36 0.40 0.41 0.46 0.74 0.90 0.43 0.31 0.20 0.15 0.07 0.11 0.08 0.10 0.18 0.19
0.00 0.00 0.00 0.01 0.00 0.05 0.26 0.77 0.42 0.14 0.12 0.14 0.13 0.15 0.15 0.63 1.56 1.72 1.24 0.65 0.82 1.27 1.11 0.72 0.23 0.15 0.22 0.08 0.12 0.25 0.15 0.14 0.11 0.19 0.28 0.46 0.52 1.72 1.55 0.69 0.34 0.30 0.16 0.20 0.14 0.06 0.05 0.06 0.07
0.00 0.00 0.00 0.00 0.00 0.00 0.12 0.25 0.18 0.18 0.13 0.07 0.07 0.18 0.19 0.38 1.32 2.60 2.54 2.12 1.13 1.53 1.05 1.76 0.98 0.76 0.69 0.57 0.50 0.62 0.33 0.15 0.14 0.14 0.14 0.21 0.39 0.62 0.69 1.23 0.38 0.37 0.33 0.18 0.22 0.20 0.13 0.10 0.05
0.00 0.00 0.00 0.00 0.00 0.00 0.02 0.15 0.24 0.38 0.19 0.09 0.10 0.17 0.20 0.40 0.74 1.43 1.99 2.14 1.80 1.58 1.15 1.35 2.07 1.50 1.29 1.20 1.35 0.93 0.94 0.76 0.46 0.27 0.21 0.21 0.20 0.30 0.54 0.41 0.50 0.51 0.28 0.34 0.34 0.21 0.18 0.22 0.11

GFSSGP_prec_precacc_114.txt.gz
Total_Precipitation_Accumulation
0.02 0.11 0.43 1.16 2.38 1.78 2.67 1.74 1.98 1.10 0.40 0.22 0.12 0.15 0.26 0.24 0.50 0.63 0.19 0.31 0.17 0.24 0.17 0.79 1.25 1.01 0.79 0.40 0.26 0.27 0.20 0.19 0.25 0.23 0.26 0.22 0.24 0.30 0.48 0.39 0.46 0.39 0.32 0.30 0.25 0.27 0.36 0.27 0.29
0.03 0.43 1.19 3.41 2.59 3.23 3.91 2.21 2.28 1.25 0.55 0.40 0.16 0.11 0.11 0.08 0.14 0.06 0.15 0.18 0.07 0.05 0.09 0.19 0.92 0.77 0.59 0.32 0.22 0.20 0.27 0.30 0.36 0.37 0.35 0.32 0.59 0.57 0.49 0.31 0.36 0.47 0.49 0.48 0.41 0.38 0.35 0.33 0.52
0.09 1.19 2.83 3.47 1.73 2.73 2.40 2.77 3.05 1.27 0.57 0.32 0.31 0.29 0.19 0.21 0.08 0.06 0.08 0.10 0.09 0.08 0.04 0.10 0.42 0.49 0.34 0.32 0.29 0.26 0.28 0.26 0.35 0.39 0.35 0.47 0.51 0.48 0.36 0.42 0.40 0.43 0.43 0.39 0.44 0.43 0.55 0.56 0.83
0.27 3.16 4.18 3.44 3.03 2.66 1.50 1.60 1.58 2.04 1.11 0.79 0.47 0.31 0.22 0.21 0.02 0.03 0.08 0.11 0.07 0.05 0.03 0.11 0.24 0.27 0.27 0.26 0.23 0.23 0.30 0.30 0.34 0.34 0.32 0.40 0.47 0.38 0.40 0.42 0.44 0.36 0.26 0.22 0.25 0.32 0.38 0.48 0.68
0.47 2.71 3.28 3.63 2.85 1.74 1.23 1.44 2.81 3.59 1.95 1.44 0.45 0.25 0.18 0.10 0.01 0.01 0.03 0.05 0.05 0.04 0.02 0.07 0.53 0.33 0.25 0.24 0.38 0.40 0.30 0.30 0.34 0.37 0.36 0.49 0.45 0.41 0.58 0.45 0.51 0.40 0.19 0.17 0.18 0.18 0.39 0.53 0.91
1.41 1.61 2.57 2.95 1.22 0.93 1.53 1.81 2.18 2.07 1.36 0.59 0.39 0.17 0.18 0.07 0.03 0.02 0.05 0.09 0.06 0.04 0.02 0.03 0.36 0.32 0.35 0.23 0.38 0.33 0.23 0.27 0.26 0.31 0.44 0.41 0.64 0.44 0.48 0.42 0.23 0.08 0.03 0.11 0.12 0.38 0.58 0.84 0.81
1.54 3.07 2.45 1.54 0.96 1.24 1.47 1.43 1.42 1.54 0.83 0.41 0.36 0.09 0.14 0.09 0.06 0.03 0.04 0.07 0.04 0.02 0.02 0.05 0.08 0.21 0.31 0.35 0.45 0.32 0.25 0.21 0.19 0.25 0.29 0.28 0.32 0.41 0.50 0.35 0.16 0.05 0.08 0.21 0.22 0.36 0.49 0.66 0.47
0.73 2.25 3.31 1.56 0.63 2.14 1.46 1.21 1.34 1.12 0.75 0.26 0.16 0.09 0.06 0.04 0.14 0.08 0.04 0.07 0.09 0.10 0.07 0.03 0.04 0.14 0.15 0.26 0.41 0.16 0.14 0.21 0.17 0.16 0.38 0.54 0.29 0.42 0.45 0.43 0.32 0.15 0.13 0.16 0.23 0.35 0.46 0.62 0.55
0.94 3.58 2.78 1.62 0.44 1.81 1.13 1.22 1.03 0.81 0.29 0.23 0.23 0.08 0.00 0.00 0.05 0.05 0.03 0.05 0.15 0.10 0.05 0.01 0.04 0.11 0.40 0.27 0.37 0.32 0.28 0.42 0.35 0.42 0.79 1.46 0.56 0.78 0.89 0.49 0.22 0.16 0.19 0.17 0.24 0.26 0.45 0.46 0.32
1.88 3.39 1.73 0.74 0.20 0.58 1.82 1.27 1.06 0.73 0.43 0.28 0.19 0.06 0.01 0.01 0.01 0.03 0.02 0.02 0.11 0.07 0.09 0.02 0.02 0.02 0.11 0.19 0.32 0.30 0.19 0.31 0.45 0.49 0.80 1.20 0.56 0.52 0.37 0.38 0.32 0.28 0.32 0.40 0.45 0.43 0.59 1.00 0.46
1.65 2.91 1.37 0.40 0.32 0.32 1.11 0.89 0.63 0.76 0.44 0.20 0.09 0.05 0.01 0.00 0.00 0.02 0.02 0.01 0.02 0.01 0.02 0.01 0.01 0.03 0.17 0.21 0.03 0.04 0.03 0.09 0.22 0.39 0.59 0.98 0.50 0.41 0.55 0.58 1.05 0.58 0.49 0.77 0.76 0.42 0.43 1.04 0.42
0.53 0.76 1.25 0.99 0.65 0.28 0.76 1.83 0.57 1.43 1.51 0.33 0.18 0.02 0.00 0.00 0.00 0.01 0.00 0.00 0.00 0.00 0.00 0.01 0.00 0.06 0.21 0.06 0.08 0.11 0.07 0.04 0.19 0.25 0.18 0.29 0.35 0.46 0.72 0.78 1.02 0.84 0.75 1.31 0.60 0.23 0.19 0.29 0.23
0.49 0.64 0.89 1.07 0.35 0.36 0.54 0.76 0.60 0.95 0.68 0.33 0.25 0.04 0.01 0.01 0.01 0.02 0.01 0.00 0.00 0.00 0.01 0.01 0.00 0.08 0.20 0.08 0.08 0.19 0.09 0.05 0.03 0.07 0.17 0.41 0.34 0.42 0.61 0.54 0.81 0.62 0.53 1.09 0.31 0.23 0.14 0.04 0.03
0.35 0.53 0.98 1.41 1.03 0.72 0.53 0.62 0.37 0.51 0.41 0.43 0.28 0.03 0.00 0.00 0.00 0.01 0.02 0.00 0.00 0.00 0.00 0.00 0.00 0.02 0.06 0.08 0.12 0.08 0.04 0.02 0.02 0.12 0.22 0.41 0.32 0.55 0.63 0.65 0.40 0.35 0.39 0.36 0.28 0.25 0.35 0.02 0.00
0.31 0.54 0.96 1.31 1.72 1.67 1.02 1.58 0.79 0.44 0.54 0.37 0.16 0.02 0.00 0.00 0.00 0.00 0.00 0.00 0.00 0.00 0.00 0.00 0.00 0.00 0.02 0.07 0.10 0.04 0.01 0.04 0.05 0.08 0.30 0.46 0.42 0.59 0.75 0.54 0.45 0.50 0.40 0.26 0.28 0.17 0.28 0.03 0.01
0.44 0.54 0.94 1.23 1.82 2.17 1.37 2.12 1.13 0.88 1.67 0.29 0.11 0.01 0.00 0.00 0.00 0.00 0.00 0.00 0.00 0.00 0.00 0.00 0.00 0.00 0.01 0.04 0.05 0.04 0.01 0.07 0.04 0.12 0.11 0.25 0.47 0.51 0.64 0.59 0.53 0.59 0.96 0.40 0.31 0.22 0.11 0.01 0.01
0.63 0.72 0.90 2.47 2.63 2.72 2.00 2.38 2.33 1.02 0.91 0.26 0.12 0.04 0.00 0.01 0.00 0.00 0.00 0.00 0.00 0.00 0.00 0.00 0.00 0.00 0.00 0.01 0.03 0.04 0.07 0.11 0.09 0.15 0.28 0.24 0.27 0.46 1.00 0.81 0.61 0.42 0.42 0.34 0.19 0.17 0.05 0.01 0.00
0.42 0.81 0.86 1.54 3.02 2.93 2.40 2.48 2.63 1.54 1.07 0.52 0.21 0.10 0.03 0.01 0.00 0.00 0.00 0.00 0.00 0.00 0.00 0.00 0.00 0.00 0.05 0.14 0.20 0.17 0.14 0.16 0.15 0.14 0.40 0.43 0.36 0.54 0.78 0.66 0.76 0.44 0.34 0.39 0.31 0.11 0.02 0.03 0.01
0.39 0.71 1.25 1.36 2.17 3.33 2.91 2.09 2.33 1.17 0.81 0.95 0.33 0.16 0.07 0.01 0.01 0.00 0.00 0.00 0.00 0.00 0.00 0.00 0.01 0.05 0.12 0.13 0.06 0.08 0.12 0.06 0.13 0.24 0.36 0.48 0.41 0.42 0.54 0.57 0.66 0.83 0.37 0.23 0.19 0.06 0.00 0.00 0.00
0.11 0.37 1.38 1.60 1.99 1.92 2.71 2.00 1.88 1.75 0.97 0.72 0.66 0.17 0.08 0.02 0.01 0.00 0.00 0.00 0.01 0.00 0.00 0.00 0.04 0.08 0.06 0.06 0.09 0.11 0.09 0.09 0.16 0.35 0.43 0.22 0.32 0.40 0.30 0.56 0.40 0.45 0.33 0.28 0.18 0.11 0.05 0.00 0.00
0.13 0.14 0.88 1.91 1.80 1.86 1.68 2.23 1.66 1.72 1.71 0.93 0.90 0.34 0.25 0.04 0.04 0.00 0.00 0.00 0.02 0.01 0.00 0.00 0.02 0.09 0.05 0.12 0.13 0.40 0.39 0.48 0.60 0.44 0.26 0.13 0.22 0.24 0.33 0.42 0.57 0.46 0.41 0.39 0.24 0.10 0.06 0.03 0.00
0.16 0.16 0.40 1.15 1.40 1.42 1.34 1.41 1.52 1.20 1.55 1.91 1.26 0.40 0.19 0.09 0.06 0.04 0.00 0.01 0.01 0.01 0.00 0.00 0.01 0.10 0.08 0.10 0.11 0.29 0.48 0.56 0.39 0.28 0.44 0.27 0.11 0.14 0.16 0.22 0.34 0.35 0.62 0.60 0.27 0.10 0.04 0.01 0.00
0.04 0.06 0.22 0.62 0.94 0.90 0.79 0.76 0.72 1.11 1.20 1.70 1.32 0.39 0.25 0.21 0.09 0.08 0.02 0.03 0.04 0.00 0.00 0.00 0.00 0.03 0.05 0.07 0.25 0.22 0.15 0.37 0.36 0.31 0.90 0.43 0.22 0.11 0.14 0.15 0.32 0.22 0.34 0.35 0.31 0.18 0.07 0.04 0.03
0.02 0.05 0.05 0.25 0.90 0.56 0.25 0.35 0.35 0.69 0.79 1.03 0.82 0.62 0.35 0.13 0.13 0.13 0.06 0.05 0.04 0.01 0.00 0.00 0.00 0.00 0.02 0.02 0.07 0.22 0.35 0.50 0.80 0.95 0.80 0.33 0.20 0.16 0.11 0.09 0.23 0.30 0.44 0.42 0.23 0.19 0.08 0.05 0.06
0.01 0.02 0.13 0.19 0.46 0.43 0.12 0.15 0.30 0.11 0.60 0.74 0.62 0.56 0.40 0.24 0.23 0.13 0.08 0.09 0.09 0.02 0.00 0.00 0.00 0.00 0.00 0.00 0.01 0.07 0.22 0.41 0.65 0.78 0.36 0.31 0.49 0.54 0.24 0.31 0.42 0.19 0.17 0.22 0.19 0.27 0.16 0.04 0.04
0.01 0.01 0.02 0.05 0.11 0.21 0.19 0.35 0.14 0.04 0.14 0.25 0.23 0.21 0.53 0.36 0.34 0.38 0.25 0.23 0.30 0.16 0.02 0.06 0.02 0.02 0.00 0.02 0.03 0.05 0.12 0.12 0.25 0.36 0.53 0.55 0.64 0.73 0.39 0.43 0.30 0.19 0.09 0.07 0.14 0.09 0.05 0.06 0.03
0.02 0.01 0.03 0.02 0.04 0.08 0.28 0.45 0.15 0.12 0.17 0.07 0.14 0.19 0.34 0.63 0.72 0.50 0.26 0.41 0.81 0.52 0.27 0.07 0.08 0.07 0.06 0.03 0.04 0.11 0.14 0.09 0.13 0.36 0.41 0.44 0.57 0.77 0.90 0.43 0.31 0.22 0.15 0.08 0.11 0.08 0.10 0.18 0.19
0.00 0.03 0.02 0.02 0.03 0.06 0.26 0.77 0.42 0.14 0.12 0.14 0.13 0.17 0.16 0.64 1.56 1.72 1.25 0.65 0.82 1.27 1.11 0.72 0.23 0.15 0.22 0.08 0.12 0.25 0.16 0.15 0.16 0.19 0.28 0.52 0.61 1.76 1.59 0.73 0.34 0.32 0.17 0.20 0.14 0.06 0.05 0.06 0.07
0.00 0.01 0.02 0.01 0.01 0.01 0.12 0.25 0.18 0.18 0.13 0.07 0.07 0.18 0.19 0.38 1.32 2.60 2.54 2.13 1.16 1.54 1.05 1.76 0.98 0.76 0.69 0.57 0.50 0.62 0.33 0.15 0.15 0.16 0.22 0.26 0.39 0.62 0.70 1.23 0.38 0.45 0.34 0.18 0.23 0.21 0.13 0.10 0.05
0.00 0.00 0.00 0.00 0.00 0.00 0.02 0.15 0.24 0.38 0.19 0.09 0.10 0.17 0.20 0.40 0.74 1.44 2.00 2.15 1.82 1.58 1.15 1.35 2.07 1.50 1.29 1.20 1.35 0.93 0.94 0.77 0.46 0.27 0.25 0.25 0.22 0.30 0.54 0.41 0.50 0.55 0.31 0.35 0.36 0.23 0.18 0.23 0.11

GFSSGP_prec_precacc_117.txt.gz
Total_Precipitation_Accumulation
0.02 0.11 0.44 1.16 2.38 1.78 2.67 1.74 1.98 1.10 0.40 0.22 0.12 0.15 0.26 0.24 0.50 0.63 0.19 0.31 0.17 0.24 0.18 0.82 1.26 1.03 0.89 0.50 0.27 0.29 0.20 0.20 0.25 0.23 0.27 0.23 0.26 0.32 0.55 0.44 0.47 0.40 0.33 0.32 0.26 0.27 0.36 0.27 0.30
0.03 0.43 1.19 3.41 2.59 3.23 3.91 2.21 2.28 1.25 0.55 0.40 0.16 0.11 0.11 0.08 0.14 0.06 0.15 0.18 0.07 0.05 0.10 0.24 0.96 0.85 0.80 0.41 0.25 0.20 0.29 0.31 0.36 0.37 0.35 0.34 0.65 0.60 0.51 0.32 0.37 0.49 0.53 0.57 0.50 0.43 0.42 0.36 0.52
0.09 1.19 2.83 3.47 1.73 2.73 2.40 2.77 3.05 1.27 0.57 0.32 0.31 0.29 0.19 0.21 0.08 0.06 0.08 0.10 0.09 0.08 0.04 0.14 0.45 0.53 0.43 0.34 0.31 0.26 0.30 0.26 0.36 0.41 0.38 0.55 0.62 0.51 0.36 0.42 0.40 0.45 0.47 0.50 0.62 0.59 0.67 0.66 0.91
0.27 3.16 4.18 3.44 3.03 2.66 1.50 1.60 1.58 2.04 1.11 0.79 0.47 0.31 0.22 0.21 0.02 0.03 0.08 0.11 0.07 0.05 0.03 0.11 0.24 0.27 0.28 0.26 0.23 0.23 0.30 0.31 0.34 0.35 0.33 0.41 0.48 0.39 0.42 0.45 0.45 0.36 0.27 0.27 0.32 0.40 0.43 0.55 0.69
0.47 2.71 3.28 3.63 2.85 1.74 1.23 1.44 2.81 3.59 1.95 1.44 0.45 0.25 0.18 0.10 0.01 0.01 0.03 0.05 0.05 0.04 0.02 0.07 0.53 0.33 0.25 0.24 0.38 0.41 0.31 0.33 0.40 0.45 0.43 0.53 0.49 0.43 0.60 0.47 0.52 0.40 0.20 0.21 0.22 0.19 0.40 0.54 0.91
1.41 1.61 2.57 2.95 1.22 0.93 1.53 1.81 2.18 2.07 1.36 0.59 0.39 0.17 0.18 0.07 0.03 0.02 0.05 0.09 0.06 0.04 0.02 0.03 0.38 0.33 0.35 0.24 0.40 0.34 0.23 0.31 0.32 0.35 0.44 0.43 0.69 0.48 0.52 0.46 0.24 0.08 0.03 0.11 0.12 0.42 0.63 0.85 0.81
1.54 3.07 2.46 1.54 0.96 1.24 1.47 1.43 1.42 1.54 0.83 0.41 0.36 0.09 0.14 0.09 0.06 0.03 0.04 0.07 0.04 0.02 0.02 0.05 0.11 0.24 0.33 0.38 0.47 0.34 0.25 0.23 0.24 0.29 0.30 0.30 0.35 0.44 0.51 0.35 0.16 0.05 0.08 0.21 0.22 0.36 0.49 0.66 0.47
0.73 2.25 3.31 1.56 0.63 2.14 1.46 1.21 1.34 1.12 0.75 0.26 0.16 0.09 0.06 0.04 0.14 0.08 0.04 0.07 0.09 0.10 0.07 0.03 0.04 0.15 0.16 0.30 0.48 0.18 0.15 0.25 0.21 0.19 0.42 0.61 0.32 0.42 0.45 0.43 0.32 0.15 0.13 0.16 0.23 0.35 0.46 0.62 0.55
0.94 3.58 2.78 1.62 0.44 1.81 1.13 1.22 1.03 0.82 0.29 0.23 0.23 0.08 0.00 0.00 0.05 0.05 0.03 0.06 0.16 0.11 0.05 0.01 0.05 0.11 0.49 0.32 0.46 0.41 0.37 0.46 0.35 0.46 0.83 1.47 0.56 0.78 0.89 0.49 0.22 0.16 0.19 0.17 0.24 0.26 0.45 0.46 0.32
1.89 3.40 1.74 0.77 0.21 0.59 1.82 1.27 1.06 0.73 0.43 0.28 0.19 0.06 0.01 0.01 0.01 0.03 0.02 0.02 0.12 0.07 0.09 0.02 0.02 0.02 0.20 0.25 0.40 0.41 0.24 0.33 0.45 0.50 0.80 1.20 0.56 0.52 0.37 0.38 0.32 0.28 0.32 0.40 0.45 0.43 0.59 1.00 0.46
1.70 2.99 1.38 0.42 0.34 0.38 1.17 0.89 0.63 0.76 0.44 0.20 0.09 0.05 0.01 0.00 0.00 0.02 0.02 0.01 0.02 0.01 0.02 0.01 0.01 0.03 0.18 0.23 0.03 0.07 0.04 0.09 0.22 0.39 0.59 0.98 0.50 0.41 0.55 0.58 1.05 0.58 0.49 0.77 0.76 0.42 0.43 1.04 0.42
0.60 0.79 1.27 1.07 0.76 0.33 0.83 1.84 0.57 1.43 1.51 0.33 0.18 0.02 0.00 0.00 0.00 0.01 0.00 0.00 0.00 0.00 0.00 0.01 0.00 0.06 0.23 0.07 0.08 0.11 0.07 0.04 0.19 0.25 0.18 0.29 0.35 0.46 0.72 0.78 1.02 0.84 0.75 1.31 0.60 0.23 0.19 0.29 0.23
0.50 0.66 0.92 1.09 0.37 0.37 0.58 0.84 0.62 0.95 0.68 0.33 0.25 0.04 0.01 0.01 0.01 0.02 0.01 0.00 0.00 0.00 0.01 0.01 0.00 0.08 0.20 0.08 0.08 0.19 0.09 0.05 0.03 0.07 0.17 0.41 0.34 0.42 0.61 0.54 0.81 0.62 0.53 1.09 0.31 0.23 0.14 0.04 0.03
0.35 0.53 0.98 1.41 1.03 0.73 0.60 0.68 0.43 0.53 0.41 0.43 0.28 0.03 0.00 0.00 0.00 0.01 0.02 0.00 0.00 0.00 0.00 0.00 0.00 0.02 0.06 0.08 0.12 0.08 0.04 0.02 0.02 0.12 0.22 0.41 0.32 0.55 0.63 0.65 0.40 0.35 0.39 0.36 0.28 0.25 0.35 0.02 0.00
0.31 0.56 0.98 1.32 1.74 1.70 1.07 1.64 0.85 0.48 0.55 0.37 0.16 0.02 0.00 0.00 0.00 0.00 0.00 0.00 0.00 0.00 0.00 0.00 0.00 0.00 0.02 0.07 0.10 0.04 0.01 0.04 0.05 0.08 0.30 0.46 0.42 0.59 0.75 0.54 0.45 0.50 0.40 0.26 0.28 0.17 0.28 0.03 0.01
0.45 0.55 0.96 1.23 1.83 2.21 1.39 2.19 1.23 0.92 1.68 0.29 0.11 0.01 0.00 0.00 0.00 0.00 0.00 0.00 0.00 0.00 0.00 0.00 0.00 0.00 0.01 0.04 0.05 0.04 0.01 0.08 0.04 0.12 0.11 0.25 0.47 0.51 0.64 0.59 0.53 0.59 0.96 0.40 0.31 0.22 0.11 0.01 0.01
0.63 0.72 0.90 2.47 2.64 2.76 2.04 2.45 2.45 1.10 0.92 0.26 0.12 0.04 0.00 0.01 0.00 0.00 0.00 0.00 0.00 0.00 0.00 0.00 0.00 0.00 0.00 0.01 0.03 0.04 0.07 0.11 0.10 0.15 0.28 0.24 0.27 0.46 1.00 0.81 0.61 0.42 0.42 0.34 0.19 0.17 0.05 0.01 0.00
0.42 0.81 0.87 1.55 3.02 2.93 2.47 2.55 2.68 1.62 1.09 0.52 0.21 0.10 0.03 0.01 0.00 0.00 0.00 0.00 0.00 0.00 0.00 0.00 0.00 0.00 0.05 0.15 0.20 0.17 0.14 0.16 0.15 0.14 0.40 0.43 0.37 0.54 0.78 0.66 0.76 0.44 0.34 0.39 0.31 0.11 0.02 0.03 0.01
0.39 0.71 1.25 1.37 2.18 3.33 2.91 2.14 2.54 1.22 0.83 0.96 0.34 0.17 0.07 0.01 0.01 0.00 0.00 0.00 0.00 0.00 0.00 0.00 0.01 0.06 0.12 0.13 0.06 0.08 0.13 0.06 0.13 0.24 0.36 0.48 0.41 0.42 0.54 0.57 0.66 0.83 0.37 0.23 0.19 0.06 0.00 0.00 0.00
0.11 0.37 1.38 1.60 1.99 1.92 2.71 2.03 2.02 1.91 0.98 0.73 0.67 0.18 0.08 0.02 0.01 0.00 0.00 0.00 0.01 0.00 0.00 0.00 0.04 0.08 0.06 0.06 0.09 0.11 0.09 0.09 0.16 0.35 0.43 0.22 0.32 0.40 0.30 0.56 0.40 0.45 0.33 0.28 0.18 0.11 0.05 0.00 0.00
0.13 0.14 0.88 1.92 1.80 1.86 1.68 2.24 1.73 1.84 1.74 0.93 0.90 0.34 0.25 0.04 0.04 0.00 0.00 0.00 0.02 0.01 0.00 0.00 0.02 0.09 0.05 0.12 0.13 0.40 0.39 0.51 0.61 0.44 0.27 0.15 0.22 0.24 0.33 0.42 0.57 0.46 0.41 0.39 0.24 0.10 0.06 0.03 0.00
0.16 0.16 0.41 1.15 1.40 1.42 1.34 1.41 1.53 1.24 1.58 1.91 1.26 0.40 0.19 0.09 0.06 0.04 0.00 0.01 0.01 0.01 0.00 0.00 0.01 0.10 0.08 0.10 0.11 0.32 0.50 0.57 0.42 0.33 0.48 0.27 0.12 0.14 0.17 0.22 0.34 0.35 0.62 0.60 0.27 0.10 0.04 0.01 0.00
0.04 0.07 0.24 0.63 0.94 0.90 0.79 0.76 0.72 1.12 1.22 1.71 1.32 0.39 0.25 0.21 0.09 0.08 0.02 0.03 0.04 0.00 0.00 0.00 0.00 0.03 0.05 0.07 0.25 0.25 0.18 0.38 0.38 0.34 0.94 0.44 0.22 0.11 0.14 0.15 0.32 0.22 0.34 0.35 0.31 0.18 0.07 0.04 0.03
0.02 0.06 0.08 0.28 0.90 0.56 0.25 0.35 0.35 0.69 0.80 1.03 0.82 0.62 0.35 0.13 0.13 0.13 0.06 0.05 0.04 0.01 0.00 0.00 0.00 0.00 0.02 0.02 0.07 0.23 0.39 0.53 0.82 0.99 0.82 0.35 0.20 0.16 0.11 0.10 0.23 0.30 0.44 0.42 0.23 0.19 0.08 0.05 0.06
0.01 0.02 0.15 0.22 0.48 0.43 0.12 0.15 0.30 0.11 0.60 0.74 0.62 0.56 0.40 0.24 0.23 0.13 0.08 0.09 0.09 0.02 0.00 0.00 0.00 0.00 0.00 0.00 0.01 0.07 0.22 0.42 0.68 0.84 0.40 0.35 0.52 0.56 0.27 0.36 0.44 0.21 0.18 0.22 0.19 0.27 0.16 0.04 0.04
0.01 0.01 0.02 0.05 0.11 0.21 0.19 0.35 0.14 0.04 0.14 0.25 0.23 0.21 0.53 0.36 0.34 0.38 0.25 0.23 0.30 0.16 0.02 0.06 0.02 0.02 0.00 0.02 0.03 0.05 0.12 0.12 0.25 0.39 0.57 0.56 0.64 0.74 0.40 0.45 0.36 0.26 0.11 0.07 0.14 0.09 0.05 0.06 0.03
0.02 0.01 0.03 0.04 0.06 0.10 0.28 0.45 0.15 0.12 0.17 0.07 0.14 0.19 0.34 0.63 0.72 0.50 0.26 0.41 0.81 0.52 0.27 0.07 0.08 0.07 0.06 0.03 0.04 0.11 0.14 0.09 0.13 0.36 0.42 0.45 0.57 0.77 0.90 0.43 0.32 0.23 0.15 0.08 0.11 0.08 0.10 0.18 0.19
0.00 0.04 0.06 0.06 0.07 0.07 0.26 0.77 0.42 0.14 0.12 0.14 0.13 0.17 0.16 0.64 1.56 1.72 1.25 0.65 0.82 1.27 1.11 0.72 0.23 0.15 0.22 0.08 0.12 0.25 0.16 0.15 0.20 0.20 0.29 0.54 0.62 1.76 1.60 0.75 0.34 0.32 0.17 0.20 0.15 0.08 0.05 0.06 0.07
0.00 0.02 0.05 0.03 0.02 0.02 0.12 0.25 0.18 0.18 0.13 0.07 0.07 0.18 0.19 0.38 1.32 2.61 2.55 2.13 1.16 1.54 1.05 1.76 0.98 0.76 0.69 0.57 0.50 0.62 0.33 0.15 0.17 0.19 0.24 0.31 0.42 0.62 0.70 1.23 0.38 0.45 0.34 0.18 0.23 0.24 0.16 0.11 0.05
0.00 0.00 0.00 0.00 0.00 0.00 0.02 0.15 0.24 0.38 0.19 0.09 0.10 0.17 0.20 0.40 0.74 1.44 2.02 2.15 1.82 1.58 1.15 1.35 2.07 1.50 1.29 1.20 1.35 0.93 0.94 0.77 0.46 0.27 0.25 0.25 0.23 0.31 0.54 0.41 0.50 0.55 0.32 0.35 0.36 0.24 0.23 0.29 0.17

GFSSGP_prec_precacc_120.txt.gz
Total_Precipitation_Accumulation
0.02 0.11 0.44 1.16 2.38 1.78 2.67 1.74 1.98 1.10 0.40 0.22 0.12 0.15 0.26 0.24 0.50 0.63 0.19 0.31 0.17 0.24 0.18 0.82 1.26 1.04 0.95 0.65 0.37 0.32 0.20 0.20 0.25 0.23 0.27 0.24 0.26 0.32 0.55 0.44 0.48 0.43 0.34 0.33 0.26 0.28 0.38 0.29 0.30
0.03 0.43 1.20 3.41 2.59 3.23 3.91 2.21 2.28 1.25 0.55 0.40 0.16 0.11 0.11 0.08 0.14 0.06 0.15 0.18 0.07 0.05 0.10 0.24 0.96 0.85 0.82 0.49 0.29 0.22 0.30 0.31 0.36 0.37 0.36 0.36 0.65 0.60 0.51 0.32 0.40 0.56 0.57 0.58 0.50 0.44 0.43 0.40 0.54
0.09 1.19 2.83 3.47 1.73 2.73 2.40 2.77 3.05 1.27 0.57 0.32 0.31 0.30 0.19 0.21 0.08 0.06 0.08 0.10 0.09 0.08 0.04 0.14 0.45 0.53 0.45 0.36 0.31 0.27 0.31 0.27 0.38 0.44 0.40 0.56 0.62 0.51 0.36 0.43 0.44 0.53 0.54 0.54 0.65 0.59 0.67 0.68 0.94
0.27 3.16 4.18 3.44 3.03 2.66 1.50 1.60 1.58 2.04 1.11 0.79 0.47 0.31 0.22 0.21 0.02 0.03 0.08 0.11 0.07 0.05 0.03 0.11 0.24 0.28 0.30 0.27 0.24 0.23 0.31 0.34 0.37 0.37 0.34 0.41 0.49 0.40 0.42 0.45 0.46 0.38 0.33 0.32 0.35 0.40 0.44 0.55 0.70
0.47 2.71 3.28 3.63 2.85 1.74 1.23 1.44 2.81 3.59 1.95 1.44 0.45 0.25 0.18 0.10 0.01 0.01 0.03 0.05 0.05 0.04 0.02 0.07 0.53 0.34 0.26 0.28 0.41 0.48 0.35 0.38 0.43 0.48 0.43 0.55 0.50 0.43 0.61 0.47 0.52 0.41 0.20 0.21 0.22 0.20 0.40 0.54 0.91
1.41 1.62 2.57 2.95 1.22 0.93 1.53 1.81 2.18 2.07 1.36 0.59 0.39 0.17 0.18 0.07 0.03 0.02 0.05 0.09 0.06 0.04 0.02 0.03 0.38 0.34 0.36 0.30 0.48 0.40 0.31 0.37 0.42 0.39 0.46 0.44 0.70 0.48 0.53 0.47 0.24 0.08 0.03 0.11 0.12 0.42 0.63 0.85 0.81
1.54 3.08 2.47 1.54 0.96 1.24 1.47 1.43 1.42 1.54 0.83 0.41 0.36 0.09 0.14 0.09 0.06 0.03 0.04 0.07 0.04 0.02 0.02 0.05 0.11 0.24 0.33 0.42 0.55 0.45 0.33 0.33 0.31 0.31 0.31 0.31 0.37 0.44 0.52 0.35 0.16 0.05 0.08 0.21 0.22 0.36 0.49 0.66 0.47
0.73 2.25 3.31 1.56 0.63 2.14 1.46 1.21 1.34 1.12 0.75 0.26 0.16 0.09 0.06 0.04 0.14 0.08 0.04 0.07 0.09 0.10 0.07 0.03 0.04 0.16 0.16 0.31 0.59 0.29 0.21 0.30 0.24 0.21 0.45 0.64 0.34 0.42 0.45 0.43 0.32 0.15 0.13 0.16 0.23 0.35 0.46 0.62 0.55
0.94 3.60 2.78 1.62 0.44 1.81 1.13 1.22 1.03 0.82 0.29 0.23 0.23 0.08 0.00 0.00 0.05 0.05 0.03 0.06 0.16 0.11 0.05 0.01 0.05 0.12 0.52 0.37 0.53 0.53 0.48 0.47 0.38 0.49 0.90 1.49 0.56 0.78 0.89 0.49 0.22 0.16 0.19 0.17 0.24 0.26 0.45 0.46 0.32
1.91 3.44 1.74 0.77 0.21 0.60 1.82 1.27 1.06 0.73 0.43 0.28 0.19 0.06 0.01 0.01 0.01 0.03 0.02 0.02 0.12 0.07 0.09 0.02 0.02 0.02 0.20 0.25 0.42 0.51 0.25 0.34 0.46 0.50 0.80 1.20 0.56 0.52 0.37 0.38 0.32 0.28 0.32 0.40 0.45 0.43 0.59 1.00 0.46
1.72 3.05 1.38 0.42 0.34 0.39 1.17 0.89 0.63 0.76 0.44 0.20 0.09 0.05 0.01 0.00 0.00 0.02 0.02 0.01 0.02 0.01 0.02 0.01 0.01 0.03 0.18 0.23 0.03 0.08 0.04 0.09 0.22 0.39 0.59 0.98 0.50 0.41 0.55 0.58 1.05 0.58 0.49 0.77 0.76 0.42 0.43 1.04 0.42
0.68 0.82 1.27 1.07 0.76 0.34 0.87 1.86 0.57 1.43 1.51 0.33 0.18 0.02 0.00 0.00 0.00 0.01 0.00 0.00 0.00 0.00 0.00 0.01 0.00 0.06 0.24 0.07 0.08 0.11 0.07 0.04 0.19 0.25 0.18 0.29 0.35 0.46 0.72 0.78 1.02 0.84 0.75 1.31 0.60 0.23 0.19 0.29 0.23
0.51 0.66 0.92 1.09 0.38 0.39 0.60 0.88 0.62 0.95 0.68 0.33 0.25 0.04 0.01 0.01 0.01 0.02 0.01 0.00 0.00 0.00 0.01 0.01 0.00 0.08 0.21 0.08 0.08 0.19 0.09 0.05 0.03 0.07 0.17 0.41 0.34 0.42 0.61 0.54 0.81 0.62 0.53 1.09 0.31 0.23 0.14 0.04 0.03
0.35 0.53 0.98 1.41 1.03 0.74 0.66 0.77 0.45 0.54 0.41 0.43 0.28 0.03 0.00 0.00 0.00 0.01 0.02 0.00 0.00 0.00 0.00 0.00 0.00 0.02 0.06 0.08 0.12 0.08 0.04 0.02 0.02 0.12 0.22 0.41 0.32 0.55 0.63 0.65 0.40 0.35 0.39 0.36 0.28 0.25 0.35 0.02 0.00
0.31 0.56 0.98 1.32 1.74 1.71 1.12 1.76 0.99 0.48 0.55 0.37 0.16 0.02 0.00 0.00 0.00 0.00 0.00 0.00 0.00 0.00 0.00 0.00 0.00 0.00 0.02 0.07 0.11 0.04 0.01 0.04 0.05 0.08 0.30 0.46 0.42 0.59 0.75 0.54 0.45 0.50 0.40 0.26 0.28 0.17 0.28 0.03 0.01
0.45 0.56 0.97 1.24 1.84 2.21 1.41 2.30 1.37 0.93 1.68 0.29 0.11 0.01 0.00 0.00 0.00 0.00 0.00 0.00 0.00 0.00 0.00 0.00 0.00 0.00 0.01 0.04 0.05 0.04 0.01 0.08 0.04 0.12 0.11 0.25 0.47 0.51 0.64 0.59 0.53 0.59 0.96 0.40 0.31 0.22 0.11 0.01 0.01
0.63 0.72 0.91 2.47 2.64 2.76 2.04 2.48 2.47 1.11 0.92 0.26 0.12 0.04 0.00 0.01 0.00 0.00 0.00 0.00 0.00 0.00 0.00 0.00 0.00 0.00 0.00 0.01 0.03 0.04 0.07 0.11 0.10 0.15 0.28 0.24 0.27 0.46 1.00 0.81 0.61 0.42 0.42 0.34 0.19 0.17 0.05 0.01 0.00
0.42 0.81 0.87 1.56 3.02 2.94 2.49 2.58 2.69 1.64 1.11 0.52 0.21 0.10 0.03 0.01 0.00 0.00 0.00 0.00 0.00 0.00 0.00 0.00 0.00 0.00 0.06 0.16 0.21 0.17 0.14 0.16 0.15 0.14 0.40 0.43 0.37 0.54 0.78 0.66 0.76 0.44 0.34 0.39 0.31 0.11 0.02 0.03 0.01
0.39 0.71 1.25 1.37 2.18 3.33 2.91 2.16 2.56 1.25 0.86 0.97 0.34 0.17 0.07 0.01 0.01 0.00 0.00 0.00 0.00 0.00 0.00 0.00 0.01 0.07 0.12 0.13 0.06 0.08 0.17 0.07 0.13 0.24 0.36 0.48 0.41 0.42 0.54 0.57 0.66 0.83 0.37 0.25 0.19 0.06 0.00 0.00 0.00
0.11 0.37 1.39 1.61 1.99 1.92 2.71 2.03 2.02 1.93 0.99 0.73 0.67 0.19 0.08 0.02 0.01 0.00 0.00 0.00 0.01 0.00 0.00 0.00 0.04 0.11 0.09 0.06 0.12 0.12 0.10 0.09 0.16 0.35 0.43 0.22 0.32 0.40 0.30 0.56 0.40 0.45 0.33 0.28 0.18 0.11 0.05 0.00 0.00
0.13 0.14 0.88 1.93 1.81 1.86 1.68 2.24 1.73 1.85 1.75 0.93 0.91 0.35 0.25 0.04 0.04 0.00 0.00 0.00 0.02 0.01 0.00 0.00 0.02 0.12 0.14 0.14 0.14 0.44 0.46 0.59 0.65 0.46 0.27 0.15 0.22 0.24 0.33 0.42 0.57 0.46 0.41 0.39 0.24 0.10 0.06 0.03 0.00
0.16 0.16 0.41 1.18 1.43 1.43 1.34 1.41 1.53 1.24 1.60 1.92 1.26 0.40 0.19 0.09 0.06 0.04 0.00 0.01 0.01 0.01 0.00 0.00 0.01 0.14 0.12 0.10 0.14 0.43 0.56 0.59 0.47 0.38 0.54 0.34 0.13 0.14 0.17 0.22 0.34 0.35 0.62 0.60 0.27 0.10 0.04 0.01 0.00
0.04 0.07 0.25 0.66 0.97 0.92 0.80 0.76 0.72 1.12 1.22 1.71 1.32 0.39 0.25 0.21 0.09 0.08 0.02 0.03 0.04 0.00 0.00 0.00 0.00 0.10 0.08 0.08 0.36 0.28 0.19 0.41 0.41 0.38 0.95 0.49 0.28 0.12 0.14 0.15 0.32 0.22 0.34 0.35 0.31 0.18 0.07 0.04 0.03
0.02 0.06 0.09 0.31 0.96 0.58 0.25 0.35 0.35 0.69 0.80 1.03 0.82 0.62 0.35 0.13 0.13 0.13 0.06 0.05 0.04 0.01 0.00 0.00 0.00 0.01 0.03 0.05 0.14 0.29 0.41 0.57 0.89 1.07 0.86 0.39 0.22 0.16 0.11 0.10 0.24 0.30 0.44 0.42 0.23 0.19 0.08 0.05 0.06
0.01 0.02 0.16 0.23 0.49 0.43 0.12 0.16 0.30 0.11 0.60 0.74 0.62 0.56 0.40 0.24 0.23 0.13 0.08 0.09 0.09 0.02 0.00 0.00 0.00 0.00 0.00 0.04 0.06 0.12 0.26 0.45 0.74 0.89 0.47 0.43 0.57 0.59 0.31 0.38 0.46 0.21 0.18 0.22 0.19 0.27 0.16 0.04 0.04
0.01 0.01 0.02 0.05 0.11 0.23 0.20 0.36 0.14 0.04 0.14 0.25 0.23 0.21 0.53 0.36 0.34 0.38 0.25 0.23 0.30 0.16 0.02 0.06 0.02 0.02 0.00 0.02 0.03 0.07 0.16 0.18 0.30 0.44 0.68 0.67 0.73 0.80 0.44 0.48 0.39 0.27 0.13 0.09 0.14 0.09 0.05 0.06 0.03
0.02 0.01 0.03 0.04 0.07 0.12 0.29 0.45 0.15 0.12 0.17 0.07 0.14 0.19 0.34 0.63 0.72 0.50 0.26 0.41 0.81 0.52 0.27 0.07 0.08 0.07 0.06 0.03 0.04 0.11 0.16 0.12 0.14 0.37 0.53 0.51 0.65 0.82 0.94 0.46 0.36 0.26 0.19 0.10 0.12 0.08 0.10 0.18 0.19
0.00 0.04 0.07 0.06 0.08 0.08 0.26 0.77 0.42 0.14 0.12 0.14 0.13 0.17 0.16 0.64 1.56 1.72 1.25 0.65 0.82 1.27 1.11 0.72 0.23 0.15 0.22 0.08 0.12 0.25 0.16 0.15 0.20 0.20 0.34 0.55 0.63 1.80 1.60 0.75 0.35 0.33 0.22 0.24 0.20 0.09 0.05 0.06 0.08
0.00 0.02 0.05 0.04 0.02 0.02 0.13 0.26 0.18 0.18 0.13 0.07 0.07 0.18 0.19 0.38 1.32 2.61 2.55 2.13 1.16 1.54 1.05 1.76 0.98 0.76 0.69 0.57 0.50 0.62 0.33 0.15 0.17 0.19 0.27 0.40 0.48 0.63 0.70 1.23 0.38 0.46 0.39 0.21 0.26 0.30 0.17 0.14 0.08
0.00 0.00 0.00 0.02 0.00 0.00 0.02 0.16 0.24 0.38 0.19 0.09 0.10 0.17 0.20 0.40 0.74 1.44 2.02 2.15 1.82 1.58 1.15 1.35 2.07 1.50 1.29 1.20 1.35 0.93 0.94 0.77 0.46 0.32 0.28 0.31 0.30 0.39 0.54 0.41 0.50 0.55 0.32 0.35 0.39 0.35 0.24 0.29 0.17

GFSSGP_prec_precacc_126.txt.gz
Total_Precipitation_Accumulation
0.02 0.11 0.45 1.20 2.72 1.85 2.67 1.74 1.98 1.11 0.40 0.22 0.12 0.16 0.26 0.25 0.51 0.64 0.19 0.32 0.18 0.24 0.18 0.82 1.30 1.08 0.97 0.70 0.60 0.48 0.27 0.25 0.31 0.32 0.32 0.27 0.28 0.34 0.59 0.49 0.52 0.48 0.41 0.38 0.38 0.44 0.52 0.41 0.36
0.03 0.44 1.20 3.51 2.84 3.24 3.91 2.21 2.28 1.25 0.55 0.40 0.17 0.12 0.12 0.08 0.14 0.06 0.15 0.18 0.07 0.05 0.10 0.24 1.00 0.90 0.85 0.61 0.45 0.31 0.34 0.37 0.41 0.43 0.38 0.39 0.68 0.63 0.54 0.34 0.42 0.58 0.59 0.62 0.61 0.55 0.55 0.48 0.60
0.09 1.19 2.85 3.89 1.82 2.73 2.40 2.77 3.05 1.27 0.58 0.38 0.32 0.30 0.19 0.21 0.08 0.06 0.08 0.10 0.09 0.09 0.04 0.14 0.46 0.54 0.50 0.49 0.46 0.34 0.34 0.28 0.40 0.44 0.40 0.56 0.64 0.54 0.39 0.46 0.47 0.57 0.57 0.56 0.68 0.62 0.70 0.70 0.94
0.27 3.16 4.20 3.44 3.04 2.66 1.50 1.60 1.58 2.04 1.11 0.80 0.48 0.31 0.22 0.21 0.02 0.03 0.08 0.11 0.07 0.21 0.04 0.11 0.24 0.29 0.31 0.34 0.29 0.38 0.38 0.38 0.43 0.41 0.35 0.43 0.51 0.45 0.49 0.51 0.50 0.41 0.37 0.37 0.42 0.43 0.46 0.56 0.70
0.47 2.86 3.62 3.66 2.85 1.74 1.23 1.44 2.81 3.59 1.96 1.44 0.45 0.25 0.18 0.10 0.01 0.01 0.03 0.05 0.09 0.58 0.02 0.07 0.54 0.34 0.27 0.31 0.51 0.58 0.42 0.42 0.47 0.51 0.44 0.56 0.51 0.43 0.62 0.48 0.53 0.41 0.22 0.22 0.23 0.20 0.40 0.54 0.91
1.42 2.63 3.21 2.97 1.22 0.93 1.53 1.81 2.19 2.07 1.36 0.60 0.39 0.17 0.18 0.07 0.03 0.02 0.07 0.10 0.08 0.13 0.02 0.03 0.38 0.34 0.37 0.33 0.58 0.47 0.40 0.43 0.46 0.39 0.46 0.45 0.71 0.48 0.54 0.48 0.24 0.08 0.04 0.12 0.12 0.42 0.63 0.85 0.81
1.56 3.60 2.91 1.56 0.98 1.24 1.47 1.43 1.44 1.54 0.83 0.41 0.37 0.10 0.14 0.09 0.06 0.03 0.07 0.09 0.04 0.03 0.02 0.05 0.11 0.24 0.34 0.46 0.62 0.49 0.37 0.37 0.34 0.31 0.31 0.31 0.37 0.44 0.52 0.36 0.17 0.07 0.11 0.21 0.22 0.36 0.49 0.66 0.47
0.73 2.42 3.45 1.61 0.65 2.14 1.46 1.21 1.35 1.12 0.75 0.26 0.18 0.09 0.06 0.04 0.14 0.08 0.04 0.07 0.10 0.19 0.08 0.05 0.04 0.16 0.16 0.32 0.67 0.38 0.24 0.31 0.24 0.22 0.45 0.64 0.34 0.42 0.45 0.45 0.33 0.16 0.15 0.16 0.23 0.35 0.46 0.62 0.55
0.94 3.81 2.91 1.76 0.49 2.06 1.13 1.22 1.03 0.82 0.29 0.23 0.24 0.08 0.00 0.00 0.05 0.05 0.03 0.06 0.16 0.23 0.09 0.04 0.07 0.15 0.56 0.38 0.55 0.57 0.49 0.47 0.38 0.51 0.92 1.50 0.56 0.78 0.89 0.50 0.22 0.16 0.19 0.17 0.24 0.26 0.45 0.46 0.32
1.93 3.82 1.96 0.98 0.26 0.74 1.83 1.29 1.06 0.73 0.43 0.28 0.19 0.06 0.01 0.01 0.01 0.03 0.02 0.02 0.12 0.09 0.31 0.13 0.05 0.07 0.20 0.25 0.48 0.63 0.38 0.37 0.46 0.50 0.81 1.22 0.56 0.52 0.37 0.38 0.34 0.29 0.32 0.40 0.45 0.43 0.59 1.00 0.46
1.73 3.27 1.49 0.42 0.34 0.39 1.17 0.93 0.63 0.77 0.45 0.20 0.09 0.05 0.01 0.00 0.00 0.02 0.02 0.01 0.02 0.02 0.03 0.08 0.02 0.07 0.22 0.23 0.06 0.25 0.28 0.10 0.22 0.39 0.59 0.98 0.50 0.41 0.55 0.58 1.05 0.58 0.49 0.77 0.76 0.42 0.43 1.04 0.42
0.70 0.82 1.27 1.07 0.76 0.34 0.88 1.99 0.59 1.44 1.58 0.33 0.18 0.02 0.00 0.00 0.00 0.01 0.00 0.01 0.00 0.01 0.03 0.02 0.01 0.23 0.42 0.07 0.15 0.12 0.07 0.04 0.19 0.25 0.18 0.29 0.35 0.46 0.72 0.78 1.02 0.84 0.75 1.31 0.60 0.23 0.19 0.29 0.23
0.52 0.66 0.92 1.09 0.38 0.39 0.60 0.94 0.74 0.96 0.68 0.33 0.25 0.04 0.01 0.01 0.01 0.02 0.01 0.00 0.00 0.00 0.02 0.01 0.00 0.11 0.23 0.13 0.10 0.19 0.09 0.05 0.03 0.07 0.17 0.41 0.34 0.42 0.61 0.54 0.81 0.62 0.53 1.09 0.31 0.23 0.14 0.04 0.03
0.38 0.54 0.99 1.42 1.04 0.74 0.66 0.80 0.52 0.55 0.41 0.43 0.28 0.03 0.00 0.01 0.00 0.01 0.02 0.00 0.00 0.00 0.00 0.00 0.00 0.02 0.07 0.12 0.13 0.08 0.11 0.02 0.02 0.12 0.22 0.41 0.32 0.55 0.63 0.65 0.40 0.35 0.39 0.36 0.28 0.25 0.35 0.02 0.00
0.31 0.56 0.98 1.33 1.75 1.72 1.14 1.85 1.20 0.57 0.55 0.37 0.16 0.02 0.00 0.00 0.00 0.00 0.00 0.00 0.00 0.00 0.00 0.00 0.00 0.01 0.02 0.07 0.12 0.04 0.12 0.04 0.05 0.09 0.30 0.46 0.42 0.59 0.75 0.54 0.45 0.50 0.40 0.26 0.28 0.17 0.28 0.03 0.01
0.45 0.56 1.06 1.28 1.85 2.22 1.49 2.60 1.89 1.32 1.69 0.30 0.11 0.01 0.00 0.00 0.00 0.00 0.00 0.00 0.00 0.00 0.00 0.00 0.00 0.01 0.01 0.05 0.06 0.04 0.01 0.08 0.06 0.16 0.11 0.25 0.47 0.51 0.64 0.59 0.53 0.59 0.96 0.40 0.31 0.22 0.11 0.01 0.01
0.63 0.72 0.96 2.60 2.65 2.77 2.14 2.93 2.76 1.28 0.95 0.31 0.13 0.04 0.00 0.01 0.00 0.00 0.00 0.00 0.00 0.00 0.00 0.00 0.00 0.00 0.01 0.02 0.04 0.05 0.07 0.13 0.17 0.19 0.28 0.24 0.27 0.46 1.02 0.82 0.61 0.42 0.42 0.34 0.19 0.17 0.05 0.01 0.00
0.42 0.81 0.87 1.59 3.04 2.95 2.53 2.76 2.72 1.66 1.12 0.69 0.28 0.10 0.03 0.01 0.00 0.00 0.00 0.00 0.00 0.00 0.00 0.00 0.00 0.00 0.07 0.17 0.22 0.18 0.14 0.19 0.15 0.15 0.40 0.43 0.37 0.54 0.82 0.71 0.76 0.46 0.42 0.43 0.40 0.11 0.02 0.03 0.01
0.39 0.71 1.25 1.37 2.18 3.35 2.92 2.21 2.57 1.25 0.88 1.09 0.53 0.17 0.07 0.01 0.01 0.00 0.00 0.00 0.00 0.00 0.00 0.00 0.01 0.08 0.13 0.14 0.07 0.09 0.17 0.07 0.13 0.26 0.36 0.48 0.41 0.42 0.56 0.60 0.66 0.91 0.82 0.74 0.26 0.07 0.00 0.00 0.00
0.11 0.37 1.39 1.61 1.99 1.92 2.71 2.03 2.02 1.93 0.99 0.74 0.75 0.27 0.10 0.02 0.01 0.00 0.00 0.00 0.01 0.00 0.00 0.00 0.06 0.14 0.13 0.07 0.13 0.14 0.11 0.10 0.17 0.35 0.43 0.22 0.32 0.40 0.31 0.56 0.43 0.66 0.62 0.33 0.26 0.45 0.26 0.50 0.00
0.13 0.14 0.88 1.93 1.82 1.86 1.68 2.24 1.73 1.85 1.75 0.93 0.92 0.51 0.29 0.04 0.04 0.00 0.00 0.00 0.02 0.01 0.00 0.00 0.05 0.15 0.15 0.17 0.16 0.46 0.53 0.61 0.71 0.48 0.27 0.15 0.22 0.24 0.33 0.43 0.61 0.58 0.47 0.46 0.26 0.16 0.20 0.44 0.04
0.16 0.16 0.41 1.18 1.43 1.45 1.35 1.42 1.53 1.24 1.60 1.92 1.26 0.43 0.22 0.09 0.06 0.04 0.00 0.01 0.01 0.01 0.00 0.00 0.02 0.17 0.14 0.13 0.20 0.48 0.59 0.60 0.49 0.39 0.54 0.34 0.13 0.14 0.17 0.22 0.34 0.36 0.69 0.96 0.27 0.11 0.12 0.15 0.33
0.04 0.07 0.25 0.66 0.97 0.92 0.80 0.76 0.72 1.12 1.22 1.71 1.32 0.39 0.28 0.21 0.09 0.08 0.02 0.03 0.04 0.00 0.00 0.00 0.00 0.15 0.14 0.22 0.53 0.30 0.19 0.42 0.43 0.41 0.98 0.50 0.28 0.12 0.14 0.15 0.32 0.22 0.35 0.35 0.32 0.19 0.08 0.07 0.17
0.02 0.06 0.09 0.31 0.96 0.58 0.25 0.35 0.35 0.70 0.81 1.06 0.84 0.62 0.36 0.13 0.14 0.13 0.06 0.05 0.04 0.01 0.00 0.00 0.00 0.04 0.11 0.18 0.18 0.31 0.43 0.60 0.99 1.13 0.93 0.39 0.22 0.16 0.11 0.10 0.24 0.30 0.44 0.42 0.23 0.20 0.09 0.06 0.08
0.01 0.02 0.16 0.23 0.49 0.43 0.12 0.16 0.30 0.13 0.65 0.76 0.64 0.56 0.40 0.25 0.23 0.13 0.09 0.09 0.09 0.02 0.00 0.00 0.00 0.01 0.04 0.11 0.08 0.17 0.28 0.48 0.79 0.92 0.47 0.44 0.57 0.59 0.32 0.39 0.47 0.21 0.19 0.23 0.19 0.28 0.18 0.05 0.05
0.01 0.01 0.02 0.05 0.11 0.23 0.20 0.36 0.14 0.05 0.15 0.25 0.26 0.22 0.53 0.36 0.34 0.38 0.25 0.23 0.30 0.16 0.02 0.06 0.02 0.02 0.01 0.08 0.07 0.12 0.21 0.20 0.31 0.44 0.69 0.67 0.73 0.80 0.45 0.48 0.40 0.27 0.14 0.09 0.15 0.09 0.05 0.06 0.03
0.02 0.01 0.03 0.04 0.07 0.12 0.29 0.45 0.15 0.14 0.22 0.08 0.14 0.19 0.34 0.63 0.73 0.51 0.26 0.41 0.81 0.52 0.27 0.07 0.08 0.07 0.06 0.04 0.07 0.16 0.20 0.15 0.15 0.41 0.59 0.51 0.66 0.83 0.95 0.47 0.37 0.26 0.19 0.10 0.13 0.09 0.11 0.19 0.20
0.00 0.06 0.07 0.06 0.08 0.08 0.26 0.77 0.43 0.15 0.12 0.15 0.14 0.17 0.16 0.64 1.56 1.74 1.26 0.65 0.82 1.27 1.11 0.72 0.23 0.15 0.22 0.08 0.12 0.25 0.16 0.16 0.22 0.28 0.44 0.57 0.73 1.87 1.68 0.79 0.40 0.36 0.26 0.28 0.23 0.10 0.06 0.08 0.08
0.00 0.02 0.05 0.04 0.03 0.03 0.14 0.29 0.27 0.26 0.13 0.08 0.11 0.21 0.20 0.39 1.33 2.63 2.62 2.17 1.20 1.54 1.05 1.76 0.98 0.76 0.69 0.57 0.50 0.62 0.33 0.16 0.17 0.23 0.36 0.52 0.63 0.76 0.83 1.29 0.47 0.56 0.48 0.30 0.41 0.36 0.24 0.22 0.14
0.00 0.00 0.00 0.02 0.01 0.02 0.03 0.20 0.26 0.38 0.19 0.10 0.27 0.30 0.21 0.44 0.78 1.45 2.12 2.31 1.89 1.63 1.15 1.35 2.07 1.50 1.29 1.20 1.36 0.94 0.94 0.77 0.46 0.32 0.31 0.43 0.53 0.57 0.66 0.58 0.66 0.67 0.47 0.56 0.53 0.46 0.35 0.41 0.28

GFSSGP_prec_precacc_129.txt.gz
Total_Precipitation_Accumulation
0.05 0.19 0.54 1.42 3.40 1.96 2.68 1.74 1.98 1.11 0.40 0.22 0.12 0.16 0.26 0.28 0.53 0.64 0.19 0.36 0.18 0.24 0.18 0.84 1.33 1.08 0.97 0.70 0.62 0.52 0.36 0.30 0.34 0.35 0.33 0.27 0.30 0.35 0.59 0.53 0.55 0.57 0.48 0.42 0.39 0.45 0.52 0.41 0.37
0.08 0.49 1.30 3.75 3.01 3.28 3.91 2.21 2.28 1.25 0.55 0.40 0.17 0.12 0.12 0.08 0.14 0.06 0.15 0.22 0.07 0.05 0.10 0.24 1.01 0.90 0.85 0.61 0.47 0.35 0.38 0.39 0.43 0.46 0.40 0.40 0.68 0.64 0.54 0.34 0.45 0.61 0.61 0.65 0.62 0.56 0.55 0.49 0.63
0.12 1.26 3.49 4.12 1.86 2.77 2.40 2.77 3.05 1.27 0.58 0.39 0.32 0.30 0.19 0.21 0.08 0.06 0.10 0.10 0.09 0.09 0.04 0.14 0.46 0.54 0.50 0.49 0.47 0.36 0.34 0.30 0.43 0.46 0.41 0.58 0.66 0.56 0.40 0.46 0.48 0.58 0.58 0.56 0.69 0.62 0.70 0.71 0.95
0.30 3.22 4.29 3.57 3.09 2.66 1.50 1.60 1.58 2.04 1.11 0.80 0.48 0.31 0.22 0.21 0.02 0.03 0.08 0.11 0.10 0.24 0.04 0.12 0.24 0.29 0.31 0.34 0.29 0.40 0.41 0.39 0.43 0.42 0.35 0.46 0.54 0.50 0.56 0.57 0.52 0.41 0.38 0.38 0.42 0.43 0.46 0.56 0.70
0.51 2.99 3.83 3.73 2.88 1.74 1.23 1.44 2.81 3.59 1.96 1.44 0.45 0.25 0.18 0.10 0.01 0.01 0.03 0.07 0.12 0.62 0.06 0.07 0.54 0.34 0.27 0.31 0.54 0.61 0.45 0.44 0.48 0.52 0.44 0.57 0.53 0.45 0.63 0.49 0.53 0.41 0.22 0.22 0.23 0.20 0.40 0.54 0.91
1.44 2.90 3.37 3.09 1.26 0.93 1.53 1.81 2.19 2.07 1.36 0.60 0.39 0.17 0.18 0.07 0.03 0.02 0.07 0.12 0.28 0.22 0.04 0.04 0.38 0.35 0.37 0.33 0.60 0.48 0.41 0.45 0.46 0.39 0.46 0.45 0.71 0.49 0.54 0.48 0.24 0.08 0.04 0.12 0.12 0.42 0.63 0.85 0.81
1.61 4.19 3.03 1.68 1.10 1.25 1.47 1.44 1.44 1.54 0.83 0.41 0.37 0.10 0.14 0.09 0.06 0.05 0.14 0.13 0.11 0.06 0.04 0.05 0.11 0.25 0.34 0.46 0.63 0.49 0.37 0.37 0.34 0.31 0.31 0.31 0.37 0.44 0.52 0.36 0.17 0.07 0.11 0.21 0.22 0.36 0.49 0.66 0.47
0.89 2.97 4.01 1.84 0.78 2.18 1.46 1.21 1.35 1.12 0.75 0.26 0.18 0.09 0.06 0.04 0.15 0.11 0.09 0.14 0.28 0.29 0.13 0.05 0.04 0.16 0.17 0.35 0.67 0.38 0.24 0.31 0.24 0.22 0.46 0.64 0.34 0.42 0.45 0.45 0.33 0.16 0.15 0.16 0.23 0.35 0.46 0.62 0.55
1.12 4.47 3.53 1.92 0.64 2.13 1.14 1.22 1.03 0.82 0.29 0.23 0.24 0.08 0.00 0.00 0.05 0.05 0.04 0.08 0.21 0.37 0.15 0.06 0.08 0.18 0.58 0.39 0.55 0.57 0.49 0.48 0.40 0.52 0.93 1.51 0.56 0.78 0.89 0.50 0.22 0.16 0.19 0.17 0.24 0.26 0.45 0.46 0.32
2.10 4.02 2.24 1.06 0.31 0.76 1.84 1.29 1.06 0.73 0.43 0.28 0.19 0.06 0.01 0.01 0.01 0.03 0.02 0.02 0.12 0.14 0.42 0.24 0.11 0.10 0.20 0.25 0.49 0.64 0.43 0.39 0.48 0.52 0.81 1.22 0.56 0.52 0.37 0.38 0.34 0.29 0.32 0.40 0.45 0.43 0.59 1.00 0.46
1.76 3.44 1.71 0.45 0.38 0.39 1.18 0.96 0.64 0.77 0.45 0.21 0.09 0.05 0.01 0.00 0.00 0.02 0.02 0.01 0.03 0.07 0.08 0.24 0.09 0.25 0.25 0.23 0.07 0.27 0.28 0.10 0.22 0.39 0.59 0.98 0.50 0.41 0.55 0.58 1.05 0.58 0.49 0.77 0.76 0.42 0.43 1.04 0.43
0.78 0.83 1.30 1.07 0.76 0.35 0.89 2.03 0.62 1.45 1.58 0.33 0.18 0.02 0.00 0.00 0.00 0.01 0.00 0.01 0.01 0.04 0.05 0.10 0.07 0.29 0.50 0.25 0.24 0.15 0.09 0.04 0.19 0.25 0.18 0.29 0.35 0.46 0.72 0.78 1.02 0.84 0.75 1.31 0.60 0.23 0.19 0.29 0.23
0.56 0.67 0.92 1.09 0.38 0.39 0.60 0.94 0.78 0.97 0.69 0.33 0.25 0.04 0.01 0.01 0.01 0.02 0.01 0.00 0.00 0.01 0.03 0.04 0.04 0.18 0.39 0.45 0.18 0.23 0.09 0.05 0.03 0.07 0.17 0.41 0.34 0.42 0.61 0.54 0.81 0.62 0.53 1.09 0.31 0.23 0.14 0.04 0.03
0.39 0.55 0.99 1.42 1.05 0.74 0.66 0.80 0.53 0.62 0.42 0.43 0.28 0.03 0.00 0.01 0.00 0.01 0.02 0.00 0.00 0.01 0.00 0.01 0.02 0.09 0.26 0.61 0.35 0.15 0.14 0.02 0.02 0.12 0.22 0.41 0.32 0.55 0.63 0.65 0.40 0.35 0.39 0.36 0.28 0.25 0.35 0.02 0.00
0.31 0.57 0.99 1.34 1.77 1.73 1.14 1.88 1.28 0.63 0.55 0.37 0.16 0.02 0.00 0.00 0.00 0.00 0.00 0.00 0.00 0.00 0.00 0.00 0.01 0.05 0.07 0.23 0.19 0.07 0.15 0.06 0.05 0.09 0.30 0.46 0.42 0.59 0.75 0.54 0.45 0.50 0.40 0.26 0.28 0.17 0.28 0.03 0.01
0.45 0.57 1.16 1.99 1.98 2.26 1.50 2.66 2.19 1.44 1.72 0.30 0.11 0.01 0.00 0.00 0.00 0.00 0.00 0.00 0.00 0.00 0.00 0.00 0.00 0.01 0.02 0.07 0.07 0.07 0.04 0.09 0.06 0.18 0.11 0.25 0.47 0.51 0.64 0.59 0.53 0.59 0.96 0.40 0.31 0.22 0.11 0.01 0.01
0.63 0.72 0.96 2.69 2.69 2.78 2.14 2.95 2.84 1.34 1.06 0.32 0.13 0.04 0.00 0.01 0.00 0.00 0.00 0.00 0.00 0.00 0.00 0.00 0.00 0.00 0.01 0.02 0.04 0.10 0.08 0.14 0.17 0.21 0.29 0.24 0.27 0.46 1.02 0.82 0.62 0.42 0.43 0.35 0.19 0.17 0.05 0.01 0.00
0.42 0.81 0.87 1.60 3.07 2.95 2.53 2.76 2.74 1.67 1.22 0.79 0.29 0.10 0.03 0.01 0.00 0.00 0.00 0.00 0.00 0.00 0.00 0.00 0.01 0.00 0.07 0.18 0.24 0.19 0.15 0.20 0.16 0.16 0.41 0.43 0.37 0.54 0.83 0.73 0.79 0.48 0.51 0.46 0.41 0.12 0.02 0.03 0.01
0.39 0.71 1.25 1.38 2.18 3.35 2.92 2.21 2.58 1.25 0.89 1.14 0.54 0.17 0.07 0.01 0.01 0.00 0.00 0.00 0.00 0.00 0.00 0.00 0.01 0.08 0.13 0.14 0.09 0.11 0.19 0.08 0.15 0.27 0.36 0.48 0.42 0.42 0.56 0.67 0.71 0.93 0.84 0.87 0.31 0.12 0.03 0.01 0.00
0.11 0.37 1.39 1.61 2.00 1.92 2.71 2.03 2.02 1.93 0.99 0.75 0.75 0.27 0.10 0.03 0.01 0.00 0.00 0.00 0.01 0.00 0.00 0.00 0.07 0.14 0.13 0.08 0.14 0.14 0.12 0.12 0.18 0.38 0.44 0.22 0.32 0.40 0.32 0.64 0.47 0.67 0.62 0.45 0.37 0.47 0.30 0.55 0.04
0.13 0.14 0.88 1.93 1.82 1.86 1.68 2.24 1.73 1.85 1.77 0.93 0.92 0.51 0.30 0.04 0.04 0.00 0.00 0.00 0.02 0.01 0.00 0.00 0.06 0.16 0.15 0.19 0.17 0.47 0.56 0.63 0.73 0.53 0.28 0.15 0.22 0.24 0.34 0.47 0.64 0.67 0.62 0.59 0.32 0.18 0.24 0.49 0.08
0.16 0.16 0.41 1.18 1.43 1.45 1.35 1.42 1.53 1.24 1.61 1.93 1.26 0.43 0.22 0.09 0.06 0.04 0.00 0.01 0.01 0.01 0.00 0.00 0.02 0.17 0.16 0.16 0.23 0.50 0.60 0.61 0.49 0.39 0.55 0.34 0.13 0.14 0.17 0.23 0.35 0.51 1.15 1.12 0.40 0.28 0.21 0.21 0.39
0.04 0.07 0.25 0.66 0.97 0.92 0.80 0.76 0.72 1.12 1.22 1.72 1.34 0.39 0.28 0.21 0.10 0.08 0.02 0.03 0.04 0.00 0.00 0.00 0.00 0.15 0.15 0.22 0.55 0.31 0.20 0.43 0.43 0.42 1.00 0.50 0.28 0.12 0.14 0.15 0.32 0.26 0.39 0.38 0.37 0.28 0.18 0.16 0.25
0.02 0.06 0.09 0.31 0.96 0.58 0.25 0.35 0.35 0.70 0.81 1.06 0.91 0.63 0.36 0.13 0.15 0.15 0.06 0.05 0.04 0.01 0.00 0.00 0.00 0.04 0.12 0.19 0.18 0.32 0.45 0.60 0.99 1.13 0.94 0.39 0.22 0.16 0.11 0.10 0.24 0.30 0.45 0.42 0.24 0.21 0.11 0.08 0.13
0.01 0.02 0.16 0.23 0.49 0.43 0.12 0.16 0.30 0.13 0.65 0.76 0.67 0.58 0.40 0.25 0.24 0.18 0.09 0.09 0.09 0.02 0.00 0.00 0.00 0.01 0.04 0.11 0.08 0.17 0.29 0.48 0.80 0.92 0.47 0.44 0.57 0.59 0.32 0.40 0.47 0.22 0.19 0.23 0.20 0.28 0.18 0.06 0.06
0.01 0.01 0.02 0.05 0.11 0.23 0.20 0.36 0.14 0.05 0.15 0.25 0.27 0.24 0.53 0.37 0.36 0.39 0.26 0.24 0.30 0.16 0.02 0.06 0.02 0.02 0.01 0.08 0.07 0.13 0.22 0.21 0.32 0.45 0.69 0.67 0.73 0.80 0.45 0.48 0.41 0.28 0.14 0.09 0.15 0.10 0.05 0.06 0.04
0.02 0.01 0.03 0.04 0.07 0.12 0.29 0.45 0.15 0.14 0.22 0.08 0.14 0.19 0.34 0.63 0.74 0.51 0.28 0.44 0.81 0.52 0.27 0.07 0.08 0.07 0.06 0.04 0.07 0.17 0.20 0.16 0.16 0.41 0.59 0.51 0.66 0.83 0.95 0.47 0.37 0.26 0.20 0.10 0.13 0.09 0.11 0.19 0.20
0.00 0.06 0.07 0.06 0.08 0.08 0.26 0.77 0.43 0.15 0.12 0.15 0.14 0.19 0.17 0.64 1.57 1.74 1.27 0.68 0.82 1.28 1.11 0.72 0.23 0.15 0.22 0.08 0.12 0.25 0.16 0.16 0.22 0.28 0.44 0.57 0.73 1.88 1.69 0.79 0.42 0.37 0.27 0.29 0.23 0.10 0.06 0.08 0.09
0.00 0.02 0.05 0.04 0.03 0.03 0.14 0.29 0.27 0.26 0.13 0.08 0.12 0.23 0.27 0.42 1.38 2.68 2.63 2.19 1.21 1.56 1.05 1.76 0.98 0.76 0.69 0.57 0.50 0.62 0.33 0.16 0.17 0.23 0.36 0.53 0.64 0.76 0.83 1.30 0.52 0.61 0.51 0.32 0.41 0.36 0.25 0.23 0.15
0.00 0.00 0.00 0.02 0.01 0.02 0.03 0.20 0.26 0.38 0.19 0.10 0.27 0.31 0.30 0.45 0.81 1.55 2.19 2.39 1.91 1.71 1.21 1.39 2.08 1.50 1.29 1.20 1.36 0.94 0.94 0.77 0.46 0.32 0.31 0.43 0.53 0.58 0.70 0.63 0.73 0.78 0.52 0.59 0.54 0.54 0.46 0.47 0.31

GFSSGP_prec_precacc_132.txt.gz
Total_Precipitation_Accumulation
0.05 0.19 0.54 1.42 3.40 1.97 2.68 1.74 1.98 1.11 0.40 0.22 0.12 0.16 0.26 0.29 0.55 0.65 0.19 0.36 0.18 0.24 0.18 0.84 1.36 1.09 0.97 0.70 0.62 0.52 0.39 0.31 0.34 0.36 0.34 0.28 0.30 0.36 0.59 0.53 0.55 0.57 0.49 0.42 0.40 0.46 0.58 0.45 0.38
0.10 0.49 1.30 3.75 3.01 3.34 3.93 2.21 2.28 1.25 0.55 0.40 0.17 0.12 0.12 0.08 0.15 0.06 0.15 0.22 0.07 0.05 0.11 0.26 1.07 0.94 0.85 0.61 0.47 0.35 0.41 0.39 0.43 0.47 0.41 0.41 0.69 0.64 0.54 0.35 0.45 0.61 0.62 0.65 0.62 0.56 0.56 0.49 0.63
0.15 1.27 3.50 4.12 1.87 2.79 2.41 2.77 3.05 1.27 0.58 0.39 0.32 0.30 0.19 0.21 0.08 0.06 0.10 0.10 0.09 0.09 0.05 0.15 0.50 0.57 0.52 0.52 0.51 0.43 0.41 0.33 0.44 0.47 0.44 0.59 0.66 0.56 0.40 0.47 0.49 0.61 0.58 0.57 0.69 0.62 0.70 0.71 0.95
0.33 3.28 4.40 3.64 3.12 2.66 1.50 1.60 1.58 2.04 1.11 0.80 0.48 0.31 0.22 0.21 0.02 0.03 0.08 0.11 0.10 0.24 0.04 0.12 0.24 0.29 0.32 0.35 0.31 0.44 0.48 0.43 0.44 0.44 0.37 0.50 0.57 0.50 0.56 0.57 0.52 0.41 0.38 0.38 0.42 0.43 0.46 0.56 0.71
0.55 3.02 3.87 3.79 2.94 1.74 1.23 1.44 2.81 3.59 1.96 1.44 0.45 0.25 0.18 0.10 0.01 0.01 0.03 0.07 0.12 0.62 0.07 0.07 0.54 0.34 0.27 0.32 0.55 0.64 0.48 0.44 0.48 0.55 0.49 0.62 0.56 0.45 0.63 0.50 0.53 0.41 0.22 0.22 0.23 0.20 0.40 0.54 0.92
1.46 2.91 3.41 3.21 1.40 0.93 1.53 1.81 2.19 2.07 1.36 0.60 0.39 0.17 0.18 0.07 0.03 0.02 0.08 0.12 0.28 0.22 0.04 0.04 0.38 0.35 0.37 0.34 0.61 0.54 0.43 0.46 0.49 0.43 0.51 0.47 0.73 0.49 0.54 0.48 0.24 0.08 0.04 0.12 0.12 0.42 0.63 0.85 0.81
1.65 4.36 3.18 1.91 1.19 1.26 1.47 1.44 1.44 1.54 0.83 0.41 0.37 0.10 0.14 0.09 0.06 0.05 0.16 0.15 0.13 0.09 0.06 0.05 0.11 0.25 0.34 0.48 0.64 0.50 0.37 0.38 0.34 0.31 0.33 0.31 0.37 0.44 0.52 0.36 0.17 0.07 0.11 0.21 0.22 0.36 0.49 0.66 0.47
1.03 3.13 4.28 2.12 0.94 2.23 1.46 1.21 1.35 1.12 0.75 0.26 0.18 0.09 0.06 0.04 0.15 0.25 0.30 0.23 0.32 0.32 0.19 0.10 0.05 0.16 0.17 0.36 0.68 0.38 0.24 0.31 0.24 0.22 0.46 0.64 0.34 0.42 0.45 0.45 0.33 0.16 0.15 0.16 0.23 0.35 0.46 0.62 0.55
1.46 4.82 3.76 2.18 0.75 2.16 1.18 1.22 1.03 0.82 0.29 0.23 0.24 0.08 0.00 0.00 0.05 0.08 0.07 0.17 0.26 0.40 0.20 0.21 0.12 0.18 0.58 0.39 0.55 0.57 0.49 0.48 0.40 0.52 0.93 1.51 0.56 0.78 0.89 0.50 0.22 0.16 0.19 0.17 0.24 0.26 0.45 0.46 0.32
2.28 4.04 2.28 1.10 0.32 0.76 1.88 1.30 1.07 0.73 0.43 0.28 0.19 0.06 0.01 0.01 0.01 0.03 0.02 0.04 0.16 0.19 0.45 0.37 0.14 0.10 0.20 0.25 0.49 0.64 0.43 0.40 0.50 0.53 0.81 1.22 0.56 0.52 0.37 0.38 0.34 0.29 0.32 0.40 0.45 0.43 0.59 1.00 0.46
2.00 3.52 1.74 0.45 0.38 0.40 1.21 0.99 0.64 0.77 0.45 0.21 0.09 0.05 0.01 0.00 0.00 0.02 0.02 0.02 0.04 0.08 0.11 0.32 0.10 0.25 0.25 0.23 0.07 0.29 0.29 0.11 0.22 0.39 0.59 0.98 0.50 0.41 0.55 0.58 1.05 0.58 0.49 0.77 0.76 0.42 0.43 1.04 0.43
0.83 0.89 1.37 1.08 0.76 0.35 0.90 2.04 0.63 1.46 1.58 0.33 0.18 0.02 0.00 0.00 0.00 0.01 0.00 0.02 0.03 0.04 0.07 0.13 0.12 0.29 0.50 0.31 0.30 0.19 0.10 0.04 0.19 0.25 0.18 0.29 0.35 0.46 0.72 0.78 1.02 0.84 0.75 1.31 0.60 0.23 0.19 0.29 0.23
0.56 0.67 0.93 1.09 0.38 0.40 0.60 0.95 0.79 0.97 0.70 0.34 0.25 0.04 0.01 0.01 0.01 0.02 0.01 0.02 0.02 0.02 0.05 0.07 0.05 0.20 0.40 0.46 0.19 0.28 0.10 0.06 0.03 0.07 0.17 0.41 0.34 0.42 0.61 0.54 0.81 0.62 0.53 1.09 0.31 0.23 0.14 0.04 0.03
0.39 0.58 1.02 1.44 1.06 0.74 0.66 0.81 0.54 0.62 0.42 0.43 0.28 0.03 0.00 0.01 0.00 0.01 0.02 0.01 0.02 0.02 0.00 0.03 0.04 0.10 0.27 0.61 0.36 0.15 0.16 0.02 0.02 0.12 0.23 0.41 0.32 0.55 0.63 0.65 0.40 0.35 0.39 0.36 0.28 0.25 0.35 0.02 0.00
0.31 0.58 1.06 1.45 1.82 1.73 1.14 1.88 1.28 0.64 0.56 0.37 0.16 0.02 0.00 0.00 0.00 0.00 0.00 0.00 0.00 0.00 0.00 0.00 0.01 0.06 0.13 0.25 0.19 0.09 0.17 0.06 0.05 0.10 0.32 0.46 0.42 0.59 0.75 0.54 0.45 0.50 0.40 0.26 0.28 0.17 0.28 0.03 0.01
0.45 0.58 1.23 2.15 2.06 2.27 1.50 2.66 2.19 1.44 1.72 0.30 0.11 0.01 0.00 0.00 0.00 0.00 0.00 0.00 0.00 0.00 0.00 0.00 0.00 0.02 0.09 0.11 0.07 0.08 0.06 0.09 0.06 0.19 0.12 0.25 0.47 0.51 0.64 0.59 0.53 0.59 0.96 0.40 0.31 0.22 0.11 0.01 0.01
0.63 0.72 0.96 2.69 2.72 2.80 2.14 2.95 2.84 1.34 1.06 0.32 0.13 0.04 0.00 0.01 0.00 0.00 0.00 0.00 0.00 0.00 0.00 0.01 0.00 0.01 0.05 0.05 0.10 0.15 0.08 0.14 0.17 0.23 0.29 0.24 0.28 0.46 1.03 0.83 0.62 0.42 0.43 0.35 0.19 0.18 0.05 0.01 0.00
0.42 0.81 0.87 1.60 3.08 2.97 2.53 2.76 2.74 1.67 1.22 0.79 0.29 0.10 0.03 0.01 0.00 0.00 0.00 0.00 0.00 0.00 0.00 0.00 0.01 0.00 0.07 0.19 0.31 0.23 0.18 0.20 0.16 0.16 0.41 0.43 0.37 0.54 0.84 0.73 0.79 0.48 0.51 0.46 0.41 0.12 0.02 0.03 0.01
0.39 0.71 1.25 1.38 2.18 3.36 2.92 2.21 2.58 1.25 0.89 1.14 0.54 0.17 0.07 0.01 0.01 0.00 0.00 0.00 0.00 0.00 0.00 0.00 0.02 0.08 0.13 0.14 0.10 0.12 0.21 0.10 0.16 0.28 0.36 0.48 0.42 0.42 0.57 0.69 0.71 0.93 0.84 0.87 0.31 0.12 0.03 0.01 0.00
0.11 0.37 1.39 1.61 2.00 1.93 2.71 2.03 2.02 1.93 0.99 0.75 0.75 0.27 0.10 0.03 0.01 0.00 0.00 0.00 0.01 0.00 0.00 0.00 0.07 0.14 0.13 0.08 0.14 0.15 0.13 0.12 0.21 0.38 0.44 0.22 0.32 0.41 0.34 0.65 0.47 0.67 0.62 0.45 0.37 0.47 0.30 0.55 0.04
0.13 0.14 0.88 1.93 1.82 1.86 1.68 2.24 1.73 1.85 1.77 0.93 0.92 0.51 0.30 0.04 0.04 0.00 0.00 0.00 0.02 0.01 0.00 0.00 0.06 0.16 0.15 0.19 0.18 0.49 0.58 0.65 0.77 0.53 0.28 0.15 0.22 0.24 0.35 0.48 0.65 0.67 0.62 0.59 0.32 0.18 0.24 0.49 0.08
0.16 0.16 0.41 1.18 1.43 1.45 1.35 1.42 1.53 1.24 1.61 1.93 1.26 0.43 0.22 0.09 0.06 0.04 0.00 0.01 0.01 0.01 0.00 0.00 0.02 0.17 0.16 0.16 0.23 0.50 0.60 0.61 0.49 0.39 0.55 0.34 0.13 0.14 0.17 0.24 0.35 0.51 1.15 1.12 0.40 0.28 0.21 0.21 0.39
0.04 0.07 0.25 0.66 0.97 0.92 0.80 0.76 0.72 1.12 1.22 1.72 1.34 0.39 0.28 0.21 0.10 0.08 0.02 0.03 0.04 0.00 0.00 0.00 0.00 0.15 0.15 0.22 0.57 0.34 0.20 0.44 0.43 0.42 1.00 0.50 0.28 0.12 0.14 0.16 0.32 0.26 0.39 0.38 0.37 0.29 0.18 0.16 0.25
0.02 0.06 0.09 0.31 0.96 0.58 0.25 0.35 0.35 0.70 0.81 1.06 0.91 0.63 0.36 0.13 0.15 0.15 0.06 0.05 0.04 0.01 0.00 0.00 0.00 0.04 0.12 0.19 0.18 0.32 0.45 0.61 0.99 1.13 0.94 0.39 0.22 0.16 0.11 0.10 0.24 0.30 0.45 0.42 0.24 0.21 0.11 0.08 0.13
0.01 0.02 0.16 0.23 0.49 0.43 0.12 0.16 0.30 0.13 0.65 0.76 0.67 0.58 0.40 0.25 0.24 0.18 0.09 0.10 0.09 0.02 0.00 0.00 0.00 0.01 0.04 0.11 0.08 0.17 0.29 0.48 0.80 0.92 0.47 0.44 0.57 0.59 0.32 0.40 0.47 0.22 0.19 0.23 0.20 0.28 0.18 0.06 0.07
0.01 0.01 0.02 0.05 0.11 0.23 0.20 0.36 0.14 0.05 0.15 0.25 0.27 0.24 0.53 0.37 0.36 0.39 0.26 0.24 0.32 0.16 0.02 0.06 0.02 0.02 0.01 0.08 0.07 0.13 0.22 0.21 0.32 0.45 0.69 0.67 0.73 0.80 0.45 0.48 0.41 0.28 0.14 0.09 0.15 0.10 0.05 0.06 0.04
0.02 0.01 0.03 0.04 0.07 0.12 0.29 0.45 0.15 0.14 0.22 0.08 0.14 0.19 0.34 0.63 0.74 0.51 0.28 0.44 0.83 0.53 0.27 0.07 0.08 0.07 0.06 0.04 0.07 0.17 0.20 0.16 0.16 0.41 0.59 0.51 0.66 0.83 0.95 0.47 0.37 0.26 0.20 0.10 0.13 0.09 0.11 0.19 0.20
0.00 0.06 0.07 0.06 0.08 0.08 0.27 0.78 0.43 0.15 0.12 0.15 0.14 0.19 0.17 0.66 1.61 1.81 1.36 0.71 0.82 1.28 1.11 0.72 0.23 0.15 0.22 0.08 0.12 0.25 0.16 0.16 0.22 0.28 0.44 0.57 0.73 1.88 1.69 0.80 0.43 0.37 0.27 0.29 0.23 0.10 0.06 0.08 0.09
0.00 0.02 0.05 0.04 0.03 0.03 0.14 0.29 0.27 0.26 0.13 0.08 0.12 0.23 0.28 0.43 1.40 2.69 2.70 2.23 1.23 1.56 1.05 1.76 0.98 0.76 0.69 0.57 0.50 0.62 0.33 0.16 0.17 0.23 0.36 0.53 0.64 0.76 0.83 1.30 0.53 0.64 0.53 0.34 0.42 0.37 0.25 0.23 0.15
0.00 0.00 0.00 0.02 0.01 0.02 0.03 0.20 0.26 0.38 0.19 0.10 0.27 0.31 0.31 0.47 0.83 1.59 2.26 2.47 1.91 1.72 1.22 1.39 2.08 1.50 1.29 1.20 1.36 0.94 0.94 0.77 0.46 0.32 0.31 0.43 0.54 0.58 0.70 0.64 0.78 0.81 0.56 0.63 0.54 0.54 0.47 0.47 0.31

GFSSGP_prec_precacc_135.txt.gz
Total_Precipitation_Accumulation
0.05 0.19 0.54 1.42 3.40 1.97 2.68 1.74 1.98 1.11 0.40 0.22 0.12 0.16 0.27 0.29 0.55 0.65 0.19 0.36 0.18 0.24 0.18 0.92 1.43 1.10 1.04 0.80 0.70 0.53 0.40 0.34 0.38 0.37 0.34 0.28 0.32 0.38 0.60 0.54 0.55 0.57 0.49 0.42 0.40 0.47 0.59 0.45 0.38
0.10 0.49 1.30 3.75 3.01 3.34 3.93 2.21 2.28 1.25 0.55 0.40 0.17 0.12 0.12 0.08 0.16 0.06 0.15 0.22 0.07 0.05 0.12 0.32 1.12 1.02 0.92 0.65 0.51 0.40 0.44 0.46 0.48 0.51 0.42 0.41 0.69 0.64 0.56 0.37 0.51 0.63 0.63 0.65 0.62 0.57 0.57 0.49 0.64
0.15 1.27 3.50 4.12 1.87 2.79 2.41 2.77 3.05 1.27 0.58 0.39 0.32 0.30 0.19 0.21 0.08 0.06 0.10 0.10 0.09 0.10 0.09 0.21 0.53 0.64 0.53 0.57 0.59 0.51 0.51 0.40 0.51 0.51 0.44 0.59 0.66 0.56 0.43 0.50 0.50 0.62 0.59 0.58 0.71 0.62 0.70 0.72 0.98
0.33 3.29 4.42 3.64 3.14 2.66 1.50 1.60 1.58 2.04 1.11 0.80 0.48 0.31 0.22 0.21 0.02 0.03 0.08 0.11 0.10 0.25 0.09 0.16 0.30 0.36 0.38 0.45 0.39 0.50 0.54 0.48 0.47 0.45 0.38 0.51 0.58 0.51 0.58 0.59 0.53 0.43 0.39 0.39 0.43 0.43 0.47 0.59 0.73
0.56 3.02 3.88 3.82 2.96 1.74 1.23 1.44 2.81 3.59 1.96 1.44 0.45 0.25 0.18 0.10 0.01 0.01 0.03 0.07 0.12 0.62 0.11 0.13 0.61 0.41 0.36 0.41 0.61 0.68 0.49 0.46 0.49 0.58 0.55 0.64 0.57 0.47 0.64 0.50 0.53 0.42 0.22 0.22 0.23 0.20 0.41 0.57 0.94
1.46 2.91 3.43 3.32 1.49 0.95 1.53 1.81 2.19 2.07 1.36 0.60 0.39 0.17 0.18 0.07 0.03 0.02 0.08 0.12 0.28 0.22 0.05 0.05 0.39 0.39 0.41 0.37 0.65 0.55 0.43 0.46 0.49 0.48 0.65 0.60 0.83 0.59 0.55 0.48 0.24 0.08 0.04 0.12 0.12 0.42 0.63 0.87 0.82
1.65 4.36 3.24 2.18 1.33 1.37 1.48 1.46 1.44 1.54 0.83 0.41 0.37 0.10 0.14 0.09 0.07 0.06 0.16 0.16 0.13 0.09 0.07 0.06 0.11 0.25 0.34 0.52 0.68 0.52 0.37 0.38 0.35 0.35 0.43 0.36 0.40 0.44 0.53 0.36 0.17 0.07 0.11 0.21 0.22 0.36 0.49 0.66 0.47
1.03 3.14 4.42 2.51 1.03 2.31 1.47 1.22 1.35 1.12 0.75 0.26 0.18 0.09 0.06 0.04 0.17 0.27 0.30 0.24 0.36 0.33 0.20 0.10 0.07 0.16 0.21 0.37 0.69 0.39 0.24 0.32 0.25 0.24 0.46 0.65 0.34 0.42 0.45 0.46 0.33 0.16 0.15 0.16 0.23 0.35 0.46 0.62 0.55
1.46 4.83 3.84 2.23 0.77 2.20 1.24 1.23 1.03 0.82 0.29 0.23 0.24 0.08 0.00 0.00 0.05 0.09 0.07 0.18 0.27 0.41 0.20 0.24 0.21 0.21 0.68 0.44 0.56 0.57 0.49 0.48 0.40 0.53 0.93 1.52 0.60 0.79 0.89 0.50 0.22 0.16 0.19 0.17 0.24 0.26 0.45 0.46 0.32
2.30 4.06 2.29 1.11 0.32 0.77 1.95 1.32 1.07 0.73 0.43 0.28 0.19 0.06 0.01 0.01 0.01 0.03 0.02 0.05 0.16 0.19 0.45 0.37 0.16 0.13 0.23 0.26 0.49 0.64 0.43 0.41 0.50 0.53 0.81 1.23 0.57 0.52 0.37 0.38 0.34 0.29 0.32 0.40 0.45 0.43 0.59 1.00 0.46
2.01 3.57 1.74 0.46 0.38 0.40 1.22 1.00 0.65 0.77 0.45 0.21 0.09 0.05 0.01 0.00 0.00 0.02 0.02 0.02 0.04 0.08 0.11 0.32 0.10 0.25 0.25 0.23 0.07 0.29 0.29 0.12 0.24 0.41 0.59 0.98 0.50 0.41 0.55 0.58 1.05 0.59 0.49 0.77 0.76 0.42 0.43 1.04 0.43
0.84 0.91 1.37 1.08 0.77 0.37 0.91 2.04 0.63 1.46 1.58 0.33 0.18 0.02 0.00 0.00 0.00 0.01 0.00 0.02 0.03 0.04 0.07 0.13 0.12 0.29 0.50 0.31 0.30 0.19 0.10 0.04 0.19 0.25 0.18 0.29 0.35 0.46 0.72 0.78 1.02 0.84 0.75 1.31 0.60 0.23 0.19 0.29 0.23
0.57 0.67 0.95 1.09 0.38 0.40 0.60 0.96 0.79 0.97 0.70 0.34 0.25 0.04 0.01 0.01 0.01 0.02 0.01 0.03 0.02 0.02 0.05 0.07 0.05 0.20 0.40 0.47 0.20 0.28 0.10 0.06 0.03 0.07 0.17 0.41 0.34 0.42 0.61 0.54 0.81 0.62 0.53 1.09 0.31 0.23 0.14 0.04 0.03
0.40 0.61 1.05 1.44 1.06 0.74 0.66 0.81 0.54 0.62 0.42 0.43 0.28 0.03 0.00 0.01 0.00 0.01 0.02 0.02 0.03 0.02 0.00 0.03 0.04 0.12 0.28 0.61 0.36 0.15 0.16 0.02 0.02 0.12 0.23 0.41 0.32 0.55 0.63 0.65 0.40 0.35 0.39 0.36 0.28 0.25 0.35 0.02 0.00
0.32 0.60 1.07 1.45 1.82 1.73 1.14 1.88 1.28 0.64 0.56 0.37 0.16 0.02 0.00 0.00 0.00 0.00 0.00 0.00 0.00 0.00 0.00 0.00 0.01 0.09 0.13 0.25 0.20 0.09 0.17 0.06 0.05 0.10 0.32 0.46 0.42 0.59 0.75 0.54 0.45 0.50 0.40 0.26 0.28 0.17 0.28 0.03 0.01
0.50 0.61 1.23 2.15 2.07 2.28 1.50 2.66 2.19 1.44 1.72 0.30 0.11 0.01 0.00 0.00 0.00 0.00 0.00 0.00 0.00 0.00 0.00 0.00 0.00 0.02 0.09 0.11 0.07 0.09 0.06 0.09 0.06 0.21 0.13 0.25 0.47 0.51 0.64 0.59 0.54 0.59 0.96 0.40 0.31 0.22 0.11 0.01 0.01
0.68 0.74 0.96 2.69 2.72 2.81 2.15 2.95 2.84 1.34 1.06 0.33 0.13 0.04 0.00 0.01 0.00 0.00 0.00 0.00 0.00 0.00 0.00 0.01 0.00 0.01 0.05 0.05 0.10 0.15 0.09 0.14 0.17 0.23 0.30 0.25 0.28 0.46 1.03 0.83 0.62 0.42 0.43 0.35 0.19 0.18 0.05 0.01 0.00
0.42 0.81 0.87 1.60 3.08 2.97 2.53 2.76 2.74 1.67 1.23 0.79 0.29 0.10 0.03 0.01 0.00 0.00 0.00 0.00 0.00 0.00 0.00 0.00 0.01 0.00 0.07 0.19 0.31 0.23 0.18 0.20 0.17 0.18 0.41 0.44 0.37 0.54 0.84 0.73 0.79 0.48 0.51 0.46 0.41 0.12 0.02 0.03 0.01
0.39 0.71 1.25 1.38 2.18 3.36 2.92 2.21 2.58 1.25 0.89 1.14 0.54 0.17 0.07 0.01 0.01 0.01 0.00 0.00 0.00 0.00 0.00 0.00 0.02 0.08 0.13 0.14 0.10 0.12 0.21 0.12 0.16 0.28 0.36 0.48 0.42 0.42 0.57 0.69 0.71 0.93 0.84 0.87 0.31 0.12 0.03 0.01 0.00
0.11 0.37 1.39 1.61 2.00 1.93 2.71 2.03 2.02 1.93 0.99 0.75 0.75 0.27 0.10 0.03 0.01 0.00 0.00 0.00 0.01 0.00 0.00 0.00 0.07 0.14 0.13 0.08 0.14 0.15 0.13 0.12 0.21 0.38 0.44 0.22 0.32 0.41 0.34 0.65 0.47 0.67 0.62 0.45 0.37 0.47 0.30 0.55 0.04
0.13 0.14 0.88 1.93 1.83 1.88 1.68 2.24 1.73 1.85 1.77 0.93 0.92 0.51 0.30 0.04 0.04 0.00 0.00 0.00 0.02 0.01 0.00 0.00 0.06 0.16 0.15 0.20 0.18 0.49 0.58 0.65 0.78 0.54 0.31 0.16 0.22 0.24 0.36 0.48 0.65 0.67 0.62 0.59 0.32 0.18 0.24 0.49 0.08
0.16 0.16 0.41 1.18 1.43 1.46 1.35 1.42 1.53 1.24 1.61 1.93 1.26 0.43 0.22 0.09 0.06 0.04 0.00 0.01 0.01 0.01 0.00 0.00 0.02 0.17 0.16 0.16 0.23 0.50 0.60 0.61 0.49 0.39 0.55 0.34 0.13 0.14 0.18 0.26 0.36 0.51 1.15 1.12 0.40 0.28 0.21 0.21 0.39
0.04 0.07 0.25 0.66 0.97 0.92 0.80 0.76 0.72 1.12 1.22 1.72 1.34 0.39 0.28 0.21 0.10 0.08 0.02 0.03 0.04 0.00 0.00 0.00 0.00 0.15 0.15 0.22 0.57 0.34 0.20 0.44 0.43 0.42 1.00 0.50 0.28 0.12 0.17 0.20 0.34 0.26 0.39 0.38 0.37 0.29 0.18 0.16 0.25
0.02 0.06 0.09 0.31 0.96 0.58 0.25 0.35 0.35 0.70 0.81 1.06 0.91 0.63 0.36 0.13 0.15 0.15 0.07 0.05 0.04 0.01 0.00 0.00 0.00 0.04 0.12 0.19 0.18 0.32 0.45 0.61 0.99 1.13 0.94 0.39 0.22 0.16 0.12 0.13 0.27 0.31 0.45 0.43 0.25 0.21 0.11 0.08 0.13
0.01 0.02 0.16 0.23 0.49 0.43 0.12 0.16 0.30 0.13 0.65 0.76 0.67 0.58 0.40 0.25 0.24 0.18 0.10 0.13 0.10 0.02 0.00 0.00 0.00 0.01 0.04 0.11 0.08 0.17 0.29 0.48 0.80 0.92 0.47 0.44 0.57 0.59 0.32 0.40 0.50 0.26 0.20 0.23 0.20 0.28 0.18 0.06 0.07
0.01 0.01 0.02 0.05 0.11 0.23 0.20 0.36 0.14 0.05 0.15 0.25 0.27 0.24 0.53 0.37 0.36 0.39 0.26 0.28 0.38 0.18 0.02 0.06 0.02 0.02 0.01 0.08 0.07 0.13 0.22 0.21 0.32 0.46 0.69 0.67 0.73 0.80 0.45 0.49 0.42 0.31 0.17 0.09 0.15 0.10 0.05 0.06 0.04
0.02 0.01 0.03 0.04 0.07 0.12 0.29 0.45 0.15 0.14 0.22 0.08 0.14 0.19 0.34 0.64 0.74 0.51 0.28 0.45 0.88 0.57 0.28 0.07 0.08 0.07 0.06 0.04 0.07 0.17 0.20 0.16 0.16 0.43 0.59 0.51 0.66 0.83 0.95 0.47 0.37 0.29 0.24 0.11 0.13 0.09 0.11 0.19 0.20
0.00 0.06 0.07 0.06 0.08 0.08 0.27 0.78 0.43 0.15 0.12 0.15 0.14 0.19 0.17 0.67 1.61 1.81 1.37 0.72 0.83 1.34 1.14 0.72 0.23 0.15 0.22 0.08 0.12 0.25 0.16 0.16 0.22 0.28 0.44 0.57 0.73 1.88 1.69 0.81 0.44 0.38 0.29 0.31 0.24 0.10 0.06 0.08 0.09
0.00 0.02 0.05 0.04 0.03 0.03 0.14 0.29 0.27 0.26 0.13 0.08 0.12 0.23 0.28 0.43 1.41 2.70 2.72 2.29 1.27 1.61 1.10 1.78 0.98 0.76 0.69 0.57 0.50 0.62 0.33 0.16 0.17 0.23 0.36 0.53 0.64 0.76 0.84 1.31 0.54 0.66 0.57 0.36 0.42 0.37 0.26 0.23 0.15
0.00 0.00 0.00 0.02 0.01 0.02 0.03 0.20 0.26 0.38 0.19 0.10 0.27 0.31 0.31 0.47 0.83 1.59 2.29 2.52 1.95 1.74 1.26 1.43 2.09 1.50 1.29 1.22 1.36 0.94 0.94 0.77 0.46 0.32 0.31 0.43 0.55 0.59 0.70 0.66 0.81 0.89 0.61 0.69 0.56 0.54 0.48 0.47 0.31

GFSSGP_prec_precacc_138.txt.gz
Total_Precipitation_Accumulation
0.05 0.19 0.54 1.42 3.40 1.97 2.68 1.74 1.98 1.11 0.40 0.22 0.12 0.16 0.27 0.29 0.56 0.65 0.19 0.36 0.18 0.24 0.18 1.03 1.51 1.21 1.17 0.84 0.72 0.58 0.49 0.41 0.44 0.42 0.34 0.28 0.33 0.38 0.60 0.54 0.56 0.59 0.53 0.43 0.42 0.62 0.62 0.47 0.38
0.10 0.49 1.30 3.75 3.01 3.34 3.93 2.21 2.28 1.25 0.55 0.40 0.17 0.12 0.12 0.08 0.17 0.06 0.15 0.22 0.07 0.05 0.12 0.33 1.16 1.10 0.99 0.77 0.62 0.53 0.59 0.59 0.60 0.54 0.44 0.43 0.70 0.64 0.56 0.38 0.54 0.69 0.65 0.67 0.68 0.62 0.57 0.49 0.64
0.15 1.27 3.50 4.12 1.87 2.79 2.41 2.77 3.05 1.27 0.58 0.39 0.32 0.30 0.19 0.21 0.08 0.06 0.10 0.10 0.09 0.10 0.09 0.21 0.57 0.75 0.66 0.74 0.71 0.60 0.66 0.57 0.66 0.63 0.47 0.60 0.67 0.58 0.46 0.53 0.54 0.74 0.66 0.68 0.75 0.62 0.70 0.72 0.99
0.33 3.29 4.42 3.64 3.15 2.66 1.50 1.60 1.58 2.04 1.11 0.80 0.48 0.31 0.22 0.21 0.02 0.03 0.08 0.11 0.10 0.25 0.09 0.18 0.36 0.48 0.51 0.57 0.47 0.56 0.64 0.65 0.64 0.54 0.39 0.51 0.61 0.58 0.71 0.84 0.76 0.57 0.52 0.46 0.43 0.45 0.51 0.62 0.76
0.56 3.02 3.88 3.82 2.98 1.75 1.23 1.44 2.81 3.59 1.96 1.44 0.45 0.25 0.18 0.10 0.01 0.01 0.03 0.07 0.12 0.62 0.12 0.17 0.67 0.48 0.46 0.49 0.73 0.79 0.64 0.60 0.66 0.65 0.58 0.66 0.61 0.51 0.70 0.59 0.64 0.51 0.26 0.23 0.24 0.28 0.48 0.59 0.97
1.46 2.91 3.44 3.34 1.50 0.96 1.53 1.81 2.19 2.07 1.36 0.60 0.39 0.17 0.18 0.07 0.03 0.02 0.08 0.12 0.28 0.22 0.07 0.14 0.49 0.49 0.51 0.47 0.78 0.69 0.55 0.57 0.63 0.51 0.66 0.62 0.88 0.67 0.62 0.52 0.29 0.09 0.05 0.12 0.12 0.44 0.66 0.89 0.83
1.65 4.36 3.24 2.23 1.41 1.66 1.52 1.46 1.44 1.54 0.83 0.41 0.37 0.10 0.14 0.09 0.07 0.06 0.16 0.16 0.13 0.09 0.10 0.14 0.21 0.37 0.45 0.63 0.77 0.59 0.40 0.42 0.41 0.38 0.49 0.44 0.47 0.48 0.53 0.36 0.17 0.07 0.11 0.21 0.22 0.36 0.49 0.66 0.47
1.03 3.14 4.45 2.56 1.08 2.43 1.49 1.22 1.35 1.12 0.75 0.26 0.18 0.09 0.06 0.04 0.17 0.27 0.30 0.24 0.36 0.33 0.22 0.12 0.11 0.24 0.28 0.44 0.72 0.40 0.25 0.32 0.31 0.29 0.48 0.65 0.35 0.42 0.46 0.46 0.33 0.16 0.15 0.16 0.23 0.35 0.46 0.62 0.55
1.46 4.83 3.85 2.24 0.78 2.22 1.25 1.23 1.04 0.82 0.29 0.23 0.24 0.08 0.00 0.00 0.05 0.09 0.07 0.18 0.27 0.41 0.20 0.24 0.24 0.24 0.72 0.50 0.60 0.60 0.50 0.49 0.42 0.53 0.93 1.53 0.62 0.80 0.89 0.50 0.22 0.16 0.19 0.17 0.24 0.26 0.45 0.46 0.32
2.30 4.06 2.29 1.11 0.32 0.77 1.95 1.32 1.07 0.73 0.43 0.28 0.19 0.06 0.01 0.01 0.01 0.03 0.02 0.05 0.16 0.19 0.45 0.37 0.16 0.14 0.23 0.26 0.49 0.64 0.43 0.41 0.50 0.53 0.81 1.24 0.58 0.52 0.37 0.38 0.34 0.29 0.32 0.40 0.45 0.43 0.59 1.00 0.46
2.01 3.57 1.74 0.46 0.38 0.40 1.22 1.00 0.65 0.77 0.45 0.21 0.09 0.05 0.01 0.00 0.00 0.02 0.02 0.02 0.04 0.08 0.11 0.32 0.11 0.25 0.25 0.23 0.08 0.29 0.29 0.12 0.24 0.41 0.59 0.98 0.50 0.41 0.55 0.58 1.07 0.59 0.49 0.77 0.76 0.42 0.43 1.04 0.43
0.84 0.91 1.37 1.08 0.77 0.37 0.91 2.04 0.63 1.46 1.58 0.33 0.18 0.02 0.00 0.00 0.00 0.01 0.00 0.02 0.03 0.04 0.07 0.13 0.12 0.29 0.50 0.31 0.30 0.19 0.10 0.04 0.19 0.25 0.18 0.29 0.35 0.46 0.72 0.78 1.02 0.84 0.75 1.31 0.60 0.23 0.19 0.29 0.23
0.57 0.67 0.95 1.09 0.38 0.40 0.60 0.96 0.79 0.97 0.70 0.34 0.25 0.04 0.01 0.01 0.01 0.02 0.01 0.03 0.02 0.02 0.05 0.07 0.05 0.20 0.40 0.47 0.20 0.28 0.10 0.06 0.03 0.07 0.17 0.41 0.34 0.42 0.61 0.54 0.81 0.62 0.53 1.09 0.31 0.23 0.14 0.04 0.03
0.40 0.62 1.05 1.44 1.06 0.74 0.66 0.81 0.54 0.62 0.42 0.43 0.28 0.03 0.00 0.01 0.00 0.01 0.02 0.02 0.03 0.02 0.00 0.03 0.04 0.12 0.28 0.61 0.36 0.15 0.16 0.02 0.02 0.12 0.23 0.41 0.32 0.55 0.63 0.65 0.40 0.35 0.39 0.36 0.28 0.25 0.35 0.02 0.00
0.32 0.61 1.07 1.45 1.82 1.73 1.14 1.88 1.28 0.64 0.56 0.37 0.16 0.02 0.00 0.00 0.00 0.00 0.00 0.00 0.00 0.00 0.00 0.00 0.01 0.09 0.13 0.25 0.20 0.09 0.17 0.06 0.05 0.10 0.32 0.46 0.42 0.59 0.75 0.54 0.45 0.50 0.40 0.26 0.28 0.17 0.28 0.03 0.01
0.53 0.61 1.23 2.15 2.07 2.28 1.50 2.66 2.19 1.44 1.72 0.30 0.11 0.01 0.00 0.00 0.00 0.00 0.00 0.00 0.00 0.00 0.00 0.00 0.00 0.02 0.09 0.11 0.07 0.09 0.06 0.09 0.06 0.21 0.13 0.25 0.47 0.51 0.64 0.59 0.54 0.59 0.96 0.40 0.31 0.22 0.11 0.01 0.01
0.70 0.74 0.96 2.69 2.72 2.82 2.15 2.95 2.84 1.34 1.06 0.33 0.13 0.04 0.00 0.01 0.00 0.00 0.00 0.00 0.00 0.00 0.00 0.01 0.00 0.01 0.05 0.05 0.10 0.15 0.09 0.14 0.17 0.23 0.30 0.25 0.28 0.46 1.04 0.83 0.62 0.42 0.43 0.35 0.19 0.18 0.05 0.01 0.00
0.42 0.81 0.87 1.60 3.08 2.97 2.53 2.76 2.74 1.67 1.23 0.79 0.29 0.10 0.03 0.01 0.00 0.00 0.00 0.00 0.00 0.00 0.00 0.00 0.01 0.00 0.07 0.19 0.31 0.23 0.18 0.20 0.17 0.18 0.41 0.44 0.38 0.54 0.86 0.73 0.79 0.48 0.51 0.46 0.41 0.12 0.02 0.03 0.01
0.39 0.71 1.25 1.38 2.18 3.36 2.92 2.21 2.58 1.25 0.89 1.14 0.54 0.17 0.07 0.01 0.01 0.01 0.00 0.00 0.00 0.00 0.00 0.00 0.02 0.08 0.13 0.14 0.10 0.12 0.21 0.12 0.16 0.28 0.36 0.48 0.43 0.42 0.58 0.69 0.71 0.93 0.84 0.87 0.31 0.12 0.03 0.01 0.00
0.11 0.37 1.39 1.61 2.00 1.93 2.71 2.03 2.02 1.93 0.99 0.75 0.75 0.27 0.11 0.04 0.01 0.00 0.00 0.00 0.01 0.00 0.00 0.00 0.07 0.14 0.13 0.08 0.14 0.15 0.13 0.12 0.21 0.38 0.44 0.22 0.32 0.41 0.35 0.65 0.47 0.67 0.62 0.45 0.37 0.47 0.30 0.55 0.04
0.13 0.14 0.88 1.93 1.83 1.90 1.68 2.24 1.73 1.85 1.77 0.93 0.92 0.51 0.31 0.05 0.06 0.01 0.00 0.00 0.02 0.01 0.00 0.00 0.06 0.16 0.15 0.20 0.18 0.49 0.58 0.65 0.78 0.54 0.31 0.16 0.22 0.24 0.40 0.49 0.65 0.67 0.62 0.59 0.32 0.18 0.24 0.49 0.08
0.16 0.16 0.41 1.18 1.44 1.47 1.35 1.42 1.53 1.24 1.61 1.93 1.26 0.43 0.22 0.11 0.08 0.07 0.00 0.01 0.01 0.01 0.00 0.00 0.02 0.17 0.16 0.16 0.23 0.50 0.60 0.61 0.49 0.39 0.55 0.35 0.14 0.14 0.20 0.29 0.36 0.51 1.15 1.12 0.40 0.28 0.21 0.21 0.39
0.04 0.07 0.25 0.66 0.97 0.93 0.80 0.76 0.72 1.12 1.22 1.72 1.34 0.39 0.28 0.22 0.12 0.11 0.02 0.03 0.04 0.00 0.00 0.00 0.00 0.15 0.15 0.22 0.57 0.34 0.20 0.44 0.43 0.42 1.00 0.50 0.28 0.12 0.17 0.26 0.38 0.26 0.39 0.38 0.37 0.29 0.18 0.16 0.25
0.02 0.06 0.09 0.32 0.99 0.58 0.25 0.35 0.35 0.70 0.81 1.06 0.91 0.63 0.36 0.13 0.15 0.16 0.08 0.05 0.04 0.01 0.00 0.00 0.00 0.04 0.12 0.19 0.18 0.32 0.45 0.61 0.99 1.13 0.94 0.39 0.22 0.16 0.12 0.15 0.30 0.32 0.45 0.43 0.25 0.23 0.12 0.08 0.13
0.01 0.02 0.16 0.23 0.50 0.44 0.12 0.16 0.30 0.13 0.65 0.76 0.67 0.58 0.40 0.25 0.24 0.18 0.10 0.13 0.10 0.02 0.00 0.00 0.00 0.01 0.04 0.11 0.08 0.17 0.29 0.48 0.80 0.92 0.47 0.44 0.57 0.59 0.33 0.41 0.60 0.28 0.20 0.23 0.23 0.32 0.22 0.10 0.10
0.01 0.01 0.02 0.05 0.11 0.23 0.20 0.36 0.14 0.05 0.15 0.25 0.27 0.24 0.53 0.37 0.36 0.39 0.26 0.30 0.38 0.18 0.02 0.06 0.02 0.02 0.01 0.08 0.07 0.13 0.22 0.21 0.32 0.46 0.69 0.67 0.73 0.80 0.45 0.49 0.45 0.32 0.18 0.12 0.18 0.13 0.06 0.06 0.04
0.02 0.01 0.03 0.04 0.07 0.12 0.29 0.45 0.15 0.14 0.22 0.08 0.14 0.19 0.34 0.64 0.76 0.53 0.30 0.45 0.89 0.58 0.28 0.07 0.08 0.07 0.06 0.04 0.07 0.17 0.20 0.16 0.16 0.43 0.59 0.51 0.66 0.83 0.95 0.47 0.37 0.29 0.25 0.12 0.14 0.09 0.11 0.19 0.20
0.00 0.06 0.07 0.06 0.08 0.08 0.27 0.78 0.43 0.15 0.12 0.15 0.14 0.19 0.17 0.67 1.61 1.81 1.38 0.73 0.84 1.36 1.17 0.75 0.24 0.15 0.22 0.08 0.12 0.25 0.16 0.16 0.22 0.28 0.44 0.57 0.73 1.88 1.69 0.81 0.45 0.38 0.29 0.32 0.24 0.10 0.06 0.08 0.09
0.00 0.02 0.05 0.04 0.03 0.03 0.14 0.29 0.27 0.26 0.13 0.08 0.12 0.23 0.28 0.43 1.41 2.71 2.72 2.30 1.36 1.68 1.14 1.79 0.99 0.76 0.70 0.57 0.50 0.62 0.33 0.16 0.17 0.23 0.36 0.53 0.64 0.76 0.84 1.31 0.55 0.66 0.57 0.38 0.43 0.37 0.26 0.23 0.15
0.00 0.00 0.00 0.02 0.01 0.02 0.03 0.20 0.26 0.38 0.19 0.10 0.27 0.31 0.31 0.47 0.84 1.59 2.29 2.52 1.96 1.76 1.33 1.46 2.10 1.50 1.31 1.25 1.42 0.94 0.94 0.77 0.46 0.32 0.31 0.43 0.55 0.59 0.70 0.66 0.81 0.89 0.61 0.71 0.58 0.56 0.53 0.50 0.31

GFSSGP_prec_precacc_141.txt.gz
Total_Precipitation_Accumulation
0.05 0.19 0.54 1.42 3.40 1.97 2.68 1.74 1.98 1.11 0.40 0.22 0.12 0.16 0.27 0.29 0.56 0.65 0.19 0.36 0.18 0.24 0.18 1.10 1.57 1.23 1.18 0.86 0.77 0.70 0.68 0.55 0.62 0.56 0.46 0.35 0.34 0.41 0.63 0.55 0.57 0.62 0.53 0.43 0.42 0.64 0.65 0.49 0.39
0.10 0.49 1.30 3.75 3.01 3.35 3.94 2.21 2.28 1.25 0.55 0.40 0.17 0.12 0.12 0.08 0.17 0.06 0.15 0.22 0.07 0.05 0.12 0.35 1.22 1.20 1.00 0.82 0.69 0.63 0.77 0.73 0.83 0.58 0.45 0.44 0.71 0.65 0.57 0.40 0.55 0.70 0.65 0.67 0.69 0.64 0.59 0.50 0.65
0.15 1.27 3.50 4.12 1.87 2.80 2.41 2.77 3.05 1.27 0.58 0.39 0.32 0.30 0.19 0.21 0.08 0.06 0.10 0.10 0.09 0.11 0.09 0.23 0.70 0.80 0.71 0.79 0.80 0.67 0.72 0.65 0.75 0.71 0.52 0.62 0.68 0.62 0.56 0.62 0.55 0.76 0.66 0.69 0.76 0.63 0.71 0.73 1.01
0.33 3.29 4.42 3.65 3.19 2.67 1.50 1.60 1.58 2.04 1.11 0.80 0.48 0.31 0.22 0.21 0.02 0.03 0.08 0.11 0.10 0.26 0.09 0.21 0.41 0.52 0.56 0.63 0.48 0.56 0.65 0.69 0.75 0.67 0.51 0.57 0.75 0.78 0.91 1.04 0.84 0.60 0.55 0.47 0.44 0.46 0.55 0.68 0.80
0.56 3.02 3.88 3.83 2.98 1.75 1.23 1.44 2.81 3.59 1.96 1.44 0.45 0.25 0.18 0.10 0.01 0.01 0.03 0.07 0.12 0.62 0.12 0.17 0.68 0.50 0.53 0.58 0.76 0.79 0.65 0.62 0.76 0.79 0.73 0.73 0.73 0.65 0.94 0.72 0.66 0.53 0.27 0.25 0.27 0.29 0.53 0.64 1.00
1.46 2.91 3.44 3.37 1.50 0.96 1.53 1.81 2.19 2.07 1.36 0.60 0.39 0.17 0.18 0.07 0.03 0.02 0.08 0.12 0.28 0.24 0.09 0.14 0.50 0.53 0.57 0.58 0.83 0.71 0.59 0.63 0.77 0.66 0.74 0.62 0.89 0.69 0.65 0.54 0.30 0.09 0.05 0.12 0.13 0.46 0.67 0.90 0.83
1.65 4.36 3.27 2.27 1.41 1.74 1.53 1.46 1.44 1.54 0.83 0.41 0.37 0.10 0.14 0.09 0.07 0.06 0.16 0.16 0.13 0.10 0.15 0.16 0.25 0.41 0.52 0.73 0.83 0.65 0.50 0.60 0.61 0.52 0.56 0.47 0.47 0.48 0.53 0.36 0.17 0.07 0.11 0.21 0.22 0.37 0.50 0.66 0.47
1.03 3.14 4.45 2.57 1.09 2.49 1.49 1.22 1.35 1.12 0.75 0.26 0.18 0.09 0.06 0.04 0.17 0.27 0.30 0.24 0.36 0.33 0.23 0.15 0.20 0.32 0.34 0.52 0.81 0.47 0.42 0.53 0.54 0.44 0.55 0.66 0.35 0.43 0.46 0.46 0.33 0.16 0.15 0.16 0.23 0.35 0.46 0.62 0.55
1.46 4.83 3.85 2.24 0.78 2.23 1.25 1.23 1.04 0.82 0.29 0.23 0.24 0.08 0.00 0.00 0.05 0.09 0.07 0.18 0.27 0.41 0.20 0.24 0.29 0.33 0.79 0.58 0.67 0.67 0.64 0.64 0.56 0.57 0.95 1.53 0.62 0.80 0.89 0.50 0.22 0.16 0.19 0.17 0.24 0.26 0.45 0.46 0.32
2.30 4.06 2.29 1.11 0.32 0.77 1.95 1.32 1.07 0.73 0.43 0.28 0.19 0.06 0.01 0.01 0.01 0.03 0.02 0.05 0.16 0.19 0.45 0.37 0.17 0.16 0.29 0.32 0.52 0.66 0.45 0.47 0.51 0.53 0.81 1.24 0.58 0.52 0.37 0.38 0.34 0.29 0.32 0.40 0.45 0.43 0.59 1.00 0.46
2.01 3.57 1.74 0.46 0.38 0.40 1.22 1.00 0.65 0.77 0.45 0.21 0.09 0.05 0.01 0.00 0.00 0.02 0.02 0.02 0.04 0.08 0.11 0.32 0.11 0.25 0.26 0.24 0.08 0.29 0.29 0.12 0.24 0.41 0.59 0.98 0.50 0.41 0.55 0.58 1.07 0.59 0.49 0.77 0.76 0.42 0.43 1.04 0.43
0.84 0.91 1.37 1.08 0.77 0.37 0.91 2.04 0.63 1.47 1.59 0.33 0.18 0.02 0.00 0.00 0.00 0.01 0.00 0.02 0.03 0.04 0.07 0.13 0.12 0.29 0.50 0.31 0.30 0.19 0.10 0.04 0.19 0.25 0.18 0.29 0.35 0.46 0.72 0.78 1.02 0.84 0.75 1.31 0.60 0.23 0.19 0.29 0.23
0.57 0.67 0.95 1.09 0.39 0.40 0.60 0.96 0.80 0.99 0.71 0.35 0.25 0.04 0.01 0.01 0.01 0.02 0.01 0.03 0.02 0.02 0.05 0.07 0.05 0.20 0.40 0.47 0.20 0.28 0.10 0.06 0.03 0.07 0.17 0.41 0.34 0.42 0.61 0.54 0.81 0.62 0.53 1.09 0.31 0.23 0.14 0.04 0.03
0.40 0.62 1.05 1.45 1.06 0.74 0.66 0.81 0.56 0.64 0.43 0.43 0.28 0.03 0.00 0.01 0.00 0.01 0.02 0.02 0.03 0.02 0.00 0.03 0.04 0.12 0.28 0.61 0.36 0.15 0.16 0.02 0.02 0.12 0.23 0.41 0.32 0.55 0.63 0.65 0.40 0.35 0.39 0.36 0.28 0.25 0.35 0.02 0.00
0.32 0.61 1.07 1.45 1.82 1.73 1.14 1.88 1.28 0.66 0.57 0.37 0.16 0.02 0.00 0.00 0.00 0.00 0.00 0.00 0.00 0.00 0.00 0.00 0.01 0.09 0.13 0.25 0.20 0.09 0.17 0.06 0.05 0.10 0.32 0.46 0.42 0.59 0.75 0.54 0.45 0.50 0.40 0.26 0.28 0.17 0.28 0.03 0.01
0.53 0.61 1.23 2.15 2.07 2.28 1.50 2.66 2.19 1.46 1.72 0.30 0.11 0.01 0.00 0.00 0.00 0.00 0.00 0.00 0.00 0.00 0.00 0.00 0.00 0.02 0.09 0.11 0.07 0.09 0.06 0.09 0.06 0.21 0.13 0.25 0.47 0.51 0.64 0.59 0.54 0.59 0.96 0.40 0.31 0.22 0.11 0.01 0.01
0.70 0.74 0.96 2.69 2.72 2.82 2.15 2.95 2.84 1.36 1.10 0.34 0.13 0.04 0.00 0.01 0.00 0.00 0.00 0.00 0.00 0.00 0.00 0.01 0.00 0.01 0.05 0.05 0.10 0.15 0.09 0.14 0.17 0.23 0.30 0.25 0.28 0.46 1.04 0.83 0.62 0.42 0.43 0.35 0.19 0.18 0.05 0.01 0.00
0.42 0.81 0.87 1.60 3.09 2.97 2.53 2.76 2.74 1.67 1.27 0.84 0.29 0.10 0.03 0.01 0.00 0.00 0.00 0.00 0.00 0.00 0.00 0.00 0.01 0.00 0.07 0.19 0.31 0.23 0.18 0.20 0.17 0.18 0.41 0.44 0.38 0.54 0.86 0.73 0.79 0.48 0.51 0.46 0.41 0.12 0.02 0.03 0.01
0.39 0.71 1.25 1.38 2.18 3.36 2.92 2.21 2.58 1.25 0.89 1.15 0.54 0.17 0.07 0.01 0.01 0.01 0.00 0.00 0.00 0.00 0.00 0.00 0.02 0.08 0.13 0.14 0.10 0.12 0.21 0.12 0.16 0.28 0.36 0.48 0.43 0.42 0.58 0.69 0.71 0.93 0.84 0.87 0.31 0.12 0.03 0.01 0.00
0.11 0.37 1.39 1.61 2.00 1.93 2.71 2.03 2.02 1.93 0.99 0.75 0.75 0.27 0.11 0.04 0.01 0.00 0.00 0.00 0.01 0.00 0.00 0.00 0.07 0.14 0.13 0.08 0.14 0.15 0.13 0.12 0.21 0.38 0.44 0.22 0.32 0.41 0.35 0.65 0.47 0.67 0.62 0.45 0.37 0.47 0.30 0.55 0.04
0.13 0.14 0.88 1.93 1.83 1.90 1.68 2.24 1.73 1.85 1.77 0.93 0.92 0.51 0.31 0.05 0.06 0.01 0.00 0.00 0.02 0.01 0.00 0.00 0.06 0.16 0.15 0.20 0.18 0.49 0.58 0.65 0.78 0.54 0.31 0.16 0.22 0.24 0.40 0.49 0.65 0.67 0.62 0.59 0.32 0.18 0.24 0.49 0.08
0.16 0.16 0.41 1.18 1.44 1.47 1.35 1.42 1.53 1.24 1.61 1.93 1.26 0.43 0.22 0.11 0.08 0.07 0.00 0.01 0.01 0.01 0.00 0.00 0.02 0.17 0.16 0.16 0.23 0.50 0.60 0.61 0.49 0.39 0.55 0.35 0.14 0.14 0.20 0.29 0.36 0.51 1.15 1.12 0.40 0.28 0.21 0.21 0.39
0.04 0.07 0.25 0.66 0.98 0.94 0.80 0.76 0.72 1.12 1.22 1.72 1.34 0.39 0.28 0.22 0.12 0.11 0.02 0.03 0.04 0.00 0.00 0.00 0.00 0.15 0.15 0.22 0.57 0.34 0.20 0.44 0.43 0.42 1.00 0.50 0.28 0.12 0.17 0.26 0.38 0.26 0.39 0.38 0.37 0.29 0.18 0.16 0.25
0.02 0.06 0.09 0.33 1.00 0.60 0.25 0.35 0.35 0.70 0.81 1.06 0.91 0.63 0.36 0.13 0.15 0.16 0.09 0.06 0.04 0.01 0.00 0.00 0.00 0.04 0.12 0.19 0.18 0.32 0.45 0.61 0.99 1.13 0.94 0.39 0.22 0.16 0.12 0.15 0.30 0.32 0.45 0.43 0.25 0.23 0.12 0.09 0.14
0.01 0.02 0.16 0.24 0.52 0.44 0.12 0.16 0.30 0.13 0.65 0.76 0.67 0.58 0.40 0.25 0.24 0.18 0.11 0.13 0.10 0.02 0.00 0.00 0.00 0.01 0.04 0.11 0.08 0.17 0.29 0.48 0.80 0.94 0.47 0.44 0.57 0.59 0.33 0.41 0.61 0.28 0.20 0.23 0.23 0.34 0.26 0.11 0.11
0.01 0.01 0.02 0.05 0.11 0.23 0.20 0.36 0.14 0.05 0.15 0.25 0.27 0.24 0.53 0.37 0.36 0.39 0.26 0.30 0.38 0.18 0.02 0.06 0.02 0.02 0.01 0.08 0.07 0.13 0.22 0.21 0.32 0.46 0.69 0.67 0.73 0.80 0.45 0.49 0.45 0.32 0.18 0.13 0.19 0.14 0.09 0.06 0.05
0.02 0.01 0.03 0.04 0.07 0.12 0.29 0.45 0.15 0.14 0.22 0.08 0.14 0.19 0.34 0.64 0.76 0.53 0.30 0.45 0.89 0.58 0.28 0.07 0.08 0.07 0.06 0.04 0.07 0.17 0.20 0.16 0.16 0.43 0.59 0.51 0.66 0.83 0.95 0.47 0.37 0.29 0.25 0.12 0.14 0.10 0.14 0.20 0.20
0.00 0.06 0.07 0.06 0.08 0.08 0.27 0.78 0.43 0.15 0.12 0.15 0.14 0.19 0.17 0.67 1.61 1.81 1.38 0.73 0.85 1.36 1.17 0.75 0.24 0.15 0.22 0.08 0.12 0.25 0.16 0.16 0.22 0.28 0.44 0.57 0.73 1.88 1.69 0.81 0.45 0.38 0.29 0.32 0.24 0.10 0.07 0.10 0.09
0.00 0.02 0.05 0.04 0.03 0.03 0.14 0.29 0.27 0.26 0.13 0.08 0.12 0.23 0.28 0.43 1.41 2.71 2.72 2.30 1.37 1.69 1.14 1.79 0.99 0.76 0.70 0.57 0.50 0.62 0.33 0.16 0.17 0.23 0.36 0.53 0.64 0.76 0.84 1.31 0.55 0.66 0.57 0.40 0.44 0.37 0.28 0.25 0.17
0.00 0.00 0.00 0.02 0.01 0.02 0.03 0.20 0.26 0.38 0.19 0.10 0.27 0.31 0.31 0.47 0.84 1.59 2.29 2.52 1.96 1.76 1.33 1.46 2.10 1.50 1.32 1.26 1.42 0.94 0.94 0.77 0.46 0.32 0.31 0.43 0.55 0.59 0.70 0.67 0.82 0.89 0.62 0.76 0.61 0.58 0.53 0.50 0.32